<?xml version="1.0" encoding="ISO-8859-1"?>
<gpx xmlns="http://www.topografix.com/GPX/1/1" 
version="1.1" creator="Sports Tracker" 
xmlns:xsi="http://www.w3.org/2001/XMLSchema-instance" 
xsi:schemaLocation="http://www.topografix.com/GPX/1/1 
http://www.topografix.com/GPX/1/1/gpx.xsd 
http://www.garmin.com/xmlschemas/GpxExtensions/v3 
http://www.garmin.com/xmlschemas/GpxExtensionsv3.xsd 
http://www.garmin.com/xmlschemas/TrackPointExtension/v1 
http://www.garmin.com/xmlschemas/TrackPointExtensionv1.xsd" 
xmlns:gpxtpx="http://www.garmin.com/xmlschemas/TrackPointExtension/v1" 
xmlns:gpxx="http://www.garmin.com/xmlschemas/GpxExtensions/v3">
<metadata>
<name><![CDATA[07/07/2013 17:21]]></name>
<desc><![CDATA[PARAPENTE]]></desc>
<author><name><![CDATA[Pat]]></name></author>
<link href="www.sports-tracker.com">
<text>Sports Tracker</text>
</link>
<time>2013-07-07T17:46:47.85</time>
</metadata>
<trk>
<name><![CDATA[07/07/2013 17:21]]></name>
<trkseg>
<trkpt lat="42.872887" lon="-2.163437">
<ele>1839.0</ele>
<desc>Speed 22.0 km/h Distance 0.00 km</desc>
<time>2013-07-07T17:46:48.11</time>
<name>1</name>
<sym>Crossing</sym>
</trkpt>
<trkpt lat="42.872950" lon="-2.163423">
<ele>1838.0</ele>
<desc>Speed 23.9 km/h Distance 0.01 km</desc>
<time>2013-07-07T17:46:49.11</time>
<name>2</name>
<sym>Dot</sym>
</trkpt>
<trkpt lat="42.873013" lon="-2.163405">
<ele>1838.0</ele>
<desc>Speed 25.1 km/h Distance 0.01 km</desc>
<time>2013-07-07T17:46:50.16</time>
<name>3</name>
<sym>Dot</sym>
</trkpt>
<trkpt lat="42.873075" lon="-2.163382">
<ele>1837.5</ele>
<desc>Speed 25.1 km/h Distance 0.02 km</desc>
<time>2013-07-07T17:46:51.10</time>
<name>4</name>
<sym>Dot</sym>
</trkpt>
<trkpt lat="42.873137" lon="-2.163358">
<ele>1837.5</ele>
<desc>Speed 24.3 km/h Distance 0.03 km</desc>
<time>2013-07-07T17:46:52.09</time>
<name>5</name>
<sym>Dot</sym>
</trkpt>
<trkpt lat="42.873195" lon="-2.163333">
<ele>1837.0</ele>
<desc>Speed 23.5 km/h Distance 0.04 km</desc>
<time>2013-07-07T17:46:53.08</time>
<name>6</name>
<sym>Dot</sym>
</trkpt>
<trkpt lat="42.873252" lon="-2.163305">
<ele>1837.0</ele>
<desc>Speed 23.3 km/h Distance 0.04 km</desc>
<time>2013-07-07T17:46:54.08</time>
<name>7</name>
<sym>Dot</sym>
</trkpt>
<trkpt lat="42.873312" lon="-2.163277">
<ele>1836.5</ele>
<desc>Speed 23.9 km/h Distance 0.05 km</desc>
<time>2013-07-07T17:46:55.07</time>
<name>8</name>
<sym>Dot</sym>
</trkpt>
<trkpt lat="42.873372" lon="-2.163243">
<ele>1835.5</ele>
<desc>Speed 25.4 km/h Distance 0.06 km</desc>
<time>2013-07-07T17:46:56.07</time>
<name>9</name>
<sym>Dot</sym>
</trkpt>
<trkpt lat="42.873433" lon="-2.163205">
<ele>1835.0</ele>
<desc>Speed 26.9 km/h Distance 0.06 km</desc>
<time>2013-07-07T17:46:57.16</time>
<name>10</name>
<sym>Dot</sym>
</trkpt>
<trkpt lat="42.873497" lon="-2.163160">
<ele>1835.0</ele>
<desc>Speed 28.2 km/h Distance 0.07 km</desc>
<time>2013-07-07T17:46:58.05</time>
<name>11</name>
<sym>Dot</sym>
</trkpt>
<trkpt lat="42.873562" lon="-2.163115">
<ele>1835.0</ele>
<desc>Speed 28.8 km/h Distance 0.08 km</desc>
<time>2013-07-07T17:46:59.05</time>
<name>12</name>
<sym>Dot</sym>
</trkpt>
<trkpt lat="42.873627" lon="-2.163068">
<ele>1835.5</ele>
<desc>Speed 28.6 km/h Distance 0.09 km</desc>
<time>2013-07-07T17:47:00.04</time>
<name>13</name>
<sym>Dot</sym>
</trkpt>
<trkpt lat="42.873687" lon="-2.163022">
<ele>1836.0</ele>
<desc>Speed 27.6 km/h Distance 0.10 km</desc>
<time>2013-07-07T17:47:01.03</time>
<name>14</name>
<sym>Dot</sym>
</trkpt>
<trkpt lat="42.873745" lon="-2.162972">
<ele>1836.5</ele>
<desc>Speed 26.9 km/h Distance 0.10 km</desc>
<time>2013-07-07T17:47:02.02</time>
<name>15</name>
<sym>Dot</sym>
</trkpt>
<trkpt lat="42.873802" lon="-2.162918">
<ele>1836.0</ele>
<desc>Speed 27.3 km/h Distance 0.11 km</desc>
<time>2013-07-07T17:47:03.02</time>
<name>16</name>
<sym>Dot</sym>
</trkpt>
<trkpt lat="42.873860" lon="-2.162860">
<ele>1836.0</ele>
<desc>Speed 28.9 km/h Distance 0.12 km</desc>
<time>2013-07-07T17:47:04.09</time>
<name>17</name>
<sym>Dot</sym>
</trkpt>
<trkpt lat="42.873922" lon="-2.162797">
<ele>1835.5</ele>
<desc>Speed 30.2 km/h Distance 0.13 km</desc>
<time>2013-07-07T17:47:05.01</time>
<name>18</name>
<sym>Dot</sym>
</trkpt>
<trkpt lat="42.873982" lon="-2.162728">
<ele>1834.5</ele>
<desc>Speed 31.2 km/h Distance 0.14 km</desc>
<time>2013-07-07T17:47:06.00</time>
<name>19</name>
<sym>Dot</sym>
</trkpt>
<trkpt lat="42.874042" lon="-2.162653">
<ele>1834.0</ele>
<desc>Speed 32.0 km/h Distance 0.15 km</desc>
<time>2013-07-07T17:47:07.00</time>
<name>20</name>
<sym>Dot</sym>
</trkpt>
<trkpt lat="42.874102" lon="-2.162577">
<ele>1833.5</ele>
<desc>Speed 32.5 km/h Distance 0.15 km</desc>
<time>2013-07-07T17:47:07.99</time>
<name>21</name>
<sym>Dot</sym>
</trkpt>
<trkpt lat="42.874160" lon="-2.162498">
<ele>1832.5</ele>
<desc>Speed 32.6 km/h Distance 0.16 km</desc>
<time>2013-07-07T17:47:08.99</time>
<name>22</name>
<sym>Dot</sym>
</trkpt>
<trkpt lat="42.874217" lon="-2.162420">
<ele>1832.5</ele>
<desc>Speed 32.1 km/h Distance 0.17 km</desc>
<time>2013-07-07T17:47:09.99</time>
<name>23</name>
<sym>Dot</sym>
</trkpt>
<trkpt lat="42.874273" lon="-2.162342">
<ele>1832.0</ele>
<desc>Speed 32.0 km/h Distance 0.18 km</desc>
<time>2013-07-07T17:47:11.03</time>
<name>24</name>
<sym>Dot</sym>
</trkpt>
<trkpt lat="42.874327" lon="-2.162260">
<ele>1831.0</ele>
<desc>Speed 32.1 km/h Distance 0.19 km</desc>
<time>2013-07-07T17:47:11.98</time>
<name>25</name>
<sym>Dot</sym>
</trkpt>
<trkpt lat="42.874380" lon="-2.162172">
<ele>1830.0</ele>
<desc>Speed 33.0 km/h Distance 0.20 km</desc>
<time>2013-07-07T17:47:12.98</time>
<name>26</name>
<sym>Dot</sym>
</trkpt>
<trkpt lat="42.874435" lon="-2.162083">
<ele>1829.5</ele>
<desc>Speed 33.9 km/h Distance 0.21 km</desc>
<time>2013-07-07T17:47:13.97</time>
<name>27</name>
<sym>Dot</sym>
</trkpt>
<trkpt lat="42.874490" lon="-2.161992">
<ele>1828.5</ele>
<desc>Speed 34.3 km/h Distance 0.22 km</desc>
<time>2013-07-07T17:47:14.96</time>
<name>28</name>
<sym>Dot</sym>
</trkpt>
<trkpt lat="42.874540" lon="-2.161898">
<ele>1828.5</ele>
<desc>Speed 34.0 km/h Distance 0.23 km</desc>
<time>2013-07-07T17:47:15.96</time>
<name>29</name>
<sym>Dot</sym>
</trkpt>
<trkpt lat="42.874578" lon="-2.161797">
<ele>1829.0</ele>
<desc>Speed 33.1 km/h Distance 0.24 km</desc>
<time>2013-07-07T17:47:16.95</time>
<name>30</name>
<sym>Dot</sym>
</trkpt>
<trkpt lat="42.874590" lon="-2.161675">
<ele>1828.0</ele>
<desc>Speed 36.1 km/h Distance 0.25 km</desc>
<time>2013-07-07T17:47:18.00</time>
<name>31</name>
<sym>Dot</sym>
</trkpt>
<trkpt lat="42.874593" lon="-2.161545">
<ele>1827.5</ele>
<desc>Speed 38.2 km/h Distance 0.26 km</desc>
<time>2013-07-07T17:47:18.94</time>
<name>32</name>
<sym>Dot</sym>
</trkpt>
<trkpt lat="42.874580" lon="-2.161408">
<ele>1826.0</ele>
<desc>Speed 41.0 km/h Distance 0.27 km</desc>
<time>2013-07-07T17:47:19.93</time>
<name>33</name>
<sym>Dot</sym>
</trkpt>
<trkpt lat="42.874567" lon="-2.161262">
<ele>1825.5</ele>
<desc>Speed 43.4 km/h Distance 0.28 km</desc>
<time>2013-07-07T17:47:20.93</time>
<name>34</name>
<sym>Dot</sym>
</trkpt>
<trkpt lat="42.874543" lon="-2.161110">
<ele>1825.0</ele>
<desc>Speed 45.5 km/h Distance 0.29 km</desc>
<time>2013-07-07T17:47:21.92</time>
<name>35</name>
<sym>Dot</sym>
</trkpt>
<trkpt lat="42.874510" lon="-2.160958">
<ele>1825.0</ele>
<desc>Speed 46.4 km/h Distance 0.31 km</desc>
<time>2013-07-07T17:47:22.91</time>
<name>36</name>
<sym>Dot</sym>
</trkpt>
<trkpt lat="42.874463" lon="-2.160810">
<ele>1824.5</ele>
<desc>Speed 47.5 km/h Distance 0.32 km</desc>
<time>2013-07-07T17:47:23.91</time>
<name>37</name>
<sym>Dot</sym>
</trkpt>
<trkpt lat="42.874400" lon="-2.160670">
<ele>1824.0</ele>
<desc>Speed 48.1 km/h Distance 0.33 km</desc>
<time>2013-07-07T17:47:24.96</time>
<name>38</name>
<sym>Dot</sym>
</trkpt>
<trkpt lat="42.874337" lon="-2.160523">
<ele>1823.0</ele>
<desc>Speed 50.0 km/h Distance 0.35 km</desc>
<time>2013-07-07T17:47:25.89</time>
<name>39</name>
<sym>Dot</sym>
</trkpt>
<trkpt lat="42.874267" lon="-2.160377">
<ele>1822.5</ele>
<desc>Speed 51.6 km/h Distance 0.36 km</desc>
<time>2013-07-07T17:47:26.89</time>
<name>40</name>
<sym>Dot</sym>
</trkpt>
<trkpt lat="42.874187" lon="-2.160233">
<ele>1821.5</ele>
<desc>Speed 53.0 km/h Distance 0.38 km</desc>
<time>2013-07-07T17:47:27.88</time>
<name>41</name>
<sym>Dot</sym>
</trkpt>
<trkpt lat="42.874098" lon="-2.160093">
<ele>1820.5</ele>
<desc>Speed 54.8 km/h Distance 0.39 km</desc>
<time>2013-07-07T17:47:28.88</time>
<name>42</name>
<sym>Dot</sym>
</trkpt>
<trkpt lat="42.873997" lon="-2.159957">
<ele>1820.5</ele>
<desc>Speed 57.3 km/h Distance 0.41 km</desc>
<time>2013-07-07T17:47:29.87</time>
<name>43</name>
<sym>Dot</sym>
</trkpt>
<trkpt lat="42.873890" lon="-2.159827">
<ele>1820.0</ele>
<desc>Speed 57.7 km/h Distance 0.42 km</desc>
<time>2013-07-07T17:47:30.87</time>
<name>44</name>
<sym>Dot</sym>
</trkpt>
<trkpt lat="42.873770" lon="-2.159710">
<ele>1821.5</ele>
<desc>Speed 59.3 km/h Distance 0.44 km</desc>
<time>2013-07-07T17:47:31.93</time>
<name>45</name>
<sym>Dot</sym>
</trkpt>
<trkpt lat="42.873645" lon="-2.159600">
<ele>1821.0</ele>
<desc>Speed 59.5 km/h Distance 0.46 km</desc>
<time>2013-07-07T17:47:32.86</time>
<name>46</name>
<sym>Dot</sym>
</trkpt>
<trkpt lat="42.873515" lon="-2.159510">
<ele>1822.0</ele>
<desc>Speed 58.9 km/h Distance 0.47 km</desc>
<time>2013-07-07T17:47:33.86</time>
<name>47</name>
<sym>Dot</sym>
</trkpt>
<trkpt lat="42.873377" lon="-2.159440">
<ele>1821.5</ele>
<desc>Speed 60.3 km/h Distance 0.49 km</desc>
<time>2013-07-07T17:47:34.85</time>
<name>48</name>
<sym>Dot</sym>
</trkpt>
<trkpt lat="42.873225" lon="-2.159393">
<ele>1820.0</ele>
<desc>Speed 63.2 km/h Distance 0.51 km</desc>
<time>2013-07-07T17:47:35.86</time>
<name>49</name>
<sym>Dot</sym>
</trkpt>
<trkpt lat="42.873078" lon="-2.159355">
<ele>1819.5</ele>
<desc>Speed 61.1 km/h Distance 0.52 km</desc>
<time>2013-07-07T17:47:36.85</time>
<name>50</name>
<sym>Dot</sym>
</trkpt>
<trkpt lat="42.872928" lon="-2.159332">
<ele>1819.5</ele>
<desc>Speed 60.8 km/h Distance 0.54 km</desc>
<time>2013-07-07T17:47:37.84</time>
<name>51</name>
<sym>Dot</sym>
</trkpt>
<trkpt lat="42.872773" lon="-2.159342">
<ele>1819.0</ele>
<desc>Speed 62.2 km/h Distance 0.56 km</desc>
<time>2013-07-07T17:47:38.91</time>
<name>52</name>
<sym>Dot</sym>
</trkpt>
<trkpt lat="42.872465" lon="-2.159433">
<ele>1819.0</ele>
<desc>Speed 61.0 km/h Distance 0.59 km</desc>
<time>2013-07-07T17:47:40.83</time>
<name>53</name>
<sym>Dot</sym>
</trkpt>
<trkpt lat="42.872333" lon="-2.159523">
<ele>1818.5</ele>
<desc>Speed 58.9 km/h Distance 0.61 km</desc>
<time>2013-07-07T17:47:41.83</time>
<name>54</name>
<sym>Dot</sym>
</trkpt>
<trkpt lat="42.872223" lon="-2.159627">
<ele>1819.5</ele>
<desc>Speed 53.9 km/h Distance 0.62 km</desc>
<time>2013-07-07T17:47:42.82</time>
<name>55</name>
<sym>Dot</sym>
</trkpt>
<trkpt lat="42.872128" lon="-2.159738">
<ele>1819.5</ele>
<desc>Speed 50.9 km/h Distance 0.64 km</desc>
<time>2013-07-07T17:47:43.81</time>
<name>56</name>
<sym>Dot</sym>
</trkpt>
<trkpt lat="42.872045" lon="-2.159848">
<ele>1819.5</ele>
<desc>Speed 46.9 km/h Distance 0.65 km</desc>
<time>2013-07-07T17:47:44.84</time>
<name>57</name>
<sym>Dot</sym>
</trkpt>
<trkpt lat="42.871973" lon="-2.159958">
<ele>1819.5</ele>
<desc>Speed 43.4 km/h Distance 0.66 km</desc>
<time>2013-07-07T17:47:45.97</time>
<name>58</name>
<sym>Dot</sym>
</trkpt>
<trkpt lat="42.871917" lon="-2.160068">
<ele>1820.0</ele>
<desc>Speed 40.2 km/h Distance 0.67 km</desc>
<time>2013-07-07T17:47:46.79</time>
<name>59</name>
<sym>Dot</sym>
</trkpt>
<trkpt lat="42.871870" lon="-2.160178">
<ele>1819.5</ele>
<desc>Speed 37.7 km/h Distance 0.68 km</desc>
<time>2013-07-07T17:47:47.79</time>
<name>60</name>
<sym>Dot</sym>
</trkpt>
<trkpt lat="42.871832" lon="-2.160288">
<ele>1819.0</ele>
<desc>Speed 36.5 km/h Distance 0.69 km</desc>
<time>2013-07-07T17:47:48.78</time>
<name>61</name>
<sym>Dot</sym>
</trkpt>
<trkpt lat="42.871800" lon="-2.160403">
<ele>1818.5</ele>
<desc>Speed 36.4 km/h Distance 0.70 km</desc>
<time>2013-07-07T17:47:49.77</time>
<name>62</name>
<sym>Dot</sym>
</trkpt>
<trkpt lat="42.871773" lon="-2.160520">
<ele>1818.0</ele>
<desc>Speed 36.5 km/h Distance 0.71 km</desc>
<time>2013-07-07T17:47:50.77</time>
<name>63</name>
<sym>Dot</sym>
</trkpt>
<trkpt lat="42.871752" lon="-2.160633">
<ele>1817.5</ele>
<desc>Speed 35.0 km/h Distance 0.72 km</desc>
<time>2013-07-07T17:47:51.75</time>
<name>64</name>
<sym>Dot</sym>
</trkpt>
<trkpt lat="42.871740" lon="-2.160728">
<ele>1817.5</ele>
<desc>Speed 28.3 km/h Distance 0.73 km</desc>
<time>2013-07-07T17:47:52.74</time>
<name>65</name>
<sym>Dot</sym>
</trkpt>
<trkpt lat="42.871733" lon="-2.160817">
<ele>1818.0</ele>
<desc>Speed 26.1 km/h Distance 0.74 km</desc>
<time>2013-07-07T17:47:53.74</time>
<name>66</name>
<sym>Dot</sym>
</trkpt>
<trkpt lat="42.871730" lon="-2.160893">
<ele>1818.5</ele>
<desc>Speed 22.9 km/h Distance 0.74 km</desc>
<time>2013-07-07T17:47:54.73</time>
<name>67</name>
<sym>Dot</sym>
</trkpt>
<trkpt lat="42.871730" lon="-2.160965">
<ele>1818.0</ele>
<desc>Speed 21.4 km/h Distance 0.75 km</desc>
<time>2013-07-07T17:47:55.96</time>
<name>68</name>
<sym>Dot</sym>
</trkpt>
<trkpt lat="42.871728" lon="-2.161133">
<ele>1816.5</ele>
<desc>Speed 26.3 km/h Distance 0.76 km</desc>
<time>2013-07-07T17:47:57.73</time>
<name>69</name>
<sym>Dot</sym>
</trkpt>
<trkpt lat="42.871723" lon="-2.161228">
<ele>1816.5</ele>
<desc>Speed 28.4 km/h Distance 0.77 km</desc>
<time>2013-07-07T17:47:58.71</time>
<name>70</name>
<sym>Dot</sym>
</trkpt>
<trkpt lat="42.871718" lon="-2.161323">
<ele>1816.5</ele>
<desc>Speed 28.4 km/h Distance 0.78 km</desc>
<time>2013-07-07T17:47:59.76</time>
<name>71</name>
<sym>Dot</sym>
</trkpt>
<trkpt lat="42.871712" lon="-2.161413">
<ele>1817.0</ele>
<desc>Speed 26.9 km/h Distance 0.79 km</desc>
<time>2013-07-07T17:48:00.70</time>
<name>72</name>
<sym>Dot</sym>
</trkpt>
<trkpt lat="42.871707" lon="-2.161498">
<ele>1816.5</ele>
<desc>Speed 25.5 km/h Distance 0.79 km</desc>
<time>2013-07-07T17:48:01.70</time>
<name>73</name>
<sym>Dot</sym>
</trkpt>
<trkpt lat="42.871702" lon="-2.161585">
<ele>1816.0</ele>
<desc>Speed 25.7 km/h Distance 0.80 km</desc>
<time>2013-07-07T17:48:02.69</time>
<name>74</name>
<sym>Dot</sym>
</trkpt>
<trkpt lat="42.871695" lon="-2.161677">
<ele>1815.5</ele>
<desc>Speed 27.3 km/h Distance 0.81 km</desc>
<time>2013-07-07T17:48:03.69</time>
<name>75</name>
<sym>Dot</sym>
</trkpt>
<trkpt lat="42.871683" lon="-2.161775">
<ele>1815.0</ele>
<desc>Speed 29.6 km/h Distance 0.82 km</desc>
<time>2013-07-07T17:48:04.68</time>
<name>76</name>
<sym>Dot</sym>
</trkpt>
<trkpt lat="42.871670" lon="-2.161878">
<ele>1814.5</ele>
<desc>Speed 31.0 km/h Distance 0.83 km</desc>
<time>2013-07-07T17:48:05.68</time>
<name>77</name>
<sym>Dot</sym>
</trkpt>
<trkpt lat="42.871657" lon="-2.161982">
<ele>1814.5</ele>
<desc>Speed 31.2 km/h Distance 0.83 km</desc>
<time>2013-07-07T17:48:06.68</time>
<name>78</name>
<sym>Dot</sym>
</trkpt>
<trkpt lat="42.871642" lon="-2.162082">
<ele>1814.5</ele>
<desc>Speed 30.0 km/h Distance 0.84 km</desc>
<time>2013-07-07T17:48:07.66</time>
<name>79</name>
<sym>Dot</sym>
</trkpt>
<trkpt lat="42.871623" lon="-2.162175">
<ele>1814.5</ele>
<desc>Speed 28.7 km/h Distance 0.85 km</desc>
<time>2013-07-07T17:48:08.65</time>
<name>80</name>
<sym>Dot</sym>
</trkpt>
<trkpt lat="42.871612" lon="-2.162267">
<ele>1814.0</ele>
<desc>Speed 27.4 km/h Distance 0.86 km</desc>
<time>2013-07-07T17:48:09.65</time>
<name>81</name>
<sym>Dot</sym>
</trkpt>
<trkpt lat="42.871607" lon="-2.162353">
<ele>1814.0</ele>
<desc>Speed 26.1 km/h Distance 0.87 km</desc>
<time>2013-07-07T17:48:10.63</time>
<name>82</name>
<sym>Dot</sym>
</trkpt>
<trkpt lat="42.871618" lon="-2.162440">
<ele>1815.0</ele>
<desc>Speed 25.8 km/h Distance 0.87 km</desc>
<time>2013-07-07T17:48:11.62</time>
<name>83</name>
<sym>Dot</sym>
</trkpt>
<trkpt lat="42.871637" lon="-2.162515">
<ele>1816.0</ele>
<desc>Speed 23.0 km/h Distance 0.88 km</desc>
<time>2013-07-07T17:48:12.63</time>
<name>84</name>
<sym>Dot</sym>
</trkpt>
<trkpt lat="42.871690" lon="-2.162573">
<ele>1816.5</ele>
<desc>Speed 15.3 km/h Distance 0.89 km</desc>
<time>2013-07-07T17:48:14.61</time>
<name>85</name>
<sym>Dot</sym>
</trkpt>
<trkpt lat="42.871730" lon="-2.162578">
<ele>1817.5</ele>
<desc>Speed 15.6 km/h Distance 0.89 km</desc>
<time>2013-07-07T17:48:15.60</time>
<name>86</name>
<sym>Dot</sym>
</trkpt>
<trkpt lat="42.871768" lon="-2.162565">
<ele>1818.5</ele>
<desc>Speed 15.7 km/h Distance 0.90 km</desc>
<time>2013-07-07T17:48:16.60</time>
<name>87</name>
<sym>Dot</sym>
</trkpt>
<trkpt lat="42.871805" lon="-2.162535">
<ele>1819.0</ele>
<desc>Speed 16.9 km/h Distance 0.90 km</desc>
<time>2013-07-07T17:48:17.60</time>
<name>88</name>
<sym>Dot</sym>
</trkpt>
<trkpt lat="42.871835" lon="-2.162482">
<ele>1819.0</ele>
<desc>Speed 19.2 km/h Distance 0.91 km</desc>
<time>2013-07-07T17:48:18.60</time>
<name>89</name>
<sym>Dot</sym>
</trkpt>
<trkpt lat="42.871858" lon="-2.162405">
<ele>1817.0</ele>
<desc>Speed 24.4 km/h Distance 0.91 km</desc>
<time>2013-07-07T17:48:19.59</time>
<name>90</name>
<sym>Dot</sym>
</trkpt>
<trkpt lat="42.871877" lon="-2.162307">
<ele>1817.5</ele>
<desc>Speed 29.9 km/h Distance 0.92 km</desc>
<time>2013-07-07T17:48:20.58</time>
<name>91</name>
<sym>Dot</sym>
</trkpt>
<trkpt lat="42.871895" lon="-2.162200">
<ele>1816.5</ele>
<desc>Speed 32.0 km/h Distance 0.93 km</desc>
<time>2013-07-07T17:48:21.57</time>
<name>92</name>
<sym>Dot</sym>
</trkpt>
<trkpt lat="42.871915" lon="-2.162088">
<ele>1816.0</ele>
<desc>Speed 33.7 km/h Distance 0.94 km</desc>
<time>2013-07-07T17:48:22.57</time>
<name>93</name>
<sym>Dot</sym>
</trkpt>
<trkpt lat="42.871932" lon="-2.161975">
<ele>1816.5</ele>
<desc>Speed 33.8 km/h Distance 0.95 km</desc>
<time>2013-07-07T17:48:23.56</time>
<name>94</name>
<sym>Dot</sym>
</trkpt>
<trkpt lat="42.871947" lon="-2.161863">
<ele>1817.0</ele>
<desc>Speed 33.2 km/h Distance 0.96 km</desc>
<time>2013-07-07T17:48:24.55</time>
<name>95</name>
<sym>Dot</sym>
</trkpt>
<trkpt lat="42.871957" lon="-2.161753">
<ele>1817.5</ele>
<desc>Speed 32.9 km/h Distance 0.97 km</desc>
<time>2013-07-07T17:48:25.53</time>
<name>96</name>
<sym>Dot</sym>
</trkpt>
<trkpt lat="42.871965" lon="-2.161640">
<ele>1817.5</ele>
<desc>Speed 33.8 km/h Distance 0.98 km</desc>
<time>2013-07-07T17:48:26.53</time>
<name>97</name>
<sym>Dot</sym>
</trkpt>
<trkpt lat="42.871975" lon="-2.161523">
<ele>1817.0</ele>
<desc>Speed 34.7 km/h Distance 0.99 km</desc>
<time>2013-07-07T17:48:27.52</time>
<name>98</name>
<sym>Dot</sym>
</trkpt>
<trkpt lat="42.871985" lon="-2.161405">
<ele>1816.5</ele>
<desc>Speed 35.0 km/h Distance 1.00 km</desc>
<time>2013-07-07T17:48:28.51</time>
<name>99</name>
<sym>Dot</sym>
</trkpt>
<trkpt lat="42.871995" lon="-2.161288">
<ele>1816.5</ele>
<desc>Speed 34.4 km/h Distance 1.00 km</desc>
<time>2013-07-07T17:48:29.51</time>
<name>100</name>
<sym>Dot</sym>
</trkpt>
<trkpt lat="42.872002" lon="-2.161177">
<ele>1817.0</ele>
<desc>Speed 33.0 km/h Distance 1.01 km</desc>
<time>2013-07-07T17:48:30.49</time>
<name>101</name>
<sym>Dot</sym>
</trkpt>
<trkpt lat="42.872007" lon="-2.161068">
<ele>1817.5</ele>
<desc>Speed 31.7 km/h Distance 1.02 km</desc>
<time>2013-07-07T17:48:31.48</time>
<name>102</name>
<sym>Dot</sym>
</trkpt>
<trkpt lat="42.872012" lon="-2.160962">
<ele>1817.5</ele>
<desc>Speed 31.7 km/h Distance 1.03 km</desc>
<time>2013-07-07T17:48:32.48</time>
<name>103</name>
<sym>Dot</sym>
</trkpt>
<trkpt lat="42.872018" lon="-2.160852">
<ele>1817.5</ele>
<desc>Speed 32.5 km/h Distance 1.04 km</desc>
<time>2013-07-07T17:48:33.47</time>
<name>104</name>
<sym>Dot</sym>
</trkpt>
<trkpt lat="42.872028" lon="-2.160738">
<ele>1817.5</ele>
<desc>Speed 33.2 km/h Distance 1.05 km</desc>
<time>2013-07-07T17:48:34.47</time>
<name>105</name>
<sym>Dot</sym>
</trkpt>
<trkpt lat="42.872040" lon="-2.160628">
<ele>1817.5</ele>
<desc>Speed 33.0 km/h Distance 1.06 km</desc>
<time>2013-07-07T17:48:35.47</time>
<name>106</name>
<sym>Dot</sym>
</trkpt>
<trkpt lat="42.872055" lon="-2.160522">
<ele>1817.5</ele>
<desc>Speed 32.4 km/h Distance 1.07 km</desc>
<time>2013-07-07T17:48:36.46</time>
<name>107</name>
<sym>Dot</sym>
</trkpt>
<trkpt lat="42.872073" lon="-2.160417">
<ele>1818.0</ele>
<desc>Speed 32.0 km/h Distance 1.08 km</desc>
<time>2013-07-07T17:48:37.46</time>
<name>108</name>
<sym>Dot</sym>
</trkpt>
<trkpt lat="42.872092" lon="-2.160313">
<ele>1818.0</ele>
<desc>Speed 31.4 km/h Distance 1.09 km</desc>
<time>2013-07-07T17:48:38.45</time>
<name>109</name>
<sym>Dot</sym>
</trkpt>
<trkpt lat="42.872110" lon="-2.160212">
<ele>1818.0</ele>
<desc>Speed 30.8 km/h Distance 1.09 km</desc>
<time>2013-07-07T17:48:39.45</time>
<name>110</name>
<sym>Dot</sym>
</trkpt>
<trkpt lat="42.872125" lon="-2.160110">
<ele>1818.0</ele>
<desc>Speed 31.1 km/h Distance 1.10 km</desc>
<time>2013-07-07T17:48:40.44</time>
<name>111</name>
<sym>Dot</sym>
</trkpt>
<trkpt lat="42.872142" lon="-2.160005">
<ele>1818.5</ele>
<desc>Speed 31.8 km/h Distance 1.11 km</desc>
<time>2013-07-07T17:48:41.45</time>
<name>112</name>
<sym>Dot</sym>
</trkpt>
<trkpt lat="42.872162" lon="-2.159900">
<ele>1819.0</ele>
<desc>Speed 31.9 km/h Distance 1.12 km</desc>
<time>2013-07-07T17:48:42.43</time>
<name>113</name>
<sym>Dot</sym>
</trkpt>
<trkpt lat="42.872182" lon="-2.159798">
<ele>1819.0</ele>
<desc>Speed 31.4 km/h Distance 1.13 km</desc>
<time>2013-07-07T17:48:43.42</time>
<name>114</name>
<sym>Dot</sym>
</trkpt>
<trkpt lat="42.872200" lon="-2.159700">
<ele>1820.0</ele>
<desc>Speed 30.2 km/h Distance 1.14 km</desc>
<time>2013-07-07T17:48:44.42</time>
<name>115</name>
<sym>Dot</sym>
</trkpt>
<trkpt lat="42.872215" lon="-2.159602">
<ele>1820.5</ele>
<desc>Speed 29.6 km/h Distance 1.14 km</desc>
<time>2013-07-07T17:48:45.41</time>
<name>116</name>
<sym>Dot</sym>
</trkpt>
<trkpt lat="42.872228" lon="-2.159507">
<ele>1821.0</ele>
<desc>Speed 29.1 km/h Distance 1.15 km</desc>
<time>2013-07-07T17:48:46.40</time>
<name>117</name>
<sym>Dot</sym>
</trkpt>
<trkpt lat="42.872245" lon="-2.159410">
<ele>1819.5</ele>
<desc>Speed 29.5 km/h Distance 1.16 km</desc>
<time>2013-07-07T17:48:47.40</time>
<name>118</name>
<sym>Dot</sym>
</trkpt>
<trkpt lat="42.872263" lon="-2.159307">
<ele>1819.0</ele>
<desc>Speed 31.2 km/h Distance 1.17 km</desc>
<time>2013-07-07T17:48:48.39</time>
<name>119</name>
<sym>Dot</sym>
</trkpt>
<trkpt lat="42.872285" lon="-2.159197">
<ele>1818.5</ele>
<desc>Speed 33.6 km/h Distance 1.18 km</desc>
<time>2013-07-07T17:48:49.39</time>
<name>120</name>
<sym>Dot</sym>
</trkpt>
<trkpt lat="42.872307" lon="-2.159082">
<ele>1818.0</ele>
<desc>Speed 34.8 km/h Distance 1.19 km</desc>
<time>2013-07-07T17:48:50.40</time>
<name>121</name>
<sym>Dot</sym>
</trkpt>
<trkpt lat="42.872322" lon="-2.158963">
<ele>1818.5</ele>
<desc>Speed 35.2 km/h Distance 1.20 km</desc>
<time>2013-07-07T17:48:51.39</time>
<name>122</name>
<sym>Dot</sym>
</trkpt>
<trkpt lat="42.872333" lon="-2.158845">
<ele>1819.0</ele>
<desc>Speed 35.0 km/h Distance 1.21 km</desc>
<time>2013-07-07T17:48:52.38</time>
<name>123</name>
<sym>Dot</sym>
</trkpt>
<trkpt lat="42.872342" lon="-2.158727">
<ele>1819.5</ele>
<desc>Speed 34.7 km/h Distance 1.22 km</desc>
<time>2013-07-07T17:48:53.38</time>
<name>124</name>
<sym>Dot</sym>
</trkpt>
<trkpt lat="42.872348" lon="-2.158608">
<ele>1819.5</ele>
<desc>Speed 35.0 km/h Distance 1.23 km</desc>
<time>2013-07-07T17:48:54.37</time>
<name>125</name>
<sym>Dot</sym>
</trkpt>
<trkpt lat="42.872357" lon="-2.158487">
<ele>1819.0</ele>
<desc>Speed 35.6 km/h Distance 1.24 km</desc>
<time>2013-07-07T17:48:55.37</time>
<name>126</name>
<sym>Dot</sym>
</trkpt>
<trkpt lat="42.872367" lon="-2.158365">
<ele>1818.5</ele>
<desc>Speed 35.9 km/h Distance 1.25 km</desc>
<time>2013-07-07T17:48:56.36</time>
<name>127</name>
<sym>Dot</sym>
</trkpt>
<trkpt lat="42.872375" lon="-2.158242">
<ele>1818.5</ele>
<desc>Speed 36.5 km/h Distance 1.26 km</desc>
<time>2013-07-07T17:48:57.35</time>
<name>128</name>
<sym>Dot</sym>
</trkpt>
<trkpt lat="42.872383" lon="-2.158115">
<ele>1818.5</ele>
<desc>Speed 37.1 km/h Distance 1.27 km</desc>
<time>2013-07-07T17:48:58.34</time>
<name>129</name>
<sym>Dot</sym>
</trkpt>
<trkpt lat="42.872388" lon="-2.157985">
<ele>1819.0</ele>
<desc>Speed 38.3 km/h Distance 1.28 km</desc>
<time>2013-07-07T17:48:59.34</time>
<name>130</name>
<sym>Dot</sym>
</trkpt>
<trkpt lat="42.872388" lon="-2.157852">
<ele>1819.0</ele>
<desc>Speed 39.1 km/h Distance 1.29 km</desc>
<time>2013-07-07T17:49:00.33</time>
<name>131</name>
<sym>Dot</sym>
</trkpt>
<trkpt lat="42.872387" lon="-2.157717">
<ele>1819.5</ele>
<desc>Speed 39.5 km/h Distance 1.30 km</desc>
<time>2013-07-07T17:49:01.33</time>
<name>132</name>
<sym>Dot</sym>
</trkpt>
<trkpt lat="42.872387" lon="-2.157587">
<ele>1819.0</ele>
<desc>Speed 38.2 km/h Distance 1.31 km</desc>
<time>2013-07-07T17:49:02.32</time>
<name>133</name>
<sym>Dot</sym>
</trkpt>
<trkpt lat="42.872388" lon="-2.157460">
<ele>1818.5</ele>
<desc>Speed 36.9 km/h Distance 1.32 km</desc>
<time>2013-07-07T17:49:03.33</time>
<name>134</name>
<sym>Dot</sym>
</trkpt>
<trkpt lat="42.872393" lon="-2.157337">
<ele>1818.5</ele>
<desc>Speed 36.2 km/h Distance 1.33 km</desc>
<time>2013-07-07T17:49:04.32</time>
<name>135</name>
<sym>Dot</sym>
</trkpt>
<trkpt lat="42.872403" lon="-2.157217">
<ele>1818.0</ele>
<desc>Speed 35.7 km/h Distance 1.34 km</desc>
<time>2013-07-07T17:49:05.31</time>
<name>136</name>
<sym>Dot</sym>
</trkpt>
<trkpt lat="42.872415" lon="-2.157097">
<ele>1818.0</ele>
<desc>Speed 35.4 km/h Distance 1.35 km</desc>
<time>2013-07-07T17:49:06.31</time>
<name>137</name>
<sym>Dot</sym>
</trkpt>
<trkpt lat="42.872430" lon="-2.156983">
<ele>1818.5</ele>
<desc>Speed 33.9 km/h Distance 1.36 km</desc>
<time>2013-07-07T17:49:07.30</time>
<name>138</name>
<sym>Dot</sym>
</trkpt>
<trkpt lat="42.872448" lon="-2.156878">
<ele>1818.5</ele>
<desc>Speed 31.5 km/h Distance 1.37 km</desc>
<time>2013-07-07T17:49:08.32</time>
<name>139</name>
<sym>Dot</sym>
</trkpt>
<trkpt lat="42.872472" lon="-2.156785">
<ele>1818.5</ele>
<desc>Speed 28.4 km/h Distance 1.38 km</desc>
<time>2013-07-07T17:49:09.28</time>
<name>140</name>
<sym>Dot</sym>
</trkpt>
<trkpt lat="42.872500" lon="-2.156702">
<ele>1818.0</ele>
<desc>Speed 26.8 km/h Distance 1.38 km</desc>
<time>2013-07-07T17:49:10.27</time>
<name>141</name>
<sym>Dot</sym>
</trkpt>
<trkpt lat="42.872533" lon="-2.156627">
<ele>1818.0</ele>
<desc>Speed 25.5 km/h Distance 1.39 km</desc>
<time>2013-07-07T17:49:11.27</time>
<name>142</name>
<sym>Dot</sym>
</trkpt>
<trkpt lat="42.872572" lon="-2.156563">
<ele>1817.5</ele>
<desc>Speed 23.7 km/h Distance 1.40 km</desc>
<time>2013-07-07T17:49:12.26</time>
<name>143</name>
<sym>Dot</sym>
</trkpt>
<trkpt lat="42.872610" lon="-2.156517">
<ele>1817.5</ele>
<desc>Speed 20.7 km/h Distance 1.40 km</desc>
<time>2013-07-07T17:49:13.26</time>
<name>144</name>
<sym>Dot</sym>
</trkpt>
<trkpt lat="42.872650" lon="-2.156488">
<ele>1817.5</ele>
<desc>Speed 17.8 km/h Distance 1.41 km</desc>
<time>2013-07-07T17:49:14.25</time>
<name>145</name>
<sym>Dot</sym>
</trkpt>
<trkpt lat="42.872688" lon="-2.156480">
<ele>1817.5</ele>
<desc>Speed 15.6 km/h Distance 1.41 km</desc>
<time>2013-07-07T17:49:15.24</time>
<name>146</name>
<sym>Dot</sym>
</trkpt>
<trkpt lat="42.872728" lon="-2.156478">
<ele>1817.5</ele>
<desc>Speed 15.3 km/h Distance 1.42 km</desc>
<time>2013-07-07T17:49:16.24</time>
<name>147</name>
<sym>Dot</sym>
</trkpt>
<trkpt lat="42.872770" lon="-2.156475">
<ele>1817.0</ele>
<desc>Speed 16.7 km/h Distance 1.42 km</desc>
<time>2013-07-07T17:49:17.23</time>
<name>148</name>
<sym>Dot</sym>
</trkpt>
<trkpt lat="42.872812" lon="-2.156468">
<ele>1816.5</ele>
<desc>Speed 17.4 km/h Distance 1.43 km</desc>
<time>2013-07-07T17:49:18.22</time>
<name>149</name>
<sym>Dot</sym>
</trkpt>
<trkpt lat="42.872853" lon="-2.156468">
<ele>1816.0</ele>
<desc>Speed 16.7 km/h Distance 1.43 km</desc>
<time>2013-07-07T17:49:19.21</time>
<name>150</name>
<sym>Dot</sym>
</trkpt>
<trkpt lat="42.872890" lon="-2.156478">
<ele>1815.5</ele>
<desc>Speed 15.3 km/h Distance 1.44 km</desc>
<time>2013-07-07T17:49:20.21</time>
<name>151</name>
<sym>Dot</sym>
</trkpt>
<trkpt lat="42.872925" lon="-2.156505">
<ele>1815.0</ele>
<desc>Speed 15.8 km/h Distance 1.44 km</desc>
<time>2013-07-07T17:49:21.20</time>
<name>152</name>
<sym>Dot</sym>
</trkpt>
<trkpt lat="42.872952" lon="-2.156547">
<ele>1814.0</ele>
<desc>Speed 16.3 km/h Distance 1.45 km</desc>
<time>2013-07-07T17:49:22.20</time>
<name>153</name>
<sym>Dot</sym>
</trkpt>
<trkpt lat="42.872972" lon="-2.156600">
<ele>1813.5</ele>
<desc>Speed 17.9 km/h Distance 1.45 km</desc>
<time>2013-07-07T17:49:23.20</time>
<name>154</name>
<sym>Dot</sym>
</trkpt>
<trkpt lat="42.872993" lon="-2.156662">
<ele>1814.0</ele>
<desc>Speed 19.9 km/h Distance 1.46 km</desc>
<time>2013-07-07T17:49:24.19</time>
<name>155</name>
<sym>Dot</sym>
</trkpt>
<trkpt lat="42.873012" lon="-2.156727">
<ele>1814.0</ele>
<desc>Speed 20.9 km/h Distance 1.46 km</desc>
<time>2013-07-07T17:49:25.18</time>
<name>156</name>
<sym>Dot</sym>
</trkpt>
<trkpt lat="42.873028" lon="-2.156797">
<ele>1814.5</ele>
<desc>Speed 21.8 km/h Distance 1.47 km</desc>
<time>2013-07-07T17:49:26.18</time>
<name>157</name>
<sym>Dot</sym>
</trkpt>
<trkpt lat="42.873037" lon="-2.156877">
<ele>1814.5</ele>
<desc>Speed 23.6 km/h Distance 1.47 km</desc>
<time>2013-07-07T17:49:27.18</time>
<name>158</name>
<sym>Dot</sym>
</trkpt>
<trkpt lat="42.873038" lon="-2.156962">
<ele>1814.5</ele>
<desc>Speed 25.1 km/h Distance 1.48 km</desc>
<time>2013-07-07T17:49:28.17</time>
<name>159</name>
<sym>Dot</sym>
</trkpt>
<trkpt lat="42.873038" lon="-2.157052">
<ele>1814.0</ele>
<desc>Speed 26.4 km/h Distance 1.49 km</desc>
<time>2013-07-07T17:49:29.16</time>
<name>160</name>
<sym>Dot</sym>
</trkpt>
<trkpt lat="42.873038" lon="-2.157140">
<ele>1814.0</ele>
<desc>Speed 26.5 km/h Distance 1.50 km</desc>
<time>2013-07-07T17:49:30.17</time>
<name>161</name>
<sym>Dot</sym>
</trkpt>
<trkpt lat="42.873040" lon="-2.157228">
<ele>1813.5</ele>
<desc>Speed 26.2 km/h Distance 1.50 km</desc>
<time>2013-07-07T17:49:31.16</time>
<name>162</name>
<sym>Dot</sym>
</trkpt>
<trkpt lat="42.873042" lon="-2.157318">
<ele>1812.5</ele>
<desc>Speed 26.6 km/h Distance 1.51 km</desc>
<time>2013-07-07T17:49:32.15</time>
<name>163</name>
<sym>Dot</sym>
</trkpt>
<trkpt lat="42.873038" lon="-2.157412">
<ele>1811.5</ele>
<desc>Speed 27.9 km/h Distance 1.52 km</desc>
<time>2013-07-07T17:49:33.16</time>
<name>164</name>
<sym>Dot</sym>
</trkpt>
<trkpt lat="42.873032" lon="-2.157512">
<ele>1811.0</ele>
<desc>Speed 29.9 km/h Distance 1.53 km</desc>
<time>2013-07-07T17:49:34.14</time>
<name>165</name>
<sym>Dot</sym>
</trkpt>
<trkpt lat="42.873023" lon="-2.157618">
<ele>1810.5</ele>
<desc>Speed 31.9 km/h Distance 1.53 km</desc>
<time>2013-07-07T17:49:35.13</time>
<name>166</name>
<sym>Dot</sym>
</trkpt>
<trkpt lat="42.873015" lon="-2.157730">
<ele>1810.5</ele>
<desc>Speed 32.9 km/h Distance 1.54 km</desc>
<time>2013-07-07T17:49:36.14</time>
<name>167</name>
<sym>Dot</sym>
</trkpt>
<trkpt lat="42.873005" lon="-2.157842">
<ele>1811.0</ele>
<desc>Speed 33.4 km/h Distance 1.55 km</desc>
<time>2013-07-07T17:49:37.13</time>
<name>168</name>
<sym>Dot</sym>
</trkpt>
<trkpt lat="42.872978" lon="-2.158060">
<ele>1812.5</ele>
<desc>Speed 32.3 km/h Distance 1.57 km</desc>
<time>2013-07-07T17:49:41.91</time>
<name>169</name>
<sym>Dot</sym>
</trkpt>
<trkpt lat="42.872963" lon="-2.158163">
<ele>1813.5</ele>
<desc>Speed 31.1 km/h Distance 1.58 km</desc>
<time>2013-07-07T17:49:42.90</time>
<name>170</name>
<sym>Dot</sym>
</trkpt>
<trkpt lat="42.872950" lon="-2.158265">
<ele>1814.0</ele>
<desc>Speed 30.6 km/h Distance 1.59 km</desc>
<time>2013-07-07T17:49:43.89</time>
<name>171</name>
<sym>Dot</sym>
</trkpt>
<trkpt lat="42.872938" lon="-2.158370">
<ele>1814.0</ele>
<desc>Speed 31.3 km/h Distance 1.60 km</desc>
<time>2013-07-07T17:49:44.89</time>
<name>172</name>
<sym>Dot</sym>
</trkpt>
<trkpt lat="42.872927" lon="-2.158480">
<ele>1814.5</ele>
<desc>Speed 32.5 km/h Distance 1.61 km</desc>
<time>2013-07-07T17:49:45.88</time>
<name>173</name>
<sym>Dot</sym>
</trkpt>
<trkpt lat="42.872913" lon="-2.158588">
<ele>1815.5</ele>
<desc>Speed 32.5 km/h Distance 1.61 km</desc>
<time>2013-07-07T17:49:46.88</time>
<name>174</name>
<sym>Dot</sym>
</trkpt>
<trkpt lat="42.872895" lon="-2.158693">
<ele>1817.0</ele>
<desc>Speed 31.7 km/h Distance 1.62 km</desc>
<time>2013-07-07T17:49:47.88</time>
<name>175</name>
<sym>Dot</sym>
</trkpt>
<trkpt lat="42.872877" lon="-2.158792">
<ele>1817.5</ele>
<desc>Speed 30.2 km/h Distance 1.63 km</desc>
<time>2013-07-07T17:49:48.86</time>
<name>176</name>
<sym>Dot</sym>
</trkpt>
<trkpt lat="42.872858" lon="-2.158890">
<ele>1818.0</ele>
<desc>Speed 29.7 km/h Distance 1.64 km</desc>
<time>2013-07-07T17:49:49.85</time>
<name>177</name>
<sym>Dot</sym>
</trkpt>
<trkpt lat="42.872842" lon="-2.158995">
<ele>1817.5</ele>
<desc>Speed 31.3 km/h Distance 1.65 km</desc>
<time>2013-07-07T17:49:50.85</time>
<name>178</name>
<sym>Dot</sym>
</trkpt>
<trkpt lat="42.872825" lon="-2.159105">
<ele>1817.0</ele>
<desc>Speed 33.0 km/h Distance 1.66 km</desc>
<time>2013-07-07T17:49:51.84</time>
<name>179</name>
<sym>Dot</sym>
</trkpt>
<trkpt lat="42.872810" lon="-2.159218">
<ele>1817.0</ele>
<desc>Speed 34.3 km/h Distance 1.67 km</desc>
<time>2013-07-07T17:49:52.84</time>
<name>180</name>
<sym>Dot</sym>
</trkpt>
<trkpt lat="42.872792" lon="-2.159333">
<ele>1817.0</ele>
<desc>Speed 34.6 km/h Distance 1.68 km</desc>
<time>2013-07-07T17:49:53.83</time>
<name>181</name>
<sym>Dot</sym>
</trkpt>
<trkpt lat="42.872772" lon="-2.159443">
<ele>1818.0</ele>
<desc>Speed 33.5 km/h Distance 1.69 km</desc>
<time>2013-07-07T17:49:54.82</time>
<name>182</name>
<sym>Dot</sym>
</trkpt>
<trkpt lat="42.872753" lon="-2.159550">
<ele>1818.5</ele>
<desc>Speed 32.3 km/h Distance 1.70 km</desc>
<time>2013-07-07T17:49:55.81</time>
<name>183</name>
<sym>Dot</sym>
</trkpt>
<trkpt lat="42.872737" lon="-2.159653">
<ele>1818.0</ele>
<desc>Speed 31.8 km/h Distance 1.70 km</desc>
<time>2013-07-07T17:49:56.81</time>
<name>184</name>
<sym>Dot</sym>
</trkpt>
<trkpt lat="42.872720" lon="-2.159763">
<ele>1817.0</ele>
<desc>Speed 33.0 km/h Distance 1.71 km</desc>
<time>2013-07-07T17:49:57.81</time>
<name>185</name>
<sym>Dot</sym>
</trkpt>
<trkpt lat="42.872703" lon="-2.159880">
<ele>1816.0</ele>
<desc>Speed 35.6 km/h Distance 1.72 km</desc>
<time>2013-07-07T17:49:58.80</time>
<name>186</name>
<sym>Dot</sym>
</trkpt>
<trkpt lat="42.872685" lon="-2.160005">
<ele>1815.5</ele>
<desc>Speed 37.4 km/h Distance 1.73 km</desc>
<time>2013-07-07T17:49:59.80</time>
<name>187</name>
<sym>Dot</sym>
</trkpt>
<trkpt lat="42.872667" lon="-2.160130">
<ele>1815.0</ele>
<desc>Speed 37.8 km/h Distance 1.74 km</desc>
<time>2013-07-07T17:50:00.80</time>
<name>188</name>
<sym>Dot</sym>
</trkpt>
<trkpt lat="42.872648" lon="-2.160252">
<ele>1815.0</ele>
<desc>Speed 36.6 km/h Distance 1.75 km</desc>
<time>2013-07-07T17:50:01.78</time>
<name>189</name>
<sym>Dot</sym>
</trkpt>
<trkpt lat="42.872633" lon="-2.160367">
<ele>1815.0</ele>
<desc>Speed 34.6 km/h Distance 1.76 km</desc>
<time>2013-07-07T17:50:02.78</time>
<name>190</name>
<sym>Dot</sym>
</trkpt>
<trkpt lat="42.872622" lon="-2.160480">
<ele>1814.5</ele>
<desc>Speed 33.8 km/h Distance 1.77 km</desc>
<time>2013-07-07T17:50:03.77</time>
<name>191</name>
<sym>Dot</sym>
</trkpt>
<trkpt lat="42.872610" lon="-2.160595">
<ele>1814.0</ele>
<desc>Speed 34.5 km/h Distance 1.78 km</desc>
<time>2013-07-07T17:50:04.76</time>
<name>192</name>
<sym>Dot</sym>
</trkpt>
<trkpt lat="42.872600" lon="-2.160713">
<ele>1814.0</ele>
<desc>Speed 35.5 km/h Distance 1.79 km</desc>
<time>2013-07-07T17:50:05.75</time>
<name>193</name>
<sym>Dot</sym>
</trkpt>
<trkpt lat="42.872587" lon="-2.160833">
<ele>1813.5</ele>
<desc>Speed 35.5 km/h Distance 1.80 km</desc>
<time>2013-07-07T17:50:06.75</time>
<name>194</name>
<sym>Dot</sym>
</trkpt>
<trkpt lat="42.872572" lon="-2.160952">
<ele>1814.0</ele>
<desc>Speed 35.4 km/h Distance 1.81 km</desc>
<time>2013-07-07T17:50:07.74</time>
<name>195</name>
<sym>Dot</sym>
</trkpt>
<trkpt lat="42.872552" lon="-2.161072">
<ele>1814.0</ele>
<desc>Speed 36.2 km/h Distance 1.82 km</desc>
<time>2013-07-07T17:50:08.73</time>
<name>196</name>
<sym>Dot</sym>
</trkpt>
<trkpt lat="42.872530" lon="-2.161192">
<ele>1814.5</ele>
<desc>Speed 36.6 km/h Distance 1.83 km</desc>
<time>2013-07-07T17:50:09.72</time>
<name>197</name>
<sym>Dot</sym>
</trkpt>
<trkpt lat="42.872508" lon="-2.161310">
<ele>1815.5</ele>
<desc>Speed 35.9 km/h Distance 1.84 km</desc>
<time>2013-07-07T17:50:10.73</time>
<name>198</name>
<sym>Dot</sym>
</trkpt>
<trkpt lat="42.872485" lon="-2.161420">
<ele>1816.0</ele>
<desc>Speed 33.9 km/h Distance 1.85 km</desc>
<time>2013-07-07T17:50:11.71</time>
<name>199</name>
<sym>Dot</sym>
</trkpt>
<trkpt lat="42.872463" lon="-2.161528">
<ele>1816.0</ele>
<desc>Speed 32.8 km/h Distance 1.86 km</desc>
<time>2013-07-07T17:50:12.71</time>
<name>200</name>
<sym>Dot</sym>
</trkpt>
<trkpt lat="42.872442" lon="-2.161637">
<ele>1815.5</ele>
<desc>Speed 33.4 km/h Distance 1.87 km</desc>
<time>2013-07-07T17:50:13.70</time>
<name>201</name>
<sym>Dot</sym>
</trkpt>
<trkpt lat="42.872422" lon="-2.161758">
<ele>1816.0</ele>
<desc>Speed 36.8 km/h Distance 1.88 km</desc>
<time>2013-07-07T17:50:14.69</time>
<name>202</name>
<sym>Dot</sym>
</trkpt>
<trkpt lat="42.872397" lon="-2.161882">
<ele>1816.0</ele>
<desc>Speed 37.7 km/h Distance 1.89 km</desc>
<time>2013-07-07T17:50:15.69</time>
<name>203</name>
<sym>Dot</sym>
</trkpt>
<trkpt lat="42.872370" lon="-2.162005">
<ele>1816.5</ele>
<desc>Speed 37.7 km/h Distance 1.90 km</desc>
<time>2013-07-07T17:50:16.68</time>
<name>204</name>
<sym>Dot</sym>
</trkpt>
<trkpt lat="42.872343" lon="-2.162127">
<ele>1817.0</ele>
<desc>Speed 36.8 km/h Distance 1.91 km</desc>
<time>2013-07-07T17:50:17.69</time>
<name>205</name>
<sym>Dot</sym>
</trkpt>
<trkpt lat="42.872318" lon="-2.162243">
<ele>1818.5</ele>
<desc>Speed 35.2 km/h Distance 1.92 km</desc>
<time>2013-07-07T17:50:18.68</time>
<name>206</name>
<sym>Dot</sym>
</trkpt>
<trkpt lat="42.872297" lon="-2.162353">
<ele>1820.0</ele>
<desc>Speed 33.2 km/h Distance 1.93 km</desc>
<time>2013-07-07T17:50:19.68</time>
<name>207</name>
<sym>Dot</sym>
</trkpt>
<trkpt lat="42.872275" lon="-2.162462">
<ele>1821.0</ele>
<desc>Speed 33.3 km/h Distance 1.94 km</desc>
<time>2013-07-07T17:50:20.68</time>
<name>208</name>
<sym>Dot</sym>
</trkpt>
<trkpt lat="42.872250" lon="-2.162575">
<ele>1821.5</ele>
<desc>Speed 34.7 km/h Distance 1.95 km</desc>
<time>2013-07-07T17:50:21.66</time>
<name>209</name>
<sym>Dot</sym>
</trkpt>
<trkpt lat="42.872218" lon="-2.162693">
<ele>1822.0</ele>
<desc>Speed 36.8 km/h Distance 1.96 km</desc>
<time>2013-07-07T17:50:22.69</time>
<name>210</name>
<sym>Dot</sym>
</trkpt>
<trkpt lat="42.872187" lon="-2.162810">
<ele>1823.0</ele>
<desc>Speed 36.9 km/h Distance 1.97 km</desc>
<time>2013-07-07T17:50:23.65</time>
<name>211</name>
<sym>Dot</sym>
</trkpt>
<trkpt lat="42.872158" lon="-2.162925">
<ele>1824.0</ele>
<desc>Speed 35.7 km/h Distance 1.98 km</desc>
<time>2013-07-07T17:50:24.65</time>
<name>212</name>
<sym>Dot</sym>
</trkpt>
<trkpt lat="42.872140" lon="-2.163038">
<ele>1825.0</ele>
<desc>Speed 34.1 km/h Distance 1.99 km</desc>
<time>2013-07-07T17:50:25.64</time>
<name>213</name>
<sym>Dot</sym>
</trkpt>
<trkpt lat="42.872127" lon="-2.163148">
<ele>1826.0</ele>
<desc>Speed 32.6 km/h Distance 2.00 km</desc>
<time>2013-07-07T17:50:26.64</time>
<name>214</name>
<sym>Dot</sym>
</trkpt>
<trkpt lat="42.872112" lon="-2.163257">
<ele>1827.0</ele>
<desc>Speed 32.4 km/h Distance 2.01 km</desc>
<time>2013-07-07T17:50:27.63</time>
<name>215</name>
<sym>Dot</sym>
</trkpt>
<trkpt lat="42.872092" lon="-2.163368">
<ele>1828.5</ele>
<desc>Speed 33.7 km/h Distance 2.02 km</desc>
<time>2013-07-07T17:50:28.62</time>
<name>216</name>
<sym>Dot</sym>
</trkpt>
<trkpt lat="42.872063" lon="-2.163485">
<ele>1829.5</ele>
<desc>Speed 36.4 km/h Distance 2.03 km</desc>
<time>2013-07-07T17:50:29.62</time>
<name>217</name>
<sym>Dot</sym>
</trkpt>
<trkpt lat="42.872033" lon="-2.163612">
<ele>1829.5</ele>
<desc>Speed 38.7 km/h Distance 2.04 km</desc>
<time>2013-07-07T17:50:30.61</time>
<name>218</name>
<sym>Dot</sym>
</trkpt>
<trkpt lat="42.872005" lon="-2.163738">
<ele>1830.0</ele>
<desc>Speed 39.5 km/h Distance 2.05 km</desc>
<time>2013-07-07T17:50:31.60</time>
<name>219</name>
<sym>Dot</sym>
</trkpt>
<trkpt lat="42.871982" lon="-2.163867">
<ele>1830.5</ele>
<desc>Speed 39.1 km/h Distance 2.06 km</desc>
<time>2013-07-07T17:50:32.60</time>
<name>220</name>
<sym>Dot</sym>
</trkpt>
<trkpt lat="42.871958" lon="-2.163993">
<ele>1831.5</ele>
<desc>Speed 38.6 km/h Distance 2.07 km</desc>
<time>2013-07-07T17:50:33.59</time>
<name>221</name>
<sym>Dot</sym>
</trkpt>
<trkpt lat="42.871933" lon="-2.164120">
<ele>1832.0</ele>
<desc>Speed 38.9 km/h Distance 2.08 km</desc>
<time>2013-07-07T17:50:34.59</time>
<name>222</name>
<sym>Dot</sym>
</trkpt>
<trkpt lat="42.871910" lon="-2.164247">
<ele>1833.5</ele>
<desc>Speed 38.6 km/h Distance 2.09 km</desc>
<time>2013-07-07T17:50:35.58</time>
<name>223</name>
<sym>Dot</sym>
</trkpt>
<trkpt lat="42.871883" lon="-2.164377">
<ele>1833.5</ele>
<desc>Speed 39.6 km/h Distance 2.10 km</desc>
<time>2013-07-07T17:50:36.58</time>
<name>224</name>
<sym>Dot</sym>
</trkpt>
<trkpt lat="42.871863" lon="-2.164507">
<ele>1834.0</ele>
<desc>Speed 38.9 km/h Distance 2.11 km</desc>
<time>2013-07-07T17:50:37.57</time>
<name>225</name>
<sym>Dot</sym>
</trkpt>
<trkpt lat="42.871848" lon="-2.164635">
<ele>1834.5</ele>
<desc>Speed 38.3 km/h Distance 2.12 km</desc>
<time>2013-07-07T17:50:38.57</time>
<name>226</name>
<sym>Dot</sym>
</trkpt>
<trkpt lat="42.871837" lon="-2.164758">
<ele>1835.0</ele>
<desc>Speed 36.6 km/h Distance 2.13 km</desc>
<time>2013-07-07T17:50:39.56</time>
<name>227</name>
<sym>Dot</sym>
</trkpt>
<trkpt lat="42.871827" lon="-2.164878">
<ele>1836.0</ele>
<desc>Speed 35.2 km/h Distance 2.14 km</desc>
<time>2013-07-07T17:50:40.57</time>
<name>228</name>
<sym>Dot</sym>
</trkpt>
<trkpt lat="42.871815" lon="-2.164993">
<ele>1837.0</ele>
<desc>Speed 34.3 km/h Distance 2.15 km</desc>
<time>2013-07-07T17:50:41.55</time>
<name>229</name>
<sym>Dot</sym>
</trkpt>
<trkpt lat="42.871797" lon="-2.165112">
<ele>1836.5</ele>
<desc>Speed 35.1 km/h Distance 2.16 km</desc>
<time>2013-07-07T17:50:42.55</time>
<name>230</name>
<sym>Dot</sym>
</trkpt>
<trkpt lat="42.871778" lon="-2.165232">
<ele>1836.0</ele>
<desc>Speed 36.2 km/h Distance 2.17 km</desc>
<time>2013-07-07T17:50:43.56</time>
<name>231</name>
<sym>Dot</sym>
</trkpt>
<trkpt lat="42.871762" lon="-2.165357">
<ele>1835.5</ele>
<desc>Speed 37.8 km/h Distance 2.18 km</desc>
<time>2013-07-07T17:50:44.54</time>
<name>232</name>
<sym>Dot</sym>
</trkpt>
<trkpt lat="42.871750" lon="-2.165487">
<ele>1836.0</ele>
<desc>Speed 38.3 km/h Distance 2.19 km</desc>
<time>2013-07-07T17:50:45.55</time>
<name>233</name>
<sym>Dot</sym>
</trkpt>
<trkpt lat="42.871742" lon="-2.165615">
<ele>1837.0</ele>
<desc>Speed 37.6 km/h Distance 2.20 km</desc>
<time>2013-07-07T17:50:46.53</time>
<name>234</name>
<sym>Dot</sym>
</trkpt>
<trkpt lat="42.871727" lon="-2.165740">
<ele>1837.5</ele>
<desc>Speed 37.1 km/h Distance 2.21 km</desc>
<time>2013-07-07T17:50:47.53</time>
<name>235</name>
<sym>Dot</sym>
</trkpt>
<trkpt lat="42.871703" lon="-2.165862">
<ele>1838.5</ele>
<desc>Speed 37.3 km/h Distance 2.22 km</desc>
<time>2013-07-07T17:50:48.53</time>
<name>236</name>
<sym>Dot</sym>
</trkpt>
<trkpt lat="42.871670" lon="-2.166002">
<ele>1840.0</ele>
<desc>Speed 43.4 km/h Distance 2.24 km</desc>
<time>2013-07-07T17:50:49.52</time>
<name>237</name>
<sym>Dot</sym>
</trkpt>
<trkpt lat="42.871632" lon="-2.166133">
<ele>1840.5</ele>
<desc>Speed 41.9 km/h Distance 2.25 km</desc>
<time>2013-07-07T17:50:50.51</time>
<name>238</name>
<sym>Dot</sym>
</trkpt>
<trkpt lat="42.871597" lon="-2.166268">
<ele>1840.5</ele>
<desc>Speed 42.5 km/h Distance 2.26 km</desc>
<time>2013-07-07T17:50:51.51</time>
<name>239</name>
<sym>Dot</sym>
</trkpt>
<trkpt lat="42.871557" lon="-2.166410">
<ele>1841.0</ele>
<desc>Speed 44.9 km/h Distance 2.27 km</desc>
<time>2013-07-07T17:50:52.51</time>
<name>240</name>
<sym>Dot</sym>
</trkpt>
<trkpt lat="42.871512" lon="-2.166550">
<ele>1841.5</ele>
<desc>Speed 45.0 km/h Distance 2.28 km</desc>
<time>2013-07-07T17:50:53.50</time>
<name>241</name>
<sym>Dot</sym>
</trkpt>
<trkpt lat="42.871470" lon="-2.166687">
<ele>1842.0</ele>
<desc>Speed 43.6 km/h Distance 2.30 km</desc>
<time>2013-07-07T17:50:54.49</time>
<name>242</name>
<sym>Dot</sym>
</trkpt>
<trkpt lat="42.871433" lon="-2.166822">
<ele>1842.0</ele>
<desc>Speed 42.6 km/h Distance 2.31 km</desc>
<time>2013-07-07T17:50:55.49</time>
<name>243</name>
<sym>Dot</sym>
</trkpt>
<trkpt lat="42.871403" lon="-2.166955">
<ele>1843.0</ele>
<desc>Speed 41.3 km/h Distance 2.32 km</desc>
<time>2013-07-07T17:50:56.48</time>
<name>244</name>
<sym>Dot</sym>
</trkpt>
<trkpt lat="42.871372" lon="-2.167087">
<ele>1843.5</ele>
<desc>Speed 41.0 km/h Distance 2.33 km</desc>
<time>2013-07-07T17:50:57.47</time>
<name>245</name>
<sym>Dot</sym>
</trkpt>
<trkpt lat="42.871337" lon="-2.167218">
<ele>1843.5</ele>
<desc>Speed 41.3 km/h Distance 2.34 km</desc>
<time>2013-07-07T17:50:58.46</time>
<name>246</name>
<sym>Dot</sym>
</trkpt>
<trkpt lat="42.871300" lon="-2.167352">
<ele>1844.0</ele>
<desc>Speed 41.6 km/h Distance 2.35 km</desc>
<time>2013-07-07T17:50:59.46</time>
<name>247</name>
<sym>Dot</sym>
</trkpt>
<trkpt lat="42.871265" lon="-2.167483">
<ele>1844.0</ele>
<desc>Speed 41.8 km/h Distance 2.37 km</desc>
<time>2013-07-07T17:51:00.45</time>
<name>248</name>
<sym>Dot</sym>
</trkpt>
<trkpt lat="42.871230" lon="-2.167617">
<ele>1844.0</ele>
<desc>Speed 41.8 km/h Distance 2.38 km</desc>
<time>2013-07-07T17:51:01.45</time>
<name>249</name>
<sym>Dot</sym>
</trkpt>
<trkpt lat="42.871195" lon="-2.167752">
<ele>1844.0</ele>
<desc>Speed 41.8 km/h Distance 2.39 km</desc>
<time>2013-07-07T17:51:02.44</time>
<name>250</name>
<sym>Dot</sym>
</trkpt>
<trkpt lat="42.871163" lon="-2.167885">
<ele>1844.0</ele>
<desc>Speed 41.8 km/h Distance 2.40 km</desc>
<time>2013-07-07T17:51:03.45</time>
<name>251</name>
<sym>Dot</sym>
</trkpt>
<trkpt lat="42.871132" lon="-2.168018">
<ele>1844.0</ele>
<desc>Speed 41.5 km/h Distance 2.41 km</desc>
<time>2013-07-07T17:51:04.44</time>
<name>252</name>
<sym>Dot</sym>
</trkpt>
<trkpt lat="42.871100" lon="-2.168152">
<ele>1843.5</ele>
<desc>Speed 41.3 km/h Distance 2.42 km</desc>
<time>2013-07-07T17:51:05.44</time>
<name>253</name>
<sym>Dot</sym>
</trkpt>
<trkpt lat="42.871072" lon="-2.168282">
<ele>1843.0</ele>
<desc>Speed 40.2 km/h Distance 2.43 km</desc>
<time>2013-07-07T17:51:06.42</time>
<name>254</name>
<sym>Dot</sym>
</trkpt>
<trkpt lat="42.871047" lon="-2.168410">
<ele>1843.0</ele>
<desc>Speed 39.3 km/h Distance 2.44 km</desc>
<time>2013-07-07T17:51:07.43</time>
<name>255</name>
<sym>Dot</sym>
</trkpt>
<trkpt lat="42.871028" lon="-2.168538">
<ele>1842.5</ele>
<desc>Speed 38.6 km/h Distance 2.46 km</desc>
<time>2013-07-07T17:51:08.41</time>
<name>256</name>
<sym>Dot</sym>
</trkpt>
<trkpt lat="42.871015" lon="-2.168665">
<ele>1842.0</ele>
<desc>Speed 38.0 km/h Distance 2.47 km</desc>
<time>2013-07-07T17:51:09.41</time>
<name>257</name>
<sym>Dot</sym>
</trkpt>
<trkpt lat="42.871007" lon="-2.168793">
<ele>1842.0</ele>
<desc>Speed 37.8 km/h Distance 2.48 km</desc>
<time>2013-07-07T17:51:10.40</time>
<name>258</name>
<sym>Dot</sym>
</trkpt>
<trkpt lat="42.871000" lon="-2.168918">
<ele>1842.0</ele>
<desc>Speed 37.2 km/h Distance 2.49 km</desc>
<time>2013-07-07T17:51:11.39</time>
<name>259</name>
<sym>Dot</sym>
</trkpt>
<trkpt lat="42.870992" lon="-2.169035">
<ele>1843.0</ele>
<desc>Speed 35.2 km/h Distance 2.50 km</desc>
<time>2013-07-07T17:51:12.38</time>
<name>260</name>
<sym>Dot</sym>
</trkpt>
<trkpt lat="42.870978" lon="-2.169138">
<ele>1843.0</ele>
<desc>Speed 31.2 km/h Distance 2.50 km</desc>
<time>2013-07-07T17:51:13.37</time>
<name>261</name>
<sym>Dot</sym>
</trkpt>
<trkpt lat="42.870968" lon="-2.169230">
<ele>1842.5</ele>
<desc>Speed 28.2 km/h Distance 2.51 km</desc>
<time>2013-07-07T17:51:14.36</time>
<name>262</name>
<sym>Dot</sym>
</trkpt>
<trkpt lat="42.870962" lon="-2.169323">
<ele>1841.0</ele>
<desc>Speed 27.8 km/h Distance 2.52 km</desc>
<time>2013-07-07T17:51:15.35</time>
<name>263</name>
<sym>Dot</sym>
</trkpt>
<trkpt lat="42.870957" lon="-2.169425">
<ele>1839.5</ele>
<desc>Speed 30.4 km/h Distance 2.53 km</desc>
<time>2013-07-07T17:51:16.34</time>
<name>264</name>
<sym>Dot</sym>
</trkpt>
<trkpt lat="42.870953" lon="-2.169538">
<ele>1837.0</ele>
<desc>Speed 33.7 km/h Distance 2.54 km</desc>
<time>2013-07-07T17:51:17.35</time>
<name>265</name>
<sym>Dot</sym>
</trkpt>
<trkpt lat="42.870948" lon="-2.169660">
<ele>1836.0</ele>
<desc>Speed 36.2 km/h Distance 2.55 km</desc>
<time>2013-07-07T17:51:18.33</time>
<name>266</name>
<sym>Dot</sym>
</trkpt>
<trkpt lat="42.870942" lon="-2.169785">
<ele>1836.0</ele>
<desc>Speed 36.5 km/h Distance 2.56 km</desc>
<time>2013-07-07T17:51:19.33</time>
<name>267</name>
<sym>Dot</sym>
</trkpt>
<trkpt lat="42.870937" lon="-2.169905">
<ele>1836.0</ele>
<desc>Speed 35.6 km/h Distance 2.57 km</desc>
<time>2013-07-07T17:51:20.32</time>
<name>268</name>
<sym>Dot</sym>
</trkpt>
<trkpt lat="42.870932" lon="-2.170022">
<ele>1836.0</ele>
<desc>Speed 34.3 km/h Distance 2.58 km</desc>
<time>2013-07-07T17:51:21.33</time>
<name>269</name>
<sym>Dot</sym>
</trkpt>
<trkpt lat="42.870930" lon="-2.170140">
<ele>1835.5</ele>
<desc>Speed 35.0 km/h Distance 2.59 km</desc>
<time>2013-07-07T17:51:22.33</time>
<name>270</name>
<sym>Dot</sym>
</trkpt>
<trkpt lat="42.870928" lon="-2.170263">
<ele>1835.5</ele>
<desc>Speed 36.4 km/h Distance 2.60 km</desc>
<time>2013-07-07T17:51:23.31</time>
<name>271</name>
<sym>Dot</sym>
</trkpt>
<trkpt lat="42.870927" lon="-2.170392">
<ele>1835.5</ele>
<desc>Speed 37.8 km/h Distance 2.61 km</desc>
<time>2013-07-07T17:51:24.31</time>
<name>272</name>
<sym>Dot</sym>
</trkpt>
<trkpt lat="42.870918" lon="-2.170520">
<ele>1834.5</ele>
<desc>Speed 37.8 km/h Distance 2.62 km</desc>
<time>2013-07-07T17:51:25.31</time>
<name>273</name>
<sym>Dot</sym>
</trkpt>
<trkpt lat="42.870905" lon="-2.170645">
<ele>1834.5</ele>
<desc>Speed 37.3 km/h Distance 2.63 km</desc>
<time>2013-07-07T17:51:26.30</time>
<name>274</name>
<sym>Dot</sym>
</trkpt>
<trkpt lat="42.870892" lon="-2.170770">
<ele>1833.5</ele>
<desc>Speed 36.8 km/h Distance 2.64 km</desc>
<time>2013-07-07T17:51:27.29</time>
<name>275</name>
<sym>Dot</sym>
</trkpt>
<trkpt lat="42.870882" lon="-2.170895">
<ele>1832.5</ele>
<desc>Speed 36.9 km/h Distance 2.65 km</desc>
<time>2013-07-07T17:51:28.28</time>
<name>276</name>
<sym>Dot</sym>
</trkpt>
<trkpt lat="42.870875" lon="-2.171023">
<ele>1831.5</ele>
<desc>Speed 38.3 km/h Distance 2.66 km</desc>
<time>2013-07-07T17:51:29.28</time>
<name>277</name>
<sym>Dot</sym>
</trkpt>
<trkpt lat="42.870867" lon="-2.171158">
<ele>1830.5</ele>
<desc>Speed 40.2 km/h Distance 2.67 km</desc>
<time>2013-07-07T17:51:30.27</time>
<name>278</name>
<sym>Dot</sym>
</trkpt>
<trkpt lat="42.870852" lon="-2.171300">
<ele>1830.5</ele>
<desc>Speed 41.9 km/h Distance 2.68 km</desc>
<time>2013-07-07T17:51:31.26</time>
<name>279</name>
<sym>Dot</sym>
</trkpt>
<trkpt lat="42.870830" lon="-2.171442">
<ele>1830.0</ele>
<desc>Speed 42.9 km/h Distance 2.69 km</desc>
<time>2013-07-07T17:51:32.25</time>
<name>280</name>
<sym>Dot</sym>
</trkpt>
<trkpt lat="42.870800" lon="-2.171580">
<ele>1829.5</ele>
<desc>Speed 42.2 km/h Distance 2.71 km</desc>
<time>2013-07-07T17:51:33.25</time>
<name>281</name>
<sym>Dot</sym>
</trkpt>
<trkpt lat="42.870773" lon="-2.171715">
<ele>1829.0</ele>
<desc>Speed 41.1 km/h Distance 2.72 km</desc>
<time>2013-07-07T17:51:34.25</time>
<name>282</name>
<sym>Dot</sym>
</trkpt>
<trkpt lat="42.870750" lon="-2.171850">
<ele>1828.0</ele>
<desc>Speed 41.3 km/h Distance 2.73 km</desc>
<time>2013-07-07T17:51:35.24</time>
<name>283</name>
<sym>Dot</sym>
</trkpt>
<trkpt lat="42.870725" lon="-2.171992">
<ele>1827.0</ele>
<desc>Speed 42.5 km/h Distance 2.74 km</desc>
<time>2013-07-07T17:51:36.24</time>
<name>284</name>
<sym>Dot</sym>
</trkpt>
<trkpt lat="42.870697" lon="-2.172137">
<ele>1826.0</ele>
<desc>Speed 44.4 km/h Distance 2.75 km</desc>
<time>2013-07-07T17:51:37.23</time>
<name>285</name>
<sym>Dot</sym>
</trkpt>
<trkpt lat="42.870665" lon="-2.172285">
<ele>1825.5</ele>
<desc>Speed 45.3 km/h Distance 2.76 km</desc>
<time>2013-07-07T17:51:38.23</time>
<name>286</name>
<sym>Dot</sym>
</trkpt>
<trkpt lat="42.870635" lon="-2.172433">
<ele>1825.5</ele>
<desc>Speed 44.9 km/h Distance 2.78 km</desc>
<time>2013-07-07T17:51:39.22</time>
<name>287</name>
<sym>Dot</sym>
</trkpt>
<trkpt lat="42.870608" lon="-2.172575">
<ele>1826.0</ele>
<desc>Speed 43.1 km/h Distance 2.79 km</desc>
<time>2013-07-07T17:51:40.21</time>
<name>288</name>
<sym>Dot</sym>
</trkpt>
<trkpt lat="42.870588" lon="-2.172713">
<ele>1826.5</ele>
<desc>Speed 41.3 km/h Distance 2.80 km</desc>
<time>2013-07-07T17:51:41.20</time>
<name>289</name>
<sym>Dot</sym>
</trkpt>
<trkpt lat="42.870555" lon="-2.172987">
<ele>1825.5</ele>
<desc>Speed 41.1 km/h Distance 2.82 km</desc>
<time>2013-07-07T17:51:43.20</time>
<name>290</name>
<sym>Dot</sym>
</trkpt>
<trkpt lat="42.870535" lon="-2.173127">
<ele>1825.0</ele>
<desc>Speed 42.4 km/h Distance 2.84 km</desc>
<time>2013-07-07T17:51:44.20</time>
<name>291</name>
<sym>Dot</sym>
</trkpt>
<trkpt lat="42.870513" lon="-2.173273">
<ele>1824.5</ele>
<desc>Speed 43.8 km/h Distance 2.85 km</desc>
<time>2013-07-07T17:51:45.19</time>
<name>292</name>
<sym>Dot</sym>
</trkpt>
<trkpt lat="42.870490" lon="-2.173423">
<ele>1824.5</ele>
<desc>Speed 45.0 km/h Distance 2.86 km</desc>
<time>2013-07-07T17:51:46.19</time>
<name>293</name>
<sym>Dot</sym>
</trkpt>
<trkpt lat="42.870467" lon="-2.173572">
<ele>1825.0</ele>
<desc>Speed 45.0 km/h Distance 2.87 km</desc>
<time>2013-07-07T17:51:47.18</time>
<name>294</name>
<sym>Dot</sym>
</trkpt>
<trkpt lat="42.870443" lon="-2.173718">
<ele>1826.0</ele>
<desc>Speed 44.3 km/h Distance 2.88 km</desc>
<time>2013-07-07T17:51:48.18</time>
<name>295</name>
<sym>Dot</sym>
</trkpt>
<trkpt lat="42.870413" lon="-2.173863">
<ele>1825.5</ele>
<desc>Speed 44.4 km/h Distance 2.90 km</desc>
<time>2013-07-07T17:51:49.17</time>
<name>296</name>
<sym>Dot</sym>
</trkpt>
<trkpt lat="42.870372" lon="-2.173988">
<ele>1825.5</ele>
<desc>Speed 40.4 km/h Distance 2.91 km</desc>
<time>2013-07-07T17:51:50.17</time>
<name>297</name>
<sym>Dot</sym>
</trkpt>
<trkpt lat="42.870342" lon="-2.174123">
<ele>1825.5</ele>
<desc>Speed 41.3 km/h Distance 2.92 km</desc>
<time>2013-07-07T17:51:51.17</time>
<name>298</name>
<sym>Dot</sym>
</trkpt>
<trkpt lat="42.870318" lon="-2.174263">
<ele>1825.0</ele>
<desc>Speed 42.0 km/h Distance 2.93 km</desc>
<time>2013-07-07T17:51:52.17</time>
<name>299</name>
<sym>Dot</sym>
</trkpt>
<trkpt lat="42.870300" lon="-2.174408">
<ele>1824.5</ele>
<desc>Speed 43.5 km/h Distance 2.94 km</desc>
<time>2013-07-07T17:51:53.16</time>
<name>300</name>
<sym>Dot</sym>
</trkpt>
<trkpt lat="42.870280" lon="-2.174552">
<ele>1826.0</ele>
<desc>Speed 42.6 km/h Distance 2.96 km</desc>
<time>2013-07-07T17:51:54.15</time>
<name>301</name>
<sym>Dot</sym>
</trkpt>
<trkpt lat="42.870233" lon="-2.174667">
<ele>1824.5</ele>
<desc>Speed 38.8 km/h Distance 2.97 km</desc>
<time>2013-07-07T17:51:55.15</time>
<name>302</name>
<sym>Dot</sym>
</trkpt>
<trkpt lat="42.870180" lon="-2.174785">
<ele>1824.5</ele>
<desc>Speed 40.8 km/h Distance 2.98 km</desc>
<time>2013-07-07T17:51:56.14</time>
<name>303</name>
<sym>Dot</sym>
</trkpt>
<trkpt lat="42.870117" lon="-2.174912">
<ele>1824.5</ele>
<desc>Speed 45.1 km/h Distance 2.99 km</desc>
<time>2013-07-07T17:51:57.13</time>
<name>304</name>
<sym>Dot</sym>
</trkpt>
<trkpt lat="42.870055" lon="-2.175038">
<ele>1822.5</ele>
<desc>Speed 44.5 km/h Distance 3.00 km</desc>
<time>2013-07-07T17:51:58.14</time>
<name>305</name>
<sym>Dot</sym>
</trkpt>
<trkpt lat="42.870007" lon="-2.175175">
<ele>1821.0</ele>
<desc>Speed 44.9 km/h Distance 3.01 km</desc>
<time>2013-07-07T17:51:59.12</time>
<name>306</name>
<sym>Dot</sym>
</trkpt>
<trkpt lat="42.869965" lon="-2.175320">
<ele>1821.5</ele>
<desc>Speed 46.0 km/h Distance 3.03 km</desc>
<time>2013-07-07T17:52:00.11</time>
<name>307</name>
<sym>Dot</sym>
</trkpt>
<trkpt lat="42.869927" lon="-2.175460">
<ele>1822.0</ele>
<desc>Speed 43.8 km/h Distance 3.04 km</desc>
<time>2013-07-07T17:52:01.10</time>
<name>308</name>
<sym>Dot</sym>
</trkpt>
<trkpt lat="42.869888" lon="-2.175585">
<ele>1822.5</ele>
<desc>Speed 40.1 km/h Distance 3.05 km</desc>
<time>2013-07-07T17:52:02.09</time>
<name>309</name>
<sym>Dot</sym>
</trkpt>
<trkpt lat="42.869848" lon="-2.175707">
<ele>1822.5</ele>
<desc>Speed 39.6 km/h Distance 3.06 km</desc>
<time>2013-07-07T17:52:03.08</time>
<name>310</name>
<sym>Dot</sym>
</trkpt>
<trkpt lat="42.869812" lon="-2.175827">
<ele>1822.0</ele>
<desc>Speed 38.0 km/h Distance 3.07 km</desc>
<time>2013-07-07T17:52:04.08</time>
<name>311</name>
<sym>Dot</sym>
</trkpt>
<trkpt lat="42.869780" lon="-2.175952">
<ele>1821.0</ele>
<desc>Speed 38.7 km/h Distance 3.08 km</desc>
<time>2013-07-07T17:52:05.08</time>
<name>312</name>
<sym>Dot</sym>
</trkpt>
<trkpt lat="42.869753" lon="-2.176085">
<ele>1819.0</ele>
<desc>Speed 40.9 km/h Distance 3.09 km</desc>
<time>2013-07-07T17:52:06.07</time>
<name>313</name>
<sym>Dot</sym>
</trkpt>
<trkpt lat="42.869720" lon="-2.176227">
<ele>1817.0</ele>
<desc>Speed 43.7 km/h Distance 3.11 km</desc>
<time>2013-07-07T17:52:07.08</time>
<name>314</name>
<sym>Dot</sym>
</trkpt>
<trkpt lat="42.869683" lon="-2.176373">
<ele>1815.5</ele>
<desc>Speed 46.0 km/h Distance 3.12 km</desc>
<time>2013-07-07T17:52:08.06</time>
<name>315</name>
<sym>Dot</sym>
</trkpt>
<trkpt lat="42.869640" lon="-2.176518">
<ele>1814.5</ele>
<desc>Speed 46.1 km/h Distance 3.13 km</desc>
<time>2013-07-07T17:52:09.06</time>
<name>316</name>
<sym>Dot</sym>
</trkpt>
<trkpt lat="42.869597" lon="-2.176657">
<ele>1813.5</ele>
<desc>Speed 44.5 km/h Distance 3.14 km</desc>
<time>2013-07-07T17:52:10.05</time>
<name>317</name>
<sym>Dot</sym>
</trkpt>
<trkpt lat="42.869555" lon="-2.176788">
<ele>1812.5</ele>
<desc>Speed 42.6 km/h Distance 3.16 km</desc>
<time>2013-07-07T17:52:11.04</time>
<name>318</name>
<sym>Dot</sym>
</trkpt>
<trkpt lat="42.869515" lon="-2.176918">
<ele>1811.0</ele>
<desc>Speed 41.4 km/h Distance 3.17 km</desc>
<time>2013-07-07T17:52:12.04</time>
<name>319</name>
<sym>Dot</sym>
</trkpt>
<trkpt lat="42.869475" lon="-2.177048">
<ele>1809.5</ele>
<desc>Speed 41.6 km/h Distance 3.18 km</desc>
<time>2013-07-07T17:52:13.03</time>
<name>320</name>
<sym>Dot</sym>
</trkpt>
<trkpt lat="42.869440" lon="-2.177188">
<ele>1809.5</ele>
<desc>Speed 43.3 km/h Distance 3.19 km</desc>
<time>2013-07-07T17:52:14.02</time>
<name>321</name>
<sym>Dot</sym>
</trkpt>
<trkpt lat="42.869402" lon="-2.177333">
<ele>1809.5</ele>
<desc>Speed 45.6 km/h Distance 3.20 km</desc>
<time>2013-07-07T17:52:15.01</time>
<name>322</name>
<sym>Dot</sym>
</trkpt>
<trkpt lat="42.869358" lon="-2.177483">
<ele>1808.5</ele>
<desc>Speed 47.1 km/h Distance 3.22 km</desc>
<time>2013-07-07T17:52:16.00</time>
<name>323</name>
<sym>Dot</sym>
</trkpt>
<trkpt lat="42.869315" lon="-2.177630">
<ele>1807.5</ele>
<desc>Speed 46.9 km/h Distance 3.23 km</desc>
<time>2013-07-07T17:52:17.01</time>
<name>324</name>
<sym>Dot</sym>
</trkpt>
<trkpt lat="42.869273" lon="-2.177772">
<ele>1807.0</ele>
<desc>Speed 45.0 km/h Distance 3.24 km</desc>
<time>2013-07-07T17:52:17.99</time>
<name>325</name>
<sym>Dot</sym>
</trkpt>
<trkpt lat="42.869232" lon="-2.177905">
<ele>1806.5</ele>
<desc>Speed 42.7 km/h Distance 3.25 km</desc>
<time>2013-07-07T17:52:18.99</time>
<name>326</name>
<sym>Dot</sym>
</trkpt>
<trkpt lat="42.869187" lon="-2.178032">
<ele>1804.5</ele>
<desc>Speed 41.5 km/h Distance 3.27 km</desc>
<time>2013-07-07T17:52:19.98</time>
<name>327</name>
<sym>Dot</sym>
</trkpt>
<trkpt lat="42.869137" lon="-2.178160">
<ele>1803.0</ele>
<desc>Speed 43.1 km/h Distance 3.28 km</desc>
<time>2013-07-07T17:52:20.98</time>
<name>328</name>
<sym>Dot</sym>
</trkpt>
<trkpt lat="42.869082" lon="-2.178300">
<ele>1800.5</ele>
<desc>Speed 46.5 km/h Distance 3.29 km</desc>
<time>2013-07-07T17:52:21.97</time>
<name>329</name>
<sym>Dot</sym>
</trkpt>
<trkpt lat="42.869028" lon="-2.178445">
<ele>1799.5</ele>
<desc>Speed 47.9 km/h Distance 3.30 km</desc>
<time>2013-07-07T17:52:22.98</time>
<name>330</name>
<sym>Dot</sym>
</trkpt>
<trkpt lat="42.868975" lon="-2.178590">
<ele>1798.5</ele>
<desc>Speed 47.6 km/h Distance 3.32 km</desc>
<time>2013-07-07T17:52:23.96</time>
<name>331</name>
<sym>Dot</sym>
</trkpt>
<trkpt lat="42.868925" lon="-2.178727">
<ele>1798.5</ele>
<desc>Speed 45.2 km/h Distance 3.33 km</desc>
<time>2013-07-07T17:52:24.96</time>
<name>332</name>
<sym>Dot</sym>
</trkpt>
<trkpt lat="42.868875" lon="-2.178853">
<ele>1798.0</ele>
<desc>Speed 42.9 km/h Distance 3.34 km</desc>
<time>2013-07-07T17:52:25.95</time>
<name>333</name>
<sym>Dot</sym>
</trkpt>
<trkpt lat="42.868825" lon="-2.178982">
<ele>1796.5</ele>
<desc>Speed 42.6 km/h Distance 3.35 km</desc>
<time>2013-07-07T17:52:26.96</time>
<name>334</name>
<sym>Dot</sym>
</trkpt>
<trkpt lat="42.868773" lon="-2.179112">
<ele>1794.5</ele>
<desc>Speed 43.6 km/h Distance 3.36 km</desc>
<time>2013-07-07T17:52:27.95</time>
<name>335</name>
<sym>Dot</sym>
</trkpt>
<trkpt lat="42.868720" lon="-2.179250">
<ele>1793.5</ele>
<desc>Speed 45.8 km/h Distance 3.38 km</desc>
<time>2013-07-07T17:52:28.94</time>
<name>336</name>
<sym>Dot</sym>
</trkpt>
<trkpt lat="42.868665" lon="-2.179393">
<ele>1792.0</ele>
<desc>Speed 47.7 km/h Distance 3.39 km</desc>
<time>2013-07-07T17:52:29.94</time>
<name>337</name>
<sym>Dot</sym>
</trkpt>
<trkpt lat="42.868608" lon="-2.179537">
<ele>1791.5</ele>
<desc>Speed 47.9 km/h Distance 3.40 km</desc>
<time>2013-07-07T17:52:30.93</time>
<name>338</name>
<sym>Dot</sym>
</trkpt>
<trkpt lat="42.868553" lon="-2.179675">
<ele>1791.0</ele>
<desc>Speed 46.4 km/h Distance 3.42 km</desc>
<time>2013-07-07T17:52:31.93</time>
<name>339</name>
<sym>Dot</sym>
</trkpt>
<trkpt lat="42.868498" lon="-2.179808">
<ele>1790.5</ele>
<desc>Speed 45.0 km/h Distance 3.43 km</desc>
<time>2013-07-07T17:52:32.92</time>
<name>340</name>
<sym>Dot</sym>
</trkpt>
<trkpt lat="42.868447" lon="-2.179947">
<ele>1789.0</ele>
<desc>Speed 45.5 km/h Distance 3.44 km</desc>
<time>2013-07-07T17:52:33.92</time>
<name>341</name>
<sym>Dot</sym>
</trkpt>
<trkpt lat="42.868393" lon="-2.180092">
<ele>1787.0</ele>
<desc>Speed 47.4 km/h Distance 3.45 km</desc>
<time>2013-07-07T17:52:34.91</time>
<name>342</name>
<sym>Dot</sym>
</trkpt>
<trkpt lat="42.868340" lon="-2.180240">
<ele>1786.0</ele>
<desc>Speed 48.6 km/h Distance 3.47 km</desc>
<time>2013-07-07T17:52:35.92</time>
<name>343</name>
<sym>Dot</sym>
</trkpt>
<trkpt lat="42.868283" lon="-2.180385">
<ele>1785.0</ele>
<desc>Speed 48.6 km/h Distance 3.48 km</desc>
<time>2013-07-07T17:52:36.90</time>
<name>344</name>
<sym>Dot</sym>
</trkpt>
<trkpt lat="42.868227" lon="-2.180527">
<ele>1784.0</ele>
<desc>Speed 47.5 km/h Distance 3.49 km</desc>
<time>2013-07-07T17:52:37.90</time>
<name>345</name>
<sym>Dot</sym>
</trkpt>
<trkpt lat="42.868170" lon="-2.180663">
<ele>1783.0</ele>
<desc>Speed 46.1 km/h Distance 3.51 km</desc>
<time>2013-07-07T17:52:38.89</time>
<name>346</name>
<sym>Dot</sym>
</trkpt>
<trkpt lat="42.868113" lon="-2.180798">
<ele>1782.0</ele>
<desc>Speed 45.9 km/h Distance 3.52 km</desc>
<time>2013-07-07T17:52:39.89</time>
<name>347</name>
<sym>Dot</sym>
</trkpt>
<trkpt lat="42.868057" lon="-2.180937">
<ele>1780.0</ele>
<desc>Speed 46.7 km/h Distance 3.53 km</desc>
<time>2013-07-07T17:52:40.89</time>
<name>348</name>
<sym>Dot</sym>
</trkpt>
<trkpt lat="42.868000" lon="-2.181078">
<ele>1778.0</ele>
<desc>Speed 47.9 km/h Distance 3.55 km</desc>
<time>2013-07-07T17:52:41.89</time>
<name>349</name>
<sym>Dot</sym>
</trkpt>
<trkpt lat="42.867943" lon="-2.181225">
<ele>1777.5</ele>
<desc>Speed 48.5 km/h Distance 3.56 km</desc>
<time>2013-07-07T17:52:42.88</time>
<name>350</name>
<sym>Dot</sym>
</trkpt>
<trkpt lat="42.867885" lon="-2.181368">
<ele>1776.5</ele>
<desc>Speed 48.0 km/h Distance 3.57 km</desc>
<time>2013-07-07T17:52:43.87</time>
<name>351</name>
<sym>Dot</sym>
</trkpt>
<trkpt lat="42.867827" lon="-2.181508">
<ele>1776.0</ele>
<desc>Speed 47.4 km/h Distance 3.59 km</desc>
<time>2013-07-07T17:52:44.86</time>
<name>352</name>
<sym>Dot</sym>
</trkpt>
<trkpt lat="42.867767" lon="-2.181643">
<ele>1774.5</ele>
<desc>Speed 46.8 km/h Distance 3.60 km</desc>
<time>2013-07-07T17:52:45.86</time>
<name>353</name>
<sym>Dot</sym>
</trkpt>
<trkpt lat="42.867707" lon="-2.181778">
<ele>1773.0</ele>
<desc>Speed 46.5 km/h Distance 3.61 km</desc>
<time>2013-07-07T17:52:46.85</time>
<name>354</name>
<sym>Dot</sym>
</trkpt>
<trkpt lat="42.867647" lon="-2.181913">
<ele>1771.0</ele>
<desc>Speed 46.4 km/h Distance 3.63 km</desc>
<time>2013-07-07T17:52:47.85</time>
<name>355</name>
<sym>Dot</sym>
</trkpt>
<trkpt lat="42.867588" lon="-2.182055">
<ele>1769.5</ele>
<desc>Speed 47.7 km/h Distance 3.64 km</desc>
<time>2013-07-07T17:52:48.83</time>
<name>356</name>
<sym>Dot</sym>
</trkpt>
<trkpt lat="42.867530" lon="-2.182202">
<ele>1768.0</ele>
<desc>Speed 49.0 km/h Distance 3.65 km</desc>
<time>2013-07-07T17:52:49.83</time>
<name>357</name>
<sym>Dot</sym>
</trkpt>
<trkpt lat="42.867472" lon="-2.182352">
<ele>1767.0</ele>
<desc>Speed 50.3 km/h Distance 3.67 km</desc>
<time>2013-07-07T17:52:50.82</time>
<name>358</name>
<sym>Dot</sym>
</trkpt>
<trkpt lat="42.867410" lon="-2.182500">
<ele>1766.5</ele>
<desc>Speed 50.3 km/h Distance 3.68 km</desc>
<time>2013-07-07T17:52:51.82</time>
<name>359</name>
<sym>Dot</sym>
</trkpt>
<trkpt lat="42.867350" lon="-2.182642">
<ele>1766.5</ele>
<desc>Speed 48.2 km/h Distance 3.69 km</desc>
<time>2013-07-07T17:52:52.80</time>
<name>360</name>
<sym>Dot</sym>
</trkpt>
<trkpt lat="42.867290" lon="-2.182780">
<ele>1764.5</ele>
<desc>Speed 47.2 km/h Distance 3.71 km</desc>
<time>2013-07-07T17:52:53.80</time>
<name>361</name>
<sym>Dot</sym>
</trkpt>
<trkpt lat="42.867238" lon="-2.182920">
<ele>1763.0</ele>
<desc>Speed 46.1 km/h Distance 3.72 km</desc>
<time>2013-07-07T17:52:54.78</time>
<name>362</name>
<sym>Dot</sym>
</trkpt>
<trkpt lat="42.867190" lon="-2.183070">
<ele>1761.5</ele>
<desc>Speed 48.5 km/h Distance 3.73 km</desc>
<time>2013-07-07T17:52:55.78</time>
<name>363</name>
<sym>Dot</sym>
</trkpt>
<trkpt lat="42.867138" lon="-2.183228">
<ele>1759.5</ele>
<desc>Speed 50.8 km/h Distance 3.75 km</desc>
<time>2013-07-07T17:52:56.78</time>
<name>364</name>
<sym>Dot</sym>
</trkpt>
<trkpt lat="42.867080" lon="-2.183383">
<ele>1759.0</ele>
<desc>Speed 51.2 km/h Distance 3.76 km</desc>
<time>2013-07-07T17:52:57.77</time>
<name>365</name>
<sym>Dot</sym>
</trkpt>
<trkpt lat="42.867013" lon="-2.183527">
<ele>1758.0</ele>
<desc>Speed 49.9 km/h Distance 3.77 km</desc>
<time>2013-07-07T17:52:58.76</time>
<name>366</name>
<sym>Dot</sym>
</trkpt>
<trkpt lat="42.866942" lon="-2.183662">
<ele>1757.0</ele>
<desc>Speed 48.8 km/h Distance 3.79 km</desc>
<time>2013-07-07T17:52:59.76</time>
<name>367</name>
<sym>Dot</sym>
</trkpt>
<trkpt lat="42.866872" lon="-2.183800">
<ele>1755.0</ele>
<desc>Speed 49.6 km/h Distance 3.80 km</desc>
<time>2013-07-07T17:53:00.75</time>
<name>368</name>
<sym>Dot</sym>
</trkpt>
<trkpt lat="42.866808" lon="-2.183948">
<ele>1755.0</ele>
<desc>Speed 50.5 km/h Distance 3.82 km</desc>
<time>2013-07-07T17:53:01.75</time>
<name>369</name>
<sym>Dot</sym>
</trkpt>
<trkpt lat="42.866743" lon="-2.184102">
<ele>1753.0</ele>
<desc>Speed 52.3 km/h Distance 3.83 km</desc>
<time>2013-07-07T17:53:02.74</time>
<name>370</name>
<sym>Dot</sym>
</trkpt>
<trkpt lat="42.866672" lon="-2.184255">
<ele>1751.5</ele>
<desc>Speed 53.6 km/h Distance 3.85 km</desc>
<time>2013-07-07T17:53:03.74</time>
<name>371</name>
<sym>Dot</sym>
</trkpt>
<trkpt lat="42.866567" lon="-2.184387">
<ele>1750.0</ele>
<desc>Speed 57.2 km/h Distance 3.86 km</desc>
<time>2013-07-07T17:53:04.74</time>
<name>372</name>
<sym>Dot</sym>
</trkpt>
<trkpt lat="42.866475" lon="-2.184520">
<ele>1750.0</ele>
<desc>Speed 53.2 km/h Distance 3.88 km</desc>
<time>2013-07-07T17:53:05.73</time>
<name>373</name>
<sym>Dot</sym>
</trkpt>
<trkpt lat="42.866385" lon="-2.184640">
<ele>1750.5</ele>
<desc>Speed 50.6 km/h Distance 3.89 km</desc>
<time>2013-07-07T17:53:06.72</time>
<name>374</name>
<sym>Dot</sym>
</trkpt>
<trkpt lat="42.866303" lon="-2.184757">
<ele>1750.5</ele>
<desc>Speed 47.9 km/h Distance 3.90 km</desc>
<time>2013-07-07T17:53:07.71</time>
<name>375</name>
<sym>Dot</sym>
</trkpt>
<trkpt lat="42.866227" lon="-2.184880">
<ele>1750.0</ele>
<desc>Speed 47.4 km/h Distance 3.92 km</desc>
<time>2013-07-07T17:53:08.71</time>
<name>376</name>
<sym>Dot</sym>
</trkpt>
<trkpt lat="42.866160" lon="-2.185017">
<ele>1750.0</ele>
<desc>Speed 48.6 km/h Distance 3.93 km</desc>
<time>2013-07-07T17:53:09.70</time>
<name>377</name>
<sym>Dot</sym>
</trkpt>
<trkpt lat="42.866083" lon="-2.185158">
<ele>1748.5</ele>
<desc>Speed 51.9 km/h Distance 3.94 km</desc>
<time>2013-07-07T17:53:10.70</time>
<name>378</name>
<sym>Dot</sym>
</trkpt>
<trkpt lat="42.866002" lon="-2.185305">
<ele>1747.0</ele>
<desc>Speed 53.6 km/h Distance 3.96 km</desc>
<time>2013-07-07T17:53:11.70</time>
<name>379</name>
<sym>Dot</sym>
</trkpt>
<trkpt lat="42.865920" lon="-2.185452">
<ele>1746.0</ele>
<desc>Speed 54.0 km/h Distance 3.97 km</desc>
<time>2013-07-07T17:53:12.69</time>
<name>380</name>
<sym>Dot</sym>
</trkpt>
<trkpt lat="42.865845" lon="-2.185597">
<ele>1745.5</ele>
<desc>Speed 52.8 km/h Distance 3.99 km</desc>
<time>2013-07-07T17:53:13.68</time>
<name>381</name>
<sym>Dot</sym>
</trkpt>
<trkpt lat="42.865775" lon="-2.185745">
<ele>1744.5</ele>
<desc>Speed 51.8 km/h Distance 4.00 km</desc>
<time>2013-07-07T17:53:14.68</time>
<name>382</name>
<sym>Dot</sym>
</trkpt>
<trkpt lat="42.865708" lon="-2.185893">
<ele>1744.0</ele>
<desc>Speed 51.4 km/h Distance 4.02 km</desc>
<time>2013-07-07T17:53:15.67</time>
<name>383</name>
<sym>Dot</sym>
</trkpt>
<trkpt lat="42.865640" lon="-2.186040">
<ele>1743.0</ele>
<desc>Speed 50.9 km/h Distance 4.03 km</desc>
<time>2013-07-07T17:53:16.67</time>
<name>384</name>
<sym>Dot</sym>
</trkpt>
<trkpt lat="42.865573" lon="-2.186182">
<ele>1742.0</ele>
<desc>Speed 49.9 km/h Distance 4.05 km</desc>
<time>2013-07-07T17:53:17.66</time>
<name>385</name>
<sym>Dot</sym>
</trkpt>
<trkpt lat="42.865503" lon="-2.186318">
<ele>1741.0</ele>
<desc>Speed 49.4 km/h Distance 4.06 km</desc>
<time>2013-07-07T17:53:18.66</time>
<name>386</name>
<sym>Dot</sym>
</trkpt>
<trkpt lat="42.865433" lon="-2.186453">
<ele>1740.0</ele>
<desc>Speed 49.0 km/h Distance 4.07 km</desc>
<time>2013-07-07T17:53:19.65</time>
<name>387</name>
<sym>Dot</sym>
</trkpt>
<trkpt lat="42.865365" lon="-2.186587">
<ele>1739.0</ele>
<desc>Speed 48.2 km/h Distance 4.09 km</desc>
<time>2013-07-07T17:53:20.65</time>
<name>388</name>
<sym>Dot</sym>
</trkpt>
<trkpt lat="42.865298" lon="-2.186725">
<ele>1738.0</ele>
<desc>Speed 48.2 km/h Distance 4.10 km</desc>
<time>2013-07-07T17:53:21.64</time>
<name>389</name>
<sym>Dot</sym>
</trkpt>
<trkpt lat="42.865235" lon="-2.186870">
<ele>1736.5</ele>
<desc>Speed 50.1 km/h Distance 4.11 km</desc>
<time>2013-07-07T17:53:22.64</time>
<name>390</name>
<sym>Dot</sym>
</trkpt>
<trkpt lat="42.865170" lon="-2.187023">
<ele>1736.0</ele>
<desc>Speed 52.0 km/h Distance 4.13 km</desc>
<time>2013-07-07T17:53:23.63</time>
<name>391</name>
<sym>Dot</sym>
</trkpt>
<trkpt lat="42.865102" lon="-2.187175">
<ele>1736.0</ele>
<desc>Speed 52.3 km/h Distance 4.14 km</desc>
<time>2013-07-07T17:53:24.63</time>
<name>392</name>
<sym>Dot</sym>
</trkpt>
<trkpt lat="42.865035" lon="-2.187320">
<ele>1737.0</ele>
<desc>Speed 50.1 km/h Distance 4.16 km</desc>
<time>2013-07-07T17:53:25.62</time>
<name>393</name>
<sym>Dot</sym>
</trkpt>
<trkpt lat="42.864977" lon="-2.187450">
<ele>1737.0</ele>
<desc>Speed 45.4 km/h Distance 4.17 km</desc>
<time>2013-07-07T17:53:26.62</time>
<name>394</name>
<sym>Dot</sym>
</trkpt>
<trkpt lat="42.864918" lon="-2.187583">
<ele>1737.0</ele>
<desc>Speed 45.5 km/h Distance 4.18 km</desc>
<time>2013-07-07T17:53:27.61</time>
<name>395</name>
<sym>Dot</sym>
</trkpt>
<trkpt lat="42.864857" lon="-2.187712">
<ele>1736.0</ele>
<desc>Speed 45.2 km/h Distance 4.19 km</desc>
<time>2013-07-07T17:53:28.60</time>
<name>396</name>
<sym>Dot</sym>
</trkpt>
<trkpt lat="42.864795" lon="-2.187843">
<ele>1736.0</ele>
<desc>Speed 46.1 km/h Distance 4.21 km</desc>
<time>2013-07-07T17:53:29.60</time>
<name>397</name>
<sym>Dot</sym>
</trkpt>
<trkpt lat="42.864720" lon="-2.187973">
<ele>1735.0</ele>
<desc>Speed 48.6 km/h Distance 4.22 km</desc>
<time>2013-07-07T17:53:30.60</time>
<name>398</name>
<sym>Dot</sym>
</trkpt>
<trkpt lat="42.864637" lon="-2.188102">
<ele>1734.5</ele>
<desc>Speed 50.4 km/h Distance 4.23 km</desc>
<time>2013-07-07T17:53:31.58</time>
<name>399</name>
<sym>Dot</sym>
</trkpt>
<trkpt lat="42.864550" lon="-2.188225">
<ele>1734.5</ele>
<desc>Speed 50.0 km/h Distance 4.25 km</desc>
<time>2013-07-07T17:53:32.58</time>
<name>400</name>
<sym>Dot</sym>
</trkpt>
<trkpt lat="42.864463" lon="-2.188342">
<ele>1735.0</ele>
<desc>Speed 49.1 km/h Distance 4.26 km</desc>
<time>2013-07-07T17:53:33.57</time>
<name>401</name>
<sym>Dot</sym>
</trkpt>
<trkpt lat="42.864370" lon="-2.188448">
<ele>1733.5</ele>
<desc>Speed 49.6 km/h Distance 4.27 km</desc>
<time>2013-07-07T17:53:34.57</time>
<name>402</name>
<sym>Dot</sym>
</trkpt>
<trkpt lat="42.864278" lon="-2.188568">
<ele>1733.0</ele>
<desc>Speed 51.0 km/h Distance 4.29 km</desc>
<time>2013-07-07T17:53:35.58</time>
<name>403</name>
<sym>Dot</sym>
</trkpt>
<trkpt lat="42.864185" lon="-2.188690">
<ele>1733.0</ele>
<desc>Speed 51.7 km/h Distance 4.30 km</desc>
<time>2013-07-07T17:53:36.57</time>
<name>404</name>
<sym>Dot</sym>
</trkpt>
<trkpt lat="42.864092" lon="-2.188808">
<ele>1734.0</ele>
<desc>Speed 50.9 km/h Distance 4.32 km</desc>
<time>2013-07-07T17:53:37.56</time>
<name>405</name>
<sym>Dot</sym>
</trkpt>
<trkpt lat="42.863995" lon="-2.188917">
<ele>1734.5</ele>
<desc>Speed 50.1 km/h Distance 4.33 km</desc>
<time>2013-07-07T17:53:38.57</time>
<name>406</name>
<sym>Dot</sym>
</trkpt>
<trkpt lat="42.863903" lon="-2.189020">
<ele>1735.0</ele>
<desc>Speed 48.3 km/h Distance 4.34 km</desc>
<time>2013-07-07T17:53:39.56</time>
<name>407</name>
<sym>Dot</sym>
</trkpt>
<trkpt lat="42.863812" lon="-2.189120">
<ele>1734.0</ele>
<desc>Speed 47.1 km/h Distance 4.36 km</desc>
<time>2013-07-07T17:53:40.54</time>
<name>408</name>
<sym>Dot</sym>
</trkpt>
<trkpt lat="42.863722" lon="-2.189225">
<ele>1732.5</ele>
<desc>Speed 47.0 km/h Distance 4.37 km</desc>
<time>2013-07-07T17:53:41.55</time>
<name>409</name>
<sym>Dot</sym>
</trkpt>
<trkpt lat="42.863633" lon="-2.189335">
<ele>1731.0</ele>
<desc>Speed 47.9 km/h Distance 4.38 km</desc>
<time>2013-07-07T17:53:42.53</time>
<name>410</name>
<sym>Dot</sym>
</trkpt>
<trkpt lat="42.863545" lon="-2.189452">
<ele>1730.0</ele>
<desc>Speed 49.0 km/h Distance 4.40 km</desc>
<time>2013-07-07T17:53:43.53</time>
<name>411</name>
<sym>Dot</sym>
</trkpt>
<trkpt lat="42.863457" lon="-2.189567">
<ele>1729.5</ele>
<desc>Speed 48.9 km/h Distance 4.41 km</desc>
<time>2013-07-07T17:53:44.53</time>
<name>412</name>
<sym>Dot</sym>
</trkpt>
<trkpt lat="42.863370" lon="-2.189678">
<ele>1729.0</ele>
<desc>Speed 48.0 km/h Distance 4.42 km</desc>
<time>2013-07-07T17:53:45.52</time>
<name>413</name>
<sym>Dot</sym>
</trkpt>
<trkpt lat="42.863283" lon="-2.189787">
<ele>1728.5</ele>
<desc>Speed 47.5 km/h Distance 4.44 km</desc>
<time>2013-07-07T17:53:46.51</time>
<name>414</name>
<sym>Dot</sym>
</trkpt>
<trkpt lat="42.863198" lon="-2.189897">
<ele>1727.0</ele>
<desc>Speed 47.6 km/h Distance 4.45 km</desc>
<time>2013-07-07T17:53:47.50</time>
<name>415</name>
<sym>Dot</sym>
</trkpt>
<trkpt lat="42.863113" lon="-2.190015">
<ele>1726.0</ele>
<desc>Speed 49.1 km/h Distance 4.46 km</desc>
<time>2013-07-07T17:53:48.49</time>
<name>416</name>
<sym>Dot</sym>
</trkpt>
<trkpt lat="42.863028" lon="-2.190143">
<ele>1725.0</ele>
<desc>Speed 50.5 km/h Distance 4.48 km</desc>
<time>2013-07-07T17:53:49.48</time>
<name>417</name>
<sym>Dot</sym>
</trkpt>
<trkpt lat="42.862947" lon="-2.190272">
<ele>1724.5</ele>
<desc>Speed 50.2 km/h Distance 4.49 km</desc>
<time>2013-07-07T17:53:50.47</time>
<name>418</name>
<sym>Dot</sym>
</trkpt>
<trkpt lat="42.862867" lon="-2.190397">
<ele>1724.5</ele>
<desc>Speed 48.4 km/h Distance 4.51 km</desc>
<time>2013-07-07T17:53:51.48</time>
<name>419</name>
<sym>Dot</sym>
</trkpt>
<trkpt lat="42.862788" lon="-2.190513">
<ele>1724.5</ele>
<desc>Speed 46.1 km/h Distance 4.52 km</desc>
<time>2013-07-07T17:53:52.45</time>
<name>420</name>
<sym>Dot</sym>
</trkpt>
<trkpt lat="42.862713" lon="-2.190625">
<ele>1724.5</ele>
<desc>Speed 44.9 km/h Distance 4.53 km</desc>
<time>2013-07-07T17:53:53.44</time>
<name>421</name>
<sym>Dot</sym>
</trkpt>
<trkpt lat="42.862640" lon="-2.190740">
<ele>1723.5</ele>
<desc>Speed 44.6 km/h Distance 4.54 km</desc>
<time>2013-07-07T17:53:54.43</time>
<name>422</name>
<sym>Dot</sym>
</trkpt>
<trkpt lat="42.862567" lon="-2.190860">
<ele>1722.0</ele>
<desc>Speed 45.8 km/h Distance 4.56 km</desc>
<time>2013-07-07T17:53:55.43</time>
<name>423</name>
<sym>Dot</sym>
</trkpt>
<trkpt lat="42.862493" lon="-2.190987">
<ele>1721.0</ele>
<desc>Speed 47.4 km/h Distance 4.57 km</desc>
<time>2013-07-07T17:53:56.42</time>
<name>424</name>
<sym>Dot</sym>
</trkpt>
<trkpt lat="42.862422" lon="-2.191118">
<ele>1720.5</ele>
<desc>Speed 48.0 km/h Distance 4.58 km</desc>
<time>2013-07-07T17:53:57.42</time>
<name>425</name>
<sym>Dot</sym>
</trkpt>
<trkpt lat="42.862350" lon="-2.191247">
<ele>1720.0</ele>
<desc>Speed 47.3 km/h Distance 4.60 km</desc>
<time>2013-07-07T17:53:58.41</time>
<name>426</name>
<sym>Dot</sym>
</trkpt>
<trkpt lat="42.862280" lon="-2.191373">
<ele>1719.5</ele>
<desc>Speed 46.8 km/h Distance 4.61 km</desc>
<time>2013-07-07T17:53:59.40</time>
<name>427</name>
<sym>Dot</sym>
</trkpt>
<trkpt lat="42.862210" lon="-2.191502">
<ele>1718.5</ele>
<desc>Speed 46.4 km/h Distance 4.62 km</desc>
<time>2013-07-07T17:54:00.39</time>
<name>428</name>
<sym>Dot</sym>
</trkpt>
<trkpt lat="42.862152" lon="-2.191635">
<ele>1718.5</ele>
<desc>Speed 46.2 km/h Distance 4.63 km</desc>
<time>2013-07-07T17:54:01.39</time>
<name>429</name>
<sym>Dot</sym>
</trkpt>
<trkpt lat="42.862090" lon="-2.191770">
<ele>1717.5</ele>
<desc>Speed 47.0 km/h Distance 4.65 km</desc>
<time>2013-07-07T17:54:02.38</time>
<name>430</name>
<sym>Dot</sym>
</trkpt>
<trkpt lat="42.862023" lon="-2.191907">
<ele>1716.0</ele>
<desc>Speed 48.6 km/h Distance 4.66 km</desc>
<time>2013-07-07T17:54:03.37</time>
<name>431</name>
<sym>Dot</sym>
</trkpt>
<trkpt lat="42.861952" lon="-2.192048">
<ele>1715.0</ele>
<desc>Speed 50.5 km/h Distance 4.68 km</desc>
<time>2013-07-07T17:54:04.37</time>
<name>432</name>
<sym>Dot</sym>
</trkpt>
<trkpt lat="42.861878" lon="-2.192195">
<ele>1713.5</ele>
<desc>Speed 52.5 km/h Distance 4.69 km</desc>
<time>2013-07-07T17:54:05.36</time>
<name>433</name>
<sym>Dot</sym>
</trkpt>
<trkpt lat="42.861803" lon="-2.192345">
<ele>1713.5</ele>
<desc>Speed 53.9 km/h Distance 4.70 km</desc>
<time>2013-07-07T17:54:06.36</time>
<name>434</name>
<sym>Dot</sym>
</trkpt>
<trkpt lat="42.861723" lon="-2.192492">
<ele>1713.5</ele>
<desc>Speed 54.2 km/h Distance 4.72 km</desc>
<time>2013-07-07T17:54:07.35</time>
<name>435</name>
<sym>Dot</sym>
</trkpt>
<trkpt lat="42.861645" lon="-2.192633">
<ele>1714.5</ele>
<desc>Speed 51.9 km/h Distance 4.73 km</desc>
<time>2013-07-07T17:54:08.34</time>
<name>436</name>
<sym>Dot</sym>
</trkpt>
<trkpt lat="42.861573" lon="-2.192765">
<ele>1715.0</ele>
<desc>Speed 48.5 km/h Distance 4.75 km</desc>
<time>2013-07-07T17:54:09.33</time>
<name>437</name>
<sym>Dot</sym>
</trkpt>
<trkpt lat="42.861507" lon="-2.192893">
<ele>1714.0</ele>
<desc>Speed 46.5 km/h Distance 4.76 km</desc>
<time>2013-07-07T17:54:10.32</time>
<name>438</name>
<sym>Dot</sym>
</trkpt>
<trkpt lat="42.861448" lon="-2.193022">
<ele>1712.0</ele>
<desc>Speed 44.0 km/h Distance 4.77 km</desc>
<time>2013-07-07T17:54:11.32</time>
<name>439</name>
<sym>Dot</sym>
</trkpt>
<trkpt lat="42.861395" lon="-2.193153">
<ele>1712.0</ele>
<desc>Speed 44.7 km/h Distance 4.78 km</desc>
<time>2013-07-07T17:54:12.32</time>
<name>440</name>
<sym>Dot</sym>
</trkpt>
<trkpt lat="42.861335" lon="-2.193292">
<ele>1711.5</ele>
<desc>Speed 47.2 km/h Distance 4.80 km</desc>
<time>2013-07-07T17:54:13.31</time>
<name>441</name>
<sym>Dot</sym>
</trkpt>
<trkpt lat="42.861267" lon="-2.193433">
<ele>1710.0</ele>
<desc>Speed 50.0 km/h Distance 4.81 km</desc>
<time>2013-07-07T17:54:14.30</time>
<name>442</name>
<sym>Dot</sym>
</trkpt>
<trkpt lat="42.861195" lon="-2.193573">
<ele>1709.0</ele>
<desc>Speed 49.9 km/h Distance 4.83 km</desc>
<time>2013-07-07T17:54:15.29</time>
<name>443</name>
<sym>Dot</sym>
</trkpt>
<trkpt lat="42.861132" lon="-2.193710">
<ele>1708.0</ele>
<desc>Speed 47.6 km/h Distance 4.84 km</desc>
<time>2013-07-07T17:54:16.28</time>
<name>444</name>
<sym>Dot</sym>
</trkpt>
<trkpt lat="42.861073" lon="-2.193842">
<ele>1706.5</ele>
<desc>Speed 45.3 km/h Distance 4.85 km</desc>
<time>2013-07-07T17:54:17.27</time>
<name>445</name>
<sym>Dot</sym>
</trkpt>
<trkpt lat="42.861022" lon="-2.193978">
<ele>1704.5</ele>
<desc>Speed 45.2 km/h Distance 4.86 km</desc>
<time>2013-07-07T17:54:18.27</time>
<name>446</name>
<sym>Dot</sym>
</trkpt>
<trkpt lat="42.860977" lon="-2.194120">
<ele>1704.5</ele>
<desc>Speed 45.8 km/h Distance 4.88 km</desc>
<time>2013-07-07T17:54:19.26</time>
<name>447</name>
<sym>Dot</sym>
</trkpt>
<trkpt lat="42.860923" lon="-2.194272">
<ele>1703.0</ele>
<desc>Speed 49.2 km/h Distance 4.89 km</desc>
<time>2013-07-07T17:54:20.25</time>
<name>448</name>
<sym>Dot</sym>
</trkpt>
<trkpt lat="42.860867" lon="-2.194428">
<ele>1701.5</ele>
<desc>Speed 51.0 km/h Distance 4.90 km</desc>
<time>2013-07-07T17:54:21.24</time>
<name>449</name>
<sym>Dot</sym>
</trkpt>
<trkpt lat="42.860805" lon="-2.194580">
<ele>1701.5</ele>
<desc>Speed 51.0 km/h Distance 4.92 km</desc>
<time>2013-07-07T17:54:22.24</time>
<name>450</name>
<sym>Dot</sym>
</trkpt>
<trkpt lat="42.860743" lon="-2.194723">
<ele>1701.5</ele>
<desc>Speed 48.7 km/h Distance 4.93 km</desc>
<time>2013-07-07T17:54:23.23</time>
<name>451</name>
<sym>Dot</sym>
</trkpt>
<trkpt lat="42.860687" lon="-2.194860">
<ele>1700.5</ele>
<desc>Speed 46.3 km/h Distance 4.94 km</desc>
<time>2013-07-07T17:54:24.23</time>
<name>452</name>
<sym>Dot</sym>
</trkpt>
<trkpt lat="42.860633" lon="-2.194997">
<ele>1700.0</ele>
<desc>Speed 45.1 km/h Distance 4.96 km</desc>
<time>2013-07-07T17:54:25.22</time>
<name>453</name>
<sym>Dot</sym>
</trkpt>
<trkpt lat="42.860582" lon="-2.195137">
<ele>1698.5</ele>
<desc>Speed 46.2 km/h Distance 4.97 km</desc>
<time>2013-07-07T17:54:26.21</time>
<name>454</name>
<sym>Dot</sym>
</trkpt>
<trkpt lat="42.860528" lon="-2.195292">
<ele>1699.0</ele>
<desc>Speed 50.3 km/h Distance 4.98 km</desc>
<time>2013-07-07T17:54:27.20</time>
<name>455</name>
<sym>Dot</sym>
</trkpt>
<trkpt lat="42.860468" lon="-2.195445">
<ele>1699.0</ele>
<desc>Speed 50.5 km/h Distance 5.00 km</desc>
<time>2013-07-07T17:54:28.20</time>
<name>456</name>
<sym>Dot</sym>
</trkpt>
<trkpt lat="42.860402" lon="-2.195590">
<ele>1699.5</ele>
<desc>Speed 50.7 km/h Distance 5.01 km</desc>
<time>2013-07-07T17:54:29.19</time>
<name>457</name>
<sym>Dot</sym>
</trkpt>
<trkpt lat="42.860333" lon="-2.195733">
<ele>1700.0</ele>
<desc>Speed 50.3 km/h Distance 5.03 km</desc>
<time>2013-07-07T17:54:30.18</time>
<name>458</name>
<sym>Dot</sym>
</trkpt>
<trkpt lat="42.860270" lon="-2.195878">
<ele>1700.0</ele>
<desc>Speed 49.5 km/h Distance 5.04 km</desc>
<time>2013-07-07T17:54:31.17</time>
<name>459</name>
<sym>Dot</sym>
</trkpt>
<trkpt lat="42.860217" lon="-2.196023">
<ele>1700.5</ele>
<desc>Speed 48.0 km/h Distance 5.05 km</desc>
<time>2013-07-07T17:54:32.17</time>
<name>460</name>
<sym>Dot</sym>
</trkpt>
<trkpt lat="42.860167" lon="-2.196165">
<ele>1700.5</ele>
<desc>Speed 46.1 km/h Distance 5.07 km</desc>
<time>2013-07-07T17:54:33.16</time>
<name>461</name>
<sym>Dot</sym>
</trkpt>
<trkpt lat="42.860118" lon="-2.196303">
<ele>1700.0</ele>
<desc>Speed 45.4 km/h Distance 5.08 km</desc>
<time>2013-07-07T17:54:34.15</time>
<name>462</name>
<sym>Dot</sym>
</trkpt>
<trkpt lat="42.860063" lon="-2.196442">
<ele>1699.0</ele>
<desc>Speed 46.2 km/h Distance 5.09 km</desc>
<time>2013-07-07T17:54:35.14</time>
<name>463</name>
<sym>Dot</sym>
</trkpt>
<trkpt lat="42.860005" lon="-2.196588">
<ele>1698.0</ele>
<desc>Speed 49.6 km/h Distance 5.11 km</desc>
<time>2013-07-07T17:54:36.14</time>
<name>464</name>
<sym>Dot</sym>
</trkpt>
<trkpt lat="42.859943" lon="-2.196750">
<ele>1696.5</ele>
<desc>Speed 53.9 km/h Distance 5.12 km</desc>
<time>2013-07-07T17:54:37.13</time>
<name>465</name>
<sym>Dot</sym>
</trkpt>
<trkpt lat="42.859883" lon="-2.196918">
<ele>1696.5</ele>
<desc>Speed 55.1 km/h Distance 5.14 km</desc>
<time>2013-07-07T17:54:38.13</time>
<name>466</name>
<sym>Dot</sym>
</trkpt>
<trkpt lat="42.859830" lon="-2.197085">
<ele>1698.0</ele>
<desc>Speed 53.1 km/h Distance 5.15 km</desc>
<time>2013-07-07T17:54:39.12</time>
<name>467</name>
<sym>Dot</sym>
</trkpt>
<trkpt lat="42.859783" lon="-2.197238">
<ele>1699.5</ele>
<desc>Speed 48.8 km/h Distance 5.16 km</desc>
<time>2013-07-07T17:54:40.12</time>
<name>468</name>
<sym>Dot</sym>
</trkpt>
<trkpt lat="42.859707" lon="-2.197497">
<ele>1701.0</ele>
<desc>Speed 41.0 km/h Distance 5.19 km</desc>
<time>2013-07-07T17:54:42.11</time>
<name>469</name>
<sym>Dot</sym>
</trkpt>
<trkpt lat="42.859672" lon="-2.197630">
<ele>1702.0</ele>
<desc>Speed 42.0 km/h Distance 5.20 km</desc>
<time>2013-07-07T17:54:43.10</time>
<name>470</name>
<sym>Dot</sym>
</trkpt>
<trkpt lat="42.859640" lon="-2.197772">
<ele>1703.0</ele>
<desc>Speed 43.5 km/h Distance 5.21 km</desc>
<time>2013-07-07T17:54:44.10</time>
<name>471</name>
<sym>Dot</sym>
</trkpt>
<trkpt lat="42.859612" lon="-2.197918">
<ele>1703.5</ele>
<desc>Speed 44.3 km/h Distance 5.22 km</desc>
<time>2013-07-07T17:54:45.10</time>
<name>472</name>
<sym>Dot</sym>
</trkpt>
<trkpt lat="42.859585" lon="-2.198060">
<ele>1704.5</ele>
<desc>Speed 43.4 km/h Distance 5.23 km</desc>
<time>2013-07-07T17:54:46.09</time>
<name>473</name>
<sym>Dot</sym>
</trkpt>
<trkpt lat="42.859557" lon="-2.198197">
<ele>1706.0</ele>
<desc>Speed 41.8 km/h Distance 5.25 km</desc>
<time>2013-07-07T17:54:47.08</time>
<name>474</name>
<sym>Dot</sym>
</trkpt>
<trkpt lat="42.859520" lon="-2.198327">
<ele>1706.0</ele>
<desc>Speed 40.8 km/h Distance 5.26 km</desc>
<time>2013-07-07T17:54:48.08</time>
<name>475</name>
<sym>Dot</sym>
</trkpt>
<trkpt lat="42.859478" lon="-2.198453">
<ele>1705.5</ele>
<desc>Speed 41.0 km/h Distance 5.27 km</desc>
<time>2013-07-07T17:54:49.07</time>
<name>476</name>
<sym>Dot</sym>
</trkpt>
<trkpt lat="42.859432" lon="-2.198583">
<ele>1704.0</ele>
<desc>Speed 42.7 km/h Distance 5.28 km</desc>
<time>2013-07-07T17:54:50.07</time>
<name>477</name>
<sym>Dot</sym>
</trkpt>
<trkpt lat="42.859385" lon="-2.198723">
<ele>1704.0</ele>
<desc>Speed 45.8 km/h Distance 5.29 km</desc>
<time>2013-07-07T17:54:51.07</time>
<name>478</name>
<sym>Dot</sym>
</trkpt>
<trkpt lat="42.859337" lon="-2.198873">
<ele>1702.0</ele>
<desc>Speed 47.7 km/h Distance 5.31 km</desc>
<time>2013-07-07T17:54:52.05</time>
<name>479</name>
<sym>Dot</sym>
</trkpt>
<trkpt lat="42.859290" lon="-2.199027">
<ele>1700.0</ele>
<desc>Speed 49.0 km/h Distance 5.32 km</desc>
<time>2013-07-07T17:54:53.04</time>
<name>480</name>
<sym>Dot</sym>
</trkpt>
<trkpt lat="42.859245" lon="-2.199185">
<ele>1698.5</ele>
<desc>Speed 49.7 km/h Distance 5.33 km</desc>
<time>2013-07-07T17:54:54.05</time>
<name>481</name>
<sym>Dot</sym>
</trkpt>
<trkpt lat="42.859200" lon="-2.199337">
<ele>1698.0</ele>
<desc>Speed 48.0 km/h Distance 5.35 km</desc>
<time>2013-07-07T17:54:55.03</time>
<name>482</name>
<sym>Dot</sym>
</trkpt>
<trkpt lat="42.859158" lon="-2.199487">
<ele>1698.5</ele>
<desc>Speed 46.9 km/h Distance 5.36 km</desc>
<time>2013-07-07T17:54:56.04</time>
<name>483</name>
<sym>Dot</sym>
</trkpt>
<trkpt lat="42.859115" lon="-2.199637">
<ele>1698.5</ele>
<desc>Speed 47.3 km/h Distance 5.37 km</desc>
<time>2013-07-07T17:54:57.02</time>
<name>484</name>
<sym>Dot</sym>
</trkpt>
<trkpt lat="42.859070" lon="-2.199793">
<ele>1699.0</ele>
<desc>Speed 49.2 km/h Distance 5.39 km</desc>
<time>2013-07-07T17:54:58.02</time>
<name>485</name>
<sym>Dot</sym>
</trkpt>
<trkpt lat="42.859018" lon="-2.199953">
<ele>1699.0</ele>
<desc>Speed 51.2 km/h Distance 5.40 km</desc>
<time>2013-07-07T17:54:59.01</time>
<name>486</name>
<sym>Dot</sym>
</trkpt>
<trkpt lat="42.858963" lon="-2.200113">
<ele>1700.0</ele>
<desc>Speed 51.3 km/h Distance 5.42 km</desc>
<time>2013-07-07T17:55:00.00</time>
<name>487</name>
<sym>Dot</sym>
</trkpt>
<trkpt lat="42.858915" lon="-2.200267">
<ele>1701.0</ele>
<desc>Speed 48.9 km/h Distance 5.43 km</desc>
<time>2013-07-07T17:55:00.99</time>
<name>488</name>
<sym>Dot</sym>
</trkpt>
<trkpt lat="42.858877" lon="-2.200417">
<ele>1702.5</ele>
<desc>Speed 46.2 km/h Distance 5.44 km</desc>
<time>2013-07-07T17:55:01.98</time>
<name>489</name>
<sym>Dot</sym>
</trkpt>
<trkpt lat="42.858848" lon="-2.200567">
<ele>1704.0</ele>
<desc>Speed 45.4 km/h Distance 5.46 km</desc>
<time>2013-07-07T17:55:02.97</time>
<name>490</name>
<sym>Dot</sym>
</trkpt>
<trkpt lat="42.858822" lon="-2.200720">
<ele>1705.5</ele>
<desc>Speed 46.5 km/h Distance 5.47 km</desc>
<time>2013-07-07T17:55:03.97</time>
<name>491</name>
<sym>Dot</sym>
</trkpt>
<trkpt lat="42.858792" lon="-2.200875">
<ele>1706.5</ele>
<desc>Speed 47.3 km/h Distance 5.48 km</desc>
<time>2013-07-07T17:55:04.96</time>
<name>492</name>
<sym>Dot</sym>
</trkpt>
<trkpt lat="42.858758" lon="-2.201020">
<ele>1708.0</ele>
<desc>Speed 44.7 km/h Distance 5.49 km</desc>
<time>2013-07-07T17:55:05.97</time>
<name>493</name>
<sym>Dot</sym>
</trkpt>
<trkpt lat="42.858730" lon="-2.201155">
<ele>1709.0</ele>
<desc>Speed 41.4 km/h Distance 5.50 km</desc>
<time>2013-07-07T17:55:06.95</time>
<name>494</name>
<sym>Dot</sym>
</trkpt>
<trkpt lat="42.858690" lon="-2.201275">
<ele>1708.0</ele>
<desc>Speed 38.3 km/h Distance 5.52 km</desc>
<time>2013-07-07T17:55:07.95</time>
<name>495</name>
<sym>Dot</sym>
</trkpt>
<trkpt lat="42.858663" lon="-2.201403">
<ele>1707.0</ele>
<desc>Speed 39.2 km/h Distance 5.53 km</desc>
<time>2013-07-07T17:55:08.94</time>
<name>496</name>
<sym>Dot</sym>
</trkpt>
<trkpt lat="42.858637" lon="-2.201538">
<ele>1705.5</ele>
<desc>Speed 41.2 km/h Distance 5.54 km</desc>
<time>2013-07-07T17:55:09.94</time>
<name>497</name>
<sym>Dot</sym>
</trkpt>
<trkpt lat="42.858608" lon="-2.201677">
<ele>1704.5</ele>
<desc>Speed 42.1 km/h Distance 5.55 km</desc>
<time>2013-07-07T17:55:10.93</time>
<name>498</name>
<sym>Dot</sym>
</trkpt>
<trkpt lat="42.858577" lon="-2.201813">
<ele>1704.0</ele>
<desc>Speed 42.5 km/h Distance 5.56 km</desc>
<time>2013-07-07T17:55:11.94</time>
<name>499</name>
<sym>Dot</sym>
</trkpt>
<trkpt lat="42.858545" lon="-2.201953">
<ele>1703.5</ele>
<desc>Speed 43.1 km/h Distance 5.57 km</desc>
<time>2013-07-07T17:55:12.92</time>
<name>500</name>
<sym>Dot</sym>
</trkpt>
<trkpt lat="42.858513" lon="-2.202090">
<ele>1703.5</ele>
<desc>Speed 42.3 km/h Distance 5.59 km</desc>
<time>2013-07-07T17:55:13.92</time>
<name>501</name>
<sym>Dot</sym>
</trkpt>
<trkpt lat="42.858487" lon="-2.202222">
<ele>1704.5</ele>
<desc>Speed 40.3 km/h Distance 5.60 km</desc>
<time>2013-07-07T17:55:14.91</time>
<name>502</name>
<sym>Dot</sym>
</trkpt>
<trkpt lat="42.858462" lon="-2.202350">
<ele>1705.5</ele>
<desc>Speed 39.2 km/h Distance 5.61 km</desc>
<time>2013-07-07T17:55:15.90</time>
<name>503</name>
<sym>Dot</sym>
</trkpt>
<trkpt lat="42.858437" lon="-2.202478">
<ele>1706.0</ele>
<desc>Speed 39.2 km/h Distance 5.62 km</desc>
<time>2013-07-07T17:55:16.90</time>
<name>504</name>
<sym>Dot</sym>
</trkpt>
<trkpt lat="42.858410" lon="-2.202610">
<ele>1706.5</ele>
<desc>Speed 40.1 km/h Distance 5.63 km</desc>
<time>2013-07-07T17:55:17.89</time>
<name>505</name>
<sym>Dot</sym>
</trkpt>
<trkpt lat="42.858385" lon="-2.202745">
<ele>1706.0</ele>
<desc>Speed 41.0 km/h Distance 5.64 km</desc>
<time>2013-07-07T17:55:18.88</time>
<name>506</name>
<sym>Dot</sym>
</trkpt>
<trkpt lat="42.858365" lon="-2.202882">
<ele>1705.5</ele>
<desc>Speed 40.9 km/h Distance 5.65 km</desc>
<time>2013-07-07T17:55:19.88</time>
<name>507</name>
<sym>Dot</sym>
</trkpt>
<trkpt lat="42.858353" lon="-2.203015">
<ele>1705.5</ele>
<desc>Speed 40.1 km/h Distance 5.66 km</desc>
<time>2013-07-07T17:55:20.87</time>
<name>508</name>
<sym>Dot</sym>
</trkpt>
<trkpt lat="42.858342" lon="-2.203148">
<ele>1705.5</ele>
<desc>Speed 39.5 km/h Distance 5.67 km</desc>
<time>2013-07-07T17:55:21.87</time>
<name>509</name>
<sym>Dot</sym>
</trkpt>
<trkpt lat="42.858332" lon="-2.203282">
<ele>1705.5</ele>
<desc>Speed 39.6 km/h Distance 5.68 km</desc>
<time>2013-07-07T17:55:22.86</time>
<name>510</name>
<sym>Dot</sym>
</trkpt>
<trkpt lat="42.858320" lon="-2.203418">
<ele>1705.5</ele>
<desc>Speed 40.6 km/h Distance 5.70 km</desc>
<time>2013-07-07T17:55:23.86</time>
<name>511</name>
<sym>Dot</sym>
</trkpt>
<trkpt lat="42.858303" lon="-2.203560">
<ele>1706.0</ele>
<desc>Speed 42.2 km/h Distance 5.71 km</desc>
<time>2013-07-07T17:55:24.85</time>
<name>512</name>
<sym>Dot</sym>
</trkpt>
<trkpt lat="42.858283" lon="-2.203703">
<ele>1706.0</ele>
<desc>Speed 43.0 km/h Distance 5.72 km</desc>
<time>2013-07-07T17:55:25.85</time>
<name>513</name>
<sym>Dot</sym>
</trkpt>
<trkpt lat="42.858262" lon="-2.203847">
<ele>1707.0</ele>
<desc>Speed 43.1 km/h Distance 5.73 km</desc>
<time>2013-07-07T17:55:26.84</time>
<name>514</name>
<sym>Dot</sym>
</trkpt>
<trkpt lat="42.858237" lon="-2.203988">
<ele>1708.0</ele>
<desc>Speed 43.2 km/h Distance 5.74 km</desc>
<time>2013-07-07T17:55:27.84</time>
<name>515</name>
<sym>Dot</sym>
</trkpt>
<trkpt lat="42.858213" lon="-2.204133">
<ele>1708.5</ele>
<desc>Speed 44.0 km/h Distance 5.76 km</desc>
<time>2013-07-07T17:55:28.83</time>
<name>516</name>
<sym>Dot</sym>
</trkpt>
<trkpt lat="42.858190" lon="-2.204282">
<ele>1709.5</ele>
<desc>Speed 44.6 km/h Distance 5.77 km</desc>
<time>2013-07-07T17:55:29.83</time>
<name>517</name>
<sym>Dot</sym>
</trkpt>
<trkpt lat="42.858168" lon="-2.204428">
<ele>1711.0</ele>
<desc>Speed 44.4 km/h Distance 5.78 km</desc>
<time>2013-07-07T17:55:30.82</time>
<name>518</name>
<sym>Dot</sym>
</trkpt>
<trkpt lat="42.858148" lon="-2.204575">
<ele>1712.0</ele>
<desc>Speed 43.8 km/h Distance 5.79 km</desc>
<time>2013-07-07T17:55:31.83</time>
<name>519</name>
<sym>Dot</sym>
</trkpt>
<trkpt lat="42.858128" lon="-2.204718">
<ele>1713.5</ele>
<desc>Speed 43.0 km/h Distance 5.80 km</desc>
<time>2013-07-07T17:55:32.81</time>
<name>520</name>
<sym>Dot</sym>
</trkpt>
<trkpt lat="42.858110" lon="-2.204855">
<ele>1715.0</ele>
<desc>Speed 41.1 km/h Distance 5.82 km</desc>
<time>2013-07-07T17:55:33.81</time>
<name>521</name>
<sym>Dot</sym>
</trkpt>
<trkpt lat="42.858090" lon="-2.204983">
<ele>1716.0</ele>
<desc>Speed 38.8 km/h Distance 5.83 km</desc>
<time>2013-07-07T17:55:34.80</time>
<name>522</name>
<sym>Dot</sym>
</trkpt>
<trkpt lat="42.858067" lon="-2.205105">
<ele>1717.5</ele>
<desc>Speed 36.8 km/h Distance 5.84 km</desc>
<time>2013-07-07T17:55:35.80</time>
<name>523</name>
<sym>Dot</sym>
</trkpt>
<trkpt lat="42.858047" lon="-2.205223">
<ele>1718.5</ele>
<desc>Speed 35.6 km/h Distance 5.85 km</desc>
<time>2013-07-07T17:55:36.79</time>
<name>524</name>
<sym>Dot</sym>
</trkpt>
<trkpt lat="42.858033" lon="-2.205340">
<ele>1718.5</ele>
<desc>Speed 34.7 km/h Distance 5.86 km</desc>
<time>2013-07-07T17:55:37.78</time>
<name>525</name>
<sym>Dot</sym>
</trkpt>
<trkpt lat="42.858020" lon="-2.205460">
<ele>1718.5</ele>
<desc>Speed 35.4 km/h Distance 5.87 km</desc>
<time>2013-07-07T17:55:38.78</time>
<name>526</name>
<sym>Dot</sym>
</trkpt>
<trkpt lat="42.858003" lon="-2.205585">
<ele>1718.0</ele>
<desc>Speed 37.4 km/h Distance 5.88 km</desc>
<time>2013-07-07T17:55:39.77</time>
<name>527</name>
<sym>Dot</sym>
</trkpt>
<trkpt lat="42.857980" lon="-2.205713">
<ele>1718.5</ele>
<desc>Speed 38.9 km/h Distance 5.89 km</desc>
<time>2013-07-07T17:55:40.78</time>
<name>528</name>
<sym>Dot</sym>
</trkpt>
<trkpt lat="42.857957" lon="-2.205837">
<ele>1718.5</ele>
<desc>Speed 37.5 km/h Distance 5.90 km</desc>
<time>2013-07-07T17:55:41.77</time>
<name>529</name>
<sym>Dot</sym>
</trkpt>
<trkpt lat="42.857938" lon="-2.205950">
<ele>1718.0</ele>
<desc>Speed 33.9 km/h Distance 5.91 km</desc>
<time>2013-07-07T17:55:42.76</time>
<name>530</name>
<sym>Dot</sym>
</trkpt>
<trkpt lat="42.857928" lon="-2.206057">
<ele>1717.0</ele>
<desc>Speed 31.2 km/h Distance 5.92 km</desc>
<time>2013-07-07T17:55:43.75</time>
<name>531</name>
<sym>Dot</sym>
</trkpt>
<trkpt lat="42.857920" lon="-2.206162">
<ele>1715.5</ele>
<desc>Speed 31.3 km/h Distance 5.92 km</desc>
<time>2013-07-07T17:55:44.75</time>
<name>532</name>
<sym>Dot</sym>
</trkpt>
<trkpt lat="42.857910" lon="-2.206278">
<ele>1714.5</ele>
<desc>Speed 34.4 km/h Distance 5.93 km</desc>
<time>2013-07-07T17:55:45.74</time>
<name>533</name>
<sym>Dot</sym>
</trkpt>
<trkpt lat="42.857848" lon="-2.206555">
<ele>1713.0</ele>
<desc>Speed 42.9 km/h Distance 5.96 km</desc>
<time>2013-07-07T17:55:47.73</time>
<name>534</name>
<sym>Dot</sym>
</trkpt>
<trkpt lat="42.857808" lon="-2.206690">
<ele>1712.5</ele>
<desc>Speed 43.3 km/h Distance 5.97 km</desc>
<time>2013-07-07T17:55:48.72</time>
<name>535</name>
<sym>Dot</sym>
</trkpt>
<trkpt lat="42.857772" lon="-2.206820">
<ele>1712.5</ele>
<desc>Speed 41.0 km/h Distance 5.98 km</desc>
<time>2013-07-07T17:55:49.72</time>
<name>536</name>
<sym>Dot</sym>
</trkpt>
<trkpt lat="42.857742" lon="-2.206942">
<ele>1711.5</ele>
<desc>Speed 37.7 km/h Distance 5.99 km</desc>
<time>2013-07-07T17:55:50.72</time>
<name>537</name>
<sym>Dot</sym>
</trkpt>
<trkpt lat="42.857718" lon="-2.207058">
<ele>1710.0</ele>
<desc>Speed 35.9 km/h Distance 6.00 km</desc>
<time>2013-07-07T17:55:51.71</time>
<name>538</name>
<sym>Dot</sym>
</trkpt>
<trkpt lat="42.857695" lon="-2.207178">
<ele>1708.5</ele>
<desc>Speed 36.5 km/h Distance 6.01 km</desc>
<time>2013-07-07T17:55:52.72</time>
<name>539</name>
<sym>Dot</sym>
</trkpt>
<trkpt lat="42.857663" lon="-2.207312">
<ele>1708.5</ele>
<desc>Speed 41.1 km/h Distance 6.02 km</desc>
<time>2013-07-07T17:55:53.70</time>
<name>540</name>
<sym>Dot</sym>
</trkpt>
<trkpt lat="42.857625" lon="-2.207447">
<ele>1706.5</ele>
<desc>Speed 42.9 km/h Distance 6.03 km</desc>
<time>2013-07-07T17:55:54.70</time>
<name>541</name>
<sym>Dot</sym>
</trkpt>
<trkpt lat="42.857583" lon="-2.207588">
<ele>1705.0</ele>
<desc>Speed 45.1 km/h Distance 6.05 km</desc>
<time>2013-07-07T17:55:55.69</time>
<name>542</name>
<sym>Dot</sym>
</trkpt>
<trkpt lat="42.857548" lon="-2.207730">
<ele>1705.0</ele>
<desc>Speed 44.0 km/h Distance 6.06 km</desc>
<time>2013-07-07T17:55:56.77</time>
<name>543</name>
<sym>Dot</sym>
</trkpt>
<trkpt lat="42.857517" lon="-2.207862">
<ele>1705.0</ele>
<desc>Speed 41.3 km/h Distance 6.07 km</desc>
<time>2013-07-07T17:55:57.67</time>
<name>544</name>
<sym>Dot</sym>
</trkpt>
<trkpt lat="42.857483" lon="-2.207985">
<ele>1705.0</ele>
<desc>Speed 38.3 km/h Distance 6.08 km</desc>
<time>2013-07-07T17:55:58.67</time>
<name>545</name>
<sym>Dot</sym>
</trkpt>
<trkpt lat="42.857447" lon="-2.208105">
<ele>1705.0</ele>
<desc>Speed 38.4 km/h Distance 6.09 km</desc>
<time>2013-07-07T17:55:59.66</time>
<name>546</name>
<sym>Dot</sym>
</trkpt>
<trkpt lat="42.857405" lon="-2.208230">
<ele>1704.5</ele>
<desc>Speed 40.4 km/h Distance 6.10 km</desc>
<time>2013-07-07T17:56:00.67</time>
<name>547</name>
<sym>Dot</sym>
</trkpt>
<trkpt lat="42.857363" lon="-2.208367">
<ele>1704.0</ele>
<desc>Speed 43.6 km/h Distance 6.12 km</desc>
<time>2013-07-07T17:56:01.65</time>
<name>548</name>
<sym>Dot</sym>
</trkpt>
<trkpt lat="42.857322" lon="-2.208512">
<ele>1704.0</ele>
<desc>Speed 45.6 km/h Distance 6.13 km</desc>
<time>2013-07-07T17:56:02.65</time>
<name>549</name>
<sym>Dot</sym>
</trkpt>
<trkpt lat="42.857280" lon="-2.208658">
<ele>1705.5</ele>
<desc>Speed 46.3 km/h Distance 6.14 km</desc>
<time>2013-07-07T17:56:03.65</time>
<name>550</name>
<sym>Dot</sym>
</trkpt>
<trkpt lat="42.857242" lon="-2.208808">
<ele>1706.5</ele>
<desc>Speed 46.7 km/h Distance 6.15 km</desc>
<time>2013-07-07T17:56:04.65</time>
<name>551</name>
<sym>Dot</sym>
</trkpt>
<trkpt lat="42.857208" lon="-2.208957">
<ele>1707.0</ele>
<desc>Speed 45.7 km/h Distance 6.17 km</desc>
<time>2013-07-07T17:56:05.64</time>
<name>552</name>
<sym>Dot</sym>
</trkpt>
<trkpt lat="42.857180" lon="-2.209097">
<ele>1708.0</ele>
<desc>Speed 43.1 km/h Distance 6.18 km</desc>
<time>2013-07-07T17:56:06.64</time>
<name>553</name>
<sym>Dot</sym>
</trkpt>
<trkpt lat="42.857155" lon="-2.209230">
<ele>1709.0</ele>
<desc>Speed 40.4 km/h Distance 6.19 km</desc>
<time>2013-07-07T17:56:07.64</time>
<name>554</name>
<sym>Dot</sym>
</trkpt>
<trkpt lat="42.857130" lon="-2.209360">
<ele>1710.0</ele>
<desc>Speed 39.6 km/h Distance 6.20 km</desc>
<time>2013-07-07T17:56:08.63</time>
<name>555</name>
<sym>Dot</sym>
</trkpt>
<trkpt lat="42.857100" lon="-2.209493">
<ele>1710.0</ele>
<desc>Speed 40.9 km/h Distance 6.21 km</desc>
<time>2013-07-07T17:56:09.62</time>
<name>556</name>
<sym>Dot</sym>
</trkpt>
<trkpt lat="42.857060" lon="-2.209638">
<ele>1710.0</ele>
<desc>Speed 45.5 km/h Distance 6.22 km</desc>
<time>2013-07-07T17:56:10.62</time>
<name>557</name>
<sym>Dot</sym>
</trkpt>
<trkpt lat="42.857023" lon="-2.209782">
<ele>1710.0</ele>
<desc>Speed 45.1 km/h Distance 6.24 km</desc>
<time>2013-07-07T17:56:11.61</time>
<name>558</name>
<sym>Dot</sym>
</trkpt>
<trkpt lat="42.856985" lon="-2.209927">
<ele>1710.0</ele>
<desc>Speed 45.1 km/h Distance 6.25 km</desc>
<time>2013-07-07T17:56:12.62</time>
<name>559</name>
<sym>Dot</sym>
</trkpt>
<trkpt lat="42.856942" lon="-2.210063">
<ele>1710.0</ele>
<desc>Speed 43.9 km/h Distance 6.26 km</desc>
<time>2013-07-07T17:56:13.60</time>
<name>560</name>
<sym>Dot</sym>
</trkpt>
<trkpt lat="42.856900" lon="-2.210202">
<ele>1711.0</ele>
<desc>Speed 44.1 km/h Distance 6.27 km</desc>
<time>2013-07-07T17:56:14.60</time>
<name>561</name>
<sym>Dot</sym>
</trkpt>
<trkpt lat="42.856865" lon="-2.210347">
<ele>1711.5</ele>
<desc>Speed 44.8 km/h Distance 6.29 km</desc>
<time>2013-07-07T17:56:15.59</time>
<name>562</name>
<sym>Dot</sym>
</trkpt>
<trkpt lat="42.856835" lon="-2.210495">
<ele>1712.0</ele>
<desc>Speed 45.1 km/h Distance 6.30 km</desc>
<time>2013-07-07T17:56:16.58</time>
<name>563</name>
<sym>Dot</sym>
</trkpt>
<trkpt lat="42.856807" lon="-2.210638">
<ele>1713.0</ele>
<desc>Speed 43.3 km/h Distance 6.31 km</desc>
<time>2013-07-07T17:56:17.57</time>
<name>564</name>
<sym>Dot</sym>
</trkpt>
<trkpt lat="42.856778" lon="-2.210773">
<ele>1714.5</ele>
<desc>Speed 41.5 km/h Distance 6.32 km</desc>
<time>2013-07-07T17:56:18.56</time>
<name>565</name>
<sym>Dot</sym>
</trkpt>
<trkpt lat="42.856743" lon="-2.210908">
<ele>1715.5</ele>
<desc>Speed 42.3 km/h Distance 6.33 km</desc>
<time>2013-07-07T17:56:19.55</time>
<name>566</name>
<sym>Dot</sym>
</trkpt>
<trkpt lat="42.856702" lon="-2.211042">
<ele>1716.5</ele>
<desc>Speed 43.0 km/h Distance 6.35 km</desc>
<time>2013-07-07T17:56:20.55</time>
<name>567</name>
<sym>Dot</sym>
</trkpt>
<trkpt lat="42.856655" lon="-2.211180">
<ele>1716.5</ele>
<desc>Speed 44.6 km/h Distance 6.36 km</desc>
<time>2013-07-07T17:56:21.54</time>
<name>568</name>
<sym>Dot</sym>
</trkpt>
<trkpt lat="42.856608" lon="-2.211322">
<ele>1716.5</ele>
<desc>Speed 46.0 km/h Distance 6.37 km</desc>
<time>2013-07-07T17:56:22.54</time>
<name>569</name>
<sym>Dot</sym>
</trkpt>
<trkpt lat="42.856567" lon="-2.211468">
<ele>1716.5</ele>
<desc>Speed 46.4 km/h Distance 6.38 km</desc>
<time>2013-07-07T17:56:23.53</time>
<name>570</name>
<sym>Dot</sym>
</trkpt>
<trkpt lat="42.856527" lon="-2.211612">
<ele>1718.0</ele>
<desc>Speed 45.1 km/h Distance 6.40 km</desc>
<time>2013-07-07T17:56:24.53</time>
<name>571</name>
<sym>Dot</sym>
</trkpt>
<trkpt lat="42.856487" lon="-2.211748">
<ele>1718.5</ele>
<desc>Speed 43.5 km/h Distance 6.41 km</desc>
<time>2013-07-07T17:56:25.52</time>
<name>572</name>
<sym>Dot</sym>
</trkpt>
<trkpt lat="42.856445" lon="-2.211880">
<ele>1719.5</ele>
<desc>Speed 42.0 km/h Distance 6.42 km</desc>
<time>2013-07-07T17:56:26.52</time>
<name>573</name>
<sym>Dot</sym>
</trkpt>
<trkpt lat="42.856403" lon="-2.212005">
<ele>1719.5</ele>
<desc>Speed 40.7 km/h Distance 6.43 km</desc>
<time>2013-07-07T17:56:27.51</time>
<name>574</name>
<sym>Dot</sym>
</trkpt>
<trkpt lat="42.856345" lon="-2.212107">
<ele>1717.5</ele>
<desc>Speed 38.0 km/h Distance 6.44 km</desc>
<time>2013-07-07T17:56:28.50</time>
<name>575</name>
<sym>Dot</sym>
</trkpt>
<trkpt lat="42.856300" lon="-2.212208">
<ele>1717.0</ele>
<desc>Speed 35.1 km/h Distance 6.45 km</desc>
<time>2013-07-07T17:56:29.51</time>
<name>576</name>
<sym>Dot</sym>
</trkpt>
<trkpt lat="42.856262" lon="-2.212307">
<ele>1715.5</ele>
<desc>Speed 32.9 km/h Distance 6.46 km</desc>
<time>2013-07-07T17:56:30.49</time>
<name>577</name>
<sym>Dot</sym>
</trkpt>
<trkpt lat="42.856237" lon="-2.212418">
<ele>1715.0</ele>
<desc>Speed 34.2 km/h Distance 6.47 km</desc>
<time>2013-07-07T17:56:31.49</time>
<name>578</name>
<sym>Dot</sym>
</trkpt>
<trkpt lat="42.856210" lon="-2.212538">
<ele>1713.0</ele>
<desc>Speed 37.2 km/h Distance 6.48 km</desc>
<time>2013-07-07T17:56:32.48</time>
<name>579</name>
<sym>Dot</sym>
</trkpt>
<trkpt lat="42.856177" lon="-2.212660">
<ele>1711.0</ele>
<desc>Speed 38.3 km/h Distance 6.49 km</desc>
<time>2013-07-07T17:56:33.47</time>
<name>580</name>
<sym>Dot</sym>
</trkpt>
<trkpt lat="42.856138" lon="-2.212780">
<ele>1710.0</ele>
<desc>Speed 38.1 km/h Distance 6.50 km</desc>
<time>2013-07-07T17:56:34.46</time>
<name>581</name>
<sym>Dot</sym>
</trkpt>
<trkpt lat="42.856103" lon="-2.212888">
<ele>1709.0</ele>
<desc>Speed 35.0 km/h Distance 6.51 km</desc>
<time>2013-07-07T17:56:35.45</time>
<name>582</name>
<sym>Dot</sym>
</trkpt>
<trkpt lat="42.856072" lon="-2.212988">
<ele>1707.5</ele>
<desc>Speed 31.9 km/h Distance 6.52 km</desc>
<time>2013-07-07T17:56:36.44</time>
<name>583</name>
<sym>Dot</sym>
</trkpt>
<trkpt lat="42.856052" lon="-2.213087">
<ele>1707.5</ele>
<desc>Speed 30.2 km/h Distance 6.53 km</desc>
<time>2013-07-07T17:56:37.44</time>
<name>584</name>
<sym>Dot</sym>
</trkpt>
<trkpt lat="42.856033" lon="-2.213192">
<ele>1707.5</ele>
<desc>Speed 32.3 km/h Distance 6.54 km</desc>
<time>2013-07-07T17:56:38.43</time>
<name>585</name>
<sym>Dot</sym>
</trkpt>
<trkpt lat="42.856010" lon="-2.213303">
<ele>1707.0</ele>
<desc>Speed 34.3 km/h Distance 6.55 km</desc>
<time>2013-07-07T17:56:39.42</time>
<name>586</name>
<sym>Dot</sym>
</trkpt>
<trkpt lat="42.855982" lon="-2.213418">
<ele>1707.0</ele>
<desc>Speed 36.0 km/h Distance 6.56 km</desc>
<time>2013-07-07T17:56:40.43</time>
<name>587</name>
<sym>Dot</sym>
</trkpt>
<trkpt lat="42.855945" lon="-2.213532">
<ele>1705.0</ele>
<desc>Speed 36.5 km/h Distance 6.57 km</desc>
<time>2013-07-07T17:56:41.41</time>
<name>588</name>
<sym>Dot</sym>
</trkpt>
<trkpt lat="42.855907" lon="-2.213642">
<ele>1702.5</ele>
<desc>Speed 35.4 km/h Distance 6.58 km</desc>
<time>2013-07-07T17:56:42.40</time>
<name>589</name>
<sym>Dot</sym>
</trkpt>
<trkpt lat="42.855880" lon="-2.213752">
<ele>1702.5</ele>
<desc>Speed 34.3 km/h Distance 6.59 km</desc>
<time>2013-07-07T17:56:43.40</time>
<name>590</name>
<sym>Dot</sym>
</trkpt>
<trkpt lat="42.855852" lon="-2.213863">
<ele>1702.0</ele>
<desc>Speed 35.1 km/h Distance 6.60 km</desc>
<time>2013-07-07T17:56:44.39</time>
<name>591</name>
<sym>Dot</sym>
</trkpt>
<trkpt lat="42.855823" lon="-2.213987">
<ele>1702.0</ele>
<desc>Speed 37.9 km/h Distance 6.61 km</desc>
<time>2013-07-07T17:56:45.39</time>
<name>592</name>
<sym>Dot</sym>
</trkpt>
<trkpt lat="42.855788" lon="-2.214122">
<ele>1702.0</ele>
<desc>Speed 42.3 km/h Distance 6.62 km</desc>
<time>2013-07-07T17:56:46.38</time>
<name>593</name>
<sym>Dot</sym>
</trkpt>
<trkpt lat="42.855748" lon="-2.214263">
<ele>1700.0</ele>
<desc>Speed 44.5 km/h Distance 6.63 km</desc>
<time>2013-07-07T17:56:47.37</time>
<name>594</name>
<sym>Dot</sym>
</trkpt>
<trkpt lat="42.855710" lon="-2.214400">
<ele>1699.5</ele>
<desc>Speed 43.1 km/h Distance 6.64 km</desc>
<time>2013-07-07T17:56:48.36</time>
<name>595</name>
<sym>Dot</sym>
</trkpt>
<trkpt lat="42.855675" lon="-2.214530">
<ele>1699.5</ele>
<desc>Speed 40.6 km/h Distance 6.65 km</desc>
<time>2013-07-07T17:56:49.35</time>
<name>596</name>
<sym>Dot</sym>
</trkpt>
<trkpt lat="42.855640" lon="-2.214653">
<ele>1699.5</ele>
<desc>Speed 39.1 km/h Distance 6.66 km</desc>
<time>2013-07-07T17:56:50.35</time>
<name>597</name>
<sym>Dot</sym>
</trkpt>
<trkpt lat="42.855602" lon="-2.214777">
<ele>1698.5</ele>
<desc>Speed 39.8 km/h Distance 6.68 km</desc>
<time>2013-07-07T17:56:51.34</time>
<name>598</name>
<sym>Dot</sym>
</trkpt>
<trkpt lat="42.855565" lon="-2.214915">
<ele>1698.0</ele>
<desc>Speed 43.2 km/h Distance 6.69 km</desc>
<time>2013-07-07T17:56:52.34</time>
<name>599</name>
<sym>Dot</sym>
</trkpt>
<trkpt lat="42.855533" lon="-2.215060">
<ele>1698.5</ele>
<desc>Speed 44.9 km/h Distance 6.70 km</desc>
<time>2013-07-07T17:56:53.33</time>
<name>600</name>
<sym>Dot</sym>
</trkpt>
<trkpt lat="42.855503" lon="-2.215210">
<ele>1700.0</ele>
<desc>Speed 45.6 km/h Distance 6.71 km</desc>
<time>2013-07-07T17:56:54.32</time>
<name>601</name>
<sym>Dot</sym>
</trkpt>
<trkpt lat="42.855458" lon="-2.215355">
<ele>1699.5</ele>
<desc>Speed 46.5 km/h Distance 6.73 km</desc>
<time>2013-07-07T17:56:55.32</time>
<name>602</name>
<sym>Dot</sym>
</trkpt>
<trkpt lat="42.855410" lon="-2.215492">
<ele>1699.5</ele>
<desc>Speed 44.7 km/h Distance 6.74 km</desc>
<time>2013-07-07T17:56:56.31</time>
<name>603</name>
<sym>Dot</sym>
</trkpt>
<trkpt lat="42.855360" lon="-2.215628">
<ele>1701.0</ele>
<desc>Speed 44.6 km/h Distance 6.75 km</desc>
<time>2013-07-07T17:56:57.31</time>
<name>604</name>
<sym>Dot</sym>
</trkpt>
<trkpt lat="42.855312" lon="-2.215768">
<ele>1702.0</ele>
<desc>Speed 45.5 km/h Distance 6.76 km</desc>
<time>2013-07-07T17:56:58.29</time>
<name>605</name>
<sym>Dot</sym>
</trkpt>
<trkpt lat="42.855272" lon="-2.215915">
<ele>1703.0</ele>
<desc>Speed 46.4 km/h Distance 6.78 km</desc>
<time>2013-07-07T17:56:59.29</time>
<name>606</name>
<sym>Dot</sym>
</trkpt>
<trkpt lat="42.855228" lon="-2.216063">
<ele>1703.0</ele>
<desc>Speed 46.7 km/h Distance 6.79 km</desc>
<time>2013-07-07T17:57:00.28</time>
<name>607</name>
<sym>Dot</sym>
</trkpt>
<trkpt lat="42.855182" lon="-2.216207">
<ele>1702.5</ele>
<desc>Speed 46.1 km/h Distance 6.80 km</desc>
<time>2013-07-07T17:57:01.28</time>
<name>608</name>
<sym>Dot</sym>
</trkpt>
<trkpt lat="42.855135" lon="-2.216343">
<ele>1702.5</ele>
<desc>Speed 44.4 km/h Distance 6.81 km</desc>
<time>2013-07-07T17:57:02.27</time>
<name>609</name>
<sym>Dot</sym>
</trkpt>
<trkpt lat="42.855092" lon="-2.216473">
<ele>1704.5</ele>
<desc>Speed 42.0 km/h Distance 6.83 km</desc>
<time>2013-07-07T17:57:03.27</time>
<name>610</name>
<sym>Dot</sym>
</trkpt>
<trkpt lat="42.855052" lon="-2.216602">
<ele>1705.5</ele>
<desc>Speed 40.9 km/h Distance 6.84 km</desc>
<time>2013-07-07T17:57:04.26</time>
<name>611</name>
<sym>Dot</sym>
</trkpt>
<trkpt lat="42.855017" lon="-2.216730">
<ele>1706.0</ele>
<desc>Speed 40.5 km/h Distance 6.85 km</desc>
<time>2013-07-07T17:57:05.26</time>
<name>612</name>
<sym>Dot</sym>
</trkpt>
<trkpt lat="42.854982" lon="-2.216863">
<ele>1706.0</ele>
<desc>Speed 41.7 km/h Distance 6.86 km</desc>
<time>2013-07-07T17:57:06.25</time>
<name>613</name>
<sym>Dot</sym>
</trkpt>
<trkpt lat="42.854947" lon="-2.217012">
<ele>1706.5</ele>
<desc>Speed 45.5 km/h Distance 6.87 km</desc>
<time>2013-07-07T17:57:07.25</time>
<name>614</name>
<sym>Dot</sym>
</trkpt>
<trkpt lat="42.854910" lon="-2.217172">
<ele>1707.5</ele>
<desc>Speed 49.0 km/h Distance 6.89 km</desc>
<time>2013-07-07T17:57:08.24</time>
<name>615</name>
<sym>Dot</sym>
</trkpt>
<trkpt lat="42.854877" lon="-2.217330">
<ele>1707.5</ele>
<desc>Speed 48.6 km/h Distance 6.90 km</desc>
<time>2013-07-07T17:57:09.24</time>
<name>616</name>
<sym>Dot</sym>
</trkpt>
<trkpt lat="42.854843" lon="-2.217740">
<ele>1708.5</ele>
<desc>Speed 25.2 km/h Distance 6.93 km</desc>
<time>2013-07-07T17:57:15.34</time>
<name>617</name>
<sym>Dot</sym>
</trkpt>
<trkpt lat="42.854843" lon="-2.217832">
<ele>1709.0</ele>
<desc>Speed 26.6 km/h Distance 6.94 km</desc>
<time>2013-07-07T17:57:16.35</time>
<name>618</name>
<sym>Dot</sym>
</trkpt>
<trkpt lat="42.854845" lon="-2.217938">
<ele>1711.0</ele>
<desc>Speed 30.5 km/h Distance 6.95 km</desc>
<time>2013-07-07T17:57:17.33</time>
<name>619</name>
<sym>Dot</sym>
</trkpt>
<trkpt lat="42.854842" lon="-2.218053">
<ele>1713.0</ele>
<desc>Speed 33.8 km/h Distance 6.96 km</desc>
<time>2013-07-07T17:57:18.32</time>
<name>620</name>
<sym>Dot</sym>
</trkpt>
<trkpt lat="42.854828" lon="-2.218177">
<ele>1713.5</ele>
<desc>Speed 36.8 km/h Distance 6.97 km</desc>
<time>2013-07-07T17:57:19.32</time>
<name>621</name>
<sym>Dot</sym>
</trkpt>
<trkpt lat="42.854817" lon="-2.218305">
<ele>1713.5</ele>
<desc>Speed 37.5 km/h Distance 6.98 km</desc>
<time>2013-07-07T17:57:20.32</time>
<name>622</name>
<sym>Dot</sym>
</trkpt>
<trkpt lat="42.854805" lon="-2.218422">
<ele>1714.0</ele>
<desc>Speed 34.4 km/h Distance 6.99 km</desc>
<time>2013-07-07T17:57:21.32</time>
<name>623</name>
<sym>Dot</sym>
</trkpt>
<trkpt lat="42.854790" lon="-2.218513">
<ele>1714.5</ele>
<desc>Speed 27.7 km/h Distance 7.00 km</desc>
<time>2013-07-07T17:57:22.32</time>
<name>624</name>
<sym>Dot</sym>
</trkpt>
<trkpt lat="42.854780" lon="-2.218585">
<ele>1716.5</ele>
<desc>Speed 21.8 km/h Distance 7.00 km</desc>
<time>2013-07-07T17:57:23.30</time>
<name>625</name>
<sym>Dot</sym>
</trkpt>
<trkpt lat="42.854777" lon="-2.218655">
<ele>1717.0</ele>
<desc>Speed 21.0 km/h Distance 7.01 km</desc>
<time>2013-07-07T17:57:24.28</time>
<name>626</name>
<sym>Dot</sym>
</trkpt>
<trkpt lat="42.854782" lon="-2.218725">
<ele>1717.5</ele>
<desc>Speed 21.5 km/h Distance 7.01 km</desc>
<time>2013-07-07T17:57:25.28</time>
<name>627</name>
<sym>Dot</sym>
</trkpt>
<trkpt lat="42.854790" lon="-2.218810">
<ele>1717.5</ele>
<desc>Speed 26.0 km/h Distance 7.02 km</desc>
<time>2013-07-07T17:57:26.28</time>
<name>628</name>
<sym>Dot</sym>
</trkpt>
<trkpt lat="42.854787" lon="-2.218895">
<ele>1718.0</ele>
<desc>Speed 25.4 km/h Distance 7.03 km</desc>
<time>2013-07-07T17:57:27.26</time>
<name>629</name>
<sym>Dot</sym>
</trkpt>
<trkpt lat="42.854755" lon="-2.218970">
<ele>1718.0</ele>
<desc>Speed 25.7 km/h Distance 7.03 km</desc>
<time>2013-07-07T17:57:28.26</time>
<name>630</name>
<sym>Dot</sym>
</trkpt>
<trkpt lat="42.854733" lon="-2.219055">
<ele>1718.0</ele>
<desc>Speed 26.6 km/h Distance 7.04 km</desc>
<time>2013-07-07T17:57:29.26</time>
<name>631</name>
<sym>Dot</sym>
</trkpt>
<trkpt lat="42.854713" lon="-2.219137">
<ele>1718.0</ele>
<desc>Speed 25.7 km/h Distance 7.05 km</desc>
<time>2013-07-07T17:57:30.25</time>
<name>632</name>
<sym>Dot</sym>
</trkpt>
<trkpt lat="42.854702" lon="-2.219215">
<ele>1718.5</ele>
<desc>Speed 23.3 km/h Distance 7.06 km</desc>
<time>2013-07-07T17:57:31.25</time>
<name>633</name>
<sym>Dot</sym>
</trkpt>
<trkpt lat="42.854692" lon="-2.219273">
<ele>1718.5</ele>
<desc>Speed 16.8 km/h Distance 7.06 km</desc>
<time>2013-07-07T17:57:32.24</time>
<name>634</name>
<sym>Dot</sym>
</trkpt>
<trkpt lat="42.854683" lon="-2.219312">
<ele>1719.0</ele>
<desc>Speed 11.6 km/h Distance 7.06 km</desc>
<time>2013-07-07T17:57:33.23</time>
<name>635</name>
<sym>Dot</sym>
</trkpt>
<trkpt lat="42.854692" lon="-2.219363">
<ele>1719.5</ele>
<desc>Speed 16.1 km/h Distance 7.07 km</desc>
<time>2013-07-07T17:57:34.22</time>
<name>636</name>
<sym>Dot</sym>
</trkpt>
<trkpt lat="42.854703" lon="-2.219417">
<ele>1719.5</ele>
<desc>Speed 16.5 km/h Distance 7.07 km</desc>
<time>2013-07-07T17:57:35.21</time>
<name>637</name>
<sym>Dot</sym>
</trkpt>
<trkpt lat="42.854720" lon="-2.219478">
<ele>1720.0</ele>
<desc>Speed 18.8 km/h Distance 7.08 km</desc>
<time>2013-07-07T17:57:36.21</time>
<name>638</name>
<sym>Dot</sym>
</trkpt>
<trkpt lat="42.854728" lon="-2.219540">
<ele>1720.5</ele>
<desc>Speed 18.3 km/h Distance 7.08 km</desc>
<time>2013-07-07T17:57:37.20</time>
<name>639</name>
<sym>Dot</sym>
</trkpt>
<trkpt lat="42.854737" lon="-2.219598">
<ele>1720.5</ele>
<desc>Speed 17.5 km/h Distance 7.09 km</desc>
<time>2013-07-07T17:57:38.19</time>
<name>640</name>
<sym>Dot</sym>
</trkpt>
<trkpt lat="42.854762" lon="-2.219662">
<ele>1721.5</ele>
<desc>Speed 17.4 km/h Distance 7.09 km</desc>
<time>2013-07-07T17:57:39.18</time>
<name>641</name>
<sym>Dot</sym>
</trkpt>
<trkpt lat="42.854802" lon="-2.219707">
<ele>1723.0</ele>
<desc>Speed 14.7 km/h Distance 7.10 km</desc>
<time>2013-07-07T17:57:40.19</time>
<name>642</name>
<sym>Dot</sym>
</trkpt>
<trkpt lat="42.854848" lon="-2.219725">
<ele>1724.5</ele>
<desc>Speed 13.5 km/h Distance 7.11 km</desc>
<time>2013-07-07T17:57:41.19</time>
<name>643</name>
<sym>Dot</sym>
</trkpt>
<trkpt lat="42.854872" lon="-2.219697">
<ele>1724.0</ele>
<desc>Speed 12.7 km/h Distance 7.11 km</desc>
<time>2013-07-07T17:57:42.18</time>
<name>644</name>
<sym>Dot</sym>
</trkpt>
<trkpt lat="42.854907" lon="-2.219665">
<ele>1725.0</ele>
<desc>Speed 15.6 km/h Distance 7.11 km</desc>
<time>2013-07-07T17:57:43.16</time>
<name>645</name>
<sym>Dot</sym>
</trkpt>
<trkpt lat="42.854945" lon="-2.219642">
<ele>1728.0</ele>
<desc>Speed 14.5 km/h Distance 7.12 km</desc>
<time>2013-07-07T17:57:44.17</time>
<name>646</name>
<sym>Dot</sym>
</trkpt>
<trkpt lat="42.854995" lon="-2.219623">
<ele>1734.0</ele>
<desc>Speed 16.7 km/h Distance 7.12 km</desc>
<time>2013-07-07T17:57:45.15</time>
<name>647</name>
<sym>Dot</sym>
</trkpt>
<trkpt lat="42.855052" lon="-2.219600">
<ele>1741.0</ele>
<desc>Speed 19.3 km/h Distance 7.13 km</desc>
<time>2013-07-07T17:57:46.15</time>
<name>648</name>
<sym>Dot</sym>
</trkpt>
<trkpt lat="42.855105" lon="-2.219317">
<ele>1752.0</ele>
<desc>Speed 36.1 km/h Distance 7.15 km</desc>
<time>2013-07-07T17:57:49.31</time>
<name>649</name>
<sym>Dot</sym>
</trkpt>
<trkpt lat="42.855097" lon="-2.219217">
<ele>1754.5</ele>
<desc>Speed 35.7 km/h Distance 7.16 km</desc>
<time>2013-07-07T17:57:50.32</time>
<name>650</name>
<sym>Dot</sym>
</trkpt>
<trkpt lat="42.855115" lon="-2.218997">
<ele>1758.5</ele>
<desc>Speed 37.8 km/h Distance 7.18 km</desc>
<time>2013-07-07T17:57:52.30</time>
<name>651</name>
<sym>Dot</sym>
</trkpt>
<trkpt lat="42.855272" lon="-2.218843">
<ele>1767.0</ele>
<desc>Speed 16.0 km/h Distance 7.20 km</desc>
<time>2013-07-07T17:57:56.29</time>
<name>652</name>
<sym>Dot</sym>
</trkpt>
<trkpt lat="42.855317" lon="-2.218835">
<ele>1769.0</ele>
<desc>Speed 16.1 km/h Distance 7.21 km</desc>
<time>2013-07-07T17:57:57.29</time>
<name>653</name>
<sym>Dot</sym>
</trkpt>
<trkpt lat="42.855370" lon="-2.218837">
<ele>1769.5</ele>
<desc>Speed 18.1 km/h Distance 7.21 km</desc>
<time>2013-07-07T17:57:58.28</time>
<name>654</name>
<sym>Dot</sym>
</trkpt>
<trkpt lat="42.855470" lon="-2.218957">
<ele>1772.5</ele>
<desc>Speed 26.5 km/h Distance 7.23 km</desc>
<time>2013-07-07T17:58:00.28</time>
<name>655</name>
<sym>Dot</sym>
</trkpt>
<trkpt lat="42.855522" lon="-2.219167">
<ele>1774.5</ele>
<desc>Speed 30.4 km/h Distance 7.25 km</desc>
<time>2013-07-07T17:58:02.27</time>
<name>656</name>
<sym>Dot</sym>
</trkpt>
<trkpt lat="42.855523" lon="-2.219258">
<ele>1775.0</ele>
<desc>Speed 26.7 km/h Distance 7.25 km</desc>
<time>2013-07-07T17:58:03.27</time>
<name>657</name>
<sym>Dot</sym>
</trkpt>
<trkpt lat="42.855515" lon="-2.219362">
<ele>1777.0</ele>
<desc>Speed 27.3 km/h Distance 7.26 km</desc>
<time>2013-07-07T17:58:04.27</time>
<name>658</name>
<sym>Dot</sym>
</trkpt>
<trkpt lat="42.855513" lon="-2.219470">
<ele>1777.0</ele>
<desc>Speed 31.1 km/h Distance 7.27 km</desc>
<time>2013-07-07T17:58:05.26</time>
<name>659</name>
<sym>Dot</sym>
</trkpt>
<trkpt lat="42.855517" lon="-2.219587">
<ele>1777.5</ele>
<desc>Speed 33.8 km/h Distance 7.28 km</desc>
<time>2013-07-07T17:58:06.24</time>
<name>660</name>
<sym>Dot</sym>
</trkpt>
<trkpt lat="42.855530" lon="-2.219718">
<ele>1777.0</ele>
<desc>Speed 39.0 km/h Distance 7.29 km</desc>
<time>2013-07-07T17:58:07.24</time>
<name>661</name>
<sym>Dot</sym>
</trkpt>
<trkpt lat="42.855545" lon="-2.219852">
<ele>1777.5</ele>
<desc>Speed 39.1 km/h Distance 7.30 km</desc>
<time>2013-07-07T17:58:08.23</time>
<name>662</name>
<sym>Dot</sym>
</trkpt>
<trkpt lat="42.855557" lon="-2.219992">
<ele>1778.0</ele>
<desc>Speed 41.3 km/h Distance 7.31 km</desc>
<time>2013-07-07T17:58:09.23</time>
<name>663</name>
<sym>Dot</sym>
</trkpt>
<trkpt lat="42.855563" lon="-2.220155">
<ele>1782.5</ele>
<desc>Speed 42.9 km/h Distance 7.33 km</desc>
<time>2013-07-07T17:58:10.22</time>
<name>664</name>
<sym>Dot</sym>
</trkpt>
<trkpt lat="42.855565" lon="-2.220302">
<ele>1784.0</ele>
<desc>Speed 43.5 km/h Distance 7.34 km</desc>
<time>2013-07-07T17:58:11.22</time>
<name>665</name>
<sym>Dot</sym>
</trkpt>
<trkpt lat="42.855567" lon="-2.220447">
<ele>1786.0</ele>
<desc>Speed 42.5 km/h Distance 7.35 km</desc>
<time>2013-07-07T17:58:12.22</time>
<name>666</name>
<sym>Dot</sym>
</trkpt>
<trkpt lat="42.855562" lon="-2.220583">
<ele>1787.0</ele>
<desc>Speed 40.1 km/h Distance 7.36 km</desc>
<time>2013-07-07T17:58:13.20</time>
<name>667</name>
<sym>Dot</sym>
</trkpt>
<trkpt lat="42.855547" lon="-2.220720">
<ele>1788.0</ele>
<desc>Speed 40.4 km/h Distance 7.37 km</desc>
<time>2013-07-07T17:58:14.20</time>
<name>668</name>
<sym>Dot</sym>
</trkpt>
<trkpt lat="42.855522" lon="-2.220875">
<ele>1789.5</ele>
<desc>Speed 46.1 km/h Distance 7.39 km</desc>
<time>2013-07-07T17:58:15.20</time>
<name>669</name>
<sym>Dot</sym>
</trkpt>
<trkpt lat="42.855487" lon="-2.221037">
<ele>1789.5</ele>
<desc>Speed 49.4 km/h Distance 7.40 km</desc>
<time>2013-07-07T17:58:16.18</time>
<name>670</name>
<sym>Dot</sym>
</trkpt>
<trkpt lat="42.855405" lon="-2.221442">
<ele>1798.0</ele>
<desc>Speed 54.8 km/h Distance 7.43 km</desc>
<time>2013-07-07T17:58:18.18</time>
<name>671</name>
<sym>Dot</sym>
</trkpt>
<trkpt lat="42.855375" lon="-2.221610">
<ele>1800.0</ele>
<desc>Speed 51.2 km/h Distance 7.45 km</desc>
<time>2013-07-07T17:58:19.18</time>
<name>672</name>
<sym>Dot</sym>
</trkpt>
<trkpt lat="42.855355" lon="-2.221765">
<ele>1802.0</ele>
<desc>Speed 46.5 km/h Distance 7.46 km</desc>
<time>2013-07-07T17:58:20.18</time>
<name>673</name>
<sym>Dot</sym>
</trkpt>
<trkpt lat="42.855335" lon="-2.221912">
<ele>1803.5</ele>
<desc>Speed 44.1 km/h Distance 7.47 km</desc>
<time>2013-07-07T17:58:21.17</time>
<name>674</name>
<sym>Dot</sym>
</trkpt>
<trkpt lat="42.855272" lon="-2.222243">
<ele>1815.0</ele>
<desc>Speed 46.3 km/h Distance 7.50 km</desc>
<time>2013-07-07T17:58:23.16</time>
<name>675</name>
<sym>Dot</sym>
</trkpt>
<trkpt lat="42.855218" lon="-2.222393">
<ele>1819.0</ele>
<desc>Speed 46.7 km/h Distance 7.51 km</desc>
<time>2013-07-07T17:58:24.15</time>
<name>676</name>
<sym>Dot</sym>
</trkpt>
<trkpt lat="42.855162" lon="-2.222522">
<ele>1821.0</ele>
<desc>Speed 44.6 km/h Distance 7.53 km</desc>
<time>2013-07-07T17:58:25.15</time>
<name>677</name>
<sym>Dot</sym>
</trkpt>
<trkpt lat="42.855110" lon="-2.222642">
<ele>1822.0</ele>
<desc>Speed 41.2 km/h Distance 7.54 km</desc>
<time>2013-07-07T17:58:26.13</time>
<name>678</name>
<sym>Dot</sym>
</trkpt>
<trkpt lat="42.855070" lon="-2.222763">
<ele>1822.0</ele>
<desc>Speed 38.8 km/h Distance 7.55 km</desc>
<time>2013-07-07T17:58:27.14</time>
<name>679</name>
<sym>Dot</sym>
</trkpt>
<trkpt lat="42.855047" lon="-2.222887">
<ele>1822.5</ele>
<desc>Speed 37.6 km/h Distance 7.56 km</desc>
<time>2013-07-07T17:58:28.12</time>
<name>680</name>
<sym>Dot</sym>
</trkpt>
<trkpt lat="42.855028" lon="-2.223018">
<ele>1824.0</ele>
<desc>Speed 40.1 km/h Distance 7.57 km</desc>
<time>2013-07-07T17:58:29.12</time>
<name>681</name>
<sym>Dot</sym>
</trkpt>
<trkpt lat="42.855010" lon="-2.223162">
<ele>1826.5</ele>
<desc>Speed 41.9 km/h Distance 7.58 km</desc>
<time>2013-07-07T17:58:30.12</time>
<name>682</name>
<sym>Dot</sym>
</trkpt>
<trkpt lat="42.855003" lon="-2.223295">
<ele>1828.5</ele>
<desc>Speed 40.5 km/h Distance 7.59 km</desc>
<time>2013-07-07T17:58:31.10</time>
<name>683</name>
<sym>Dot</sym>
</trkpt>
<trkpt lat="42.855000" lon="-2.223437">
<ele>1833.0</ele>
<desc>Speed 38.4 km/h Distance 7.60 km</desc>
<time>2013-07-07T17:58:32.11</time>
<name>684</name>
<sym>Dot</sym>
</trkpt>
<trkpt lat="42.854998" lon="-2.223570">
<ele>1836.5</ele>
<desc>Speed 38.1 km/h Distance 7.62 km</desc>
<time>2013-07-07T17:58:33.09</time>
<name>685</name>
<sym>Dot</sym>
</trkpt>
<trkpt lat="42.854995" lon="-2.223707">
<ele>1838.5</ele>
<desc>Speed 38.8 km/h Distance 7.63 km</desc>
<time>2013-07-07T17:58:34.09</time>
<name>686</name>
<sym>Dot</sym>
</trkpt>
<trkpt lat="42.854993" lon="-2.223838">
<ele>1840.5</ele>
<desc>Speed 39.0 km/h Distance 7.64 km</desc>
<time>2013-07-07T17:58:35.08</time>
<name>687</name>
<sym>Dot</sym>
</trkpt>
<trkpt lat="42.854997" lon="-2.223975">
<ele>1842.0</ele>
<desc>Speed 39.6 km/h Distance 7.65 km</desc>
<time>2013-07-07T17:58:36.08</time>
<name>688</name>
<sym>Dot</sym>
</trkpt>
<trkpt lat="42.855000" lon="-2.224113">
<ele>1842.0</ele>
<desc>Speed 41.1 km/h Distance 7.66 km</desc>
<time>2013-07-07T17:58:37.07</time>
<name>689</name>
<sym>Dot</sym>
</trkpt>
<trkpt lat="42.855003" lon="-2.224258">
<ele>1841.5</ele>
<desc>Speed 42.5 km/h Distance 7.67 km</desc>
<time>2013-07-07T17:58:38.07</time>
<name>690</name>
<sym>Dot</sym>
</trkpt>
<trkpt lat="42.855008" lon="-2.224408">
<ele>1841.5</ele>
<desc>Speed 44.1 km/h Distance 7.68 km</desc>
<time>2013-07-07T17:58:39.07</time>
<name>691</name>
<sym>Dot</sym>
</trkpt>
<trkpt lat="42.855013" lon="-2.224565">
<ele>1842.5</ele>
<desc>Speed 45.3 km/h Distance 7.70 km</desc>
<time>2013-07-07T17:58:40.06</time>
<name>692</name>
<sym>Dot</sym>
</trkpt>
<trkpt lat="42.855010" lon="-2.224723">
<ele>1843.5</ele>
<desc>Speed 45.0 km/h Distance 7.71 km</desc>
<time>2013-07-07T17:58:41.05</time>
<name>693</name>
<sym>Dot</sym>
</trkpt>
<trkpt lat="42.854995" lon="-2.224873">
<ele>1843.0</ele>
<desc>Speed 44.3 km/h Distance 7.72 km</desc>
<time>2013-07-07T17:58:42.05</time>
<name>694</name>
<sym>Dot</sym>
</trkpt>
<trkpt lat="42.854965" lon="-2.225027">
<ele>1842.5</ele>
<desc>Speed 46.5 km/h Distance 7.74 km</desc>
<time>2013-07-07T17:58:43.05</time>
<name>695</name>
<sym>Dot</sym>
</trkpt>
<trkpt lat="42.854935" lon="-2.225177">
<ele>1841.0</ele>
<desc>Speed 45.8 km/h Distance 7.75 km</desc>
<time>2013-07-07T17:58:44.04</time>
<name>696</name>
<sym>Dot</sym>
</trkpt>
<trkpt lat="42.854907" lon="-2.225327">
<ele>1840.0</ele>
<desc>Speed 46.7 km/h Distance 7.76 km</desc>
<time>2013-07-07T17:58:45.03</time>
<name>697</name>
<sym>Dot</sym>
</trkpt>
<trkpt lat="42.854882" lon="-2.225488">
<ele>1839.0</ele>
<desc>Speed 48.7 km/h Distance 7.77 km</desc>
<time>2013-07-07T17:58:46.02</time>
<name>698</name>
<sym>Dot</sym>
</trkpt>
<trkpt lat="42.854863" lon="-2.225655">
<ele>1838.5</ele>
<desc>Speed 49.9 km/h Distance 7.79 km</desc>
<time>2013-07-07T17:58:47.01</time>
<name>699</name>
<sym>Dot</sym>
</trkpt>
<trkpt lat="42.854845" lon="-2.225818">
<ele>1839.5</ele>
<desc>Speed 48.8 km/h Distance 7.80 km</desc>
<time>2013-07-07T17:58:48.01</time>
<name>700</name>
<sym>Dot</sym>
</trkpt>
<trkpt lat="42.854818" lon="-2.225963">
<ele>1839.0</ele>
<desc>Speed 43.8 km/h Distance 7.81 km</desc>
<time>2013-07-07T17:58:49.00</time>
<name>701</name>
<sym>Dot</sym>
</trkpt>
<trkpt lat="42.854793" lon="-2.226093">
<ele>1839.5</ele>
<desc>Speed 39.8 km/h Distance 7.82 km</desc>
<time>2013-07-07T17:58:50.00</time>
<name>702</name>
<sym>Dot</sym>
</trkpt>
<trkpt lat="42.854772" lon="-2.226220">
<ele>1838.5</ele>
<desc>Speed 37.3 km/h Distance 7.84 km</desc>
<time>2013-07-07T17:58:51.00</time>
<name>703</name>
<sym>Dot</sym>
</trkpt>
<trkpt lat="42.854765" lon="-2.226350">
<ele>1839.5</ele>
<desc>Speed 38.6 km/h Distance 7.85 km</desc>
<time>2013-07-07T17:58:51.99</time>
<name>704</name>
<sym>Dot</sym>
</trkpt>
<trkpt lat="42.854760" lon="-2.226483">
<ele>1838.5</ele>
<desc>Speed 38.7 km/h Distance 7.86 km</desc>
<time>2013-07-07T17:58:52.98</time>
<name>705</name>
<sym>Dot</sym>
</trkpt>
<trkpt lat="42.854738" lon="-2.226610">
<ele>1837.5</ele>
<desc>Speed 39.1 km/h Distance 7.87 km</desc>
<time>2013-07-07T17:58:53.97</time>
<name>706</name>
<sym>Dot</sym>
</trkpt>
<trkpt lat="42.854710" lon="-2.226743">
<ele>1839.0</ele>
<desc>Speed 40.8 km/h Distance 7.88 km</desc>
<time>2013-07-07T17:58:54.96</time>
<name>707</name>
<sym>Dot</sym>
</trkpt>
<trkpt lat="42.854665" lon="-2.226873">
<ele>1842.0</ele>
<desc>Speed 42.1 km/h Distance 7.89 km</desc>
<time>2013-07-07T17:58:55.96</time>
<name>708</name>
<sym>Dot</sym>
</trkpt>
<trkpt lat="42.854535" lon="-2.227147">
<ele>1844.0</ele>
<desc>Speed 44.9 km/h Distance 7.92 km</desc>
<time>2013-07-07T17:58:57.95</time>
<name>709</name>
<sym>Dot</sym>
</trkpt>
<trkpt lat="42.854493" lon="-2.227282">
<ele>1845.0</ele>
<desc>Speed 43.2 km/h Distance 7.93 km</desc>
<time>2013-07-07T17:58:58.94</time>
<name>710</name>
<sym>Dot</sym>
</trkpt>
<trkpt lat="42.854455" lon="-2.227413">
<ele>1844.0</ele>
<desc>Speed 41.7 km/h Distance 7.94 km</desc>
<time>2013-07-07T17:58:59.95</time>
<name>711</name>
<sym>Dot</sym>
</trkpt>
<trkpt lat="42.854413" lon="-2.227538">
<ele>1843.0</ele>
<desc>Speed 41.5 km/h Distance 7.95 km</desc>
<time>2013-07-07T17:59:00.93</time>
<name>712</name>
<sym>Dot</sym>
</trkpt>
<trkpt lat="42.854370" lon="-2.227668">
<ele>1841.5</ele>
<desc>Speed 42.8 km/h Distance 7.96 km</desc>
<time>2013-07-07T17:59:01.93</time>
<name>713</name>
<sym>Dot</sym>
</trkpt>
<trkpt lat="42.854333" lon="-2.227795">
<ele>1841.0</ele>
<desc>Speed 41.0 km/h Distance 7.97 km</desc>
<time>2013-07-07T17:59:02.93</time>
<name>714</name>
<sym>Dot</sym>
</trkpt>
<trkpt lat="42.854297" lon="-2.227927">
<ele>1839.5</ele>
<desc>Speed 41.8 km/h Distance 7.99 km</desc>
<time>2013-07-07T17:59:03.93</time>
<name>715</name>
<sym>Dot</sym>
</trkpt>
<trkpt lat="42.854257" lon="-2.228068">
<ele>1838.5</ele>
<desc>Speed 45.1 km/h Distance 8.00 km</desc>
<time>2013-07-07T17:59:04.91</time>
<name>716</name>
<sym>Dot</sym>
</trkpt>
<trkpt lat="42.854227" lon="-2.228218">
<ele>1837.0</ele>
<desc>Speed 46.4 km/h Distance 8.01 km</desc>
<time>2013-07-07T17:59:05.91</time>
<name>717</name>
<sym>Dot</sym>
</trkpt>
<trkpt lat="42.854182" lon="-2.228365">
<ele>1837.0</ele>
<desc>Speed 47.6 km/h Distance 8.02 km</desc>
<time>2013-07-07T17:59:06.90</time>
<name>718</name>
<sym>Dot</sym>
</trkpt>
<trkpt lat="42.854135" lon="-2.228513">
<ele>1837.0</ele>
<desc>Speed 47.8 km/h Distance 8.04 km</desc>
<time>2013-07-07T17:59:07.90</time>
<name>719</name>
<sym>Dot</sym>
</trkpt>
<trkpt lat="42.854097" lon="-2.228653">
<ele>1836.5</ele>
<desc>Speed 44.7 km/h Distance 8.05 km</desc>
<time>2013-07-07T17:59:08.89</time>
<name>720</name>
<sym>Dot</sym>
</trkpt>
<trkpt lat="42.854072" lon="-2.228793">
<ele>1836.0</ele>
<desc>Speed 42.5 km/h Distance 8.06 km</desc>
<time>2013-07-07T17:59:09.89</time>
<name>721</name>
<sym>Dot</sym>
</trkpt>
<trkpt lat="42.854050" lon="-2.228918">
<ele>1835.0</ele>
<desc>Speed 38.5 km/h Distance 8.07 km</desc>
<time>2013-07-07T17:59:10.88</time>
<name>722</name>
<sym>Dot</sym>
</trkpt>
<trkpt lat="42.854020" lon="-2.229042">
<ele>1834.5</ele>
<desc>Speed 38.6 km/h Distance 8.08 km</desc>
<time>2013-07-07T17:59:11.88</time>
<name>723</name>
<sym>Dot</sym>
</trkpt>
<trkpt lat="42.853978" lon="-2.229172">
<ele>1833.5</ele>
<desc>Speed 42.3 km/h Distance 8.09 km</desc>
<time>2013-07-07T17:59:12.87</time>
<name>724</name>
<sym>Dot</sym>
</trkpt>
<trkpt lat="42.853933" lon="-2.229312">
<ele>1832.0</ele>
<desc>Speed 45.4 km/h Distance 8.11 km</desc>
<time>2013-07-07T17:59:13.87</time>
<name>725</name>
<sym>Dot</sym>
</trkpt>
<trkpt lat="42.853885" lon="-2.229453">
<ele>1831.5</ele>
<desc>Speed 46.2 km/h Distance 8.12 km</desc>
<time>2013-07-07T17:59:14.86</time>
<name>726</name>
<sym>Dot</sym>
</trkpt>
<trkpt lat="42.853840" lon="-2.229585">
<ele>1831.0</ele>
<desc>Speed 43.3 km/h Distance 8.13 km</desc>
<time>2013-07-07T17:59:15.86</time>
<name>727</name>
<sym>Dot</sym>
</trkpt>
<trkpt lat="42.853802" lon="-2.229708">
<ele>1831.0</ele>
<desc>Speed 40.1 km/h Distance 8.14 km</desc>
<time>2013-07-07T17:59:16.85</time>
<name>728</name>
<sym>Dot</sym>
</trkpt>
<trkpt lat="42.853768" lon="-2.229828">
<ele>1830.5</ele>
<desc>Speed 37.3 km/h Distance 8.15 km</desc>
<time>2013-07-07T17:59:17.85</time>
<name>729</name>
<sym>Dot</sym>
</trkpt>
<trkpt lat="42.853733" lon="-2.229952">
<ele>1830.0</ele>
<desc>Speed 38.6 km/h Distance 8.16 km</desc>
<time>2013-07-07T17:59:18.84</time>
<name>730</name>
<sym>Dot</sym>
</trkpt>
<trkpt lat="42.853695" lon="-2.230077">
<ele>1829.0</ele>
<desc>Speed 40.3 km/h Distance 8.17 km</desc>
<time>2013-07-07T17:59:19.83</time>
<name>731</name>
<sym>Dot</sym>
</trkpt>
<trkpt lat="42.853650" lon="-2.230203">
<ele>1828.5</ele>
<desc>Speed 41.6 km/h Distance 8.19 km</desc>
<time>2013-07-07T17:59:20.82</time>
<name>732</name>
<sym>Dot</sym>
</trkpt>
<trkpt lat="42.853605" lon="-2.230328">
<ele>1828.0</ele>
<desc>Speed 41.4 km/h Distance 8.20 km</desc>
<time>2013-07-07T17:59:21.83</time>
<name>733</name>
<sym>Dot</sym>
</trkpt>
<trkpt lat="42.853562" lon="-2.230455">
<ele>1827.0</ele>
<desc>Speed 41.7 km/h Distance 8.21 km</desc>
<time>2013-07-07T17:59:22.81</time>
<name>734</name>
<sym>Dot</sym>
</trkpt>
<trkpt lat="42.853518" lon="-2.230582">
<ele>1826.0</ele>
<desc>Speed 42.2 km/h Distance 8.22 km</desc>
<time>2013-07-07T17:59:23.81</time>
<name>735</name>
<sym>Dot</sym>
</trkpt>
<trkpt lat="42.853475" lon="-2.230710">
<ele>1824.5</ele>
<desc>Speed 41.9 km/h Distance 8.23 km</desc>
<time>2013-07-07T17:59:24.80</time>
<name>736</name>
<sym>Dot</sym>
</trkpt>
<trkpt lat="42.853438" lon="-2.230847">
<ele>1824.0</ele>
<desc>Speed 42.7 km/h Distance 8.24 km</desc>
<time>2013-07-07T17:59:25.81</time>
<name>737</name>
<sym>Dot</sym>
</trkpt>
<trkpt lat="42.853405" lon="-2.230980">
<ele>1823.0</ele>
<desc>Speed 42.2 km/h Distance 8.25 km</desc>
<time>2013-07-07T17:59:26.79</time>
<name>738</name>
<sym>Dot</sym>
</trkpt>
<trkpt lat="42.853375" lon="-2.231113">
<ele>1824.0</ele>
<desc>Speed 40.5 km/h Distance 8.27 km</desc>
<time>2013-07-07T17:59:27.79</time>
<name>739</name>
<sym>Dot</sym>
</trkpt>
<trkpt lat="42.853343" lon="-2.231243">
<ele>1824.5</ele>
<desc>Speed 39.8 km/h Distance 8.28 km</desc>
<time>2013-07-07T17:59:28.78</time>
<name>740</name>
<sym>Dot</sym>
</trkpt>
<trkpt lat="42.853312" lon="-2.231368">
<ele>1825.0</ele>
<desc>Speed 38.9 km/h Distance 8.29 km</desc>
<time>2013-07-07T17:59:29.77</time>
<name>741</name>
<sym>Dot</sym>
</trkpt>
<trkpt lat="42.853277" lon="-2.231492">
<ele>1824.5</ele>
<desc>Speed 39.3 km/h Distance 8.30 km</desc>
<time>2013-07-07T17:59:30.77</time>
<name>742</name>
<sym>Dot</sym>
</trkpt>
<trkpt lat="42.853240" lon="-2.231620">
<ele>1824.0</ele>
<desc>Speed 40.2 km/h Distance 8.31 km</desc>
<time>2013-07-07T17:59:31.76</time>
<name>743</name>
<sym>Dot</sym>
</trkpt>
<trkpt lat="42.853208" lon="-2.231752">
<ele>1823.5</ele>
<desc>Speed 40.7 km/h Distance 8.32 km</desc>
<time>2013-07-07T17:59:32.76</time>
<name>744</name>
<sym>Dot</sym>
</trkpt>
<trkpt lat="42.853178" lon="-2.231885">
<ele>1823.5</ele>
<desc>Speed 41.0 km/h Distance 8.33 km</desc>
<time>2013-07-07T17:59:33.75</time>
<name>745</name>
<sym>Dot</sym>
</trkpt>
<trkpt lat="42.853148" lon="-2.232025">
<ele>1824.0</ele>
<desc>Speed 42.9 km/h Distance 8.34 km</desc>
<time>2013-07-07T17:59:34.75</time>
<name>746</name>
<sym>Dot</sym>
</trkpt>
<trkpt lat="42.853115" lon="-2.232172">
<ele>1824.5</ele>
<desc>Speed 45.5 km/h Distance 8.36 km</desc>
<time>2013-07-07T17:59:35.74</time>
<name>747</name>
<sym>Dot</sym>
</trkpt>
<trkpt lat="42.853082" lon="-2.232308">
<ele>1824.5</ele>
<desc>Speed 42.3 km/h Distance 8.37 km</desc>
<time>2013-07-07T17:59:36.74</time>
<name>748</name>
<sym>Dot</sym>
</trkpt>
<trkpt lat="42.853038" lon="-2.232450">
<ele>1825.0</ele>
<desc>Speed 45.7 km/h Distance 8.38 km</desc>
<time>2013-07-07T17:59:37.74</time>
<name>749</name>
<sym>Dot</sym>
</trkpt>
<trkpt lat="42.852992" lon="-2.232580">
<ele>1825.0</ele>
<desc>Speed 43.5 km/h Distance 8.39 km</desc>
<time>2013-07-07T17:59:38.74</time>
<name>750</name>
<sym>Dot</sym>
</trkpt>
<trkpt lat="42.852948" lon="-2.232698">
<ele>1827.0</ele>
<desc>Speed 39.6 km/h Distance 8.40 km</desc>
<time>2013-07-07T17:59:39.73</time>
<name>751</name>
<sym>Dot</sym>
</trkpt>
<trkpt lat="42.852912" lon="-2.232815">
<ele>1828.5</ele>
<desc>Speed 38.2 km/h Distance 8.41 km</desc>
<time>2013-07-07T17:59:40.71</time>
<name>752</name>
<sym>Dot</sym>
</trkpt>
<trkpt lat="42.852863" lon="-2.232952">
<ele>1829.0</ele>
<desc>Speed 44.6 km/h Distance 8.43 km</desc>
<time>2013-07-07T17:59:41.71</time>
<name>753</name>
<sym>Dot</sym>
</trkpt>
<trkpt lat="42.852817" lon="-2.233095">
<ele>1830.5</ele>
<desc>Speed 46.6 km/h Distance 8.44 km</desc>
<time>2013-07-07T17:59:42.70</time>
<name>754</name>
<sym>Dot</sym>
</trkpt>
<trkpt lat="42.852772" lon="-2.233255">
<ele>1831.5</ele>
<desc>Speed 51.0 km/h Distance 8.45 km</desc>
<time>2013-07-07T17:59:43.70</time>
<name>755</name>
<sym>Dot</sym>
</trkpt>
<trkpt lat="42.852717" lon="-2.233405">
<ele>1832.0</ele>
<desc>Speed 49.5 km/h Distance 8.47 km</desc>
<time>2013-07-07T17:59:44.69</time>
<name>756</name>
<sym>Dot</sym>
</trkpt>
<trkpt lat="42.852667" lon="-2.233548">
<ele>1832.0</ele>
<desc>Speed 47.0 km/h Distance 8.48 km</desc>
<time>2013-07-07T17:59:45.69</time>
<name>757</name>
<sym>Dot</sym>
</trkpt>
<trkpt lat="42.852615" lon="-2.233778">
<ele>1834.5</ele>
<desc>Speed 33.8 km/h Distance 8.50 km</desc>
<time>2013-07-07T17:59:47.69</time>
<name>758</name>
<sym>Dot</sym>
</trkpt>
<trkpt lat="42.852600" lon="-2.233887">
<ele>1836.5</ele>
<desc>Speed 32.7 km/h Distance 8.51 km</desc>
<time>2013-07-07T17:59:48.68</time>
<name>759</name>
<sym>Dot</sym>
</trkpt>
<trkpt lat="42.852587" lon="-2.234003">
<ele>1837.5</ele>
<desc>Speed 35.1 km/h Distance 8.52 km</desc>
<time>2013-07-07T17:59:49.67</time>
<name>760</name>
<sym>Dot</sym>
</trkpt>
<trkpt lat="42.852572" lon="-2.234128">
<ele>1839.5</ele>
<desc>Speed 37.4 km/h Distance 8.53 km</desc>
<time>2013-07-07T17:59:50.66</time>
<name>761</name>
<sym>Dot</sym>
</trkpt>
<trkpt lat="42.852558" lon="-2.234260">
<ele>1841.5</ele>
<desc>Speed 38.2 km/h Distance 8.54 km</desc>
<time>2013-07-07T17:59:51.67</time>
<name>762</name>
<sym>Dot</sym>
</trkpt>
<trkpt lat="42.852552" lon="-2.234390">
<ele>1842.5</ele>
<desc>Speed 38.4 km/h Distance 8.55 km</desc>
<time>2013-07-07T17:59:52.65</time>
<name>763</name>
<sym>Dot</sym>
</trkpt>
<trkpt lat="42.852545" lon="-2.234515">
<ele>1843.5</ele>
<desc>Speed 37.1 km/h Distance 8.56 km</desc>
<time>2013-07-07T17:59:53.65</time>
<name>764</name>
<sym>Dot</sym>
</trkpt>
<trkpt lat="42.852537" lon="-2.234635">
<ele>1843.5</ele>
<desc>Speed 35.1 km/h Distance 8.57 km</desc>
<time>2013-07-07T17:59:54.64</time>
<name>765</name>
<sym>Dot</sym>
</trkpt>
<trkpt lat="42.852522" lon="-2.234747">
<ele>1842.5</ele>
<desc>Speed 32.9 km/h Distance 8.58 km</desc>
<time>2013-07-07T17:59:55.64</time>
<name>766</name>
<sym>Dot</sym>
</trkpt>
<trkpt lat="42.852493" lon="-2.234875">
<ele>1841.0</ele>
<desc>Speed 39.2 km/h Distance 8.59 km</desc>
<time>2013-07-07T17:59:56.64</time>
<name>767</name>
<sym>Dot</sym>
</trkpt>
<trkpt lat="42.852467" lon="-2.235023">
<ele>1841.5</ele>
<desc>Speed 45.1 km/h Distance 8.60 km</desc>
<time>2013-07-07T17:59:57.64</time>
<name>768</name>
<sym>Dot</sym>
</trkpt>
<trkpt lat="42.852440" lon="-2.235188">
<ele>1841.5</ele>
<desc>Speed 49.8 km/h Distance 8.62 km</desc>
<time>2013-07-07T17:59:58.65</time>
<name>769</name>
<sym>Dot</sym>
</trkpt>
<trkpt lat="42.852402" lon="-2.235348">
<ele>1840.5</ele>
<desc>Speed 49.5 km/h Distance 8.63 km</desc>
<time>2013-07-07T17:59:59.63</time>
<name>770</name>
<sym>Dot</sym>
</trkpt>
<trkpt lat="42.852368" lon="-2.235497">
<ele>1840.5</ele>
<desc>Speed 46.1 km/h Distance 8.64 km</desc>
<time>2013-07-07T18:00:00.62</time>
<name>771</name>
<sym>Dot</sym>
</trkpt>
<trkpt lat="42.852337" lon="-2.235735">
<ele>1841.5</ele>
<desc>Speed 35.2 km/h Distance 8.66 km</desc>
<time>2013-07-07T18:00:02.62</time>
<name>772</name>
<sym>Dot</sym>
</trkpt>
<trkpt lat="42.852327" lon="-2.235850">
<ele>1840.0</ele>
<desc>Speed 34.7 km/h Distance 8.67 km</desc>
<time>2013-07-07T18:00:03.61</time>
<name>773</name>
<sym>Dot</sym>
</trkpt>
<trkpt lat="42.852325" lon="-2.235983">
<ele>1840.5</ele>
<desc>Speed 39.3 km/h Distance 8.68 km</desc>
<time>2013-07-07T18:00:04.61</time>
<name>774</name>
<sym>Dot</sym>
</trkpt>
<trkpt lat="42.852317" lon="-2.236128">
<ele>1839.0</ele>
<desc>Speed 42.9 km/h Distance 8.70 km</desc>
<time>2013-07-07T18:00:05.60</time>
<name>775</name>
<sym>Dot</sym>
</trkpt>
<trkpt lat="42.852310" lon="-2.236283">
<ele>1839.0</ele>
<desc>Speed 46.3 km/h Distance 8.71 km</desc>
<time>2013-07-07T18:00:06.60</time>
<name>776</name>
<sym>Dot</sym>
</trkpt>
<trkpt lat="42.852305" lon="-2.236433">
<ele>1840.0</ele>
<desc>Speed 44.5 km/h Distance 8.72 km</desc>
<time>2013-07-07T18:00:07.59</time>
<name>777</name>
<sym>Dot</sym>
</trkpt>
<trkpt lat="42.852303" lon="-2.236570">
<ele>1840.5</ele>
<desc>Speed 40.0 km/h Distance 8.73 km</desc>
<time>2013-07-07T18:00:08.59</time>
<name>778</name>
<sym>Dot</sym>
</trkpt>
<trkpt lat="42.852305" lon="-2.236685">
<ele>1840.5</ele>
<desc>Speed 34.2 km/h Distance 8.74 km</desc>
<time>2013-07-07T18:00:09.58</time>
<name>779</name>
<sym>Dot</sym>
</trkpt>
<trkpt lat="42.852305" lon="-2.236795">
<ele>1840.0</ele>
<desc>Speed 32.9 km/h Distance 8.75 km</desc>
<time>2013-07-07T18:00:10.58</time>
<name>780</name>
<sym>Dot</sym>
</trkpt>
<trkpt lat="42.852305" lon="-2.236915">
<ele>1838.5</ele>
<desc>Speed 36.4 km/h Distance 8.76 km</desc>
<time>2013-07-07T18:00:11.57</time>
<name>781</name>
<sym>Dot</sym>
</trkpt>
<trkpt lat="42.852298" lon="-2.237215">
<ele>1837.0</ele>
<desc>Speed 44.7 km/h Distance 8.78 km</desc>
<time>2013-07-07T18:00:13.57</time>
<name>782</name>
<sym>Dot</sym>
</trkpt>
<trkpt lat="42.852307" lon="-2.237380">
<ele>1836.5</ele>
<desc>Speed 48.8 km/h Distance 8.80 km</desc>
<time>2013-07-07T18:00:14.57</time>
<name>783</name>
<sym>Dot</sym>
</trkpt>
<trkpt lat="42.852315" lon="-2.237532">
<ele>1837.5</ele>
<desc>Speed 44.6 km/h Distance 8.81 km</desc>
<time>2013-07-07T18:00:15.56</time>
<name>784</name>
<sym>Dot</sym>
</trkpt>
<trkpt lat="42.852322" lon="-2.237670">
<ele>1838.5</ele>
<desc>Speed 40.9 km/h Distance 8.82 km</desc>
<time>2013-07-07T18:00:16.56</time>
<name>785</name>
<sym>Dot</sym>
</trkpt>
<trkpt lat="42.852327" lon="-2.237800">
<ele>1839.0</ele>
<desc>Speed 39.1 km/h Distance 8.83 km</desc>
<time>2013-07-07T18:00:17.55</time>
<name>786</name>
<sym>Dot</sym>
</trkpt>
<trkpt lat="42.852333" lon="-2.237935">
<ele>1838.0</ele>
<desc>Speed 40.0 km/h Distance 8.84 km</desc>
<time>2013-07-07T18:00:18.54</time>
<name>787</name>
<sym>Dot</sym>
</trkpt>
<trkpt lat="42.852338" lon="-2.238082">
<ele>1837.0</ele>
<desc>Speed 43.7 km/h Distance 8.85 km</desc>
<time>2013-07-07T18:00:19.54</time>
<name>788</name>
<sym>Dot</sym>
</trkpt>
<trkpt lat="42.852340" lon="-2.238240">
<ele>1836.5</ele>
<desc>Speed 47.3 km/h Distance 8.87 km</desc>
<time>2013-07-07T18:00:20.53</time>
<name>789</name>
<sym>Dot</sym>
</trkpt>
<trkpt lat="42.852337" lon="-2.238407">
<ele>1837.0</ele>
<desc>Speed 49.6 km/h Distance 8.88 km</desc>
<time>2013-07-07T18:00:21.53</time>
<name>790</name>
<sym>Dot</sym>
</trkpt>
<trkpt lat="42.852330" lon="-2.238567">
<ele>1837.0</ele>
<desc>Speed 47.2 km/h Distance 8.89 km</desc>
<time>2013-07-07T18:00:22.52</time>
<name>791</name>
<sym>Dot</sym>
</trkpt>
<trkpt lat="42.852327" lon="-2.238717">
<ele>1838.0</ele>
<desc>Speed 44.4 km/h Distance 8.91 km</desc>
<time>2013-07-07T18:00:23.52</time>
<name>792</name>
<sym>Dot</sym>
</trkpt>
<trkpt lat="42.852323" lon="-2.238857">
<ele>1839.0</ele>
<desc>Speed 41.1 km/h Distance 8.92 km</desc>
<time>2013-07-07T18:00:24.52</time>
<name>793</name>
<sym>Dot</sym>
</trkpt>
<trkpt lat="42.852318" lon="-2.238993">
<ele>1839.0</ele>
<desc>Speed 40.9 km/h Distance 8.93 km</desc>
<time>2013-07-07T18:00:25.51</time>
<name>794</name>
<sym>Dot</sym>
</trkpt>
<trkpt lat="42.852312" lon="-2.239137">
<ele>1838.0</ele>
<desc>Speed 42.7 km/h Distance 8.94 km</desc>
<time>2013-07-07T18:00:26.50</time>
<name>795</name>
<sym>Dot</sym>
</trkpt>
<trkpt lat="42.852303" lon="-2.239283">
<ele>1837.0</ele>
<desc>Speed 44.6 km/h Distance 8.95 km</desc>
<time>2013-07-07T18:00:27.50</time>
<name>796</name>
<sym>Dot</sym>
</trkpt>
<trkpt lat="42.852298" lon="-2.239435">
<ele>1836.0</ele>
<desc>Speed 45.5 km/h Distance 8.97 km</desc>
<time>2013-07-07T18:00:28.49</time>
<name>797</name>
<sym>Dot</sym>
</trkpt>
<trkpt lat="42.852292" lon="-2.239588">
<ele>1835.5</ele>
<desc>Speed 45.8 km/h Distance 8.98 km</desc>
<time>2013-07-07T18:00:29.49</time>
<name>798</name>
<sym>Dot</sym>
</trkpt>
<trkpt lat="42.852283" lon="-2.239742">
<ele>1835.0</ele>
<desc>Speed 45.9 km/h Distance 8.99 km</desc>
<time>2013-07-07T18:00:30.48</time>
<name>799</name>
<sym>Dot</sym>
</trkpt>
<trkpt lat="42.852272" lon="-2.239897">
<ele>1834.5</ele>
<desc>Speed 45.5 km/h Distance 9.00 km</desc>
<time>2013-07-07T18:00:31.48</time>
<name>800</name>
<sym>Dot</sym>
</trkpt>
<trkpt lat="42.852257" lon="-2.240045">
<ele>1834.0</ele>
<desc>Speed 44.5 km/h Distance 9.02 km</desc>
<time>2013-07-07T18:00:32.47</time>
<name>801</name>
<sym>Dot</sym>
</trkpt>
<trkpt lat="42.852242" lon="-2.240193">
<ele>1834.0</ele>
<desc>Speed 44.1 km/h Distance 9.03 km</desc>
<time>2013-07-07T18:00:33.47</time>
<name>802</name>
<sym>Dot</sym>
</trkpt>
<trkpt lat="42.852228" lon="-2.240340">
<ele>1834.0</ele>
<desc>Speed 43.3 km/h Distance 9.04 km</desc>
<time>2013-07-07T18:00:34.46</time>
<name>803</name>
<sym>Dot</sym>
</trkpt>
<trkpt lat="42.852220" lon="-2.240478">
<ele>1834.5</ele>
<desc>Speed 41.5 km/h Distance 9.05 km</desc>
<time>2013-07-07T18:00:35.46</time>
<name>804</name>
<sym>Dot</sym>
</trkpt>
<trkpt lat="42.852212" lon="-2.240615">
<ele>1834.5</ele>
<desc>Speed 40.2 km/h Distance 9.06 km</desc>
<time>2013-07-07T18:00:36.45</time>
<name>805</name>
<sym>Dot</sym>
</trkpt>
<trkpt lat="42.852198" lon="-2.240752">
<ele>1834.5</ele>
<desc>Speed 40.2 km/h Distance 9.07 km</desc>
<time>2013-07-07T18:00:37.45</time>
<name>806</name>
<sym>Dot</sym>
</trkpt>
<trkpt lat="42.852185" lon="-2.240890">
<ele>1834.0</ele>
<desc>Speed 41.0 km/h Distance 9.08 km</desc>
<time>2013-07-07T18:00:38.44</time>
<name>807</name>
<sym>Dot</sym>
</trkpt>
<trkpt lat="42.852177" lon="-2.241030">
<ele>1833.5</ele>
<desc>Speed 41.7 km/h Distance 9.10 km</desc>
<time>2013-07-07T18:00:39.44</time>
<name>808</name>
<sym>Dot</sym>
</trkpt>
<trkpt lat="42.852167" lon="-2.241165">
<ele>1833.0</ele>
<desc>Speed 39.4 km/h Distance 9.11 km</desc>
<time>2013-07-07T18:00:40.43</time>
<name>809</name>
<sym>Dot</sym>
</trkpt>
<trkpt lat="42.852163" lon="-2.241307">
<ele>1833.0</ele>
<desc>Speed 41.1 km/h Distance 9.12 km</desc>
<time>2013-07-07T18:00:41.43</time>
<name>810</name>
<sym>Dot</sym>
</trkpt>
<trkpt lat="42.852162" lon="-2.241448">
<ele>1834.0</ele>
<desc>Speed 40.8 km/h Distance 9.13 km</desc>
<time>2013-07-07T18:00:42.42</time>
<name>811</name>
<sym>Dot</sym>
</trkpt>
<trkpt lat="42.852148" lon="-2.241583">
<ele>1834.0</ele>
<desc>Speed 39.5 km/h Distance 9.14 km</desc>
<time>2013-07-07T18:00:43.42</time>
<name>812</name>
<sym>Dot</sym>
</trkpt>
<trkpt lat="42.852122" lon="-2.241727">
<ele>1834.0</ele>
<desc>Speed 42.6 km/h Distance 9.15 km</desc>
<time>2013-07-07T18:00:44.42</time>
<name>813</name>
<sym>Dot</sym>
</trkpt>
<trkpt lat="42.852092" lon="-2.241875">
<ele>1833.5</ele>
<desc>Speed 45.1 km/h Distance 9.17 km</desc>
<time>2013-07-07T18:00:45.42</time>
<name>814</name>
<sym>Dot</sym>
</trkpt>
<trkpt lat="42.852067" lon="-2.242027">
<ele>1833.5</ele>
<desc>Speed 45.6 km/h Distance 9.18 km</desc>
<time>2013-07-07T18:00:46.41</time>
<name>815</name>
<sym>Dot</sym>
</trkpt>
<trkpt lat="42.852065" lon="-2.242168">
<ele>1833.5</ele>
<desc>Speed 41.7 km/h Distance 9.19 km</desc>
<time>2013-07-07T18:00:47.40</time>
<name>816</name>
<sym>Dot</sym>
</trkpt>
<trkpt lat="42.852087" lon="-2.242312">
<ele>1834.5</ele>
<desc>Speed 42.5 km/h Distance 9.20 km</desc>
<time>2013-07-07T18:00:48.39</time>
<name>817</name>
<sym>Dot</sym>
</trkpt>
<trkpt lat="42.852098" lon="-2.242435">
<ele>1834.5</ele>
<desc>Speed 36.8 km/h Distance 9.21 km</desc>
<time>2013-07-07T18:00:49.39</time>
<name>818</name>
<sym>Dot</sym>
</trkpt>
<trkpt lat="42.852113" lon="-2.242565">
<ele>1834.0</ele>
<desc>Speed 38.5 km/h Distance 9.22 km</desc>
<time>2013-07-07T18:00:50.38</time>
<name>819</name>
<sym>Dot</sym>
</trkpt>
<trkpt lat="42.852115" lon="-2.242708">
<ele>1834.0</ele>
<desc>Speed 42.1 km/h Distance 9.23 km</desc>
<time>2013-07-07T18:00:51.39</time>
<name>820</name>
<sym>Dot</sym>
</trkpt>
<trkpt lat="42.852117" lon="-2.242952">
<ele>1834.0</ele>
<desc>Speed 38.1 km/h Distance 9.25 km</desc>
<time>2013-07-07T18:00:53.38</time>
<name>821</name>
<sym>Dot</sym>
</trkpt>
<trkpt lat="42.852137" lon="-2.243083">
<ele>1834.0</ele>
<desc>Speed 39.3 km/h Distance 9.27 km</desc>
<time>2013-07-07T18:00:54.39</time>
<name>822</name>
<sym>Dot</sym>
</trkpt>
<trkpt lat="42.852180" lon="-2.243333">
<ele>1834.0</ele>
<desc>Speed 39.3 km/h Distance 9.29 km</desc>
<time>2013-07-07T18:00:56.38</time>
<name>823</name>
<sym>Dot</sym>
</trkpt>
<trkpt lat="42.852198" lon="-2.243490">
<ele>1834.0</ele>
<desc>Speed 46.0 km/h Distance 9.30 km</desc>
<time>2013-07-07T18:00:57.38</time>
<name>824</name>
<sym>Dot</sym>
</trkpt>
<trkpt lat="42.852227" lon="-2.243663">
<ele>1834.0</ele>
<desc>Speed 52.4 km/h Distance 9.31 km</desc>
<time>2013-07-07T18:00:58.36</time>
<name>825</name>
<sym>Dot</sym>
</trkpt>
<trkpt lat="42.852263" lon="-2.243835">
<ele>1834.0</ele>
<desc>Speed 53.3 km/h Distance 9.33 km</desc>
<time>2013-07-07T18:00:59.36</time>
<name>826</name>
<sym>Dot</sym>
</trkpt>
<trkpt lat="42.852310" lon="-2.244133">
<ele>1833.0</ele>
<desc>Speed 42.9 km/h Distance 9.35 km</desc>
<time>2013-07-07T18:01:01.37</time>
<name>827</name>
<sym>Dot</sym>
</trkpt>
<trkpt lat="42.852312" lon="-2.244263">
<ele>1831.5</ele>
<desc>Speed 40.2 km/h Distance 9.36 km</desc>
<time>2013-07-07T18:01:02.36</time>
<name>828</name>
<sym>Dot</sym>
</trkpt>
<trkpt lat="42.852325" lon="-2.244403">
<ele>1831.5</ele>
<desc>Speed 40.0 km/h Distance 9.38 km</desc>
<time>2013-07-07T18:01:03.36</time>
<name>829</name>
<sym>Dot</sym>
</trkpt>
<trkpt lat="42.852353" lon="-2.244532">
<ele>1832.0</ele>
<desc>Speed 38.9 km/h Distance 9.39 km</desc>
<time>2013-07-07T18:01:04.35</time>
<name>830</name>
<sym>Dot</sym>
</trkpt>
<trkpt lat="42.852395" lon="-2.244670">
<ele>1831.5</ele>
<desc>Speed 43.9 km/h Distance 9.40 km</desc>
<time>2013-07-07T18:01:05.35</time>
<name>831</name>
<sym>Dot</sym>
</trkpt>
<trkpt lat="42.852427" lon="-2.244805">
<ele>1829.5</ele>
<desc>Speed 40.1 km/h Distance 9.41 km</desc>
<time>2013-07-07T18:01:06.34</time>
<name>832</name>
<sym>Dot</sym>
</trkpt>
<trkpt lat="42.852458" lon="-2.244933">
<ele>1828.0</ele>
<desc>Speed 39.6 km/h Distance 9.42 km</desc>
<time>2013-07-07T18:01:07.33</time>
<name>833</name>
<sym>Dot</sym>
</trkpt>
<trkpt lat="42.852487" lon="-2.245060">
<ele>1828.0</ele>
<desc>Speed 37.4 km/h Distance 9.43 km</desc>
<time>2013-07-07T18:01:08.34</time>
<name>834</name>
<sym>Dot</sym>
</trkpt>
<trkpt lat="42.852517" lon="-2.245178">
<ele>1827.0</ele>
<desc>Speed 35.9 km/h Distance 9.44 km</desc>
<time>2013-07-07T18:01:09.33</time>
<name>835</name>
<sym>Dot</sym>
</trkpt>
<trkpt lat="42.852543" lon="-2.245288">
<ele>1826.0</ele>
<desc>Speed 34.5 km/h Distance 9.45 km</desc>
<time>2013-07-07T18:01:10.31</time>
<name>836</name>
<sym>Dot</sym>
</trkpt>
<trkpt lat="42.852570" lon="-2.245402">
<ele>1825.0</ele>
<desc>Speed 34.1 km/h Distance 9.46 km</desc>
<time>2013-07-07T18:01:11.31</time>
<name>837</name>
<sym>Dot</sym>
</trkpt>
<trkpt lat="42.852593" lon="-2.245513">
<ele>1823.5</ele>
<desc>Speed 34.9 km/h Distance 9.47 km</desc>
<time>2013-07-07T18:01:12.30</time>
<name>838</name>
<sym>Dot</sym>
</trkpt>
<trkpt lat="42.852618" lon="-2.245633">
<ele>1821.5</ele>
<desc>Speed 35.9 km/h Distance 9.48 km</desc>
<time>2013-07-07T18:01:13.30</time>
<name>839</name>
<sym>Dot</sym>
</trkpt>
<trkpt lat="42.852638" lon="-2.245755">
<ele>1819.5</ele>
<desc>Speed 37.8 km/h Distance 9.49 km</desc>
<time>2013-07-07T18:01:14.30</time>
<name>840</name>
<sym>Dot</sym>
</trkpt>
<trkpt lat="42.852658" lon="-2.245880">
<ele>1817.5</ele>
<desc>Speed 37.9 km/h Distance 9.50 km</desc>
<time>2013-07-07T18:01:15.28</time>
<name>841</name>
<sym>Dot</sym>
</trkpt>
<trkpt lat="42.852685" lon="-2.246010">
<ele>1816.5</ele>
<desc>Speed 39.5 km/h Distance 9.51 km</desc>
<time>2013-07-07T18:01:16.29</time>
<name>842</name>
<sym>Dot</sym>
</trkpt>
<trkpt lat="42.852712" lon="-2.246138">
<ele>1816.0</ele>
<desc>Speed 39.1 km/h Distance 9.52 km</desc>
<time>2013-07-07T18:01:17.27</time>
<name>843</name>
<sym>Dot</sym>
</trkpt>
<trkpt lat="42.852738" lon="-2.246263">
<ele>1815.5</ele>
<desc>Speed 38.3 km/h Distance 9.53 km</desc>
<time>2013-07-07T18:01:18.27</time>
<name>844</name>
<sym>Dot</sym>
</trkpt>
<trkpt lat="42.852758" lon="-2.246383">
<ele>1815.0</ele>
<desc>Speed 36.5 km/h Distance 9.54 km</desc>
<time>2013-07-07T18:01:19.26</time>
<name>845</name>
<sym>Dot</sym>
</trkpt>
<trkpt lat="42.852777" lon="-2.246498">
<ele>1814.5</ele>
<desc>Speed 35.2 km/h Distance 9.55 km</desc>
<time>2013-07-07T18:01:20.25</time>
<name>846</name>
<sym>Dot</sym>
</trkpt>
<trkpt lat="42.852793" lon="-2.246612">
<ele>1813.0</ele>
<desc>Speed 34.5 km/h Distance 9.56 km</desc>
<time>2013-07-07T18:01:21.25</time>
<name>847</name>
<sym>Dot</sym>
</trkpt>
<trkpt lat="42.852808" lon="-2.246730">
<ele>1810.5</ele>
<desc>Speed 36.3 km/h Distance 9.57 km</desc>
<time>2013-07-07T18:01:22.25</time>
<name>848</name>
<sym>Dot</sym>
</trkpt>
<trkpt lat="42.852830" lon="-2.246853">
<ele>1808.5</ele>
<desc>Speed 37.5 km/h Distance 9.58 km</desc>
<time>2013-07-07T18:01:23.25</time>
<name>849</name>
<sym>Dot</sym>
</trkpt>
<trkpt lat="42.852853" lon="-2.246980">
<ele>1807.5</ele>
<desc>Speed 38.4 km/h Distance 9.59 km</desc>
<time>2013-07-07T18:01:24.24</time>
<name>850</name>
<sym>Dot</sym>
</trkpt>
<trkpt lat="42.852868" lon="-2.247100">
<ele>1806.0</ele>
<desc>Speed 37.5 km/h Distance 9.60 km</desc>
<time>2013-07-07T18:01:25.24</time>
<name>851</name>
<sym>Dot</sym>
</trkpt>
<trkpt lat="42.852882" lon="-2.247223">
<ele>1805.5</ele>
<desc>Speed 36.9 km/h Distance 9.61 km</desc>
<time>2013-07-07T18:01:26.23</time>
<name>852</name>
<sym>Dot</sym>
</trkpt>
<trkpt lat="42.852893" lon="-2.247337">
<ele>1804.5</ele>
<desc>Speed 34.2 km/h Distance 9.62 km</desc>
<time>2013-07-07T18:01:27.23</time>
<name>853</name>
<sym>Dot</sym>
</trkpt>
<trkpt lat="42.852902" lon="-2.247438">
<ele>1802.0</ele>
<desc>Speed 32.5 km/h Distance 9.63 km</desc>
<time>2013-07-07T18:01:28.22</time>
<name>854</name>
<sym>Dot</sym>
</trkpt>
<trkpt lat="42.852930" lon="-2.247552">
<ele>1801.5</ele>
<desc>Speed 35.2 km/h Distance 9.64 km</desc>
<time>2013-07-07T18:01:29.23</time>
<name>855</name>
<sym>Dot</sym>
</trkpt>
<trkpt lat="42.852953" lon="-2.247663">
<ele>1801.5</ele>
<desc>Speed 35.1 km/h Distance 9.65 km</desc>
<time>2013-07-07T18:01:30.22</time>
<name>856</name>
<sym>Dot</sym>
</trkpt>
<trkpt lat="42.852963" lon="-2.247777">
<ele>1800.0</ele>
<desc>Speed 37.4 km/h Distance 9.66 km</desc>
<time>2013-07-07T18:01:31.21</time>
<name>857</name>
<sym>Dot</sym>
</trkpt>
<trkpt lat="42.852978" lon="-2.247912">
<ele>1798.5</ele>
<desc>Speed 39.8 km/h Distance 9.67 km</desc>
<time>2013-07-07T18:01:32.21</time>
<name>858</name>
<sym>Dot</sym>
</trkpt>
<trkpt lat="42.852992" lon="-2.248045">
<ele>1797.5</ele>
<desc>Speed 39.8 km/h Distance 9.68 km</desc>
<time>2013-07-07T18:01:33.21</time>
<name>859</name>
<sym>Dot</sym>
</trkpt>
<trkpt lat="42.853005" lon="-2.248173">
<ele>1796.0</ele>
<desc>Speed 38.6 km/h Distance 9.69 km</desc>
<time>2013-07-07T18:01:34.20</time>
<name>860</name>
<sym>Dot</sym>
</trkpt>
<trkpt lat="42.853017" lon="-2.248293">
<ele>1794.0</ele>
<desc>Speed 36.1 km/h Distance 9.70 km</desc>
<time>2013-07-07T18:01:35.19</time>
<name>861</name>
<sym>Dot</sym>
</trkpt>
<trkpt lat="42.853035" lon="-2.248413">
<ele>1793.0</ele>
<desc>Speed 37.9 km/h Distance 9.71 km</desc>
<time>2013-07-07T18:01:36.18</time>
<name>862</name>
<sym>Dot</sym>
</trkpt>
<trkpt lat="42.853060" lon="-2.248547">
<ele>1792.5</ele>
<desc>Speed 40.6 km/h Distance 9.72 km</desc>
<time>2013-07-07T18:01:37.18</time>
<name>863</name>
<sym>Dot</sym>
</trkpt>
<trkpt lat="42.853085" lon="-2.248687">
<ele>1792.0</ele>
<desc>Speed 42.8 km/h Distance 9.74 km</desc>
<time>2013-07-07T18:01:38.18</time>
<name>864</name>
<sym>Dot</sym>
</trkpt>
<trkpt lat="42.853108" lon="-2.248823">
<ele>1790.5</ele>
<desc>Speed 41.3 km/h Distance 9.75 km</desc>
<time>2013-07-07T18:01:39.17</time>
<name>865</name>
<sym>Dot</sym>
</trkpt>
<trkpt lat="42.853127" lon="-2.248953">
<ele>1788.5</ele>
<desc>Speed 39.3 km/h Distance 9.76 km</desc>
<time>2013-07-07T18:01:40.17</time>
<name>866</name>
<sym>Dot</sym>
</trkpt>
<trkpt lat="42.853145" lon="-2.249080">
<ele>1786.0</ele>
<desc>Speed 39.7 km/h Distance 9.77 km</desc>
<time>2013-07-07T18:01:41.16</time>
<name>867</name>
<sym>Dot</sym>
</trkpt>
<trkpt lat="42.853172" lon="-2.249215">
<ele>1785.5</ele>
<desc>Speed 42.2 km/h Distance 9.78 km</desc>
<time>2013-07-07T18:01:42.16</time>
<name>868</name>
<sym>Dot</sym>
</trkpt>
<trkpt lat="42.853193" lon="-2.249348">
<ele>1783.0</ele>
<desc>Speed 40.3 km/h Distance 9.79 km</desc>
<time>2013-07-07T18:01:43.15</time>
<name>869</name>
<sym>Dot</sym>
</trkpt>
<trkpt lat="42.853207" lon="-2.249480">
<ele>1780.5</ele>
<desc>Speed 40.1 km/h Distance 9.80 km</desc>
<time>2013-07-07T18:01:44.14</time>
<name>870</name>
<sym>Dot</sym>
</trkpt>
<trkpt lat="42.853225" lon="-2.249617">
<ele>1778.5</ele>
<desc>Speed 40.9 km/h Distance 9.81 km</desc>
<time>2013-07-07T18:01:45.13</time>
<name>871</name>
<sym>Dot</sym>
</trkpt>
<trkpt lat="42.853243" lon="-2.249753">
<ele>1777.0</ele>
<desc>Speed 41.0 km/h Distance 9.83 km</desc>
<time>2013-07-07T18:01:46.13</time>
<name>872</name>
<sym>Dot</sym>
</trkpt>
<trkpt lat="42.853265" lon="-2.249887">
<ele>1775.5</ele>
<desc>Speed 41.0 km/h Distance 9.84 km</desc>
<time>2013-07-07T18:01:47.12</time>
<name>873</name>
<sym>Dot</sym>
</trkpt>
<trkpt lat="42.853288" lon="-2.250022">
<ele>1775.0</ele>
<desc>Speed 41.4 km/h Distance 9.85 km</desc>
<time>2013-07-07T18:01:48.12</time>
<name>874</name>
<sym>Dot</sym>
</trkpt>
<trkpt lat="42.853310" lon="-2.250150">
<ele>1773.5</ele>
<desc>Speed 39.6 km/h Distance 9.86 km</desc>
<time>2013-07-07T18:01:49.11</time>
<name>875</name>
<sym>Dot</sym>
</trkpt>
<trkpt lat="42.853338" lon="-2.250280">
<ele>1773.0</ele>
<desc>Speed 40.2 km/h Distance 9.87 km</desc>
<time>2013-07-07T18:01:50.11</time>
<name>876</name>
<sym>Dot</sym>
</trkpt>
<trkpt lat="42.853365" lon="-2.250402">
<ele>1772.5</ele>
<desc>Speed 37.9 km/h Distance 9.88 km</desc>
<time>2013-07-07T18:01:51.11</time>
<name>877</name>
<sym>Dot</sym>
</trkpt>
<trkpt lat="42.853388" lon="-2.250513">
<ele>1773.0</ele>
<desc>Speed 34.1 km/h Distance 9.89 km</desc>
<time>2013-07-07T18:01:52.10</time>
<name>878</name>
<sym>Dot</sym>
</trkpt>
<trkpt lat="42.853407" lon="-2.250617">
<ele>1772.5</ele>
<desc>Speed 32.1 km/h Distance 9.90 km</desc>
<time>2013-07-07T18:01:53.10</time>
<name>879</name>
<sym>Dot</sym>
</trkpt>
<trkpt lat="42.853427" lon="-2.250718">
<ele>1770.5</ele>
<desc>Speed 32.7 km/h Distance 9.91 km</desc>
<time>2013-07-07T18:01:54.08</time>
<name>880</name>
<sym>Dot</sym>
</trkpt>
<trkpt lat="42.853457" lon="-2.250823">
<ele>1768.0</ele>
<desc>Speed 34.9 km/h Distance 9.92 km</desc>
<time>2013-07-07T18:01:55.08</time>
<name>881</name>
<sym>Dot</sym>
</trkpt>
<trkpt lat="42.853500" lon="-2.250932">
<ele>1766.0</ele>
<desc>Speed 38.0 km/h Distance 9.93 km</desc>
<time>2013-07-07T18:01:56.07</time>
<name>882</name>
<sym>Dot</sym>
</trkpt>
<trkpt lat="42.853538" lon="-2.251032">
<ele>1763.5</ele>
<desc>Speed 37.2 km/h Distance 9.94 km</desc>
<time>2013-07-07T18:01:57.07</time>
<name>883</name>
<sym>Dot</sym>
</trkpt>
<trkpt lat="42.853582" lon="-2.251138">
<ele>1763.5</ele>
<desc>Speed 35.6 km/h Distance 9.95 km</desc>
<time>2013-07-07T18:01:58.14</time>
<name>884</name>
<sym>Dot</sym>
</trkpt>
<trkpt lat="42.853617" lon="-2.251248">
<ele>1763.5</ele>
<desc>Speed 35.0 km/h Distance 9.95 km</desc>
<time>2013-07-07T18:01:59.07</time>
<name>885</name>
<sym>Dot</sym>
</trkpt>
<trkpt lat="42.853650" lon="-2.251363">
<ele>1762.5</ele>
<desc>Speed 36.1 km/h Distance 9.96 km</desc>
<time>2013-07-07T18:02:00.06</time>
<name>886</name>
<sym>Dot</sym>
</trkpt>
<trkpt lat="42.853687" lon="-2.251480">
<ele>1760.5</ele>
<desc>Speed 37.9 km/h Distance 9.98 km</desc>
<time>2013-07-07T18:02:01.05</time>
<name>887</name>
<sym>Dot</sym>
</trkpt>
<trkpt lat="42.853732" lon="-2.251602">
<ele>1759.0</ele>
<desc>Speed 40.2 km/h Distance 9.99 km</desc>
<time>2013-07-07T18:02:02.04</time>
<name>888</name>
<sym>Dot</sym>
</trkpt>
<trkpt lat="42.853778" lon="-2.251730">
<ele>1758.0</ele>
<desc>Speed 41.9 km/h Distance 10.00 km</desc>
<time>2013-07-07T18:02:03.05</time>
<name>889</name>
<sym>Dot</sym>
</trkpt>
<trkpt lat="42.853820" lon="-2.251863">
<ele>1758.5</ele>
<desc>Speed 42.6 km/h Distance 10.01 km</desc>
<time>2013-07-07T18:02:04.09</time>
<name>890</name>
<sym>Dot</sym>
</trkpt>
<trkpt lat="42.853840" lon="-2.252000">
<ele>1758.0</ele>
<desc>Speed 40.8 km/h Distance 10.02 km</desc>
<time>2013-07-07T18:02:05.03</time>
<name>891</name>
<sym>Dot</sym>
</trkpt>
<trkpt lat="42.853867" lon="-2.252143">
<ele>1759.5</ele>
<desc>Speed 43.7 km/h Distance 10.03 km</desc>
<time>2013-07-07T18:02:06.02</time>
<name>892</name>
<sym>Dot</sym>
</trkpt>
<trkpt lat="42.853897" lon="-2.252287">
<ele>1761.0</ele>
<desc>Speed 43.2 km/h Distance 10.05 km</desc>
<time>2013-07-07T18:02:07.01</time>
<name>893</name>
<sym>Dot</sym>
</trkpt>
<trkpt lat="42.853943" lon="-2.252423">
<ele>1760.0</ele>
<desc>Speed 44.7 km/h Distance 10.06 km</desc>
<time>2013-07-07T18:02:08.00</time>
<name>894</name>
<sym>Dot</sym>
</trkpt>
<trkpt lat="42.853978" lon="-2.252548">
<ele>1760.5</ele>
<desc>Speed 39.2 km/h Distance 10.07 km</desc>
<time>2013-07-07T18:02:09.00</time>
<name>895</name>
<sym>Dot</sym>
</trkpt>
<trkpt lat="42.854010" lon="-2.252670">
<ele>1761.0</ele>
<desc>Speed 38.2 km/h Distance 10.08 km</desc>
<time>2013-07-07T18:02:09.99</time>
<name>896</name>
<sym>Dot</sym>
</trkpt>
<trkpt lat="42.854035" lon="-2.252797">
<ele>1761.5</ele>
<desc>Speed 38.8 km/h Distance 10.09 km</desc>
<time>2013-07-07T18:02:10.98</time>
<name>897</name>
<sym>Dot</sym>
</trkpt>
<trkpt lat="42.854050" lon="-2.252927">
<ele>1762.0</ele>
<desc>Speed 38.6 km/h Distance 10.10 km</desc>
<time>2013-07-07T18:02:11.97</time>
<name>898</name>
<sym>Dot</sym>
</trkpt>
<trkpt lat="42.854063" lon="-2.253052">
<ele>1761.5</ele>
<desc>Speed 37.4 km/h Distance 10.11 km</desc>
<time>2013-07-07T18:02:12.96</time>
<name>899</name>
<sym>Dot</sym>
</trkpt>
<trkpt lat="42.854085" lon="-2.253175">
<ele>1761.5</ele>
<desc>Speed 37.5 km/h Distance 10.12 km</desc>
<time>2013-07-07T18:02:13.97</time>
<name>900</name>
<sym>Dot</sym>
</trkpt>
<trkpt lat="42.854130" lon="-2.253303">
<ele>1761.5</ele>
<desc>Speed 42.1 km/h Distance 10.13 km</desc>
<time>2013-07-07T18:02:14.95</time>
<name>901</name>
<sym>Dot</sym>
</trkpt>
<trkpt lat="42.854165" lon="-2.253430">
<ele>1759.5</ele>
<desc>Speed 40.1 km/h Distance 10.14 km</desc>
<time>2013-07-07T18:02:15.95</time>
<name>902</name>
<sym>Dot</sym>
</trkpt>
<trkpt lat="42.854197" lon="-2.253567">
<ele>1758.5</ele>
<desc>Speed 42.1 km/h Distance 10.16 km</desc>
<time>2013-07-07T18:02:16.93</time>
<name>903</name>
<sym>Dot</sym>
</trkpt>
<trkpt lat="42.854223" lon="-2.253710">
<ele>1758.5</ele>
<desc>Speed 43.8 km/h Distance 10.17 km</desc>
<time>2013-07-07T18:02:17.93</time>
<name>904</name>
<sym>Dot</sym>
</trkpt>
<trkpt lat="42.854243" lon="-2.253853">
<ele>1758.5</ele>
<desc>Speed 42.7 km/h Distance 10.18 km</desc>
<time>2013-07-07T18:02:18.92</time>
<name>905</name>
<sym>Dot</sym>
</trkpt>
<trkpt lat="42.854265" lon="-2.253985">
<ele>1758.5</ele>
<desc>Speed 39.9 km/h Distance 10.19 km</desc>
<time>2013-07-07T18:02:19.92</time>
<name>906</name>
<sym>Dot</sym>
</trkpt>
<trkpt lat="42.854298" lon="-2.254112">
<ele>1758.0</ele>
<desc>Speed 39.3 km/h Distance 10.20 km</desc>
<time>2013-07-07T18:02:20.91</time>
<name>907</name>
<sym>Dot</sym>
</trkpt>
<trkpt lat="42.854343" lon="-2.254235">
<ele>1757.5</ele>
<desc>Speed 40.6 km/h Distance 10.21 km</desc>
<time>2013-07-07T18:02:21.91</time>
<name>908</name>
<sym>Dot</sym>
</trkpt>
<trkpt lat="42.854392" lon="-2.254362">
<ele>1757.5</ele>
<desc>Speed 41.8 km/h Distance 10.22 km</desc>
<time>2013-07-07T18:02:22.90</time>
<name>909</name>
<sym>Dot</sym>
</trkpt>
<trkpt lat="42.854440" lon="-2.254498">
<ele>1759.5</ele>
<desc>Speed 44.9 km/h Distance 10.24 km</desc>
<time>2013-07-07T18:02:23.90</time>
<name>910</name>
<sym>Dot</sym>
</trkpt>
<trkpt lat="42.854482" lon="-2.254623">
<ele>1760.5</ele>
<desc>Speed 40.7 km/h Distance 10.25 km</desc>
<time>2013-07-07T18:02:24.89</time>
<name>911</name>
<sym>Dot</sym>
</trkpt>
<trkpt lat="42.854523" lon="-2.254738">
<ele>1762.0</ele>
<desc>Speed 37.3 km/h Distance 10.26 km</desc>
<time>2013-07-07T18:02:25.89</time>
<name>912</name>
<sym>Dot</sym>
</trkpt>
<trkpt lat="42.854562" lon="-2.254835">
<ele>1762.5</ele>
<desc>Speed 32.8 km/h Distance 10.27 km</desc>
<time>2013-07-07T18:02:26.87</time>
<name>913</name>
<sym>Dot</sym>
</trkpt>
<trkpt lat="42.854603" lon="-2.254937">
<ele>1762.5</ele>
<desc>Speed 34.6 km/h Distance 10.28 km</desc>
<time>2013-07-07T18:02:27.86</time>
<name>914</name>
<sym>Dot</sym>
</trkpt>
<trkpt lat="42.854647" lon="-2.255045">
<ele>1762.0</ele>
<desc>Speed 35.9 km/h Distance 10.29 km</desc>
<time>2013-07-07T18:02:28.86</time>
<name>915</name>
<sym>Dot</sym>
</trkpt>
<trkpt lat="42.854688" lon="-2.255163">
<ele>1761.0</ele>
<desc>Speed 38.8 km/h Distance 10.30 km</desc>
<time>2013-07-07T18:02:29.85</time>
<name>916</name>
<sym>Dot</sym>
</trkpt>
<trkpt lat="42.854732" lon="-2.255290">
<ele>1761.0</ele>
<desc>Speed 41.9 km/h Distance 10.31 km</desc>
<time>2013-07-07T18:02:30.85</time>
<name>917</name>
<sym>Dot</sym>
</trkpt>
<trkpt lat="42.854778" lon="-2.255423">
<ele>1760.5</ele>
<desc>Speed 43.6 km/h Distance 10.32 km</desc>
<time>2013-07-07T18:02:31.85</time>
<name>918</name>
<sym>Dot</sym>
</trkpt>
<trkpt lat="42.854820" lon="-2.255555">
<ele>1759.5</ele>
<desc>Speed 42.5 km/h Distance 10.33 km</desc>
<time>2013-07-07T18:02:32.85</time>
<name>919</name>
<sym>Dot</sym>
</trkpt>
<trkpt lat="42.854862" lon="-2.255687">
<ele>1759.0</ele>
<desc>Speed 41.9 km/h Distance 10.34 km</desc>
<time>2013-07-07T18:02:33.84</time>
<name>920</name>
<sym>Dot</sym>
</trkpt>
<trkpt lat="42.854900" lon="-2.255817">
<ele>1758.0</ele>
<desc>Speed 41.5 km/h Distance 10.36 km</desc>
<time>2013-07-07T18:02:34.83</time>
<name>921</name>
<sym>Dot</sym>
</trkpt>
<trkpt lat="42.854935" lon="-2.255948">
<ele>1756.5</ele>
<desc>Speed 41.0 km/h Distance 10.37 km</desc>
<time>2013-07-07T18:02:35.82</time>
<name>922</name>
<sym>Dot</sym>
</trkpt>
<trkpt lat="42.854972" lon="-2.256082">
<ele>1756.0</ele>
<desc>Speed 41.9 km/h Distance 10.38 km</desc>
<time>2013-07-07T18:02:36.81</time>
<name>923</name>
<sym>Dot</sym>
</trkpt>
<trkpt lat="42.855010" lon="-2.256215">
<ele>1756.0</ele>
<desc>Speed 42.5 km/h Distance 10.39 km</desc>
<time>2013-07-07T18:02:37.82</time>
<name>924</name>
<sym>Dot</sym>
</trkpt>
<trkpt lat="42.855055" lon="-2.256358">
<ele>1755.5</ele>
<desc>Speed 45.9 km/h Distance 10.40 km</desc>
<time>2013-07-07T18:02:38.80</time>
<name>925</name>
<sym>Dot</sym>
</trkpt>
<trkpt lat="42.855097" lon="-2.256508">
<ele>1753.5</ele>
<desc>Speed 47.1 km/h Distance 10.42 km</desc>
<time>2013-07-07T18:02:39.80</time>
<name>926</name>
<sym>Dot</sym>
</trkpt>
<trkpt lat="42.855133" lon="-2.256653">
<ele>1752.0</ele>
<desc>Speed 45.3 km/h Distance 10.43 km</desc>
<time>2013-07-07T18:02:40.80</time>
<name>927</name>
<sym>Dot</sym>
</trkpt>
<trkpt lat="42.855170" lon="-2.256797">
<ele>1751.5</ele>
<desc>Speed 43.8 km/h Distance 10.44 km</desc>
<time>2013-07-07T18:02:41.79</time>
<name>928</name>
<sym>Dot</sym>
</trkpt>
<trkpt lat="42.855205" lon="-2.256928">
<ele>1752.0</ele>
<desc>Speed 40.8 km/h Distance 10.45 km</desc>
<time>2013-07-07T18:02:42.78</time>
<name>929</name>
<sym>Dot</sym>
</trkpt>
<trkpt lat="42.855242" lon="-2.257052">
<ele>1752.0</ele>
<desc>Speed 38.9 km/h Distance 10.46 km</desc>
<time>2013-07-07T18:02:43.78</time>
<name>930</name>
<sym>Dot</sym>
</trkpt>
<trkpt lat="42.855280" lon="-2.257177">
<ele>1751.0</ele>
<desc>Speed 39.2 km/h Distance 10.48 km</desc>
<time>2013-07-07T18:02:44.78</time>
<name>931</name>
<sym>Dot</sym>
</trkpt>
<trkpt lat="42.855313" lon="-2.257307">
<ele>1750.0</ele>
<desc>Speed 40.7 km/h Distance 10.49 km</desc>
<time>2013-07-07T18:02:45.77</time>
<name>932</name>
<sym>Dot</sym>
</trkpt>
<trkpt lat="42.855340" lon="-2.257447">
<ele>1749.5</ele>
<desc>Speed 42.3 km/h Distance 10.50 km</desc>
<time>2013-07-07T18:02:46.77</time>
<name>933</name>
<sym>Dot</sym>
</trkpt>
<trkpt lat="42.855362" lon="-2.257588">
<ele>1750.0</ele>
<desc>Speed 42.8 km/h Distance 10.51 km</desc>
<time>2013-07-07T18:02:47.75</time>
<name>934</name>
<sym>Dot</sym>
</trkpt>
<trkpt lat="42.855380" lon="-2.257727">
<ele>1751.0</ele>
<desc>Speed 41.5 km/h Distance 10.52 km</desc>
<time>2013-07-07T18:02:48.75</time>
<name>935</name>
<sym>Dot</sym>
</trkpt>
<trkpt lat="42.855383" lon="-2.257943">
<ele>1751.5</ele>
<desc>Speed 32.2 km/h Distance 10.54 km</desc>
<time>2013-07-07T18:02:50.76</time>
<name>936</name>
<sym>Dot</sym>
</trkpt>
<trkpt lat="42.855382" lon="-2.258055">
<ele>1751.0</ele>
<desc>Speed 32.9 km/h Distance 10.55 km</desc>
<time>2013-07-07T18:02:51.74</time>
<name>937</name>
<sym>Dot</sym>
</trkpt>
<trkpt lat="42.855400" lon="-2.258368">
<ele>1748.5</ele>
<desc>Speed 44.0 km/h Distance 10.57 km</desc>
<time>2013-07-07T18:02:53.73</time>
<name>938</name>
<sym>Dot</sym>
</trkpt>
<trkpt lat="42.855400" lon="-2.258512">
<ele>1747.5</ele>
<desc>Speed 42.0 km/h Distance 10.59 km</desc>
<time>2013-07-07T18:02:54.73</time>
<name>939</name>
<sym>Dot</sym>
</trkpt>
<trkpt lat="42.855395" lon="-2.258645">
<ele>1747.0</ele>
<desc>Speed 39.8 km/h Distance 10.60 km</desc>
<time>2013-07-07T18:02:55.72</time>
<name>940</name>
<sym>Dot</sym>
</trkpt>
<trkpt lat="42.855402" lon="-2.258787">
<ele>1747.5</ele>
<desc>Speed 42.3 km/h Distance 10.61 km</desc>
<time>2013-07-07T18:02:56.71</time>
<name>941</name>
<sym>Dot</sym>
</trkpt>
<trkpt lat="42.855410" lon="-2.258922">
<ele>1747.5</ele>
<desc>Speed 39.7 km/h Distance 10.62 km</desc>
<time>2013-07-07T18:02:57.70</time>
<name>942</name>
<sym>Dot</sym>
</trkpt>
<trkpt lat="42.855440" lon="-2.259067">
<ele>1747.5</ele>
<desc>Speed 45.9 km/h Distance 10.63 km</desc>
<time>2013-07-07T18:02:58.69</time>
<name>943</name>
<sym>Dot</sym>
</trkpt>
<trkpt lat="42.855452" lon="-2.259210">
<ele>1746.5</ele>
<desc>Speed 44.9 km/h Distance 10.64 km</desc>
<time>2013-07-07T18:02:59.69</time>
<name>944</name>
<sym>Dot</sym>
</trkpt>
<trkpt lat="42.855457" lon="-2.259538">
<ele>1742.0</ele>
<desc>Speed 49.4 km/h Distance 10.67 km</desc>
<time>2013-07-07T18:03:01.68</time>
<name>945</name>
<sym>Dot</sym>
</trkpt>
<trkpt lat="42.855460" lon="-2.259703">
<ele>1740.0</ele>
<desc>Speed 48.3 km/h Distance 10.68 km</desc>
<time>2013-07-07T18:03:02.67</time>
<name>946</name>
<sym>Dot</sym>
</trkpt>
<trkpt lat="42.855470" lon="-2.259852">
<ele>1740.5</ele>
<desc>Speed 42.9 km/h Distance 10.70 km</desc>
<time>2013-07-07T18:03:03.67</time>
<name>947</name>
<sym>Dot</sym>
</trkpt>
<trkpt lat="42.855475" lon="-2.259997">
<ele>1740.5</ele>
<desc>Speed 42.3 km/h Distance 10.71 km</desc>
<time>2013-07-07T18:03:04.66</time>
<name>948</name>
<sym>Dot</sym>
</trkpt>
<trkpt lat="42.855472" lon="-2.260128">
<ele>1739.5</ele>
<desc>Speed 40.1 km/h Distance 10.72 km</desc>
<time>2013-07-07T18:03:05.66</time>
<name>949</name>
<sym>Dot</sym>
</trkpt>
<trkpt lat="42.855465" lon="-2.260257">
<ele>1736.5</ele>
<desc>Speed 40.1 km/h Distance 10.73 km</desc>
<time>2013-07-07T18:03:06.66</time>
<name>950</name>
<sym>Dot</sym>
</trkpt>
<trkpt lat="42.855477" lon="-2.260567">
<ele>1733.5</ele>
<desc>Speed 47.0 km/h Distance 10.75 km</desc>
<time>2013-07-07T18:03:08.65</time>
<name>951</name>
<sym>Dot</sym>
</trkpt>
<trkpt lat="42.855482" lon="-2.260732">
<ele>1733.0</ele>
<desc>Speed 48.8 km/h Distance 10.77 km</desc>
<time>2013-07-07T18:03:09.65</time>
<name>952</name>
<sym>Dot</sym>
</trkpt>
<trkpt lat="42.855480" lon="-2.260902">
<ele>1731.5</ele>
<desc>Speed 50.0 km/h Distance 10.78 km</desc>
<time>2013-07-07T18:03:10.64</time>
<name>953</name>
<sym>Dot</sym>
</trkpt>
<trkpt lat="42.855475" lon="-2.261073">
<ele>1730.0</ele>
<desc>Speed 50.9 km/h Distance 10.80 km</desc>
<time>2013-07-07T18:03:11.64</time>
<name>954</name>
<sym>Dot</sym>
</trkpt>
<trkpt lat="42.855467" lon="-2.261243">
<ele>1728.5</ele>
<desc>Speed 50.3 km/h Distance 10.81 km</desc>
<time>2013-07-07T18:03:12.63</time>
<name>955</name>
<sym>Dot</sym>
</trkpt>
<trkpt lat="42.855462" lon="-2.261405">
<ele>1727.5</ele>
<desc>Speed 48.2 km/h Distance 10.82 km</desc>
<time>2013-07-07T18:03:13.64</time>
<name>956</name>
<sym>Dot</sym>
</trkpt>
<trkpt lat="42.855463" lon="-2.261563">
<ele>1726.5</ele>
<desc>Speed 47.0 km/h Distance 10.84 km</desc>
<time>2013-07-07T18:03:14.62</time>
<name>957</name>
<sym>Dot</sym>
</trkpt>
<trkpt lat="42.855467" lon="-2.261722">
<ele>1725.5</ele>
<desc>Speed 46.4 km/h Distance 10.85 km</desc>
<time>2013-07-07T18:03:15.62</time>
<name>958</name>
<sym>Dot</sym>
</trkpt>
<trkpt lat="42.855465" lon="-2.261875">
<ele>1724.5</ele>
<desc>Speed 46.0 km/h Distance 10.86 km</desc>
<time>2013-07-07T18:03:16.61</time>
<name>959</name>
<sym>Dot</sym>
</trkpt>
<trkpt lat="42.855463" lon="-2.262025">
<ele>1723.5</ele>
<desc>Speed 44.4 km/h Distance 10.87 km</desc>
<time>2013-07-07T18:03:17.60</time>
<name>960</name>
<sym>Dot</sym>
</trkpt>
<trkpt lat="42.855465" lon="-2.262173">
<ele>1722.0</ele>
<desc>Speed 43.7 km/h Distance 10.89 km</desc>
<time>2013-07-07T18:03:18.59</time>
<name>961</name>
<sym>Dot</sym>
</trkpt>
<trkpt lat="42.855460" lon="-2.262318">
<ele>1721.0</ele>
<desc>Speed 42.4 km/h Distance 10.90 km</desc>
<time>2013-07-07T18:03:19.58</time>
<name>962</name>
<sym>Dot</sym>
</trkpt>
<trkpt lat="42.855462" lon="-2.262478">
<ele>1719.5</ele>
<desc>Speed 47.2 km/h Distance 10.91 km</desc>
<time>2013-07-07T18:03:20.57</time>
<name>963</name>
<sym>Dot</sym>
</trkpt>
<trkpt lat="42.855460" lon="-2.262640">
<ele>1718.5</ele>
<desc>Speed 47.7 km/h Distance 10.92 km</desc>
<time>2013-07-07T18:03:21.57</time>
<name>964</name>
<sym>Dot</sym>
</trkpt>
<trkpt lat="42.855460" lon="-2.262800">
<ele>1717.5</ele>
<desc>Speed 47.4 km/h Distance 10.94 km</desc>
<time>2013-07-07T18:03:22.56</time>
<name>965</name>
<sym>Dot</sym>
</trkpt>
<trkpt lat="42.855472" lon="-2.262955">
<ele>1717.5</ele>
<desc>Speed 46.1 km/h Distance 10.95 km</desc>
<time>2013-07-07T18:03:23.56</time>
<name>966</name>
<sym>Dot</sym>
</trkpt>
<trkpt lat="42.855485" lon="-2.263100">
<ele>1716.0</ele>
<desc>Speed 43.1 km/h Distance 10.96 km</desc>
<time>2013-07-07T18:03:24.56</time>
<name>967</name>
<sym>Dot</sym>
</trkpt>
<trkpt lat="42.855495" lon="-2.263238">
<ele>1714.5</ele>
<desc>Speed 41.8 km/h Distance 10.97 km</desc>
<time>2013-07-07T18:03:25.55</time>
<name>968</name>
<sym>Dot</sym>
</trkpt>
<trkpt lat="42.855502" lon="-2.263380">
<ele>1713.0</ele>
<desc>Speed 42.8 km/h Distance 10.98 km</desc>
<time>2013-07-07T18:03:26.54</time>
<name>969</name>
<sym>Dot</sym>
</trkpt>
<trkpt lat="42.855505" lon="-2.263530">
<ele>1711.0</ele>
<desc>Speed 45.3 km/h Distance 11.00 km</desc>
<time>2013-07-07T18:03:27.54</time>
<name>970</name>
<sym>Dot</sym>
</trkpt>
<trkpt lat="42.855505" lon="-2.263680">
<ele>1711.0</ele>
<desc>Speed 44.5 km/h Distance 11.01 km</desc>
<time>2013-07-07T18:03:28.53</time>
<name>971</name>
<sym>Dot</sym>
</trkpt>
<trkpt lat="42.855507" lon="-2.263837">
<ele>1710.0</ele>
<desc>Speed 46.4 km/h Distance 11.02 km</desc>
<time>2013-07-07T18:03:29.53</time>
<name>972</name>
<sym>Dot</sym>
</trkpt>
<trkpt lat="42.855508" lon="-2.263995">
<ele>1708.5</ele>
<desc>Speed 47.3 km/h Distance 11.03 km</desc>
<time>2013-07-07T18:03:30.52</time>
<name>973</name>
<sym>Dot</sym>
</trkpt>
<trkpt lat="42.855503" lon="-2.264147">
<ele>1708.5</ele>
<desc>Speed 45.1 km/h Distance 11.05 km</desc>
<time>2013-07-07T18:03:31.52</time>
<name>974</name>
<sym>Dot</sym>
</trkpt>
<trkpt lat="42.855495" lon="-2.264293">
<ele>1708.5</ele>
<desc>Speed 43.1 km/h Distance 11.06 km</desc>
<time>2013-07-07T18:03:32.51</time>
<name>975</name>
<sym>Dot</sym>
</trkpt>
<trkpt lat="42.855480" lon="-2.264433">
<ele>1708.5</ele>
<desc>Speed 42.1 km/h Distance 11.07 km</desc>
<time>2013-07-07T18:03:33.50</time>
<name>976</name>
<sym>Dot</sym>
</trkpt>
<trkpt lat="42.855468" lon="-2.264578">
<ele>1707.5</ele>
<desc>Speed 43.4 km/h Distance 11.08 km</desc>
<time>2013-07-07T18:03:34.49</time>
<name>977</name>
<sym>Dot</sym>
</trkpt>
<trkpt lat="42.855455" lon="-2.264727">
<ele>1707.0</ele>
<desc>Speed 44.2 km/h Distance 11.09 km</desc>
<time>2013-07-07T18:03:35.49</time>
<name>978</name>
<sym>Dot</sym>
</trkpt>
<trkpt lat="42.855440" lon="-2.264877">
<ele>1706.5</ele>
<desc>Speed 45.0 km/h Distance 11.11 km</desc>
<time>2013-07-07T18:03:36.48</time>
<name>979</name>
<sym>Dot</sym>
</trkpt>
<trkpt lat="42.855420" lon="-2.265028">
<ele>1706.0</ele>
<desc>Speed 45.6 km/h Distance 11.12 km</desc>
<time>2013-07-07T18:03:37.48</time>
<name>980</name>
<sym>Dot</sym>
</trkpt>
<trkpt lat="42.855393" lon="-2.265178">
<ele>1706.5</ele>
<desc>Speed 46.0 km/h Distance 11.13 km</desc>
<time>2013-07-07T18:03:38.47</time>
<name>981</name>
<sym>Dot</sym>
</trkpt>
<trkpt lat="42.855367" lon="-2.265328">
<ele>1706.5</ele>
<desc>Speed 45.9 km/h Distance 11.14 km</desc>
<time>2013-07-07T18:03:39.47</time>
<name>982</name>
<sym>Dot</sym>
</trkpt>
<trkpt lat="42.855337" lon="-2.265480">
<ele>1706.0</ele>
<desc>Speed 46.4 km/h Distance 11.16 km</desc>
<time>2013-07-07T18:03:40.46</time>
<name>983</name>
<sym>Dot</sym>
</trkpt>
<trkpt lat="42.855307" lon="-2.265628">
<ele>1706.0</ele>
<desc>Speed 45.5 km/h Distance 11.17 km</desc>
<time>2013-07-07T18:03:41.46</time>
<name>984</name>
<sym>Dot</sym>
</trkpt>
<trkpt lat="42.855270" lon="-2.265780">
<ele>1706.0</ele>
<desc>Speed 47.2 km/h Distance 11.18 km</desc>
<time>2013-07-07T18:03:42.45</time>
<name>985</name>
<sym>Dot</sym>
</trkpt>
<trkpt lat="42.855230" lon="-2.265933">
<ele>1706.0</ele>
<desc>Speed 48.2 km/h Distance 11.20 km</desc>
<time>2013-07-07T18:03:43.46</time>
<name>986</name>
<sym>Dot</sym>
</trkpt>
<trkpt lat="42.855183" lon="-2.266095">
<ele>1704.5</ele>
<desc>Speed 51.5 km/h Distance 11.21 km</desc>
<time>2013-07-07T18:03:44.45</time>
<name>987</name>
<sym>Dot</sym>
</trkpt>
<trkpt lat="42.855133" lon="-2.266257">
<ele>1703.5</ele>
<desc>Speed 51.5 km/h Distance 11.22 km</desc>
<time>2013-07-07T18:03:45.45</time>
<name>988</name>
<sym>Dot</sym>
</trkpt>
<trkpt lat="42.855078" lon="-2.266425">
<ele>1703.0</ele>
<desc>Speed 53.4 km/h Distance 11.24 km</desc>
<time>2013-07-07T18:03:46.45</time>
<name>989</name>
<sym>Dot</sym>
</trkpt>
<trkpt lat="42.855025" lon="-2.266593">
<ele>1702.5</ele>
<desc>Speed 53.0 km/h Distance 11.25 km</desc>
<time>2013-07-07T18:03:47.43</time>
<name>990</name>
<sym>Dot</sym>
</trkpt>
<trkpt lat="42.854980" lon="-2.266762">
<ele>1703.0</ele>
<desc>Speed 51.8 km/h Distance 11.27 km</desc>
<time>2013-07-07T18:03:48.42</time>
<name>991</name>
<sym>Dot</sym>
</trkpt>
<trkpt lat="42.854948" lon="-2.266925">
<ele>1703.0</ele>
<desc>Speed 50.0 km/h Distance 11.28 km</desc>
<time>2013-07-07T18:03:49.42</time>
<name>992</name>
<sym>Dot</sym>
</trkpt>
<trkpt lat="42.854942" lon="-2.267075">
<ele>1701.0</ele>
<desc>Speed 44.0 km/h Distance 11.30 km</desc>
<time>2013-07-07T18:03:50.42</time>
<name>993</name>
<sym>Dot</sym>
</trkpt>
<trkpt lat="42.854913" lon="-2.267232">
<ele>1699.0</ele>
<desc>Speed 46.7 km/h Distance 11.31 km</desc>
<time>2013-07-07T18:03:51.41</time>
<name>994</name>
<sym>Dot</sym>
</trkpt>
<trkpt lat="42.854883" lon="-2.267385">
<ele>1698.0</ele>
<desc>Speed 46.2 km/h Distance 11.32 km</desc>
<time>2013-07-07T18:03:52.41</time>
<name>995</name>
<sym>Dot</sym>
</trkpt>
<trkpt lat="42.854858" lon="-2.267543">
<ele>1696.5</ele>
<desc>Speed 47.2 km/h Distance 11.33 km</desc>
<time>2013-07-07T18:03:53.40</time>
<name>996</name>
<sym>Dot</sym>
</trkpt>
<trkpt lat="42.854830" lon="-2.267705">
<ele>1695.0</ele>
<desc>Speed 49.7 km/h Distance 11.35 km</desc>
<time>2013-07-07T18:03:54.39</time>
<name>997</name>
<sym>Dot</sym>
</trkpt>
<trkpt lat="42.854798" lon="-2.267877">
<ele>1694.0</ele>
<desc>Speed 52.6 km/h Distance 11.36 km</desc>
<time>2013-07-07T18:03:55.38</time>
<name>998</name>
<sym>Dot</sym>
</trkpt>
<trkpt lat="42.854765" lon="-2.268048">
<ele>1694.0</ele>
<desc>Speed 51.9 km/h Distance 11.38 km</desc>
<time>2013-07-07T18:03:56.37</time>
<name>999</name>
<sym>Dot</sym>
</trkpt>
<trkpt lat="42.854747" lon="-2.268213">
<ele>1694.5</ele>
<desc>Speed 49.2 km/h Distance 11.39 km</desc>
<time>2013-07-07T18:03:57.37</time>
<name>1000</name>
<sym>Dot</sym>
</trkpt>
<trkpt lat="42.854733" lon="-2.268360">
<ele>1695.0</ele>
<desc>Speed 43.7 km/h Distance 11.40 km</desc>
<time>2013-07-07T18:03:58.36</time>
<name>1001</name>
<sym>Dot</sym>
</trkpt>
<trkpt lat="42.854680" lon="-2.268605">
<ele>1695.0</ele>
<desc>Speed 39.2 km/h Distance 11.42 km</desc>
<time>2013-07-07T18:04:00.35</time>
<name>1002</name>
<sym>Dot</sym>
</trkpt>
<trkpt lat="42.854650" lon="-2.268737">
<ele>1693.5</ele>
<desc>Speed 40.7 km/h Distance 11.43 km</desc>
<time>2013-07-07T18:04:01.35</time>
<name>1003</name>
<sym>Dot</sym>
</trkpt>
<trkpt lat="42.854615" lon="-2.268877">
<ele>1692.5</ele>
<desc>Speed 44.0 km/h Distance 11.45 km</desc>
<time>2013-07-07T18:04:02.34</time>
<name>1004</name>
<sym>Dot</sym>
</trkpt>
<trkpt lat="42.854570" lon="-2.269028">
<ele>1691.5</ele>
<desc>Speed 48.8 km/h Distance 11.46 km</desc>
<time>2013-07-07T18:04:03.35</time>
<name>1005</name>
<sym>Dot</sym>
</trkpt>
<trkpt lat="42.854515" lon="-2.269193">
<ele>1691.0</ele>
<desc>Speed 53.5 km/h Distance 11.47 km</desc>
<time>2013-07-07T18:04:04.35</time>
<name>1006</name>
<sym>Dot</sym>
</trkpt>
<trkpt lat="42.854462" lon="-2.269352">
<ele>1690.5</ele>
<desc>Speed 51.8 km/h Distance 11.49 km</desc>
<time>2013-07-07T18:04:05.34</time>
<name>1007</name>
<sym>Dot</sym>
</trkpt>
<trkpt lat="42.854410" lon="-2.269510">
<ele>1690.5</ele>
<desc>Speed 50.6 km/h Distance 11.50 km</desc>
<time>2013-07-07T18:04:06.33</time>
<name>1008</name>
<sym>Dot</sym>
</trkpt>
<trkpt lat="42.854363" lon="-2.269672">
<ele>1690.0</ele>
<desc>Speed 50.5 km/h Distance 11.52 km</desc>
<time>2013-07-07T18:04:07.33</time>
<name>1009</name>
<sym>Dot</sym>
</trkpt>
<trkpt lat="42.854315" lon="-2.269833">
<ele>1689.5</ele>
<desc>Speed 50.5 km/h Distance 11.53 km</desc>
<time>2013-07-07T18:04:08.32</time>
<name>1010</name>
<sym>Dot</sym>
</trkpt>
<trkpt lat="42.854265" lon="-2.269978">
<ele>1689.5</ele>
<desc>Speed 46.9 km/h Distance 11.54 km</desc>
<time>2013-07-07T18:04:09.31</time>
<name>1011</name>
<sym>Dot</sym>
</trkpt>
<trkpt lat="42.854210" lon="-2.270120">
<ele>1689.5</ele>
<desc>Speed 47.0 km/h Distance 11.56 km</desc>
<time>2013-07-07T18:04:10.30</time>
<name>1012</name>
<sym>Dot</sym>
</trkpt>
<trkpt lat="42.854158" lon="-2.270262">
<ele>1689.0</ele>
<desc>Speed 46.3 km/h Distance 11.57 km</desc>
<time>2013-07-07T18:04:11.29</time>
<name>1013</name>
<sym>Dot</sym>
</trkpt>
<trkpt lat="42.854108" lon="-2.270402">
<ele>1687.5</ele>
<desc>Speed 45.8 km/h Distance 11.58 km</desc>
<time>2013-07-07T18:04:12.29</time>
<name>1014</name>
<sym>Dot</sym>
</trkpt>
<trkpt lat="42.854045" lon="-2.270545">
<ele>1687.5</ele>
<desc>Speed 48.7 km/h Distance 11.60 km</desc>
<time>2013-07-07T18:04:13.28</time>
<name>1015</name>
<sym>Dot</sym>
</trkpt>
<trkpt lat="42.853977" lon="-2.270707">
<ele>1687.0</ele>
<desc>Speed 55.2 km/h Distance 11.61 km</desc>
<time>2013-07-07T18:04:14.29</time>
<name>1016</name>
<sym>Dot</sym>
</trkpt>
<trkpt lat="42.853915" lon="-2.270857">
<ele>1685.0</ele>
<desc>Speed 51.2 km/h Distance 11.63 km</desc>
<time>2013-07-07T18:04:15.27</time>
<name>1017</name>
<sym>Dot</sym>
</trkpt>
<trkpt lat="42.853847" lon="-2.271015">
<ele>1683.0</ele>
<desc>Speed 54.0 km/h Distance 11.64 km</desc>
<time>2013-07-07T18:04:16.26</time>
<name>1018</name>
<sym>Dot</sym>
</trkpt>
<trkpt lat="42.853780" lon="-2.271175">
<ele>1681.5</ele>
<desc>Speed 55.0 km/h Distance 11.66 km</desc>
<time>2013-07-07T18:04:17.26</time>
<name>1019</name>
<sym>Dot</sym>
</trkpt>
<trkpt lat="42.853708" lon="-2.271337">
<ele>1681.0</ele>
<desc>Speed 55.8 km/h Distance 11.67 km</desc>
<time>2013-07-07T18:04:18.25</time>
<name>1020</name>
<sym>Dot</sym>
</trkpt>
<trkpt lat="42.853642" lon="-2.271492">
<ele>1680.0</ele>
<desc>Speed 52.9 km/h Distance 11.69 km</desc>
<time>2013-07-07T18:04:19.25</time>
<name>1021</name>
<sym>Dot</sym>
</trkpt>
<trkpt lat="42.853578" lon="-2.271643">
<ele>1678.5</ele>
<desc>Speed 53.2 km/h Distance 11.70 km</desc>
<time>2013-07-07T18:04:20.25</time>
<name>1022</name>
<sym>Dot</sym>
</trkpt>
<trkpt lat="42.853512" lon="-2.271798">
<ele>1677.0</ele>
<desc>Speed 52.7 km/h Distance 11.72 km</desc>
<time>2013-07-07T18:04:21.25</time>
<name>1023</name>
<sym>Dot</sym>
</trkpt>
<trkpt lat="42.853445" lon="-2.271955">
<ele>1675.5</ele>
<desc>Speed 54.3 km/h Distance 11.73 km</desc>
<time>2013-07-07T18:04:22.23</time>
<name>1024</name>
<sym>Dot</sym>
</trkpt>
<trkpt lat="42.853378" lon="-2.272117">
<ele>1674.0</ele>
<desc>Speed 55.2 km/h Distance 11.75 km</desc>
<time>2013-07-07T18:04:23.23</time>
<name>1025</name>
<sym>Dot</sym>
</trkpt>
<trkpt lat="42.853308" lon="-2.272282">
<ele>1672.5</ele>
<desc>Speed 56.1 km/h Distance 11.76 km</desc>
<time>2013-07-07T18:04:24.22</time>
<name>1026</name>
<sym>Dot</sym>
</trkpt>
<trkpt lat="42.853238" lon="-2.272452">
<ele>1671.0</ele>
<desc>Speed 57.5 km/h Distance 11.78 km</desc>
<time>2013-07-07T18:04:25.22</time>
<name>1027</name>
<sym>Dot</sym>
</trkpt>
<trkpt lat="42.853175" lon="-2.272615">
<ele>1671.0</ele>
<desc>Speed 56.6 km/h Distance 11.79 km</desc>
<time>2013-07-07T18:04:26.21</time>
<name>1028</name>
<sym>Dot</sym>
</trkpt>
<trkpt lat="42.853058" lon="-2.272887">
<ele>1670.5</ele>
<desc>Speed 45.5 km/h Distance 11.82 km</desc>
<time>2013-07-07T18:04:28.20</time>
<name>1029</name>
<sym>Dot</sym>
</trkpt>
<trkpt lat="42.853003" lon="-2.273008">
<ele>1670.0</ele>
<desc>Speed 45.6 km/h Distance 11.83 km</desc>
<time>2013-07-07T18:04:29.19</time>
<name>1030</name>
<sym>Dot</sym>
</trkpt>
<trkpt lat="42.852940" lon="-2.273137">
<ele>1669.5</ele>
<desc>Speed 45.3 km/h Distance 11.84 km</desc>
<time>2013-07-07T18:04:30.18</time>
<name>1031</name>
<sym>Dot</sym>
</trkpt>
<trkpt lat="42.852872" lon="-2.273273">
<ele>1668.0</ele>
<desc>Speed 48.5 km/h Distance 11.86 km</desc>
<time>2013-07-07T18:04:31.18</time>
<name>1032</name>
<sym>Dot</sym>
</trkpt>
<trkpt lat="42.852798" lon="-2.273413">
<ele>1667.5</ele>
<desc>Speed 50.1 km/h Distance 11.87 km</desc>
<time>2013-07-07T18:04:32.17</time>
<name>1033</name>
<sym>Dot</sym>
</trkpt>
<trkpt lat="42.852723" lon="-2.273557">
<ele>1666.5</ele>
<desc>Speed 51.5 km/h Distance 11.88 km</desc>
<time>2013-07-07T18:04:33.17</time>
<name>1034</name>
<sym>Dot</sym>
</trkpt>
<trkpt lat="42.852652" lon="-2.273703">
<ele>1665.0</ele>
<desc>Speed 51.2 km/h Distance 11.90 km</desc>
<time>2013-07-07T18:04:34.17</time>
<name>1035</name>
<sym>Dot</sym>
</trkpt>
<trkpt lat="42.852583" lon="-2.273847">
<ele>1663.5</ele>
<desc>Speed 50.9 km/h Distance 11.91 km</desc>
<time>2013-07-07T18:04:35.16</time>
<name>1036</name>
<sym>Dot</sym>
</trkpt>
<trkpt lat="42.852462" lon="-2.274110">
<ele>1664.0</ele>
<desc>Speed 48.6 km/h Distance 11.94 km</desc>
<time>2013-07-07T18:04:37.15</time>
<name>1037</name>
<sym>Dot</sym>
</trkpt>
<trkpt lat="42.852388" lon="-2.274255">
<ele>1663.5</ele>
<desc>Speed 52.6 km/h Distance 11.95 km</desc>
<time>2013-07-07T18:04:38.15</time>
<name>1038</name>
<sym>Dot</sym>
</trkpt>
<trkpt lat="42.852312" lon="-2.274412">
<ele>1663.5</ele>
<desc>Speed 56.6 km/h Distance 11.97 km</desc>
<time>2013-07-07T18:04:39.14</time>
<name>1039</name>
<sym>Dot</sym>
</trkpt>
<trkpt lat="42.852237" lon="-2.274577">
<ele>1662.0</ele>
<desc>Speed 57.0 km/h Distance 11.98 km</desc>
<time>2013-07-07T18:04:40.12</time>
<name>1040</name>
<sym>Dot</sym>
</trkpt>
<trkpt lat="42.852137" lon="-2.274868">
<ele>1663.5</ele>
<desc>Speed 47.9 km/h Distance 12.01 km</desc>
<time>2013-07-07T18:04:42.11</time>
<name>1041</name>
<sym>Dot</sym>
</trkpt>
<trkpt lat="42.852083" lon="-2.275005">
<ele>1662.0</ele>
<desc>Speed 45.5 km/h Distance 12.02 km</desc>
<time>2013-07-07T18:04:43.11</time>
<name>1042</name>
<sym>Dot</sym>
</trkpt>
<trkpt lat="42.851988" lon="-2.275247">
<ele>1661.5</ele>
<desc>Speed 45.9 km/h Distance 12.04 km</desc>
<time>2013-07-07T18:04:45.11</time>
<name>1043</name>
<sym>Dot</sym>
</trkpt>
<trkpt lat="42.851933" lon="-2.275408">
<ele>1661.0</ele>
<desc>Speed 52.8 km/h Distance 12.06 km</desc>
<time>2013-07-07T18:04:46.10</time>
<name>1044</name>
<sym>Dot</sym>
</trkpt>
<trkpt lat="42.851892" lon="-2.275575">
<ele>1660.5</ele>
<desc>Speed 52.4 km/h Distance 12.07 km</desc>
<time>2013-07-07T18:04:47.09</time>
<name>1045</name>
<sym>Dot</sym>
</trkpt>
<trkpt lat="42.851743" lon="-2.275953">
<ele>1660.0</ele>
<desc>Speed 62.6 km/h Distance 12.11 km</desc>
<time>2013-07-07T18:04:49.08</time>
<name>1046</name>
<sym>Dot</sym>
</trkpt>
<trkpt lat="42.851670" lon="-2.276132">
<ele>1659.0</ele>
<desc>Speed 59.0 km/h Distance 12.13 km</desc>
<time>2013-07-07T18:04:50.07</time>
<name>1047</name>
<sym>Dot</sym>
</trkpt>
<trkpt lat="42.851605" lon="-2.276295">
<ele>1657.5</ele>
<desc>Speed 53.6 km/h Distance 12.14 km</desc>
<time>2013-07-07T18:04:51.07</time>
<name>1048</name>
<sym>Dot</sym>
</trkpt>
<trkpt lat="42.851548" lon="-2.276447">
<ele>1656.5</ele>
<desc>Speed 51.7 km/h Distance 12.15 km</desc>
<time>2013-07-07T18:04:52.05</time>
<name>1049</name>
<sym>Dot</sym>
</trkpt>
<trkpt lat="42.851482" lon="-2.276598">
<ele>1654.5</ele>
<desc>Speed 52.4 km/h Distance 12.17 km</desc>
<time>2013-07-07T18:04:53.05</time>
<name>1050</name>
<sym>Dot</sym>
</trkpt>
<trkpt lat="42.851407" lon="-2.276753">
<ele>1652.0</ele>
<desc>Speed 54.2 km/h Distance 12.18 km</desc>
<time>2013-07-07T18:04:54.04</time>
<name>1051</name>
<sym>Dot</sym>
</trkpt>
<trkpt lat="42.851327" lon="-2.276912">
<ele>1650.0</ele>
<desc>Speed 55.6 km/h Distance 12.20 km</desc>
<time>2013-07-07T18:04:55.03</time>
<name>1052</name>
<sym>Dot</sym>
</trkpt>
<trkpt lat="42.851248" lon="-2.277073">
<ele>1649.0</ele>
<desc>Speed 57.0 km/h Distance 12.22 km</desc>
<time>2013-07-07T18:04:56.02</time>
<name>1053</name>
<sym>Dot</sym>
</trkpt>
<trkpt lat="42.851165" lon="-2.277238">
<ele>1648.5</ele>
<desc>Speed 59.2 km/h Distance 12.23 km</desc>
<time>2013-07-07T18:04:57.02</time>
<name>1054</name>
<sym>Dot</sym>
</trkpt>
<trkpt lat="42.851078" lon="-2.277408">
<ele>1649.0</ele>
<desc>Speed 60.7 km/h Distance 12.25 km</desc>
<time>2013-07-07T18:04:58.01</time>
<name>1055</name>
<sym>Dot</sym>
</trkpt>
<trkpt lat="42.850993" lon="-2.277567">
<ele>1648.5</ele>
<desc>Speed 57.5 km/h Distance 12.26 km</desc>
<time>2013-07-07T18:04:59.02</time>
<name>1056</name>
<sym>Dot</sym>
</trkpt>
<trkpt lat="42.850932" lon="-2.277717">
<ele>1649.0</ele>
<desc>Speed 50.7 km/h Distance 12.28 km</desc>
<time>2013-07-07T18:05:00.00</time>
<name>1057</name>
<sym>Dot</sym>
</trkpt>
<trkpt lat="42.850863" lon="-2.277843">
<ele>1650.0</ele>
<desc>Speed 45.8 km/h Distance 12.29 km</desc>
<time>2013-07-07T18:05:00.99</time>
<name>1058</name>
<sym>Dot</sym>
</trkpt>
<trkpt lat="42.850792" lon="-2.277988">
<ele>1649.0</ele>
<desc>Speed 50.4 km/h Distance 12.31 km</desc>
<time>2013-07-07T18:05:01.98</time>
<name>1059</name>
<sym>Dot</sym>
</trkpt>
<trkpt lat="42.850718" lon="-2.278147">
<ele>1648.0</ele>
<desc>Speed 55.0 km/h Distance 12.32 km</desc>
<time>2013-07-07T18:05:02.97</time>
<name>1060</name>
<sym>Dot</sym>
</trkpt>
<trkpt lat="42.850633" lon="-2.278317">
<ele>1647.5</ele>
<desc>Speed 58.3 km/h Distance 12.34 km</desc>
<time>2013-07-07T18:05:03.97</time>
<name>1061</name>
<sym>Dot</sym>
</trkpt>
<trkpt lat="42.850560" lon="-2.278480">
<ele>1647.0</ele>
<desc>Speed 55.5 km/h Distance 12.35 km</desc>
<time>2013-07-07T18:05:04.96</time>
<name>1062</name>
<sym>Dot</sym>
</trkpt>
<trkpt lat="42.850483" lon="-2.278637">
<ele>1647.0</ele>
<desc>Speed 54.1 km/h Distance 12.37 km</desc>
<time>2013-07-07T18:05:05.95</time>
<name>1063</name>
<sym>Dot</sym>
</trkpt>
<trkpt lat="42.850415" lon="-2.278775">
<ele>1648.5</ele>
<desc>Speed 47.1 km/h Distance 12.38 km</desc>
<time>2013-07-07T18:05:06.96</time>
<name>1064</name>
<sym>Dot</sym>
</trkpt>
<trkpt lat="42.850352" lon="-2.278905">
<ele>1649.5</ele>
<desc>Speed 45.9 km/h Distance 12.40 km</desc>
<time>2013-07-07T18:05:07.95</time>
<name>1065</name>
<sym>Dot</sym>
</trkpt>
<trkpt lat="42.850285" lon="-2.279040">
<ele>1649.5</ele>
<desc>Speed 46.5 km/h Distance 12.41 km</desc>
<time>2013-07-07T18:05:08.93</time>
<name>1066</name>
<sym>Dot</sym>
</trkpt>
<trkpt lat="42.850207" lon="-2.279168">
<ele>1649.5</ele>
<desc>Speed 47.8 km/h Distance 12.42 km</desc>
<time>2013-07-07T18:05:09.93</time>
<name>1067</name>
<sym>Dot</sym>
</trkpt>
<trkpt lat="42.850128" lon="-2.279312">
<ele>1649.5</ele>
<desc>Speed 52.0 km/h Distance 12.44 km</desc>
<time>2013-07-07T18:05:10.92</time>
<name>1068</name>
<sym>Dot</sym>
</trkpt>
<trkpt lat="42.850060" lon="-2.279463">
<ele>1649.5</ele>
<desc>Speed 52.7 km/h Distance 12.45 km</desc>
<time>2013-07-07T18:05:11.91</time>
<name>1069</name>
<sym>Dot</sym>
</trkpt>
<trkpt lat="42.849993" lon="-2.279615">
<ele>1649.5</ele>
<desc>Speed 51.5 km/h Distance 12.47 km</desc>
<time>2013-07-07T18:05:12.91</time>
<name>1070</name>
<sym>Dot</sym>
</trkpt>
<trkpt lat="42.849935" lon="-2.279765">
<ele>1650.0</ele>
<desc>Speed 49.7 km/h Distance 12.48 km</desc>
<time>2013-07-07T18:05:13.90</time>
<name>1071</name>
<sym>Dot</sym>
</trkpt>
<trkpt lat="42.849880" lon="-2.279905">
<ele>1651.0</ele>
<desc>Speed 46.8 km/h Distance 12.49 km</desc>
<time>2013-07-07T18:05:14.90</time>
<name>1072</name>
<sym>Dot</sym>
</trkpt>
<trkpt lat="42.849832" lon="-2.280042">
<ele>1651.0</ele>
<desc>Speed 44.7 km/h Distance 12.50 km</desc>
<time>2013-07-07T18:05:15.88</time>
<name>1073</name>
<sym>Dot</sym>
</trkpt>
<trkpt lat="42.849768" lon="-2.280182">
<ele>1651.0</ele>
<desc>Speed 48.3 km/h Distance 12.52 km</desc>
<time>2013-07-07T18:05:16.88</time>
<name>1074</name>
<sym>Dot</sym>
</trkpt>
<trkpt lat="42.849715" lon="-2.280332">
<ele>1650.0</ele>
<desc>Speed 49.0 km/h Distance 12.53 km</desc>
<time>2013-07-07T18:05:17.87</time>
<name>1075</name>
<sym>Dot</sym>
</trkpt>
<trkpt lat="42.849663" lon="-2.280490">
<ele>1649.0</ele>
<desc>Speed 51.6 km/h Distance 12.55 km</desc>
<time>2013-07-07T18:05:18.88</time>
<name>1076</name>
<sym>Dot</sym>
</trkpt>
<trkpt lat="42.849615" lon="-2.280657">
<ele>1648.5</ele>
<desc>Speed 52.6 km/h Distance 12.56 km</desc>
<time>2013-07-07T18:05:19.86</time>
<name>1077</name>
<sym>Dot</sym>
</trkpt>
<trkpt lat="42.849568" lon="-2.280823">
<ele>1648.0</ele>
<desc>Speed 52.6 km/h Distance 12.58 km</desc>
<time>2013-07-07T18:05:20.86</time>
<name>1078</name>
<sym>Dot</sym>
</trkpt>
<trkpt lat="42.849523" lon="-2.280990">
<ele>1648.0</ele>
<desc>Speed 51.8 km/h Distance 12.59 km</desc>
<time>2013-07-07T18:05:21.85</time>
<name>1079</name>
<sym>Dot</sym>
</trkpt>
<trkpt lat="42.849480" lon="-2.281152">
<ele>1648.5</ele>
<desc>Speed 50.3 km/h Distance 12.60 km</desc>
<time>2013-07-07T18:05:22.84</time>
<name>1080</name>
<sym>Dot</sym>
</trkpt>
<trkpt lat="42.849438" lon="-2.281308">
<ele>1648.0</ele>
<desc>Speed 49.1 km/h Distance 12.62 km</desc>
<time>2013-07-07T18:05:23.83</time>
<name>1081</name>
<sym>Dot</sym>
</trkpt>
<trkpt lat="42.849395" lon="-2.281463">
<ele>1647.5</ele>
<desc>Speed 48.2 km/h Distance 12.63 km</desc>
<time>2013-07-07T18:05:24.83</time>
<name>1082</name>
<sym>Dot</sym>
</trkpt>
<trkpt lat="42.849353" lon="-2.281617">
<ele>1647.0</ele>
<desc>Speed 47.8 km/h Distance 12.64 km</desc>
<time>2013-07-07T18:05:25.82</time>
<name>1083</name>
<sym>Dot</sym>
</trkpt>
<trkpt lat="42.849315" lon="-2.281770">
<ele>1646.0</ele>
<desc>Speed 47.6 km/h Distance 12.66 km</desc>
<time>2013-07-07T18:05:26.82</time>
<name>1084</name>
<sym>Dot</sym>
</trkpt>
<trkpt lat="42.849280" lon="-2.281925">
<ele>1645.0</ele>
<desc>Speed 47.4 km/h Distance 12.67 km</desc>
<time>2013-07-07T18:05:27.81</time>
<name>1085</name>
<sym>Dot</sym>
</trkpt>
<trkpt lat="42.849248" lon="-2.282080">
<ele>1643.5</ele>
<desc>Speed 47.6 km/h Distance 12.68 km</desc>
<time>2013-07-07T18:05:28.81</time>
<name>1086</name>
<sym>Dot</sym>
</trkpt>
<trkpt lat="42.849217" lon="-2.282242">
<ele>1642.5</ele>
<desc>Speed 48.7 km/h Distance 12.70 km</desc>
<time>2013-07-07T18:05:29.80</time>
<name>1087</name>
<sym>Dot</sym>
</trkpt>
<trkpt lat="42.849187" lon="-2.282407">
<ele>1642.0</ele>
<desc>Speed 49.9 km/h Distance 12.71 km</desc>
<time>2013-07-07T18:05:30.80</time>
<name>1088</name>
<sym>Dot</sym>
</trkpt>
<trkpt lat="42.849162" lon="-2.282572">
<ele>1642.0</ele>
<desc>Speed 49.1 km/h Distance 12.72 km</desc>
<time>2013-07-07T18:05:31.79</time>
<name>1089</name>
<sym>Dot</sym>
</trkpt>
<trkpt lat="42.849152" lon="-2.282737">
<ele>1642.5</ele>
<desc>Speed 48.3 km/h Distance 12.74 km</desc>
<time>2013-07-07T18:05:32.79</time>
<name>1090</name>
<sym>Dot</sym>
</trkpt>
<trkpt lat="42.849165" lon="-2.282890">
<ele>1643.5</ele>
<desc>Speed 44.9 km/h Distance 12.75 km</desc>
<time>2013-07-07T18:05:33.78</time>
<name>1091</name>
<sym>Dot</sym>
</trkpt>
<trkpt lat="42.849178" lon="-2.283037">
<ele>1643.5</ele>
<desc>Speed 43.6 km/h Distance 12.76 km</desc>
<time>2013-07-07T18:05:34.78</time>
<name>1092</name>
<sym>Dot</sym>
</trkpt>
<trkpt lat="42.849192" lon="-2.283182">
<ele>1644.0</ele>
<desc>Speed 43.0 km/h Distance 12.78 km</desc>
<time>2013-07-07T18:05:35.77</time>
<name>1093</name>
<sym>Dot</sym>
</trkpt>
<trkpt lat="42.849203" lon="-2.283335">
<ele>1644.5</ele>
<desc>Speed 44.3 km/h Distance 12.79 km</desc>
<time>2013-07-07T18:05:36.77</time>
<name>1094</name>
<sym>Dot</sym>
</trkpt>
<trkpt lat="42.849212" lon="-2.283488">
<ele>1645.0</ele>
<desc>Speed 44.6 km/h Distance 12.80 km</desc>
<time>2013-07-07T18:05:37.76</time>
<name>1095</name>
<sym>Dot</sym>
</trkpt>
<trkpt lat="42.849220" lon="-2.283637">
<ele>1645.5</ele>
<desc>Speed 43.3 km/h Distance 12.81 km</desc>
<time>2013-07-07T18:05:38.76</time>
<name>1096</name>
<sym>Dot</sym>
</trkpt>
<trkpt lat="42.849232" lon="-2.283778">
<ele>1646.0</ele>
<desc>Speed 41.8 km/h Distance 12.82 km</desc>
<time>2013-07-07T18:05:39.75</time>
<name>1097</name>
<sym>Dot</sym>
</trkpt>
<trkpt lat="42.849247" lon="-2.283918">
<ele>1645.5</ele>
<desc>Speed 41.3 km/h Distance 12.84 km</desc>
<time>2013-07-07T18:05:40.75</time>
<name>1098</name>
<sym>Dot</sym>
</trkpt>
<trkpt lat="42.849267" lon="-2.284060">
<ele>1645.5</ele>
<desc>Speed 42.0 km/h Distance 12.85 km</desc>
<time>2013-07-07T18:05:41.74</time>
<name>1099</name>
<sym>Dot</sym>
</trkpt>
<trkpt lat="42.849288" lon="-2.284212">
<ele>1645.0</ele>
<desc>Speed 45.1 km/h Distance 12.86 km</desc>
<time>2013-07-07T18:05:42.74</time>
<name>1100</name>
<sym>Dot</sym>
</trkpt>
<trkpt lat="42.849310" lon="-2.284377">
<ele>1644.5</ele>
<desc>Speed 48.5 km/h Distance 12.87 km</desc>
<time>2013-07-07T18:05:43.73</time>
<name>1101</name>
<sym>Dot</sym>
</trkpt>
<trkpt lat="42.849330" lon="-2.284542">
<ele>1645.5</ele>
<desc>Speed 48.8 km/h Distance 12.89 km</desc>
<time>2013-07-07T18:05:44.73</time>
<name>1102</name>
<sym>Dot</sym>
</trkpt>
<trkpt lat="42.849347" lon="-2.284700">
<ele>1647.0</ele>
<desc>Speed 46.7 km/h Distance 12.90 km</desc>
<time>2013-07-07T18:05:45.72</time>
<name>1103</name>
<sym>Dot</sym>
</trkpt>
<trkpt lat="42.849360" lon="-2.284852">
<ele>1649.0</ele>
<desc>Speed 44.9 km/h Distance 12.91 km</desc>
<time>2013-07-07T18:05:46.73</time>
<name>1104</name>
<sym>Dot</sym>
</trkpt>
<trkpt lat="42.849377" lon="-2.285002">
<ele>1649.5</ele>
<desc>Speed 44.6 km/h Distance 12.93 km</desc>
<time>2013-07-07T18:05:47.71</time>
<name>1105</name>
<sym>Dot</sym>
</trkpt>
<trkpt lat="42.849395" lon="-2.285153">
<ele>1650.5</ele>
<desc>Speed 45.2 km/h Distance 12.94 km</desc>
<time>2013-07-07T18:05:48.71</time>
<name>1106</name>
<sym>Dot</sym>
</trkpt>
<trkpt lat="42.849415" lon="-2.285307">
<ele>1651.0</ele>
<desc>Speed 45.9 km/h Distance 12.95 km</desc>
<time>2013-07-07T18:05:49.75</time>
<name>1107</name>
<sym>Dot</sym>
</trkpt>
<trkpt lat="42.849435" lon="-2.285463">
<ele>1651.5</ele>
<desc>Speed 46.8 km/h Distance 12.96 km</desc>
<time>2013-07-07T18:05:50.69</time>
<name>1108</name>
<sym>Dot</sym>
</trkpt>
<trkpt lat="42.849455" lon="-2.285620">
<ele>1652.5</ele>
<desc>Speed 47.3 km/h Distance 12.98 km</desc>
<time>2013-07-07T18:05:51.68</time>
<name>1109</name>
<sym>Dot</sym>
</trkpt>
<trkpt lat="42.849473" lon="-2.285777">
<ele>1654.5</ele>
<desc>Speed 46.7 km/h Distance 12.99 km</desc>
<time>2013-07-07T18:05:52.68</time>
<name>1110</name>
<sym>Dot</sym>
</trkpt>
<trkpt lat="42.849488" lon="-2.285930">
<ele>1654.0</ele>
<desc>Speed 45.4 km/h Distance 13.00 km</desc>
<time>2013-07-07T18:05:53.67</time>
<name>1111</name>
<sym>Dot</sym>
</trkpt>
<trkpt lat="42.849505" lon="-2.286073">
<ele>1654.0</ele>
<desc>Speed 42.7 km/h Distance 13.01 km</desc>
<time>2013-07-07T18:05:54.67</time>
<name>1112</name>
<sym>Dot</sym>
</trkpt>
<trkpt lat="42.849523" lon="-2.286215">
<ele>1654.0</ele>
<desc>Speed 41.9 km/h Distance 13.03 km</desc>
<time>2013-07-07T18:05:55.68</time>
<name>1113</name>
<sym>Dot</sym>
</trkpt>
<trkpt lat="42.849537" lon="-2.286355">
<ele>1655.5</ele>
<desc>Speed 41.1 km/h Distance 13.04 km</desc>
<time>2013-07-07T18:05:56.84</time>
<name>1114</name>
<sym>Dot</sym>
</trkpt>
<trkpt lat="42.849540" lon="-2.286670">
<ele>1654.5</ele>
<desc>Speed 48.0 km/h Distance 13.06 km</desc>
<time>2013-07-07T18:05:58.66</time>
<name>1115</name>
<sym>Dot</sym>
</trkpt>
<trkpt lat="42.849542" lon="-2.286843">
<ele>1655.5</ele>
<desc>Speed 50.7 km/h Distance 13.08 km</desc>
<time>2013-07-07T18:05:59.65</time>
<name>1116</name>
<sym>Dot</sym>
</trkpt>
<trkpt lat="42.849545" lon="-2.287015">
<ele>1655.5</ele>
<desc>Speed 50.0 km/h Distance 13.09 km</desc>
<time>2013-07-07T18:06:00.65</time>
<name>1117</name>
<sym>Dot</sym>
</trkpt>
<trkpt lat="42.849548" lon="-2.287165">
<ele>1655.5</ele>
<desc>Speed 44.4 km/h Distance 13.10 km</desc>
<time>2013-07-07T18:06:01.65</time>
<name>1118</name>
<sym>Dot</sym>
</trkpt>
<trkpt lat="42.849573" lon="-2.287313">
<ele>1655.5</ele>
<desc>Speed 44.4 km/h Distance 13.12 km</desc>
<time>2013-07-07T18:06:02.65</time>
<name>1119</name>
<sym>Dot</sym>
</trkpt>
<trkpt lat="42.849592" lon="-2.287452">
<ele>1657.5</ele>
<desc>Speed 41.4 km/h Distance 13.13 km</desc>
<time>2013-07-07T18:06:03.64</time>
<name>1120</name>
<sym>Dot</sym>
</trkpt>
<trkpt lat="42.849600" lon="-2.287585">
<ele>1659.5</ele>
<desc>Speed 38.9 km/h Distance 13.14 km</desc>
<time>2013-07-07T18:06:04.63</time>
<name>1121</name>
<sym>Dot</sym>
</trkpt>
<trkpt lat="42.849590" lon="-2.287710">
<ele>1659.5</ele>
<desc>Speed 37.0 km/h Distance 13.15 km</desc>
<time>2013-07-07T18:06:05.62</time>
<name>1122</name>
<sym>Dot</sym>
</trkpt>
<trkpt lat="42.849577" lon="-2.287845">
<ele>1660.0</ele>
<desc>Speed 40.1 km/h Distance 13.16 km</desc>
<time>2013-07-07T18:06:06.61</time>
<name>1123</name>
<sym>Dot</sym>
</trkpt>
<trkpt lat="42.849563" lon="-2.287983">
<ele>1659.5</ele>
<desc>Speed 40.6 km/h Distance 13.17 km</desc>
<time>2013-07-07T18:06:07.60</time>
<name>1124</name>
<sym>Dot</sym>
</trkpt>
<trkpt lat="42.849560" lon="-2.288125">
<ele>1659.5</ele>
<desc>Speed 41.7 km/h Distance 13.18 km</desc>
<time>2013-07-07T18:06:08.60</time>
<name>1125</name>
<sym>Dot</sym>
</trkpt>
<trkpt lat="42.849563" lon="-2.288267">
<ele>1657.5</ele>
<desc>Speed 41.9 km/h Distance 13.19 km</desc>
<time>2013-07-07T18:06:09.59</time>
<name>1126</name>
<sym>Dot</sym>
</trkpt>
<trkpt lat="42.849582" lon="-2.288412">
<ele>1656.0</ele>
<desc>Speed 43.2 km/h Distance 13.21 km</desc>
<time>2013-07-07T18:06:10.59</time>
<name>1127</name>
<sym>Dot</sym>
</trkpt>
<trkpt lat="42.849605" lon="-2.288555">
<ele>1655.5</ele>
<desc>Speed 42.8 km/h Distance 13.22 km</desc>
<time>2013-07-07T18:06:11.58</time>
<name>1128</name>
<sym>Dot</sym>
</trkpt>
<trkpt lat="42.849620" lon="-2.288687">
<ele>1655.5</ele>
<desc>Speed 39.1 km/h Distance 13.23 km</desc>
<time>2013-07-07T18:06:12.57</time>
<name>1129</name>
<sym>Dot</sym>
</trkpt>
<trkpt lat="42.849628" lon="-2.288822">
<ele>1657.0</ele>
<desc>Speed 40.0 km/h Distance 13.24 km</desc>
<time>2013-07-07T18:06:13.56</time>
<name>1130</name>
<sym>Dot</sym>
</trkpt>
<trkpt lat="42.849630" lon="-2.288958">
<ele>1658.5</ele>
<desc>Speed 39.5 km/h Distance 13.25 km</desc>
<time>2013-07-07T18:06:14.56</time>
<name>1131</name>
<sym>Dot</sym>
</trkpt>
<trkpt lat="42.849622" lon="-2.289077">
<ele>1658.0</ele>
<desc>Speed 35.0 km/h Distance 13.26 km</desc>
<time>2013-07-07T18:06:15.55</time>
<name>1132</name>
<sym>Dot</sym>
</trkpt>
<trkpt lat="42.849623" lon="-2.289195">
<ele>1658.0</ele>
<desc>Speed 34.5 km/h Distance 13.27 km</desc>
<time>2013-07-07T18:06:16.54</time>
<name>1133</name>
<sym>Dot</sym>
</trkpt>
<trkpt lat="42.849648" lon="-2.289320">
<ele>1659.5</ele>
<desc>Speed 38.0 km/h Distance 13.28 km</desc>
<time>2013-07-07T18:06:17.53</time>
<name>1134</name>
<sym>Dot</sym>
</trkpt>
<trkpt lat="42.849655" lon="-2.289455">
<ele>1659.0</ele>
<desc>Speed 39.4 km/h Distance 13.29 km</desc>
<time>2013-07-07T18:06:18.52</time>
<name>1135</name>
<sym>Dot</sym>
</trkpt>
<trkpt lat="42.849655" lon="-2.289593">
<ele>1659.5</ele>
<desc>Speed 40.1 km/h Distance 13.30 km</desc>
<time>2013-07-07T18:06:19.52</time>
<name>1136</name>
<sym>Dot</sym>
</trkpt>
<trkpt lat="42.849648" lon="-2.289730">
<ele>1660.0</ele>
<desc>Speed 40.1 km/h Distance 13.31 km</desc>
<time>2013-07-07T18:06:20.51</time>
<name>1137</name>
<sym>Dot</sym>
</trkpt>
<trkpt lat="42.849642" lon="-2.289867">
<ele>1661.0</ele>
<desc>Speed 40.2 km/h Distance 13.33 km</desc>
<time>2013-07-07T18:06:21.51</time>
<name>1138</name>
<sym>Dot</sym>
</trkpt>
<trkpt lat="42.849645" lon="-2.290007">
<ele>1662.5</ele>
<desc>Speed 41.0 km/h Distance 13.34 km</desc>
<time>2013-07-07T18:06:22.50</time>
<name>1139</name>
<sym>Dot</sym>
</trkpt>
<trkpt lat="42.849657" lon="-2.290143">
<ele>1663.5</ele>
<desc>Speed 40.5 km/h Distance 13.35 km</desc>
<time>2013-07-07T18:06:23.49</time>
<name>1140</name>
<sym>Dot</sym>
</trkpt>
<trkpt lat="42.849677" lon="-2.290278">
<ele>1664.0</ele>
<desc>Speed 40.6 km/h Distance 13.36 km</desc>
<time>2013-07-07T18:06:24.48</time>
<name>1141</name>
<sym>Dot</sym>
</trkpt>
<trkpt lat="42.849702" lon="-2.290418">
<ele>1665.0</ele>
<desc>Speed 42.5 km/h Distance 13.37 km</desc>
<time>2013-07-07T18:06:25.47</time>
<name>1142</name>
<sym>Dot</sym>
</trkpt>
<trkpt lat="42.849722" lon="-2.290567">
<ele>1666.0</ele>
<desc>Speed 44.4 km/h Distance 13.38 km</desc>
<time>2013-07-07T18:06:26.47</time>
<name>1143</name>
<sym>Dot</sym>
</trkpt>
<trkpt lat="42.849730" lon="-2.290720">
<ele>1667.5</ele>
<desc>Speed 44.6 km/h Distance 13.40 km</desc>
<time>2013-07-07T18:06:27.46</time>
<name>1144</name>
<sym>Dot</sym>
</trkpt>
<trkpt lat="42.849727" lon="-2.290868">
<ele>1669.0</ele>
<desc>Speed 43.6 km/h Distance 13.41 km</desc>
<time>2013-07-07T18:06:28.46</time>
<name>1145</name>
<sym>Dot</sym>
</trkpt>
<trkpt lat="42.849718" lon="-2.291015">
<ele>1669.5</ele>
<desc>Speed 42.9 km/h Distance 13.42 km</desc>
<time>2013-07-07T18:06:29.45</time>
<name>1146</name>
<sym>Dot</sym>
</trkpt>
<trkpt lat="42.849710" lon="-2.291162">
<ele>1669.5</ele>
<desc>Speed 42.4 km/h Distance 13.43 km</desc>
<time>2013-07-07T18:06:30.44</time>
<name>1147</name>
<sym>Dot</sym>
</trkpt>
<trkpt lat="42.849703" lon="-2.291310">
<ele>1669.5</ele>
<desc>Speed 43.3 km/h Distance 13.44 km</desc>
<time>2013-07-07T18:06:31.43</time>
<name>1148</name>
<sym>Dot</sym>
</trkpt>
<trkpt lat="42.849700" lon="-2.291463">
<ele>1669.0</ele>
<desc>Speed 44.5 km/h Distance 13.46 km</desc>
<time>2013-07-07T18:06:32.42</time>
<name>1149</name>
<sym>Dot</sym>
</trkpt>
<trkpt lat="42.849698" lon="-2.291617">
<ele>1669.5</ele>
<desc>Speed 45.3 km/h Distance 13.47 km</desc>
<time>2013-07-07T18:06:33.41</time>
<name>1150</name>
<sym>Dot</sym>
</trkpt>
<trkpt lat="42.849703" lon="-2.291772">
<ele>1670.5</ele>
<desc>Speed 45.6 km/h Distance 13.48 km</desc>
<time>2013-07-07T18:06:34.41</time>
<name>1151</name>
<sym>Dot</sym>
</trkpt>
<trkpt lat="42.849710" lon="-2.291925">
<ele>1671.0</ele>
<desc>Speed 45.2 km/h Distance 13.49 km</desc>
<time>2013-07-07T18:06:35.39</time>
<name>1152</name>
<sym>Dot</sym>
</trkpt>
<trkpt lat="42.849708" lon="-2.292073">
<ele>1672.0</ele>
<desc>Speed 43.5 km/h Distance 13.51 km</desc>
<time>2013-07-07T18:06:36.39</time>
<name>1153</name>
<sym>Dot</sym>
</trkpt>
<trkpt lat="42.849683" lon="-2.292213">
<ele>1671.0</ele>
<desc>Speed 42.0 km/h Distance 13.52 km</desc>
<time>2013-07-07T18:06:37.37</time>
<name>1154</name>
<sym>Dot</sym>
</trkpt>
<trkpt lat="42.849658" lon="-2.292360">
<ele>1671.0</ele>
<desc>Speed 44.0 km/h Distance 13.53 km</desc>
<time>2013-07-07T18:06:38.37</time>
<name>1155</name>
<sym>Dot</sym>
</trkpt>
<trkpt lat="42.849635" lon="-2.292515">
<ele>1671.5</ele>
<desc>Speed 46.1 km/h Distance 13.54 km</desc>
<time>2013-07-07T18:06:39.36</time>
<name>1156</name>
<sym>Dot</sym>
</trkpt>
<trkpt lat="42.849620" lon="-2.292675">
<ele>1672.5</ele>
<desc>Speed 47.1 km/h Distance 13.56 km</desc>
<time>2013-07-07T18:06:40.36</time>
<name>1157</name>
<sym>Dot</sym>
</trkpt>
<trkpt lat="42.849615" lon="-2.292830">
<ele>1675.0</ele>
<desc>Speed 45.5 km/h Distance 13.57 km</desc>
<time>2013-07-07T18:06:41.36</time>
<name>1158</name>
<sym>Dot</sym>
</trkpt>
<trkpt lat="42.849613" lon="-2.292970">
<ele>1675.0</ele>
<desc>Speed 40.9 km/h Distance 13.58 km</desc>
<time>2013-07-07T18:06:42.34</time>
<name>1159</name>
<sym>Dot</sym>
</trkpt>
<trkpt lat="42.849620" lon="-2.293088">
<ele>1675.5</ele>
<desc>Speed 34.1 km/h Distance 13.59 km</desc>
<time>2013-07-07T18:06:43.34</time>
<name>1160</name>
<sym>Dot</sym>
</trkpt>
<trkpt lat="42.849643" lon="-2.293192">
<ele>1677.0</ele>
<desc>Speed 31.9 km/h Distance 13.60 km</desc>
<time>2013-07-07T18:06:44.33</time>
<name>1161</name>
<sym>Dot</sym>
</trkpt>
<trkpt lat="42.849693" lon="-2.293303">
<ele>1679.0</ele>
<desc>Speed 37.8 km/h Distance 13.61 km</desc>
<time>2013-07-07T18:06:45.32</time>
<name>1162</name>
<sym>Dot</sym>
</trkpt>
<trkpt lat="42.849733" lon="-2.293402">
<ele>1678.0</ele>
<desc>Speed 33.0 km/h Distance 13.62 km</desc>
<time>2013-07-07T18:06:46.31</time>
<name>1163</name>
<sym>Dot</sym>
</trkpt>
<trkpt lat="42.849778" lon="-2.293500">
<ele>1678.5</ele>
<desc>Speed 33.8 km/h Distance 13.63 km</desc>
<time>2013-07-07T18:06:47.30</time>
<name>1164</name>
<sym>Dot</sym>
</trkpt>
<trkpt lat="42.849825" lon="-2.293592">
<ele>1681.5</ele>
<desc>Speed 31.3 km/h Distance 13.64 km</desc>
<time>2013-07-07T18:06:48.29</time>
<name>1165</name>
<sym>Dot</sym>
</trkpt>
<trkpt lat="42.849902" lon="-2.293713">
<ele>1681.5</ele>
<desc>Speed 25.2 km/h Distance 13.65 km</desc>
<time>2013-07-07T18:06:50.27</time>
<name>1166</name>
<sym>Dot</sym>
</trkpt>
<trkpt lat="42.849948" lon="-2.293782">
<ele>1680.5</ele>
<desc>Speed 27.7 km/h Distance 13.66 km</desc>
<time>2013-07-07T18:06:51.27</time>
<name>1167</name>
<sym>Dot</sym>
</trkpt>
<trkpt lat="42.850060" lon="-2.294148">
<ele>1679.0</ele>
<desc>Speed 38.3 km/h Distance 13.69 km</desc>
<time>2013-07-07T18:06:56.69</time>
<name>1168</name>
<sym>Dot</sym>
</trkpt>
<trkpt lat="42.850068" lon="-2.294288">
<ele>1681.5</ele>
<desc>Speed 40.8 km/h Distance 13.70 km</desc>
<time>2013-07-07T18:06:57.68</time>
<name>1169</name>
<sym>Dot</sym>
</trkpt>
<trkpt lat="42.850027" lon="-2.294525">
<ele>1685.0</ele>
<desc>Speed 35.3 km/h Distance 13.72 km</desc>
<time>2013-07-07T18:06:59.67</time>
<name>1170</name>
<sym>Dot</sym>
</trkpt>
<trkpt lat="42.849987" lon="-2.294838">
<ele>1684.5</ele>
<desc>Speed 49.4 km/h Distance 13.75 km</desc>
<time>2013-07-07T18:07:01.66</time>
<name>1171</name>
<sym>Dot</sym>
</trkpt>
<trkpt lat="42.849972" lon="-2.295017">
<ele>1686.0</ele>
<desc>Speed 51.8 km/h Distance 13.76 km</desc>
<time>2013-07-07T18:07:02.66</time>
<name>1172</name>
<sym>Dot</sym>
</trkpt>
<trkpt lat="42.849950" lon="-2.295168">
<ele>1686.5</ele>
<desc>Speed 44.7 km/h Distance 13.78 km</desc>
<time>2013-07-07T18:07:03.64</time>
<name>1173</name>
<sym>Dot</sym>
</trkpt>
<trkpt lat="42.849918" lon="-2.295302">
<ele>1688.5</ele>
<desc>Speed 41.0 km/h Distance 13.79 km</desc>
<time>2013-07-07T18:07:04.63</time>
<name>1174</name>
<sym>Dot</sym>
</trkpt>
<trkpt lat="42.849882" lon="-2.295432">
<ele>1689.0</ele>
<desc>Speed 40.4 km/h Distance 13.80 km</desc>
<time>2013-07-07T18:07:05.62</time>
<name>1175</name>
<sym>Dot</sym>
</trkpt>
<trkpt lat="42.849847" lon="-2.295568">
<ele>1690.5</ele>
<desc>Speed 42.9 km/h Distance 13.81 km</desc>
<time>2013-07-07T18:07:06.61</time>
<name>1176</name>
<sym>Dot</sym>
</trkpt>
<trkpt lat="42.849822" lon="-2.295715">
<ele>1691.0</ele>
<desc>Speed 44.7 km/h Distance 13.82 km</desc>
<time>2013-07-07T18:07:07.60</time>
<name>1177</name>
<sym>Dot</sym>
</trkpt>
<trkpt lat="42.849802" lon="-2.295868">
<ele>1692.0</ele>
<desc>Speed 46.2 km/h Distance 13.84 km</desc>
<time>2013-07-07T18:07:08.59</time>
<name>1178</name>
<sym>Dot</sym>
</trkpt>
<trkpt lat="42.849778" lon="-2.296028">
<ele>1693.5</ele>
<desc>Speed 47.9 km/h Distance 13.85 km</desc>
<time>2013-07-07T18:07:09.59</time>
<name>1179</name>
<sym>Dot</sym>
</trkpt>
<trkpt lat="42.849737" lon="-2.296185">
<ele>1694.5</ele>
<desc>Speed 49.2 km/h Distance 13.86 km</desc>
<time>2013-07-07T18:07:10.59</time>
<name>1180</name>
<sym>Dot</sym>
</trkpt>
<trkpt lat="42.849677" lon="-2.296340">
<ele>1696.0</ele>
<desc>Speed 51.5 km/h Distance 13.88 km</desc>
<time>2013-07-07T18:07:11.58</time>
<name>1181</name>
<sym>Dot</sym>
</trkpt>
<trkpt lat="42.849627" lon="-2.296490">
<ele>1697.5</ele>
<desc>Speed 48.2 km/h Distance 13.89 km</desc>
<time>2013-07-07T18:07:12.56</time>
<name>1182</name>
<sym>Dot</sym>
</trkpt>
<trkpt lat="42.849602" lon="-2.296637">
<ele>1699.5</ele>
<desc>Speed 43.3 km/h Distance 13.90 km</desc>
<time>2013-07-07T18:07:13.56</time>
<name>1183</name>
<sym>Dot</sym>
</trkpt>
<trkpt lat="42.849598" lon="-2.296767">
<ele>1700.0</ele>
<desc>Speed 37.7 km/h Distance 13.91 km</desc>
<time>2013-07-07T18:07:14.55</time>
<name>1184</name>
<sym>Dot</sym>
</trkpt>
<trkpt lat="42.849590" lon="-2.296907">
<ele>1700.5</ele>
<desc>Speed 41.3 km/h Distance 13.92 km</desc>
<time>2013-07-07T18:07:15.55</time>
<name>1185</name>
<sym>Dot</sym>
</trkpt>
<trkpt lat="42.849580" lon="-2.297055">
<ele>1701.0</ele>
<desc>Speed 43.8 km/h Distance 13.94 km</desc>
<time>2013-07-07T18:07:16.54</time>
<name>1186</name>
<sym>Dot</sym>
</trkpt>
<trkpt lat="42.849565" lon="-2.297215">
<ele>1702.0</ele>
<desc>Speed 45.9 km/h Distance 13.95 km</desc>
<time>2013-07-07T18:07:17.52</time>
<name>1187</name>
<sym>Dot</sym>
</trkpt>
<trkpt lat="42.849555" lon="-2.297373">
<ele>1703.5</ele>
<desc>Speed 46.5 km/h Distance 13.96 km</desc>
<time>2013-07-07T18:07:18.51</time>
<name>1188</name>
<sym>Dot</sym>
</trkpt>
<trkpt lat="42.849555" lon="-2.297522">
<ele>1705.0</ele>
<desc>Speed 43.4 km/h Distance 13.97 km</desc>
<time>2013-07-07T18:07:19.50</time>
<name>1189</name>
<sym>Dot</sym>
</trkpt>
<trkpt lat="42.849558" lon="-2.297652">
<ele>1706.0</ele>
<desc>Speed 38.2 km/h Distance 13.99 km</desc>
<time>2013-07-07T18:07:20.50</time>
<name>1190</name>
<sym>Dot</sym>
</trkpt>
<trkpt lat="42.849595" lon="-2.297768">
<ele>1705.5</ele>
<desc>Speed 37.2 km/h Distance 14.00 km</desc>
<time>2013-07-07T18:07:21.49</time>
<name>1191</name>
<sym>Dot</sym>
</trkpt>
<trkpt lat="42.849615" lon="-2.297883">
<ele>1706.5</ele>
<desc>Speed 34.7 km/h Distance 14.01 km</desc>
<time>2013-07-07T18:07:22.49</time>
<name>1192</name>
<sym>Dot</sym>
</trkpt>
<trkpt lat="42.849643" lon="-2.297973">
<ele>1707.0</ele>
<desc>Speed 28.9 km/h Distance 14.01 km</desc>
<time>2013-07-07T18:07:23.48</time>
<name>1193</name>
<sym>Dot</sym>
</trkpt>
<trkpt lat="42.849683" lon="-2.298077">
<ele>1708.5</ele>
<desc>Speed 14.5 km/h Distance 14.02 km</desc>
<time>2013-07-07T18:07:25.47</time>
<name>1194</name>
<sym>Dot</sym>
</trkpt>
<trkpt lat="42.849708" lon="-2.298103">
<ele>1710.0</ele>
<desc>Speed 12.7 km/h Distance 14.03 km</desc>
<time>2013-07-07T18:07:26.46</time>
<name>1195</name>
<sym>Dot</sym>
</trkpt>
<trkpt lat="42.849738" lon="-2.298123">
<ele>1709.5</ele>
<desc>Speed 13.1 km/h Distance 14.03 km</desc>
<time>2013-07-07T18:07:27.45</time>
<name>1196</name>
<sym>Dot</sym>
</trkpt>
<trkpt lat="42.849770" lon="-2.298128">
<ele>1709.5</ele>
<desc>Speed 13.2 km/h Distance 14.03 km</desc>
<time>2013-07-07T18:07:28.44</time>
<name>1197</name>
<sym>Dot</sym>
</trkpt>
<trkpt lat="42.849798" lon="-2.298118">
<ele>1711.0</ele>
<desc>Speed 12.1 km/h Distance 14.04 km</desc>
<time>2013-07-07T18:07:29.43</time>
<name>1198</name>
<sym>Dot</sym>
</trkpt>
<trkpt lat="42.849822" lon="-2.298070">
<ele>1711.0</ele>
<desc>Speed 17.2 km/h Distance 14.04 km</desc>
<time>2013-07-07T18:07:30.43</time>
<name>1199</name>
<sym>Dot</sym>
</trkpt>
<trkpt lat="42.849837" lon="-2.298022">
<ele>1712.0</ele>
<desc>Speed 15.6 km/h Distance 14.05 km</desc>
<time>2013-07-07T18:07:31.43</time>
<name>1200</name>
<sym>Dot</sym>
</trkpt>
<trkpt lat="42.849842" lon="-2.297970">
<ele>1713.0</ele>
<desc>Speed 15.7 km/h Distance 14.05 km</desc>
<time>2013-07-07T18:07:32.42</time>
<name>1201</name>
<sym>Dot</sym>
</trkpt>
<trkpt lat="42.849845" lon="-2.297913">
<ele>1713.5</ele>
<desc>Speed 17.0 km/h Distance 14.05 km</desc>
<time>2013-07-07T18:07:33.41</time>
<name>1202</name>
<sym>Dot</sym>
</trkpt>
<trkpt lat="42.849843" lon="-2.297853">
<ele>1714.5</ele>
<desc>Speed 18.0 km/h Distance 14.06 km</desc>
<time>2013-07-07T18:07:34.40</time>
<name>1203</name>
<sym>Dot</sym>
</trkpt>
<trkpt lat="42.849840" lon="-2.297788">
<ele>1715.5</ele>
<desc>Speed 19.4 km/h Distance 14.06 km</desc>
<time>2013-07-07T18:07:35.40</time>
<name>1204</name>
<sym>Dot</sym>
</trkpt>
<trkpt lat="42.849822" lon="-2.297713">
<ele>1715.5</ele>
<desc>Speed 24.0 km/h Distance 14.07 km</desc>
<time>2013-07-07T18:07:36.38</time>
<name>1205</name>
<sym>Dot</sym>
</trkpt>
<trkpt lat="42.849790" lon="-2.297627">
<ele>1715.0</ele>
<desc>Speed 28.8 km/h Distance 14.08 km</desc>
<time>2013-07-07T18:07:37.37</time>
<name>1206</name>
<sym>Dot</sym>
</trkpt>
<trkpt lat="42.849755" lon="-2.297525">
<ele>1714.0</ele>
<desc>Speed 33.8 km/h Distance 14.09 km</desc>
<time>2013-07-07T18:07:38.36</time>
<name>1207</name>
<sym>Dot</sym>
</trkpt>
<trkpt lat="42.849720" lon="-2.297423">
<ele>1714.5</ele>
<desc>Speed 33.1 km/h Distance 14.10 km</desc>
<time>2013-07-07T18:07:39.36</time>
<name>1208</name>
<sym>Dot</sym>
</trkpt>
<trkpt lat="42.849700" lon="-2.297332">
<ele>1715.0</ele>
<desc>Speed 28.9 km/h Distance 14.11 km</desc>
<time>2013-07-07T18:07:40.36</time>
<name>1209</name>
<sym>Dot</sym>
</trkpt>
<trkpt lat="42.849678" lon="-2.297215">
<ele>1714.5</ele>
<desc>Speed 15.2 km/h Distance 14.12 km</desc>
<time>2013-07-07T18:07:42.34</time>
<name>1210</name>
<sym>Dot</sym>
</trkpt>
<trkpt lat="42.849672" lon="-2.297183">
<ele>1715.5</ele>
<desc>Speed 11.1 km/h Distance 14.12 km</desc>
<time>2013-07-07T18:07:43.33</time>
<name>1211</name>
<sym>Dot</sym>
</trkpt>
<trkpt lat="42.849673" lon="-2.297142">
<ele>1716.0</ele>
<desc>Speed 13.2 km/h Distance 14.12 km</desc>
<time>2013-07-07T18:07:44.32</time>
<name>1212</name>
<sym>Dot</sym>
</trkpt>
<trkpt lat="42.849682" lon="-2.297092">
<ele>1715.0</ele>
<desc>Speed 14.9 km/h Distance 14.13 km</desc>
<time>2013-07-07T18:07:45.32</time>
<name>1213</name>
<sym>Dot</sym>
</trkpt>
<trkpt lat="42.849700" lon="-2.297033">
<ele>1715.0</ele>
<desc>Speed 18.8 km/h Distance 14.13 km</desc>
<time>2013-07-07T18:07:46.31</time>
<name>1214</name>
<sym>Dot</sym>
</trkpt>
<trkpt lat="42.849722" lon="-2.296980">
<ele>1716.0</ele>
<desc>Speed 17.8 km/h Distance 14.14 km</desc>
<time>2013-07-07T18:07:47.30</time>
<name>1215</name>
<sym>Dot</sym>
</trkpt>
<trkpt lat="42.849778" lon="-2.296947">
<ele>1718.0</ele>
<desc>Speed 14.2 km/h Distance 14.14 km</desc>
<time>2013-07-07T18:07:49.29</time>
<name>1216</name>
<sym>Dot</sym>
</trkpt>
<trkpt lat="42.849812" lon="-2.296943">
<ele>1719.5</ele>
<desc>Speed 13.1 km/h Distance 14.15 km</desc>
<time>2013-07-07T18:07:50.29</time>
<name>1217</name>
<sym>Dot</sym>
</trkpt>
<trkpt lat="42.849850" lon="-2.296945">
<ele>1720.0</ele>
<desc>Speed 14.9 km/h Distance 14.15 km</desc>
<time>2013-07-07T18:07:51.28</time>
<name>1218</name>
<sym>Dot</sym>
</trkpt>
<trkpt lat="42.849897" lon="-2.296933">
<ele>1721.0</ele>
<desc>Speed 17.3 km/h Distance 14.16 km</desc>
<time>2013-07-07T18:07:52.27</time>
<name>1219</name>
<sym>Dot</sym>
</trkpt>
<trkpt lat="42.849937" lon="-2.296913">
<ele>1722.5</ele>
<desc>Speed 17.1 km/h Distance 14.16 km</desc>
<time>2013-07-07T18:07:53.27</time>
<name>1220</name>
<sym>Dot</sym>
</trkpt>
<trkpt lat="42.849975" lon="-2.296897">
<ele>1724.0</ele>
<desc>Speed 16.0 km/h Distance 14.16 km</desc>
<time>2013-07-07T18:07:54.26</time>
<name>1221</name>
<sym>Dot</sym>
</trkpt>
<trkpt lat="42.850013" lon="-2.296903">
<ele>1725.0</ele>
<desc>Speed 15.2 km/h Distance 14.17 km</desc>
<time>2013-07-07T18:07:55.26</time>
<name>1222</name>
<sym>Dot</sym>
</trkpt>
<trkpt lat="42.850047" lon="-2.296913">
<ele>1726.0</ele>
<desc>Speed 14.1 km/h Distance 14.17 km</desc>
<time>2013-07-07T18:07:56.24</time>
<name>1223</name>
<sym>Dot</sym>
</trkpt>
<trkpt lat="42.850080" lon="-2.296937">
<ele>1727.0</ele>
<desc>Speed 14.9 km/h Distance 14.18 km</desc>
<time>2013-07-07T18:07:57.24</time>
<name>1224</name>
<sym>Dot</sym>
</trkpt>
<trkpt lat="42.850117" lon="-2.296957">
<ele>1727.5</ele>
<desc>Speed 15.8 km/h Distance 14.18 km</desc>
<time>2013-07-07T18:07:58.23</time>
<name>1225</name>
<sym>Dot</sym>
</trkpt>
<trkpt lat="42.850160" lon="-2.296963">
<ele>1728.0</ele>
<desc>Speed 16.9 km/h Distance 14.19 km</desc>
<time>2013-07-07T18:07:59.22</time>
<name>1226</name>
<sym>Dot</sym>
</trkpt>
<trkpt lat="42.850198" lon="-2.296955">
<ele>1729.0</ele>
<desc>Speed 16.1 km/h Distance 14.19 km</desc>
<time>2013-07-07T18:08:00.21</time>
<name>1227</name>
<sym>Dot</sym>
</trkpt>
<trkpt lat="42.850230" lon="-2.296933">
<ele>1729.5</ele>
<desc>Speed 14.6 km/h Distance 14.19 km</desc>
<time>2013-07-07T18:08:01.21</time>
<name>1228</name>
<sym>Dot</sym>
</trkpt>
<trkpt lat="42.850265" lon="-2.296903">
<ele>1731.0</ele>
<desc>Speed 16.8 km/h Distance 14.20 km</desc>
<time>2013-07-07T18:08:02.20</time>
<name>1229</name>
<sym>Dot</sym>
</trkpt>
<trkpt lat="42.850285" lon="-2.296860">
<ele>1730.5</ele>
<desc>Speed 15.6 km/h Distance 14.20 km</desc>
<time>2013-07-07T18:08:03.19</time>
<name>1230</name>
<sym>Dot</sym>
</trkpt>
<trkpt lat="42.850280" lon="-2.296810">
<ele>1732.0</ele>
<desc>Speed 15.4 km/h Distance 14.21 km</desc>
<time>2013-07-07T18:08:04.19</time>
<name>1231</name>
<sym>Dot</sym>
</trkpt>
<trkpt lat="42.850280" lon="-2.296737">
<ele>1733.0</ele>
<desc>Speed 21.9 km/h Distance 14.21 km</desc>
<time>2013-07-07T18:08:05.18</time>
<name>1232</name>
<sym>Dot</sym>
</trkpt>
<trkpt lat="42.850263" lon="-2.296648">
<ele>1733.0</ele>
<desc>Speed 26.9 km/h Distance 14.22 km</desc>
<time>2013-07-07T18:08:06.17</time>
<name>1233</name>
<sym>Dot</sym>
</trkpt>
<trkpt lat="42.850255" lon="-2.296550">
<ele>1732.0</ele>
<desc>Speed 29.1 km/h Distance 14.23 km</desc>
<time>2013-07-07T18:08:07.18</time>
<name>1234</name>
<sym>Dot</sym>
</trkpt>
<trkpt lat="42.850240" lon="-2.296432">
<ele>1733.0</ele>
<desc>Speed 34.7 km/h Distance 14.24 km</desc>
<time>2013-07-07T18:08:08.18</time>
<name>1235</name>
<sym>Dot</sym>
</trkpt>
<trkpt lat="42.850215" lon="-2.296308">
<ele>1733.5</ele>
<desc>Speed 37.7 km/h Distance 14.25 km</desc>
<time>2013-07-07T18:08:09.16</time>
<name>1236</name>
<sym>Dot</sym>
</trkpt>
<trkpt lat="42.850172" lon="-2.296192">
<ele>1734.5</ele>
<desc>Speed 38.5 km/h Distance 14.26 km</desc>
<time>2013-07-07T18:08:10.15</time>
<name>1237</name>
<sym>Dot</sym>
</trkpt>
<trkpt lat="42.850108" lon="-2.296117">
<ele>1734.5</ele>
<desc>Speed 34.4 km/h Distance 14.27 km</desc>
<time>2013-07-07T18:08:11.15</time>
<name>1238</name>
<sym>Dot</sym>
</trkpt>
<trkpt lat="42.850055" lon="-2.296035">
<ele>1734.5</ele>
<desc>Speed 32.7 km/h Distance 14.28 km</desc>
<time>2013-07-07T18:08:12.14</time>
<name>1239</name>
<sym>Dot</sym>
</trkpt>
<trkpt lat="42.850003" lon="-2.295942">
<ele>1735.0</ele>
<desc>Speed 34.7 km/h Distance 14.29 km</desc>
<time>2013-07-07T18:08:13.13</time>
<name>1240</name>
<sym>Dot</sym>
</trkpt>
<trkpt lat="42.849970" lon="-2.295840">
<ele>1735.0</ele>
<desc>Speed 33.2 km/h Distance 14.30 km</desc>
<time>2013-07-07T18:08:14.13</time>
<name>1241</name>
<sym>Dot</sym>
</trkpt>
<trkpt lat="42.849933" lon="-2.295733">
<ele>1736.5</ele>
<desc>Speed 34.6 km/h Distance 14.31 km</desc>
<time>2013-07-07T18:08:15.12</time>
<name>1242</name>
<sym>Dot</sym>
</trkpt>
<trkpt lat="42.849913" lon="-2.295625">
<ele>1736.5</ele>
<desc>Speed 32.8 km/h Distance 14.32 km</desc>
<time>2013-07-07T18:08:16.11</time>
<name>1243</name>
<sym>Dot</sym>
</trkpt>
<trkpt lat="42.849927" lon="-2.295457">
<ele>1736.5</ele>
<desc>Speed 30.1 km/h Distance 14.33 km</desc>
<time>2013-07-07T18:08:18.12</time>
<name>1244</name>
<sym>Dot</sym>
</trkpt>
<trkpt lat="42.849963" lon="-2.295357">
<ele>1736.0</ele>
<desc>Speed 17.4 km/h Distance 14.34 km</desc>
<time>2013-07-07T18:08:20.11</time>
<name>1245</name>
<sym>Dot</sym>
</trkpt>
<trkpt lat="42.849995" lon="-2.295327">
<ele>1736.5</ele>
<desc>Speed 14.7 km/h Distance 14.34 km</desc>
<time>2013-07-07T18:08:21.11</time>
<name>1246</name>
<sym>Dot</sym>
</trkpt>
<trkpt lat="42.850098" lon="-2.295278">
<ele>1737.5</ele>
<desc>Speed 18.3 km/h Distance 14.36 km</desc>
<time>2013-07-07T18:08:23.11</time>
<name>1247</name>
<sym>Dot</sym>
</trkpt>
<trkpt lat="42.850143" lon="-2.295285">
<ele>1739.5</ele>
<desc>Speed 17.8 km/h Distance 14.36 km</desc>
<time>2013-07-07T18:08:24.10</time>
<name>1248</name>
<sym>Dot</sym>
</trkpt>
<trkpt lat="42.850182" lon="-2.295302">
<ele>1741.5</ele>
<desc>Speed 16.2 km/h Distance 14.36 km</desc>
<time>2013-07-07T18:08:25.09</time>
<name>1249</name>
<sym>Dot</sym>
</trkpt>
<trkpt lat="42.850205" lon="-2.295330">
<ele>1741.0</ele>
<desc>Speed 13.2 km/h Distance 14.37 km</desc>
<time>2013-07-07T18:08:26.09</time>
<name>1250</name>
<sym>Dot</sym>
</trkpt>
<trkpt lat="42.850230" lon="-2.295377">
<ele>1742.0</ele>
<desc>Speed 17.6 km/h Distance 14.37 km</desc>
<time>2013-07-07T18:08:27.08</time>
<name>1251</name>
<sym>Dot</sym>
</trkpt>
<trkpt lat="42.850318" lon="-2.295665">
<ele>1744.0</ele>
<desc>Speed 33.3 km/h Distance 14.40 km</desc>
<time>2013-07-07T18:08:30.47</time>
<name>1252</name>
<sym>Dot</sym>
</trkpt>
<trkpt lat="42.850325" lon="-2.295763">
<ele>1744.0</ele>
<desc>Speed 30.0 km/h Distance 14.41 km</desc>
<time>2013-07-07T18:08:31.47</time>
<name>1253</name>
<sym>Dot</sym>
</trkpt>
<trkpt lat="42.850332" lon="-2.295872">
<ele>1744.5</ele>
<desc>Speed 32.5 km/h Distance 14.42 km</desc>
<time>2013-07-07T18:08:32.46</time>
<name>1254</name>
<sym>Dot</sym>
</trkpt>
<trkpt lat="42.850333" lon="-2.295982">
<ele>1745.0</ele>
<desc>Speed 32.2 km/h Distance 14.42 km</desc>
<time>2013-07-07T18:08:33.46</time>
<name>1255</name>
<sym>Dot</sym>
</trkpt>
<trkpt lat="42.850327" lon="-2.296095">
<ele>1744.0</ele>
<desc>Speed 33.5 km/h Distance 14.43 km</desc>
<time>2013-07-07T18:08:34.45</time>
<name>1256</name>
<sym>Dot</sym>
</trkpt>
<trkpt lat="42.850308" lon="-2.296208">
<ele>1744.5</ele>
<desc>Speed 34.7 km/h Distance 14.44 km</desc>
<time>2013-07-07T18:08:35.44</time>
<name>1257</name>
<sym>Dot</sym>
</trkpt>
<trkpt lat="42.850317" lon="-2.296483">
<ele>1745.0</ele>
<desc>Speed 38.4 km/h Distance 14.47 km</desc>
<time>2013-07-07T18:08:37.43</time>
<name>1258</name>
<sym>Dot</sym>
</trkpt>
<trkpt lat="42.850350" lon="-2.296590">
<ele>1744.5</ele>
<desc>Speed 34.5 km/h Distance 14.47 km</desc>
<time>2013-07-07T18:08:38.43</time>
<name>1259</name>
<sym>Dot</sym>
</trkpt>
<trkpt lat="42.850393" lon="-2.296675">
<ele>1745.0</ele>
<desc>Speed 30.6 km/h Distance 14.48 km</desc>
<time>2013-07-07T18:08:39.42</time>
<name>1260</name>
<sym>Dot</sym>
</trkpt>
<trkpt lat="42.850438" lon="-2.296747">
<ele>1744.5</ele>
<desc>Speed 28.0 km/h Distance 14.49 km</desc>
<time>2013-07-07T18:08:40.40</time>
<name>1261</name>
<sym>Dot</sym>
</trkpt>
<trkpt lat="42.850495" lon="-2.296797">
<ele>1744.5</ele>
<desc>Speed 27.7 km/h Distance 14.50 km</desc>
<time>2013-07-07T18:08:41.40</time>
<name>1262</name>
<sym>Dot</sym>
</trkpt>
<trkpt lat="42.850610" lon="-2.296862">
<ele>1745.0</ele>
<desc>Speed 33.2 km/h Distance 14.51 km</desc>
<time>2013-07-07T18:08:43.39</time>
<name>1263</name>
<sym>Dot</sym>
</trkpt>
<trkpt lat="42.850680" lon="-2.296897">
<ele>1745.0</ele>
<desc>Speed 30.6 km/h Distance 14.52 km</desc>
<time>2013-07-07T18:08:44.40</time>
<name>1264</name>
<sym>Dot</sym>
</trkpt>
<trkpt lat="42.850753" lon="-2.296943">
<ele>1744.5</ele>
<desc>Speed 33.4 km/h Distance 14.53 km</desc>
<time>2013-07-07T18:08:45.39</time>
<name>1265</name>
<sym>Dot</sym>
</trkpt>
<trkpt lat="42.850920" lon="-2.297048">
<ele>1745.0</ele>
<desc>Speed 34.1 km/h Distance 14.55 km</desc>
<time>2013-07-07T18:08:47.37</time>
<name>1266</name>
<sym>Dot</sym>
</trkpt>
<trkpt lat="42.850978" lon="-2.297132">
<ele>1746.0</ele>
<desc>Speed 35.0 km/h Distance 14.56 km</desc>
<time>2013-07-07T18:08:48.37</time>
<name>1267</name>
<sym>Dot</sym>
</trkpt>
<trkpt lat="42.851035" lon="-2.297220">
<ele>1746.0</ele>
<desc>Speed 35.5 km/h Distance 14.57 km</desc>
<time>2013-07-07T18:08:49.35</time>
<name>1268</name>
<sym>Dot</sym>
</trkpt>
<trkpt lat="42.851092" lon="-2.297307">
<ele>1746.0</ele>
<desc>Speed 35.2 km/h Distance 14.58 km</desc>
<time>2013-07-07T18:08:50.34</time>
<name>1269</name>
<sym>Dot</sym>
</trkpt>
<trkpt lat="42.851152" lon="-2.297390">
<ele>1746.0</ele>
<desc>Speed 35.2 km/h Distance 14.59 km</desc>
<time>2013-07-07T18:08:51.34</time>
<name>1270</name>
<sym>Dot</sym>
</trkpt>
<trkpt lat="42.851212" lon="-2.297470">
<ele>1746.5</ele>
<desc>Speed 35.1 km/h Distance 14.60 km</desc>
<time>2013-07-07T18:08:52.33</time>
<name>1271</name>
<sym>Dot</sym>
</trkpt>
<trkpt lat="42.851268" lon="-2.297553">
<ele>1747.0</ele>
<desc>Speed 33.8 km/h Distance 14.61 km</desc>
<time>2013-07-07T18:08:53.32</time>
<name>1272</name>
<sym>Dot</sym>
</trkpt>
<trkpt lat="42.851322" lon="-2.297642">
<ele>1747.5</ele>
<desc>Speed 34.1 km/h Distance 14.62 km</desc>
<time>2013-07-07T18:08:54.32</time>
<name>1273</name>
<sym>Dot</sym>
</trkpt>
<trkpt lat="42.851372" lon="-2.297733">
<ele>1748.0</ele>
<desc>Speed 34.7 km/h Distance 14.63 km</desc>
<time>2013-07-07T18:08:55.32</time>
<name>1274</name>
<sym>Dot</sym>
</trkpt>
<trkpt lat="42.851433" lon="-2.297840">
<ele>1749.0</ele>
<desc>Speed 40.3 km/h Distance 14.64 km</desc>
<time>2013-07-07T18:08:56.30</time>
<name>1275</name>
<sym>Dot</sym>
</trkpt>
<trkpt lat="42.851498" lon="-2.297953">
<ele>1748.5</ele>
<desc>Speed 42.3 km/h Distance 14.65 km</desc>
<time>2013-07-07T18:08:57.31</time>
<name>1276</name>
<sym>Dot</sym>
</trkpt>
<trkpt lat="42.851562" lon="-2.298065">
<ele>1748.5</ele>
<desc>Speed 42.2 km/h Distance 14.66 km</desc>
<time>2013-07-07T18:08:58.29</time>
<name>1277</name>
<sym>Dot</sym>
</trkpt>
<trkpt lat="42.851620" lon="-2.298163">
<ele>1747.5</ele>
<desc>Speed 37.9 km/h Distance 14.67 km</desc>
<time>2013-07-07T18:08:59.30</time>
<name>1278</name>
<sym>Dot</sym>
</trkpt>
<trkpt lat="42.851682" lon="-2.298253">
<ele>1747.0</ele>
<desc>Speed 36.8 km/h Distance 14.68 km</desc>
<time>2013-07-07T18:09:00.29</time>
<name>1279</name>
<sym>Dot</sym>
</trkpt>
<trkpt lat="42.851757" lon="-2.298323">
<ele>1748.0</ele>
<desc>Speed 37.4 km/h Distance 14.69 km</desc>
<time>2013-07-07T18:09:01.27</time>
<name>1280</name>
<sym>Dot</sym>
</trkpt>
<trkpt lat="42.851840" lon="-2.298378">
<ele>1748.5</ele>
<desc>Speed 37.0 km/h Distance 14.70 km</desc>
<time>2013-07-07T18:09:02.27</time>
<name>1281</name>
<sym>Dot</sym>
</trkpt>
<trkpt lat="42.851927" lon="-2.298442">
<ele>1748.0</ele>
<desc>Speed 39.2 km/h Distance 14.71 km</desc>
<time>2013-07-07T18:09:03.27</time>
<name>1282</name>
<sym>Dot</sym>
</trkpt>
<trkpt lat="42.852017" lon="-2.298528">
<ele>1747.0</ele>
<desc>Speed 44.7 km/h Distance 14.72 km</desc>
<time>2013-07-07T18:09:04.26</time>
<name>1283</name>
<sym>Dot</sym>
</trkpt>
<trkpt lat="42.852085" lon="-2.298622">
<ele>1746.0</ele>
<desc>Speed 39.0 km/h Distance 14.73 km</desc>
<time>2013-07-07T18:09:05.25</time>
<name>1284</name>
<sym>Dot</sym>
</trkpt>
<trkpt lat="42.852150" lon="-2.298717">
<ele>1746.0</ele>
<desc>Speed 38.1 km/h Distance 14.75 km</desc>
<time>2013-07-07T18:09:06.26</time>
<name>1285</name>
<sym>Dot</sym>
</trkpt>
<trkpt lat="42.852208" lon="-2.298800">
<ele>1746.0</ele>
<desc>Speed 34.3 km/h Distance 14.75 km</desc>
<time>2013-07-07T18:09:07.25</time>
<name>1286</name>
<sym>Dot</sym>
</trkpt>
<trkpt lat="42.852263" lon="-2.298868">
<ele>1745.0</ele>
<desc>Speed 30.2 km/h Distance 14.76 km</desc>
<time>2013-07-07T18:09:08.24</time>
<name>1287</name>
<sym>Dot</sym>
</trkpt>
<trkpt lat="42.852320" lon="-2.298932">
<ele>1744.0</ele>
<desc>Speed 29.2 km/h Distance 14.77 km</desc>
<time>2013-07-07T18:09:09.23</time>
<name>1288</name>
<sym>Dot</sym>
</trkpt>
<trkpt lat="42.852377" lon="-2.299002">
<ele>1742.0</ele>
<desc>Speed 31.0 km/h Distance 14.78 km</desc>
<time>2013-07-07T18:09:10.23</time>
<name>1289</name>
<sym>Dot</sym>
</trkpt>
<trkpt lat="42.852433" lon="-2.299085">
<ele>1740.0</ele>
<desc>Speed 35.1 km/h Distance 14.79 km</desc>
<time>2013-07-07T18:09:11.22</time>
<name>1290</name>
<sym>Dot</sym>
</trkpt>
<trkpt lat="42.852495" lon="-2.299190">
<ele>1739.5</ele>
<desc>Speed 41.0 km/h Distance 14.80 km</desc>
<time>2013-07-07T18:09:12.21</time>
<name>1291</name>
<sym>Dot</sym>
</trkpt>
<trkpt lat="42.852563" lon="-2.299313">
<ele>1740.0</ele>
<desc>Speed 46.4 km/h Distance 14.81 km</desc>
<time>2013-07-07T18:09:13.21</time>
<name>1292</name>
<sym>Dot</sym>
</trkpt>
<trkpt lat="42.852623" lon="-2.299428">
<ele>1739.5</ele>
<desc>Speed 42.2 km/h Distance 14.82 km</desc>
<time>2013-07-07T18:09:14.20</time>
<name>1293</name>
<sym>Dot</sym>
</trkpt>
<trkpt lat="42.852732" lon="-2.299592">
<ele>1738.5</ele>
<desc>Speed 33.0 km/h Distance 14.84 km</desc>
<time>2013-07-07T18:09:16.20</time>
<name>1294</name>
<sym>Dot</sym>
</trkpt>
<trkpt lat="42.852800" lon="-2.299667">
<ele>1738.0</ele>
<desc>Speed 35.1 km/h Distance 14.85 km</desc>
<time>2013-07-07T18:09:17.19</time>
<name>1295</name>
<sym>Dot</sym>
</trkpt>
<trkpt lat="42.852872" lon="-2.299747">
<ele>1737.5</ele>
<desc>Speed 37.7 km/h Distance 14.86 km</desc>
<time>2013-07-07T18:09:18.19</time>
<name>1296</name>
<sym>Dot</sym>
</trkpt>
<trkpt lat="42.852940" lon="-2.299827">
<ele>1738.5</ele>
<desc>Speed 36.5 km/h Distance 14.87 km</desc>
<time>2013-07-07T18:09:19.18</time>
<name>1297</name>
<sym>Dot</sym>
</trkpt>
<trkpt lat="42.853002" lon="-2.299897">
<ele>1740.5</ele>
<desc>Speed 32.0 km/h Distance 14.88 km</desc>
<time>2013-07-07T18:09:20.17</time>
<name>1298</name>
<sym>Dot</sym>
</trkpt>
<trkpt lat="42.853095" lon="-2.299947">
<ele>1742.0</ele>
<desc>Speed 20.3 km/h Distance 14.89 km</desc>
<time>2013-07-07T18:09:22.16</time>
<name>1299</name>
<sym>Dot</sym>
</trkpt>
<trkpt lat="42.853142" lon="-2.299950">
<ele>1742.0</ele>
<desc>Speed 18.9 km/h Distance 14.90 km</desc>
<time>2013-07-07T18:09:23.15</time>
<name>1300</name>
<sym>Dot</sym>
</trkpt>
<trkpt lat="42.853195" lon="-2.299958">
<ele>1742.0</ele>
<desc>Speed 21.9 km/h Distance 14.90 km</desc>
<time>2013-07-07T18:09:24.15</time>
<name>1301</name>
<sym>Dot</sym>
</trkpt>
<trkpt lat="42.853257" lon="-2.299973">
<ele>1741.0</ele>
<desc>Speed 24.7 km/h Distance 14.91 km</desc>
<time>2013-07-07T18:09:25.14</time>
<name>1302</name>
<sym>Dot</sym>
</trkpt>
<trkpt lat="42.853328" lon="-2.299998">
<ele>1740.0</ele>
<desc>Speed 29.7 km/h Distance 14.92 km</desc>
<time>2013-07-07T18:09:26.14</time>
<name>1303</name>
<sym>Dot</sym>
</trkpt>
<trkpt lat="42.853403" lon="-2.300033">
<ele>1740.0</ele>
<desc>Speed 31.7 km/h Distance 14.93 km</desc>
<time>2013-07-07T18:09:27.13</time>
<name>1304</name>
<sym>Dot</sym>
</trkpt>
<trkpt lat="42.853478" lon="-2.300072">
<ele>1739.5</ele>
<desc>Speed 32.4 km/h Distance 14.94 km</desc>
<time>2013-07-07T18:09:28.13</time>
<name>1305</name>
<sym>Dot</sym>
</trkpt>
<trkpt lat="42.853553" lon="-2.300113">
<ele>1739.0</ele>
<desc>Speed 32.1 km/h Distance 14.95 km</desc>
<time>2013-07-07T18:09:29.12</time>
<name>1306</name>
<sym>Dot</sym>
</trkpt>
<trkpt lat="42.853627" lon="-2.300155">
<ele>1738.0</ele>
<desc>Speed 32.0 km/h Distance 14.95 km</desc>
<time>2013-07-07T18:09:30.12</time>
<name>1307</name>
<sym>Dot</sym>
</trkpt>
<trkpt lat="42.853702" lon="-2.300198">
<ele>1737.0</ele>
<desc>Speed 32.5 km/h Distance 14.96 km</desc>
<time>2013-07-07T18:09:31.12</time>
<name>1308</name>
<sym>Dot</sym>
</trkpt>
<trkpt lat="42.853780" lon="-2.300247">
<ele>1737.0</ele>
<desc>Speed 33.7 km/h Distance 14.97 km</desc>
<time>2013-07-07T18:09:32.12</time>
<name>1309</name>
<sym>Dot</sym>
</trkpt>
<trkpt lat="42.853855" lon="-2.300305">
<ele>1736.0</ele>
<desc>Speed 34.3 km/h Distance 14.98 km</desc>
<time>2013-07-07T18:09:33.11</time>
<name>1310</name>
<sym>Dot</sym>
</trkpt>
<trkpt lat="42.853932" lon="-2.300370">
<ele>1737.0</ele>
<desc>Speed 36.1 km/h Distance 14.99 km</desc>
<time>2013-07-07T18:09:34.11</time>
<name>1311</name>
<sym>Dot</sym>
</trkpt>
<trkpt lat="42.854007" lon="-2.300440">
<ele>1736.5</ele>
<desc>Speed 35.3 km/h Distance 15.00 km</desc>
<time>2013-07-07T18:09:35.11</time>
<name>1312</name>
<sym>Dot</sym>
</trkpt>
<trkpt lat="42.854080" lon="-2.300508">
<ele>1736.0</ele>
<desc>Speed 35.5 km/h Distance 15.01 km</desc>
<time>2013-07-07T18:09:36.09</time>
<name>1313</name>
<sym>Dot</sym>
</trkpt>
<trkpt lat="42.854153" lon="-2.300580">
<ele>1735.0</ele>
<desc>Speed 36.2 km/h Distance 15.02 km</desc>
<time>2013-07-07T18:09:37.09</time>
<name>1314</name>
<sym>Dot</sym>
</trkpt>
<trkpt lat="42.854228" lon="-2.300655">
<ele>1734.5</ele>
<desc>Speed 36.8 km/h Distance 15.03 km</desc>
<time>2013-07-07T18:09:38.09</time>
<name>1315</name>
<sym>Dot</sym>
</trkpt>
<trkpt lat="42.854305" lon="-2.300732">
<ele>1733.5</ele>
<desc>Speed 37.3 km/h Distance 15.04 km</desc>
<time>2013-07-07T18:09:39.08</time>
<name>1316</name>
<sym>Dot</sym>
</trkpt>
<trkpt lat="42.854383" lon="-2.300807">
<ele>1732.5</ele>
<desc>Speed 38.1 km/h Distance 15.05 km</desc>
<time>2013-07-07T18:09:40.08</time>
<name>1317</name>
<sym>Dot</sym>
</trkpt>
<trkpt lat="42.854468" lon="-2.300880">
<ele>1731.5</ele>
<desc>Speed 39.3 km/h Distance 15.07 km</desc>
<time>2013-07-07T18:09:41.08</time>
<name>1318</name>
<sym>Dot</sym>
</trkpt>
<trkpt lat="42.854552" lon="-2.300955">
<ele>1730.5</ele>
<desc>Speed 40.0 km/h Distance 15.08 km</desc>
<time>2013-07-07T18:09:42.07</time>
<name>1319</name>
<sym>Dot</sym>
</trkpt>
<trkpt lat="42.854633" lon="-2.301032">
<ele>1729.5</ele>
<desc>Speed 38.8 km/h Distance 15.09 km</desc>
<time>2013-07-07T18:09:43.07</time>
<name>1320</name>
<sym>Dot</sym>
</trkpt>
<trkpt lat="42.854710" lon="-2.301112">
<ele>1729.5</ele>
<desc>Speed 38.7 km/h Distance 15.10 km</desc>
<time>2013-07-07T18:09:44.06</time>
<name>1321</name>
<sym>Dot</sym>
</trkpt>
<trkpt lat="42.854782" lon="-2.301192">
<ele>1728.0</ele>
<desc>Speed 37.4 km/h Distance 15.11 km</desc>
<time>2013-07-07T18:09:45.06</time>
<name>1322</name>
<sym>Dot</sym>
</trkpt>
<trkpt lat="42.854858" lon="-2.301278">
<ele>1728.0</ele>
<desc>Speed 39.8 km/h Distance 15.12 km</desc>
<time>2013-07-07T18:09:46.06</time>
<name>1323</name>
<sym>Dot</sym>
</trkpt>
<trkpt lat="42.854937" lon="-2.301378">
<ele>1729.0</ele>
<desc>Speed 42.5 km/h Distance 15.13 km</desc>
<time>2013-07-07T18:09:47.05</time>
<name>1324</name>
<sym>Dot</sym>
</trkpt>
<trkpt lat="42.855010" lon="-2.301482">
<ele>1728.0</ele>
<desc>Speed 41.5 km/h Distance 15.14 km</desc>
<time>2013-07-07T18:09:48.04</time>
<name>1325</name>
<sym>Dot</sym>
</trkpt>
<trkpt lat="42.855080" lon="-2.301590">
<ele>1727.0</ele>
<desc>Speed 41.5 km/h Distance 15.15 km</desc>
<time>2013-07-07T18:09:49.02</time>
<name>1326</name>
<sym>Dot</sym>
</trkpt>
<trkpt lat="42.855148" lon="-2.301693">
<ele>1726.0</ele>
<desc>Speed 40.9 km/h Distance 15.17 km</desc>
<time>2013-07-07T18:09:50.02</time>
<name>1327</name>
<sym>Dot</sym>
</trkpt>
<trkpt lat="42.855218" lon="-2.301793">
<ele>1724.5</ele>
<desc>Speed 40.4 km/h Distance 15.18 km</desc>
<time>2013-07-07T18:09:51.02</time>
<name>1328</name>
<sym>Dot</sym>
</trkpt>
<trkpt lat="42.855295" lon="-2.301890">
<ele>1723.0</ele>
<desc>Speed 41.5 km/h Distance 15.19 km</desc>
<time>2013-07-07T18:09:52.00</time>
<name>1329</name>
<sym>Dot</sym>
</trkpt>
<trkpt lat="42.855377" lon="-2.301983">
<ele>1721.0</ele>
<desc>Speed 42.3 km/h Distance 15.20 km</desc>
<time>2013-07-07T18:09:52.99</time>
<name>1330</name>
<sym>Dot</sym>
</trkpt>
<trkpt lat="42.855458" lon="-2.302077">
<ele>1719.5</ele>
<desc>Speed 42.8 km/h Distance 15.21 km</desc>
<time>2013-07-07T18:09:53.99</time>
<name>1331</name>
<sym>Dot</sym>
</trkpt>
<trkpt lat="42.855540" lon="-2.302173">
<ele>1718.0</ele>
<desc>Speed 43.2 km/h Distance 15.22 km</desc>
<time>2013-07-07T18:09:54.98</time>
<name>1332</name>
<sym>Dot</sym>
</trkpt>
<trkpt lat="42.855615" lon="-2.302272">
<ele>1717.0</ele>
<desc>Speed 41.9 km/h Distance 15.24 km</desc>
<time>2013-07-07T18:09:55.98</time>
<name>1333</name>
<sym>Dot</sym>
</trkpt>
<trkpt lat="42.855688" lon="-2.302375">
<ele>1715.0</ele>
<desc>Speed 41.9 km/h Distance 15.25 km</desc>
<time>2013-07-07T18:09:56.98</time>
<name>1334</name>
<sym>Dot</sym>
</trkpt>
<trkpt lat="42.855760" lon="-2.302482">
<ele>1712.5</ele>
<desc>Speed 42.8 km/h Distance 15.26 km</desc>
<time>2013-07-07T18:09:57.96</time>
<name>1335</name>
<sym>Dot</sym>
</trkpt>
<trkpt lat="42.855840" lon="-2.302597">
<ele>1712.5</ele>
<desc>Speed 46.3 km/h Distance 15.27 km</desc>
<time>2013-07-07T18:09:58.96</time>
<name>1336</name>
<sym>Dot</sym>
</trkpt>
<trkpt lat="42.855923" lon="-2.302717">
<ele>1712.0</ele>
<desc>Speed 48.2 km/h Distance 15.29 km</desc>
<time>2013-07-07T18:09:59.96</time>
<name>1337</name>
<sym>Dot</sym>
</trkpt>
<trkpt lat="42.856005" lon="-2.302835">
<ele>1710.5</ele>
<desc>Speed 47.6 km/h Distance 15.30 km</desc>
<time>2013-07-07T18:10:00.95</time>
<name>1338</name>
<sym>Dot</sym>
</trkpt>
<trkpt lat="42.856082" lon="-2.302955">
<ele>1709.0</ele>
<desc>Speed 46.5 km/h Distance 15.31 km</desc>
<time>2013-07-07T18:10:01.94</time>
<name>1339</name>
<sym>Dot</sym>
</trkpt>
<trkpt lat="42.856152" lon="-2.303065">
<ele>1707.5</ele>
<desc>Speed 43.2 km/h Distance 15.32 km</desc>
<time>2013-07-07T18:10:02.95</time>
<name>1340</name>
<sym>Dot</sym>
</trkpt>
<trkpt lat="42.856222" lon="-2.303163">
<ele>1706.5</ele>
<desc>Speed 40.2 km/h Distance 15.34 km</desc>
<time>2013-07-07T18:10:03.94</time>
<name>1341</name>
<sym>Dot</sym>
</trkpt>
<trkpt lat="42.856293" lon="-2.303255">
<ele>1706.0</ele>
<desc>Speed 39.6 km/h Distance 15.35 km</desc>
<time>2013-07-07T18:10:04.93</time>
<name>1342</name>
<sym>Dot</sym>
</trkpt>
<trkpt lat="42.856377" lon="-2.303348">
<ele>1705.5</ele>
<desc>Speed 42.9 km/h Distance 15.36 km</desc>
<time>2013-07-07T18:10:05.93</time>
<name>1343</name>
<sym>Dot</sym>
</trkpt>
<trkpt lat="42.856468" lon="-2.303453">
<ele>1706.5</ele>
<desc>Speed 48.1 km/h Distance 15.37 km</desc>
<time>2013-07-07T18:10:06.91</time>
<name>1344</name>
<sym>Dot</sym>
</trkpt>
<trkpt lat="42.856562" lon="-2.303578">
<ele>1706.0</ele>
<desc>Speed 52.4 km/h Distance 15.39 km</desc>
<time>2013-07-07T18:10:07.91</time>
<name>1345</name>
<sym>Dot</sym>
</trkpt>
<trkpt lat="42.856643" lon="-2.303698">
<ele>1704.0</ele>
<desc>Speed 48.1 km/h Distance 15.40 km</desc>
<time>2013-07-07T18:10:08.91</time>
<name>1346</name>
<sym>Dot</sym>
</trkpt>
<trkpt lat="42.856725" lon="-2.303817">
<ele>1705.0</ele>
<desc>Speed 47.2 km/h Distance 15.41 km</desc>
<time>2013-07-07T18:10:09.91</time>
<name>1347</name>
<sym>Dot</sym>
</trkpt>
<trkpt lat="42.856793" lon="-2.303917">
<ele>1703.5</ele>
<desc>Speed 40.4 km/h Distance 15.42 km</desc>
<time>2013-07-07T18:10:10.91</time>
<name>1348</name>
<sym>Dot</sym>
</trkpt>
<trkpt lat="42.856867" lon="-2.304008">
<ele>1702.0</ele>
<desc>Speed 39.8 km/h Distance 15.44 km</desc>
<time>2013-07-07T18:10:11.90</time>
<name>1349</name>
<sym>Dot</sym>
</trkpt>
<trkpt lat="42.856940" lon="-2.304102">
<ele>1699.5</ele>
<desc>Speed 40.4 km/h Distance 15.45 km</desc>
<time>2013-07-07T18:10:12.89</time>
<name>1350</name>
<sym>Dot</sym>
</trkpt>
<trkpt lat="42.857023" lon="-2.304213">
<ele>1699.0</ele>
<desc>Speed 46.7 km/h Distance 15.46 km</desc>
<time>2013-07-07T18:10:13.90</time>
<name>1351</name>
<sym>Dot</sym>
</trkpt>
<trkpt lat="42.857103" lon="-2.304325">
<ele>1697.5</ele>
<desc>Speed 46.6 km/h Distance 15.47 km</desc>
<time>2013-07-07T18:10:14.89</time>
<name>1352</name>
<sym>Dot</sym>
</trkpt>
<trkpt lat="42.857180" lon="-2.304432">
<ele>1697.0</ele>
<desc>Speed 44.2 km/h Distance 15.48 km</desc>
<time>2013-07-07T18:10:15.88</time>
<name>1353</name>
<sym>Dot</sym>
</trkpt>
<trkpt lat="42.857247" lon="-2.304523">
<ele>1696.5</ele>
<desc>Speed 38.9 km/h Distance 15.50 km</desc>
<time>2013-07-07T18:10:16.88</time>
<name>1354</name>
<sym>Dot</sym>
</trkpt>
<trkpt lat="42.857305" lon="-2.304600">
<ele>1696.0</ele>
<desc>Speed 33.2 km/h Distance 15.50 km</desc>
<time>2013-07-07T18:10:17.88</time>
<name>1355</name>
<sym>Dot</sym>
</trkpt>
<trkpt lat="42.857357" lon="-2.304672">
<ele>1695.5</ele>
<desc>Speed 30.5 km/h Distance 15.51 km</desc>
<time>2013-07-07T18:10:18.87</time>
<name>1356</name>
<sym>Dot</sym>
</trkpt>
<trkpt lat="42.857417" lon="-2.304760">
<ele>1695.0</ele>
<desc>Speed 35.6 km/h Distance 15.52 km</desc>
<time>2013-07-07T18:10:19.87</time>
<name>1357</name>
<sym>Dot</sym>
</trkpt>
<trkpt lat="42.857478" lon="-2.304858">
<ele>1694.5</ele>
<desc>Speed 38.6 km/h Distance 15.53 km</desc>
<time>2013-07-07T18:10:20.87</time>
<name>1358</name>
<sym>Dot</sym>
</trkpt>
<trkpt lat="42.857548" lon="-2.304973">
<ele>1694.0</ele>
<desc>Speed 44.4 km/h Distance 15.54 km</desc>
<time>2013-07-07T18:10:21.87</time>
<name>1359</name>
<sym>Dot</sym>
</trkpt>
<trkpt lat="42.857623" lon="-2.305088">
<ele>1693.5</ele>
<desc>Speed 46.4 km/h Distance 15.56 km</desc>
<time>2013-07-07T18:10:22.86</time>
<name>1360</name>
<sym>Dot</sym>
</trkpt>
<trkpt lat="42.857695" lon="-2.305200">
<ele>1691.0</ele>
<desc>Speed 45.0 km/h Distance 15.57 km</desc>
<time>2013-07-07T18:10:23.86</time>
<name>1361</name>
<sym>Dot</sym>
</trkpt>
<trkpt lat="42.857765" lon="-2.305305">
<ele>1689.5</ele>
<desc>Speed 42.5 km/h Distance 15.58 km</desc>
<time>2013-07-07T18:10:24.85</time>
<name>1362</name>
<sym>Dot</sym>
</trkpt>
<trkpt lat="42.857828" lon="-2.305413">
<ele>1688.5</ele>
<desc>Speed 40.7 km/h Distance 15.59 km</desc>
<time>2013-07-07T18:10:25.84</time>
<name>1363</name>
<sym>Dot</sym>
</trkpt>
<trkpt lat="42.857883" lon="-2.305520">
<ele>1687.0</ele>
<desc>Speed 39.6 km/h Distance 15.60 km</desc>
<time>2013-07-07T18:10:26.83</time>
<name>1364</name>
<sym>Dot</sym>
</trkpt>
<trkpt lat="42.857938" lon="-2.305625">
<ele>1684.5</ele>
<desc>Speed 38.7 km/h Distance 15.61 km</desc>
<time>2013-07-07T18:10:27.83</time>
<name>1365</name>
<sym>Dot</sym>
</trkpt>
<trkpt lat="42.857993" lon="-2.305728">
<ele>1682.5</ele>
<desc>Speed 38.0 km/h Distance 15.62 km</desc>
<time>2013-07-07T18:10:28.83</time>
<name>1366</name>
<sym>Dot</sym>
</trkpt>
<trkpt lat="42.858055" lon="-2.305835">
<ele>1682.0</ele>
<desc>Speed 40.1 km/h Distance 15.64 km</desc>
<time>2013-07-07T18:10:29.82</time>
<name>1367</name>
<sym>Dot</sym>
</trkpt>
<trkpt lat="42.858118" lon="-2.305950">
<ele>1682.0</ele>
<desc>Speed 42.1 km/h Distance 15.65 km</desc>
<time>2013-07-07T18:10:30.83</time>
<name>1368</name>
<sym>Dot</sym>
</trkpt>
<trkpt lat="42.858177" lon="-2.306067">
<ele>1681.5</ele>
<desc>Speed 41.8 km/h Distance 15.66 km</desc>
<time>2013-07-07T18:10:31.82</time>
<name>1369</name>
<sym>Dot</sym>
</trkpt>
<trkpt lat="42.858237" lon="-2.306185">
<ele>1681.0</ele>
<desc>Speed 42.8 km/h Distance 15.67 km</desc>
<time>2013-07-07T18:10:32.81</time>
<name>1370</name>
<sym>Dot</sym>
</trkpt>
<trkpt lat="42.858300" lon="-2.306298">
<ele>1680.5</ele>
<desc>Speed 42.7 km/h Distance 15.68 km</desc>
<time>2013-07-07T18:10:33.81</time>
<name>1371</name>
<sym>Dot</sym>
</trkpt>
<trkpt lat="42.858372" lon="-2.306418">
<ele>1680.0</ele>
<desc>Speed 45.6 km/h Distance 15.69 km</desc>
<time>2013-07-07T18:10:34.79</time>
<name>1372</name>
<sym>Dot</sym>
</trkpt>
<trkpt lat="42.858443" lon="-2.306543">
<ele>1680.0</ele>
<desc>Speed 46.5 km/h Distance 15.71 km</desc>
<time>2013-07-07T18:10:35.78</time>
<name>1373</name>
<sym>Dot</sym>
</trkpt>
<trkpt lat="42.858507" lon="-2.306670">
<ele>1678.5</ele>
<desc>Speed 45.4 km/h Distance 15.72 km</desc>
<time>2013-07-07T18:10:36.78</time>
<name>1374</name>
<sym>Dot</sym>
</trkpt>
<trkpt lat="42.858567" lon="-2.306802">
<ele>1677.5</ele>
<desc>Speed 45.5 km/h Distance 15.73 km</desc>
<time>2013-07-07T18:10:37.77</time>
<name>1375</name>
<sym>Dot</sym>
</trkpt>
<trkpt lat="42.858625" lon="-2.306928">
<ele>1677.0</ele>
<desc>Speed 43.7 km/h Distance 15.74 km</desc>
<time>2013-07-07T18:10:38.77</time>
<name>1376</name>
<sym>Dot</sym>
</trkpt>
<trkpt lat="42.858685" lon="-2.307050">
<ele>1675.5</ele>
<desc>Speed 43.2 km/h Distance 15.76 km</desc>
<time>2013-07-07T18:10:39.76</time>
<name>1377</name>
<sym>Dot</sym>
</trkpt>
<trkpt lat="42.858785" lon="-2.307258">
<ele>1673.5</ele>
<desc>Speed 37.0 km/h Distance 15.78 km</desc>
<time>2013-07-07T18:10:41.76</time>
<name>1378</name>
<sym>Dot</sym>
</trkpt>
<trkpt lat="42.858837" lon="-2.307375">
<ele>1673.0</ele>
<desc>Speed 39.8 km/h Distance 15.79 km</desc>
<time>2013-07-07T18:10:42.75</time>
<name>1379</name>
<sym>Dot</sym>
</trkpt>
<trkpt lat="42.858890" lon="-2.307500">
<ele>1671.5</ele>
<desc>Speed 41.9 km/h Distance 15.80 km</desc>
<time>2013-07-07T18:10:43.74</time>
<name>1380</name>
<sym>Dot</sym>
</trkpt>
<trkpt lat="42.858925" lon="-2.307617">
<ele>1671.5</ele>
<desc>Speed 37.4 km/h Distance 15.81 km</desc>
<time>2013-07-07T18:10:44.74</time>
<name>1381</name>
<sym>Dot</sym>
</trkpt>
<trkpt lat="42.858970" lon="-2.307728">
<ele>1672.0</ele>
<desc>Speed 37.4 km/h Distance 15.82 km</desc>
<time>2013-07-07T18:10:45.74</time>
<name>1382</name>
<sym>Dot</sym>
</trkpt>
<trkpt lat="42.859017" lon="-2.307832">
<ele>1673.0</ele>
<desc>Speed 35.6 km/h Distance 15.83 km</desc>
<time>2013-07-07T18:10:46.73</time>
<name>1383</name>
<sym>Dot</sym>
</trkpt>
<trkpt lat="42.859058" lon="-2.307927">
<ele>1672.5</ele>
<desc>Speed 32.4 km/h Distance 15.84 km</desc>
<time>2013-07-07T18:10:47.73</time>
<name>1384</name>
<sym>Dot</sym>
</trkpt>
<trkpt lat="42.859102" lon="-2.308022">
<ele>1671.5</ele>
<desc>Speed 32.8 km/h Distance 15.85 km</desc>
<time>2013-07-07T18:10:48.73</time>
<name>1385</name>
<sym>Dot</sym>
</trkpt>
<trkpt lat="42.859150" lon="-2.308123">
<ele>1669.0</ele>
<desc>Speed 35.9 km/h Distance 15.86 km</desc>
<time>2013-07-07T18:10:49.72</time>
<name>1386</name>
<sym>Dot</sym>
</trkpt>
<trkpt lat="42.859203" lon="-2.308232">
<ele>1667.0</ele>
<desc>Speed 39.2 km/h Distance 15.87 km</desc>
<time>2013-07-07T18:10:50.72</time>
<name>1387</name>
<sym>Dot</sym>
</trkpt>
<trkpt lat="42.859260" lon="-2.308345">
<ele>1665.0</ele>
<desc>Speed 41.1 km/h Distance 15.88 km</desc>
<time>2013-07-07T18:10:51.70</time>
<name>1388</name>
<sym>Dot</sym>
</trkpt>
<trkpt lat="42.859315" lon="-2.308452">
<ele>1663.0</ele>
<desc>Speed 40.0 km/h Distance 15.89 km</desc>
<time>2013-07-07T18:10:52.69</time>
<name>1389</name>
<sym>Dot</sym>
</trkpt>
<trkpt lat="42.859367" lon="-2.308557">
<ele>1661.5</ele>
<desc>Speed 38.3 km/h Distance 15.90 km</desc>
<time>2013-07-07T18:10:53.69</time>
<name>1390</name>
<sym>Dot</sym>
</trkpt>
<trkpt lat="42.859415" lon="-2.308653">
<ele>1660.0</ele>
<desc>Speed 35.7 km/h Distance 15.91 km</desc>
<time>2013-07-07T18:10:54.69</time>
<name>1391</name>
<sym>Dot</sym>
</trkpt>
<trkpt lat="42.859465" lon="-2.308747">
<ele>1658.0</ele>
<desc>Speed 35.5 km/h Distance 15.92 km</desc>
<time>2013-07-07T18:10:55.68</time>
<name>1392</name>
<sym>Dot</sym>
</trkpt>
<trkpt lat="42.859530" lon="-2.308845">
<ele>1657.5</ele>
<desc>Speed 39.3 km/h Distance 15.93 km</desc>
<time>2013-07-07T18:10:56.68</time>
<name>1393</name>
<sym>Dot</sym>
</trkpt>
<trkpt lat="42.859592" lon="-2.308952">
<ele>1656.5</ele>
<desc>Speed 41.3 km/h Distance 15.94 km</desc>
<time>2013-07-07T18:10:57.67</time>
<name>1394</name>
<sym>Dot</sym>
</trkpt>
<trkpt lat="42.859655" lon="-2.309057">
<ele>1656.5</ele>
<desc>Speed 40.5 km/h Distance 15.95 km</desc>
<time>2013-07-07T18:10:58.67</time>
<name>1395</name>
<sym>Dot</sym>
</trkpt>
<trkpt lat="42.859718" lon="-2.309167">
<ele>1656.0</ele>
<desc>Speed 41.2 km/h Distance 15.96 km</desc>
<time>2013-07-07T18:10:59.66</time>
<name>1396</name>
<sym>Dot</sym>
</trkpt>
<trkpt lat="42.859778" lon="-2.309278">
<ele>1655.5</ele>
<desc>Speed 41.8 km/h Distance 15.98 km</desc>
<time>2013-07-07T18:11:00.65</time>
<name>1397</name>
<sym>Dot</sym>
</trkpt>
<trkpt lat="42.859837" lon="-2.309400">
<ele>1653.5</ele>
<desc>Speed 42.9 km/h Distance 15.99 km</desc>
<time>2013-07-07T18:11:01.65</time>
<name>1398</name>
<sym>Dot</sym>
</trkpt>
<trkpt lat="42.859892" lon="-2.309532">
<ele>1652.5</ele>
<desc>Speed 44.6 km/h Distance 16.00 km</desc>
<time>2013-07-07T18:11:02.64</time>
<name>1399</name>
<sym>Dot</sym>
</trkpt>
<trkpt lat="42.859947" lon="-2.309657">
<ele>1651.5</ele>
<desc>Speed 43.3 km/h Distance 16.01 km</desc>
<time>2013-07-07T18:11:03.63</time>
<name>1400</name>
<sym>Dot</sym>
</trkpt>
<trkpt lat="42.860007" lon="-2.309767">
<ele>1650.5</ele>
<desc>Speed 40.7 km/h Distance 16.02 km</desc>
<time>2013-07-07T18:11:04.63</time>
<name>1401</name>
<sym>Dot</sym>
</trkpt>
<trkpt lat="42.860068" lon="-2.309867">
<ele>1650.0</ele>
<desc>Speed 38.6 km/h Distance 16.03 km</desc>
<time>2013-07-07T18:11:05.63</time>
<name>1402</name>
<sym>Dot</sym>
</trkpt>
<trkpt lat="42.860133" lon="-2.309962">
<ele>1648.5</ele>
<desc>Speed 39.1 km/h Distance 16.04 km</desc>
<time>2013-07-07T18:11:06.61</time>
<name>1403</name>
<sym>Dot</sym>
</trkpt>
<trkpt lat="42.860200" lon="-2.310060">
<ele>1646.5</ele>
<desc>Speed 39.9 km/h Distance 16.06 km</desc>
<time>2013-07-07T18:11:07.61</time>
<name>1404</name>
<sym>Dot</sym>
</trkpt>
<trkpt lat="42.860263" lon="-2.310163">
<ele>1644.5</ele>
<desc>Speed 40.4 km/h Distance 16.07 km</desc>
<time>2013-07-07T18:11:08.61</time>
<name>1405</name>
<sym>Dot</sym>
</trkpt>
<trkpt lat="42.860327" lon="-2.310267">
<ele>1642.5</ele>
<desc>Speed 40.2 km/h Distance 16.08 km</desc>
<time>2013-07-07T18:11:09.60</time>
<name>1406</name>
<sym>Dot</sym>
</trkpt>
<trkpt lat="42.860388" lon="-2.310367">
<ele>1639.5</ele>
<desc>Speed 39.4 km/h Distance 16.09 km</desc>
<time>2013-07-07T18:11:10.59</time>
<name>1407</name>
<sym>Dot</sym>
</trkpt>
<trkpt lat="42.860452" lon="-2.310465">
<ele>1637.0</ele>
<desc>Speed 39.7 km/h Distance 16.10 km</desc>
<time>2013-07-07T18:11:11.59</time>
<name>1408</name>
<sym>Dot</sym>
</trkpt>
<trkpt lat="42.860518" lon="-2.310567">
<ele>1636.0</ele>
<desc>Speed 41.8 km/h Distance 16.11 km</desc>
<time>2013-07-07T18:11:12.58</time>
<name>1409</name>
<sym>Dot</sym>
</trkpt>
<trkpt lat="42.860585" lon="-2.310677">
<ele>1634.0</ele>
<desc>Speed 42.1 km/h Distance 16.12 km</desc>
<time>2013-07-07T18:11:13.57</time>
<name>1410</name>
<sym>Dot</sym>
</trkpt>
<trkpt lat="42.860652" lon="-2.310788">
<ele>1632.5</ele>
<desc>Speed 42.5 km/h Distance 16.13 km</desc>
<time>2013-07-07T18:11:14.57</time>
<name>1411</name>
<sym>Dot</sym>
</trkpt>
<trkpt lat="42.860715" lon="-2.310898">
<ele>1631.0</ele>
<desc>Speed 41.7 km/h Distance 16.14 km</desc>
<time>2013-07-07T18:11:15.56</time>
<name>1412</name>
<sym>Dot</sym>
</trkpt>
<trkpt lat="42.860778" lon="-2.311005">
<ele>1630.0</ele>
<desc>Speed 40.6 km/h Distance 16.16 km</desc>
<time>2013-07-07T18:11:16.55</time>
<name>1413</name>
<sym>Dot</sym>
</trkpt>
<trkpt lat="42.860842" lon="-2.311105">
<ele>1628.5</ele>
<desc>Speed 39.3 km/h Distance 16.17 km</desc>
<time>2013-07-07T18:11:17.55</time>
<name>1414</name>
<sym>Dot</sym>
</trkpt>
<trkpt lat="42.860905" lon="-2.311207">
<ele>1626.5</ele>
<desc>Speed 39.7 km/h Distance 16.18 km</desc>
<time>2013-07-07T18:11:18.53</time>
<name>1415</name>
<sym>Dot</sym>
</trkpt>
<trkpt lat="42.860968" lon="-2.311313">
<ele>1624.5</ele>
<desc>Speed 41.0 km/h Distance 16.19 km</desc>
<time>2013-07-07T18:11:19.53</time>
<name>1416</name>
<sym>Dot</sym>
</trkpt>
<trkpt lat="42.861030" lon="-2.311430">
<ele>1622.5</ele>
<desc>Speed 42.9 km/h Distance 16.20 km</desc>
<time>2013-07-07T18:11:20.53</time>
<name>1417</name>
<sym>Dot</sym>
</trkpt>
<trkpt lat="42.861092" lon="-2.311555">
<ele>1621.0</ele>
<desc>Speed 44.3 km/h Distance 16.21 km</desc>
<time>2013-07-07T18:11:21.52</time>
<name>1418</name>
<sym>Dot</sym>
</trkpt>
<trkpt lat="42.861150" lon="-2.311677">
<ele>1619.0</ele>
<desc>Speed 43.4 km/h Distance 16.22 km</desc>
<time>2013-07-07T18:11:22.53</time>
<name>1419</name>
<sym>Dot</sym>
</trkpt>
<trkpt lat="42.861210" lon="-2.311793">
<ele>1617.0</ele>
<desc>Speed 42.2 km/h Distance 16.24 km</desc>
<time>2013-07-07T18:11:23.51</time>
<name>1420</name>
<sym>Dot</sym>
</trkpt>
<trkpt lat="42.861270" lon="-2.311903">
<ele>1615.5</ele>
<desc>Speed 40.5 km/h Distance 16.25 km</desc>
<time>2013-07-07T18:11:24.51</time>
<name>1421</name>
<sym>Dot</sym>
</trkpt>
<trkpt lat="42.861328" lon="-2.312012">
<ele>1613.5</ele>
<desc>Speed 39.7 km/h Distance 16.26 km</desc>
<time>2013-07-07T18:11:25.51</time>
<name>1422</name>
<sym>Dot</sym>
</trkpt>
<trkpt lat="42.861380" lon="-2.312120">
<ele>1612.0</ele>
<desc>Speed 38.9 km/h Distance 16.27 km</desc>
<time>2013-07-07T18:11:26.50</time>
<name>1423</name>
<sym>Dot</sym>
</trkpt>
<trkpt lat="42.861425" lon="-2.312235">
<ele>1610.5</ele>
<desc>Speed 38.6 km/h Distance 16.28 km</desc>
<time>2013-07-07T18:11:27.50</time>
<name>1424</name>
<sym>Dot</sym>
</trkpt>
<trkpt lat="42.861470" lon="-2.312350">
<ele>1610.0</ele>
<desc>Speed 38.6 km/h Distance 16.29 km</desc>
<time>2013-07-07T18:11:28.49</time>
<name>1425</name>
<sym>Dot</sym>
</trkpt>
<trkpt lat="42.861515" lon="-2.312468">
<ele>1610.0</ele>
<desc>Speed 39.7 km/h Distance 16.30 km</desc>
<time>2013-07-07T18:11:29.49</time>
<name>1426</name>
<sym>Dot</sym>
</trkpt>
<trkpt lat="42.861560" lon="-2.312588">
<ele>1609.5</ele>
<desc>Speed 40.1 km/h Distance 16.31 km</desc>
<time>2013-07-07T18:11:30.49</time>
<name>1427</name>
<sym>Dot</sym>
</trkpt>
<trkpt lat="42.861607" lon="-2.312710">
<ele>1609.0</ele>
<desc>Speed 41.4 km/h Distance 16.32 km</desc>
<time>2013-07-07T18:11:31.48</time>
<name>1428</name>
<sym>Dot</sym>
</trkpt>
<trkpt lat="42.861652" lon="-2.312842">
<ele>1608.0</ele>
<desc>Speed 42.8 km/h Distance 16.34 km</desc>
<time>2013-07-07T18:11:32.49</time>
<name>1429</name>
<sym>Dot</sym>
</trkpt>
<trkpt lat="42.861697" lon="-2.312978">
<ele>1605.0</ele>
<desc>Speed 44.0 km/h Distance 16.35 km</desc>
<time>2013-07-07T18:11:33.47</time>
<name>1430</name>
<sym>Dot</sym>
</trkpt>
<trkpt lat="42.861737" lon="-2.313112">
<ele>1605.0</ele>
<desc>Speed 43.3 km/h Distance 16.36 km</desc>
<time>2013-07-07T18:11:34.47</time>
<name>1431</name>
<sym>Dot</sym>
</trkpt>
<trkpt lat="42.861775" lon="-2.313247">
<ele>1603.0</ele>
<desc>Speed 43.1 km/h Distance 16.37 km</desc>
<time>2013-07-07T18:11:35.47</time>
<name>1432</name>
<sym>Dot</sym>
</trkpt>
<trkpt lat="42.861812" lon="-2.313383">
<ele>1601.5</ele>
<desc>Speed 43.1 km/h Distance 16.38 km</desc>
<time>2013-07-07T18:11:36.46</time>
<name>1433</name>
<sym>Dot</sym>
</trkpt>
<trkpt lat="42.861848" lon="-2.313523">
<ele>1599.5</ele>
<desc>Speed 44.1 km/h Distance 16.40 km</desc>
<time>2013-07-07T18:11:37.46</time>
<name>1434</name>
<sym>Dot</sym>
</trkpt>
<trkpt lat="42.861883" lon="-2.313667">
<ele>1597.0</ele>
<desc>Speed 44.7 km/h Distance 16.41 km</desc>
<time>2013-07-07T18:11:38.45</time>
<name>1435</name>
<sym>Dot</sym>
</trkpt>
<trkpt lat="42.861915" lon="-2.313813">
<ele>1596.0</ele>
<desc>Speed 45.0 km/h Distance 16.42 km</desc>
<time>2013-07-07T18:11:39.44</time>
<name>1436</name>
<sym>Dot</sym>
</trkpt>
<trkpt lat="42.861945" lon="-2.313962">
<ele>1595.5</ele>
<desc>Speed 45.6 km/h Distance 16.43 km</desc>
<time>2013-07-07T18:11:40.43</time>
<name>1437</name>
<sym>Dot</sym>
</trkpt>
<trkpt lat="42.861975" lon="-2.314113">
<ele>1594.0</ele>
<desc>Speed 46.4 km/h Distance 16.45 km</desc>
<time>2013-07-07T18:11:41.43</time>
<name>1438</name>
<sym>Dot</sym>
</trkpt>
<trkpt lat="42.862007" lon="-2.314268">
<ele>1592.0</ele>
<desc>Speed 47.7 km/h Distance 16.46 km</desc>
<time>2013-07-07T18:11:42.42</time>
<name>1439</name>
<sym>Dot</sym>
</trkpt>
<trkpt lat="42.862045" lon="-2.314417">
<ele>1589.5</ele>
<desc>Speed 46.5 km/h Distance 16.47 km</desc>
<time>2013-07-07T18:11:43.41</time>
<name>1440</name>
<sym>Dot</sym>
</trkpt>
<trkpt lat="42.862093" lon="-2.314543">
<ele>1589.0</ele>
<desc>Speed 41.9 km/h Distance 16.48 km</desc>
<time>2013-07-07T18:11:44.40</time>
<name>1441</name>
<sym>Dot</sym>
</trkpt>
<trkpt lat="42.862143" lon="-2.314670">
<ele>1587.5</ele>
<desc>Speed 42.3 km/h Distance 16.49 km</desc>
<time>2013-07-07T18:11:45.39</time>
<name>1442</name>
<sym>Dot</sym>
</trkpt>
<trkpt lat="42.862202" lon="-2.314783">
<ele>1587.5</ele>
<desc>Speed 40.6 km/h Distance 16.51 km</desc>
<time>2013-07-07T18:11:46.40</time>
<name>1443</name>
<sym>Dot</sym>
</trkpt>
<trkpt lat="42.862255" lon="-2.314902">
<ele>1586.0</ele>
<desc>Speed 41.3 km/h Distance 16.52 km</desc>
<time>2013-07-07T18:11:47.39</time>
<name>1444</name>
<sym>Dot</sym>
</trkpt>
<trkpt lat="42.862312" lon="-2.315020">
<ele>1584.5</ele>
<desc>Speed 41.4 km/h Distance 16.53 km</desc>
<time>2013-07-07T18:11:48.38</time>
<name>1445</name>
<sym>Dot</sym>
</trkpt>
<trkpt lat="42.862368" lon="-2.315137">
<ele>1584.0</ele>
<desc>Speed 41.3 km/h Distance 16.54 km</desc>
<time>2013-07-07T18:11:49.37</time>
<name>1446</name>
<sym>Dot</sym>
</trkpt>
<trkpt lat="42.862423" lon="-2.315255">
<ele>1582.5</ele>
<desc>Speed 40.6 km/h Distance 16.55 km</desc>
<time>2013-07-07T18:11:50.38</time>
<name>1447</name>
<sym>Dot</sym>
</trkpt>
<trkpt lat="42.862468" lon="-2.315372">
<ele>1582.5</ele>
<desc>Speed 38.6 km/h Distance 16.56 km</desc>
<time>2013-07-07T18:11:51.36</time>
<name>1448</name>
<sym>Dot</sym>
</trkpt>
<trkpt lat="42.862505" lon="-2.315488">
<ele>1582.0</ele>
<desc>Speed 37.4 km/h Distance 16.57 km</desc>
<time>2013-07-07T18:11:52.37</time>
<name>1449</name>
<sym>Dot</sym>
</trkpt>
<trkpt lat="42.862540" lon="-2.315607">
<ele>1580.5</ele>
<desc>Speed 37.4 km/h Distance 16.58 km</desc>
<time>2013-07-07T18:11:53.36</time>
<name>1450</name>
<sym>Dot</sym>
</trkpt>
<trkpt lat="42.862595" lon="-2.315727">
<ele>1579.0</ele>
<desc>Speed 41.6 km/h Distance 16.59 km</desc>
<time>2013-07-07T18:11:54.34</time>
<name>1451</name>
<sym>Dot</sym>
</trkpt>
<trkpt lat="42.862643" lon="-2.315845">
<ele>1576.0</ele>
<desc>Speed 39.3 km/h Distance 16.61 km</desc>
<time>2013-07-07T18:11:55.34</time>
<name>1452</name>
<sym>Dot</sym>
</trkpt>
<trkpt lat="42.862693" lon="-2.315967">
<ele>1574.5</ele>
<desc>Speed 40.9 km/h Distance 16.62 km</desc>
<time>2013-07-07T18:11:56.34</time>
<name>1453</name>
<sym>Dot</sym>
</trkpt>
<trkpt lat="42.862738" lon="-2.316097">
<ele>1573.5</ele>
<desc>Speed 42.5 km/h Distance 16.63 km</desc>
<time>2013-07-07T18:11:57.33</time>
<name>1454</name>
<sym>Dot</sym>
</trkpt>
<trkpt lat="42.862780" lon="-2.316233">
<ele>1572.5</ele>
<desc>Speed 43.4 km/h Distance 16.64 km</desc>
<time>2013-07-07T18:11:58.32</time>
<name>1455</name>
<sym>Dot</sym>
</trkpt>
<trkpt lat="42.862817" lon="-2.316365">
<ele>1572.0</ele>
<desc>Speed 41.3 km/h Distance 16.65 km</desc>
<time>2013-07-07T18:11:59.32</time>
<name>1456</name>
<sym>Dot</sym>
</trkpt>
<trkpt lat="42.862853" lon="-2.316493">
<ele>1570.5</ele>
<desc>Speed 40.1 km/h Distance 16.66 km</desc>
<time>2013-07-07T18:12:00.31</time>
<name>1457</name>
<sym>Dot</sym>
</trkpt>
<trkpt lat="42.862890" lon="-2.316615">
<ele>1569.5</ele>
<desc>Speed 38.6 km/h Distance 16.67 km</desc>
<time>2013-07-07T18:12:01.31</time>
<name>1458</name>
<sym>Dot</sym>
</trkpt>
<trkpt lat="42.862930" lon="-2.316733">
<ele>1569.0</ele>
<desc>Speed 39.1 km/h Distance 16.69 km</desc>
<time>2013-07-07T18:12:02.30</time>
<name>1459</name>
<sym>Dot</sym>
</trkpt>
<trkpt lat="42.862975" lon="-2.316855">
<ele>1569.0</ele>
<desc>Speed 39.7 km/h Distance 16.70 km</desc>
<time>2013-07-07T18:12:03.31</time>
<name>1460</name>
<sym>Dot</sym>
</trkpt>
<trkpt lat="42.863012" lon="-2.316983">
<ele>1568.0</ele>
<desc>Speed 40.5 km/h Distance 16.71 km</desc>
<time>2013-07-07T18:12:04.29</time>
<name>1461</name>
<sym>Dot</sym>
</trkpt>
<trkpt lat="42.863045" lon="-2.317130">
<ele>1566.0</ele>
<desc>Speed 45.5 km/h Distance 16.72 km</desc>
<time>2013-07-07T18:12:05.28</time>
<name>1462</name>
<sym>Dot</sym>
</trkpt>
<trkpt lat="42.863055" lon="-2.317275">
<ele>1566.0</ele>
<desc>Speed 42.8 km/h Distance 16.73 km</desc>
<time>2013-07-07T18:12:06.27</time>
<name>1463</name>
<sym>Dot</sym>
</trkpt>
<trkpt lat="42.863072" lon="-2.317430">
<ele>1565.0</ele>
<desc>Speed 46.1 km/h Distance 16.74 km</desc>
<time>2013-07-07T18:12:07.26</time>
<name>1464</name>
<sym>Dot</sym>
</trkpt>
<trkpt lat="42.863093" lon="-2.317588">
<ele>1564.5</ele>
<desc>Speed 47.3 km/h Distance 16.76 km</desc>
<time>2013-07-07T18:12:08.26</time>
<name>1465</name>
<sym>Dot</sym>
</trkpt>
<trkpt lat="42.863118" lon="-2.317742">
<ele>1563.5</ele>
<desc>Speed 45.8 km/h Distance 16.77 km</desc>
<time>2013-07-07T18:12:09.24</time>
<name>1466</name>
<sym>Dot</sym>
</trkpt>
<trkpt lat="42.863145" lon="-2.317887">
<ele>1563.5</ele>
<desc>Speed 43.8 km/h Distance 16.78 km</desc>
<time>2013-07-07T18:12:10.25</time>
<name>1467</name>
<sym>Dot</sym>
</trkpt>
<trkpt lat="42.863172" lon="-2.318030">
<ele>1563.0</ele>
<desc>Speed 43.7 km/h Distance 16.79 km</desc>
<time>2013-07-07T18:12:11.23</time>
<name>1468</name>
<sym>Dot</sym>
</trkpt>
<trkpt lat="42.863193" lon="-2.318172">
<ele>1562.5</ele>
<desc>Speed 44.0 km/h Distance 16.81 km</desc>
<time>2013-07-07T18:12:12.24</time>
<name>1469</name>
<sym>Dot</sym>
</trkpt>
<trkpt lat="42.863250" lon="-2.318518">
<ele>1561.5</ele>
<desc>Speed 49.4 km/h Distance 16.84 km</desc>
<time>2013-07-07T18:12:14.22</time>
<name>1470</name>
<sym>Dot</sym>
</trkpt>
<trkpt lat="42.863292" lon="-2.318845">
<ele>1560.0</ele>
<desc>Speed 46.7 km/h Distance 16.86 km</desc>
<time>2013-07-07T18:12:16.21</time>
<name>1471</name>
<sym>Dot</sym>
</trkpt>
<trkpt lat="42.863313" lon="-2.318997">
<ele>1560.5</ele>
<desc>Speed 45.4 km/h Distance 16.88 km</desc>
<time>2013-07-07T18:12:17.20</time>
<name>1472</name>
<sym>Dot</sym>
</trkpt>
<trkpt lat="42.863333" lon="-2.319147">
<ele>1560.0</ele>
<desc>Speed 44.4 km/h Distance 16.89 km</desc>
<time>2013-07-07T18:12:18.19</time>
<name>1473</name>
<sym>Dot</sym>
</trkpt>
<trkpt lat="42.863353" lon="-2.319295">
<ele>1559.5</ele>
<desc>Speed 44.4 km/h Distance 16.90 km</desc>
<time>2013-07-07T18:12:19.19</time>
<name>1474</name>
<sym>Dot</sym>
</trkpt>
<trkpt lat="42.863372" lon="-2.319450">
<ele>1558.0</ele>
<desc>Speed 47.7 km/h Distance 16.91 km</desc>
<time>2013-07-07T18:12:20.19</time>
<name>1475</name>
<sym>Dot</sym>
</trkpt>
<trkpt lat="42.863397" lon="-2.319615">
<ele>1557.0</ele>
<desc>Speed 50.9 km/h Distance 16.93 km</desc>
<time>2013-07-07T18:12:21.17</time>
<name>1476</name>
<sym>Dot</sym>
</trkpt>
<trkpt lat="42.863418" lon="-2.319783">
<ele>1558.0</ele>
<desc>Speed 50.1 km/h Distance 16.94 km</desc>
<time>2013-07-07T18:12:22.18</time>
<name>1477</name>
<sym>Dot</sym>
</trkpt>
<trkpt lat="42.863427" lon="-2.319943">
<ele>1559.0</ele>
<desc>Speed 47.4 km/h Distance 16.95 km</desc>
<time>2013-07-07T18:12:23.16</time>
<name>1478</name>
<sym>Dot</sym>
</trkpt>
<trkpt lat="42.863430" lon="-2.320097">
<ele>1559.5</ele>
<desc>Speed 45.4 km/h Distance 16.97 km</desc>
<time>2013-07-07T18:12:24.15</time>
<name>1479</name>
<sym>Dot</sym>
</trkpt>
<trkpt lat="42.863432" lon="-2.320248">
<ele>1558.0</ele>
<desc>Speed 44.3 km/h Distance 16.98 km</desc>
<time>2013-07-07T18:12:25.14</time>
<name>1480</name>
<sym>Dot</sym>
</trkpt>
<trkpt lat="42.863440" lon="-2.320400">
<ele>1555.5</ele>
<desc>Speed 44.5 km/h Distance 16.99 km</desc>
<time>2013-07-07T18:12:26.13</time>
<name>1481</name>
<sym>Dot</sym>
</trkpt>
<trkpt lat="42.863480" lon="-2.320555">
<ele>1553.5</ele>
<desc>Speed 47.7 km/h Distance 17.00 km</desc>
<time>2013-07-07T18:12:27.12</time>
<name>1482</name>
<sym>Dot</sym>
</trkpt>
<trkpt lat="42.863508" lon="-2.320715">
<ele>1552.5</ele>
<desc>Speed 49.2 km/h Distance 17.02 km</desc>
<time>2013-07-07T18:12:28.13</time>
<name>1483</name>
<sym>Dot</sym>
</trkpt>
<trkpt lat="42.863565" lon="-2.320867">
<ele>1551.5</ele>
<desc>Speed 50.1 km/h Distance 17.03 km</desc>
<time>2013-07-07T18:12:29.12</time>
<name>1484</name>
<sym>Dot</sym>
</trkpt>
<trkpt lat="42.863610" lon="-2.321145">
<ele>1554.0</ele>
<desc>Speed 42.3 km/h Distance 17.06 km</desc>
<time>2013-07-07T18:12:31.12</time>
<name>1485</name>
<sym>Dot</sym>
</trkpt>
<trkpt lat="42.863610" lon="-2.321283">
<ele>1553.5</ele>
<desc>Speed 40.8 km/h Distance 17.07 km</desc>
<time>2013-07-07T18:12:32.12</time>
<name>1486</name>
<sym>Dot</sym>
</trkpt>
<trkpt lat="42.863602" lon="-2.321430">
<ele>1553.5</ele>
<desc>Speed 43.1 km/h Distance 17.08 km</desc>
<time>2013-07-07T18:12:33.11</time>
<name>1487</name>
<sym>Dot</sym>
</trkpt>
<trkpt lat="42.863592" lon="-2.321587">
<ele>1553.0</ele>
<desc>Speed 45.6 km/h Distance 17.09 km</desc>
<time>2013-07-07T18:12:34.11</time>
<name>1488</name>
<sym>Dot</sym>
</trkpt>
<trkpt lat="42.863590" lon="-2.321753">
<ele>1551.5</ele>
<desc>Speed 48.9 km/h Distance 17.10 km</desc>
<time>2013-07-07T18:12:35.09</time>
<name>1489</name>
<sym>Dot</sym>
</trkpt>
<trkpt lat="42.863588" lon="-2.321923">
<ele>1549.5</ele>
<desc>Speed 49.2 km/h Distance 17.12 km</desc>
<time>2013-07-07T18:12:36.09</time>
<name>1490</name>
<sym>Dot</sym>
</trkpt>
<trkpt lat="42.863583" lon="-2.322090">
<ele>1548.5</ele>
<desc>Speed 48.8 km/h Distance 17.13 km</desc>
<time>2013-07-07T18:12:37.09</time>
<name>1491</name>
<sym>Dot</sym>
</trkpt>
<trkpt lat="42.863577" lon="-2.322253">
<ele>1546.5</ele>
<desc>Speed 47.8 km/h Distance 17.15 km</desc>
<time>2013-07-07T18:12:38.08</time>
<name>1492</name>
<sym>Dot</sym>
</trkpt>
<trkpt lat="42.863563" lon="-2.322412">
<ele>1545.0</ele>
<desc>Speed 46.9 km/h Distance 17.16 km</desc>
<time>2013-07-07T18:12:39.08</time>
<name>1493</name>
<sym>Dot</sym>
</trkpt>
<trkpt lat="42.863542" lon="-2.322563">
<ele>1544.0</ele>
<desc>Speed 45.7 km/h Distance 17.17 km</desc>
<time>2013-07-07T18:12:40.08</time>
<name>1494</name>
<sym>Dot</sym>
</trkpt>
<trkpt lat="42.863517" lon="-2.322718">
<ele>1543.5</ele>
<desc>Speed 46.2 km/h Distance 17.18 km</desc>
<time>2013-07-07T18:12:41.07</time>
<name>1495</name>
<sym>Dot</sym>
</trkpt>
<trkpt lat="42.863498" lon="-2.322878">
<ele>1543.0</ele>
<desc>Speed 47.3 km/h Distance 17.20 km</desc>
<time>2013-07-07T18:12:42.07</time>
<name>1496</name>
<sym>Dot</sym>
</trkpt>
<trkpt lat="42.863467" lon="-2.323045">
<ele>1542.5</ele>
<desc>Speed 50.0 km/h Distance 17.21 km</desc>
<time>2013-07-07T18:12:43.05</time>
<name>1497</name>
<sym>Dot</sym>
</trkpt>
<trkpt lat="42.863460" lon="-2.323198">
<ele>1541.5</ele>
<desc>Speed 44.9 km/h Distance 17.22 km</desc>
<time>2013-07-07T18:12:44.05</time>
<name>1498</name>
<sym>Dot</sym>
</trkpt>
<trkpt lat="42.863437" lon="-2.323362">
<ele>1541.5</ele>
<desc>Speed 49.1 km/h Distance 17.24 km</desc>
<time>2013-07-07T18:12:45.04</time>
<name>1499</name>
<sym>Dot</sym>
</trkpt>
<trkpt lat="42.863420" lon="-2.323508">
<ele>1541.0</ele>
<desc>Speed 43.5 km/h Distance 17.25 km</desc>
<time>2013-07-07T18:12:46.03</time>
<name>1500</name>
<sym>Dot</sym>
</trkpt>
<trkpt lat="42.863385" lon="-2.323663">
<ele>1541.0</ele>
<desc>Speed 47.4 km/h Distance 17.26 km</desc>
<time>2013-07-07T18:12:47.01</time>
<name>1501</name>
<sym>Dot</sym>
</trkpt>
<trkpt lat="42.863363" lon="-2.323808">
<ele>1541.0</ele>
<desc>Speed 43.7 km/h Distance 17.27 km</desc>
<time>2013-07-07T18:12:48.01</time>
<name>1502</name>
<sym>Dot</sym>
</trkpt>
<trkpt lat="42.863353" lon="-2.323957">
<ele>1540.0</ele>
<desc>Speed 44.0 km/h Distance 17.29 km</desc>
<time>2013-07-07T18:12:49.00</time>
<name>1503</name>
<sym>Dot</sym>
</trkpt>
<trkpt lat="42.863348" lon="-2.324100">
<ele>1540.0</ele>
<desc>Speed 41.8 km/h Distance 17.30 km</desc>
<time>2013-07-07T18:12:49.99</time>
<name>1504</name>
<sym>Dot</sym>
</trkpt>
<trkpt lat="42.863337" lon="-2.324235">
<ele>1539.5</ele>
<desc>Speed 39.9 km/h Distance 17.31 km</desc>
<time>2013-07-07T18:12:50.98</time>
<name>1505</name>
<sym>Dot</sym>
</trkpt>
<trkpt lat="42.863313" lon="-2.324363">
<ele>1538.5</ele>
<desc>Speed 39.0 km/h Distance 17.32 km</desc>
<time>2013-07-07T18:12:51.97</time>
<name>1506</name>
<sym>Dot</sym>
</trkpt>
<trkpt lat="42.863280" lon="-2.324483">
<ele>1537.5</ele>
<desc>Speed 37.3 km/h Distance 17.33 km</desc>
<time>2013-07-07T18:12:52.96</time>
<name>1507</name>
<sym>Dot</sym>
</trkpt>
<trkpt lat="42.863235" lon="-2.324608">
<ele>1536.0</ele>
<desc>Speed 40.7 km/h Distance 17.34 km</desc>
<time>2013-07-07T18:12:53.96</time>
<name>1508</name>
<sym>Dot</sym>
</trkpt>
<trkpt lat="42.863198" lon="-2.324728">
<ele>1534.0</ele>
<desc>Speed 37.9 km/h Distance 17.35 km</desc>
<time>2013-07-07T18:12:54.95</time>
<name>1509</name>
<sym>Dot</sym>
</trkpt>
<trkpt lat="42.863165" lon="-2.324870">
<ele>1534.0</ele>
<desc>Speed 43.8 km/h Distance 17.37 km</desc>
<time>2013-07-07T18:12:55.94</time>
<name>1510</name>
<sym>Dot</sym>
</trkpt>
<trkpt lat="42.863128" lon="-2.325023">
<ele>1533.0</ele>
<desc>Speed 47.2 km/h Distance 17.38 km</desc>
<time>2013-07-07T18:12:56.92</time>
<name>1511</name>
<sym>Dot</sym>
</trkpt>
<trkpt lat="42.863087" lon="-2.325177">
<ele>1531.0</ele>
<desc>Speed 48.2 km/h Distance 17.39 km</desc>
<time>2013-07-07T18:12:57.93</time>
<name>1512</name>
<sym>Dot</sym>
</trkpt>
<trkpt lat="42.863030" lon="-2.325310">
<ele>1529.5</ele>
<desc>Speed 45.8 km/h Distance 17.40 km</desc>
<time>2013-07-07T18:12:58.92</time>
<name>1513</name>
<sym>Dot</sym>
</trkpt>
<trkpt lat="42.862973" lon="-2.325432">
<ele>1528.0</ele>
<desc>Speed 42.4 km/h Distance 17.42 km</desc>
<time>2013-07-07T18:12:59.91</time>
<name>1514</name>
<sym>Dot</sym>
</trkpt>
<trkpt lat="42.862922" lon="-2.325553">
<ele>1524.0</ele>
<desc>Speed 41.9 km/h Distance 17.43 km</desc>
<time>2013-07-07T18:13:00.90</time>
<name>1515</name>
<sym>Dot</sym>
</trkpt>
<trkpt lat="42.862865" lon="-2.325667">
<ele>1523.0</ele>
<desc>Speed 40.7 km/h Distance 17.44 km</desc>
<time>2013-07-07T18:13:01.89</time>
<name>1516</name>
<sym>Dot</sym>
</trkpt>
<trkpt lat="42.862807" lon="-2.325783">
<ele>1521.5</ele>
<desc>Speed 42.4 km/h Distance 17.45 km</desc>
<time>2013-07-07T18:13:02.88</time>
<name>1517</name>
<sym>Dot</sym>
</trkpt>
<trkpt lat="42.862743" lon="-2.325905">
<ele>1520.0</ele>
<desc>Speed 44.0 km/h Distance 17.46 km</desc>
<time>2013-07-07T18:13:03.88</time>
<name>1518</name>
<sym>Dot</sym>
</trkpt>
<trkpt lat="42.862668" lon="-2.326018">
<ele>1520.0</ele>
<desc>Speed 44.9 km/h Distance 17.47 km</desc>
<time>2013-07-07T18:13:04.87</time>
<name>1519</name>
<sym>Dot</sym>
</trkpt>
<trkpt lat="42.862590" lon="-2.326130">
<ele>1518.0</ele>
<desc>Speed 45.3 km/h Distance 17.49 km</desc>
<time>2013-07-07T18:13:05.87</time>
<name>1520</name>
<sym>Dot</sym>
</trkpt>
<trkpt lat="42.862510" lon="-2.326240">
<ele>1516.5</ele>
<desc>Speed 45.6 km/h Distance 17.50 km</desc>
<time>2013-07-07T18:13:06.87</time>
<name>1521</name>
<sym>Dot</sym>
</trkpt>
<trkpt lat="42.862437" lon="-2.326357">
<ele>1513.5</ele>
<desc>Speed 46.2 km/h Distance 17.51 km</desc>
<time>2013-07-07T18:13:07.85</time>
<name>1522</name>
<sym>Dot</sym>
</trkpt>
<trkpt lat="42.862365" lon="-2.326480">
<ele>1510.0</ele>
<desc>Speed 46.7 km/h Distance 17.53 km</desc>
<time>2013-07-07T18:13:08.84</time>
<name>1523</name>
<sym>Dot</sym>
</trkpt>
<trkpt lat="42.862295" lon="-2.326603">
<ele>1507.0</ele>
<desc>Speed 47.0 km/h Distance 17.54 km</desc>
<time>2013-07-07T18:13:09.84</time>
<name>1524</name>
<sym>Dot</sym>
</trkpt>
<trkpt lat="42.862225" lon="-2.326727">
<ele>1504.5</ele>
<desc>Speed 46.8 km/h Distance 17.55 km</desc>
<time>2013-07-07T18:13:10.83</time>
<name>1525</name>
<sym>Dot</sym>
</trkpt>
<trkpt lat="42.862155" lon="-2.326850">
<ele>1502.5</ele>
<desc>Speed 46.9 km/h Distance 17.56 km</desc>
<time>2013-07-07T18:13:11.82</time>
<name>1526</name>
<sym>Dot</sym>
</trkpt>
<trkpt lat="42.862092" lon="-2.326978">
<ele>1500.0</ele>
<desc>Speed 47.3 km/h Distance 17.58 km</desc>
<time>2013-07-07T18:13:12.82</time>
<name>1527</name>
<sym>Dot</sym>
</trkpt>
<trkpt lat="42.862032" lon="-2.327112">
<ele>1497.5</ele>
<desc>Speed 47.3 km/h Distance 17.59 km</desc>
<time>2013-07-07T18:13:13.81</time>
<name>1528</name>
<sym>Dot</sym>
</trkpt>
<trkpt lat="42.861968" lon="-2.327247">
<ele>1495.0</ele>
<desc>Speed 46.9 km/h Distance 17.60 km</desc>
<time>2013-07-07T18:13:14.80</time>
<name>1529</name>
<sym>Dot</sym>
</trkpt>
<trkpt lat="42.861913" lon="-2.327382">
<ele>1493.0</ele>
<desc>Speed 45.8 km/h Distance 17.61 km</desc>
<time>2013-07-07T18:13:15.79</time>
<name>1530</name>
<sym>Dot</sym>
</trkpt>
<trkpt lat="42.861860" lon="-2.327517">
<ele>1490.5</ele>
<desc>Speed 44.6 km/h Distance 17.63 km</desc>
<time>2013-07-07T18:13:16.79</time>
<name>1531</name>
<sym>Dot</sym>
</trkpt>
<trkpt lat="42.861825" lon="-2.327658">
<ele>1488.0</ele>
<desc>Speed 41.8 km/h Distance 17.64 km</desc>
<time>2013-07-07T18:13:17.77</time>
<name>1532</name>
<sym>Dot</sym>
</trkpt>
<trkpt lat="42.861785" lon="-2.327797">
<ele>1485.5</ele>
<desc>Speed 42.5 km/h Distance 17.65 km</desc>
<time>2013-07-07T18:13:18.77</time>
<name>1533</name>
<sym>Dot</sym>
</trkpt>
<trkpt lat="42.861750" lon="-2.327937">
<ele>1482.5</ele>
<desc>Speed 42.7 km/h Distance 17.66 km</desc>
<time>2013-07-07T18:13:19.76</time>
<name>1534</name>
<sym>Dot</sym>
</trkpt>
<trkpt lat="42.861712" lon="-2.328080">
<ele>1479.5</ele>
<desc>Speed 44.0 km/h Distance 17.68 km</desc>
<time>2013-07-07T18:13:20.76</time>
<name>1535</name>
<sym>Dot</sym>
</trkpt>
<trkpt lat="42.861672" lon="-2.328223">
<ele>1477.5</ele>
<desc>Speed 45.4 km/h Distance 17.69 km</desc>
<time>2013-07-07T18:13:21.75</time>
<name>1536</name>
<sym>Dot</sym>
</trkpt>
<trkpt lat="42.861635" lon="-2.328372">
<ele>1475.5</ele>
<desc>Speed 45.8 km/h Distance 17.70 km</desc>
<time>2013-07-07T18:13:22.75</time>
<name>1537</name>
<sym>Dot</sym>
</trkpt>
<trkpt lat="42.861598" lon="-2.328515">
<ele>1474.0</ele>
<desc>Speed 44.7 km/h Distance 17.71 km</desc>
<time>2013-07-07T18:13:23.75</time>
<name>1538</name>
<sym>Dot</sym>
</trkpt>
<trkpt lat="42.861572" lon="-2.328655">
<ele>1472.5</ele>
<desc>Speed 42.4 km/h Distance 17.73 km</desc>
<time>2013-07-07T18:13:24.75</time>
<name>1539</name>
<sym>Dot</sym>
</trkpt>
<trkpt lat="42.861548" lon="-2.328792">
<ele>1470.0</ele>
<desc>Speed 41.1 km/h Distance 17.74 km</desc>
<time>2013-07-07T18:13:25.73</time>
<name>1540</name>
<sym>Dot</sym>
</trkpt>
<trkpt lat="42.861527" lon="-2.328930">
<ele>1467.5</ele>
<desc>Speed 41.0 km/h Distance 17.75 km</desc>
<time>2013-07-07T18:13:26.74</time>
<name>1541</name>
<sym>Dot</sym>
</trkpt>
<trkpt lat="42.861500" lon="-2.329072">
<ele>1465.0</ele>
<desc>Speed 42.4 km/h Distance 17.76 km</desc>
<time>2013-07-07T18:13:27.73</time>
<name>1542</name>
<sym>Dot</sym>
</trkpt>
<trkpt lat="42.861463" lon="-2.329215">
<ele>1465.0</ele>
<desc>Speed 44.7 km/h Distance 17.77 km</desc>
<time>2013-07-07T18:13:28.72</time>
<name>1543</name>
<sym>Dot</sym>
</trkpt>
<trkpt lat="42.861433" lon="-2.329367">
<ele>1462.5</ele>
<desc>Speed 46.6 km/h Distance 17.79 km</desc>
<time>2013-07-07T18:13:29.71</time>
<name>1544</name>
<sym>Dot</sym>
</trkpt>
<trkpt lat="42.861403" lon="-2.329523">
<ele>1460.5</ele>
<desc>Speed 47.7 km/h Distance 17.80 km</desc>
<time>2013-07-07T18:13:30.71</time>
<name>1545</name>
<sym>Dot</sym>
</trkpt>
<trkpt lat="42.861378" lon="-2.329677">
<ele>1459.5</ele>
<desc>Speed 46.1 km/h Distance 17.81 km</desc>
<time>2013-07-07T18:13:31.70</time>
<name>1546</name>
<sym>Dot</sym>
</trkpt>
<trkpt lat="42.861360" lon="-2.329822">
<ele>1459.0</ele>
<desc>Speed 43.7 km/h Distance 17.82 km</desc>
<time>2013-07-07T18:13:32.69</time>
<name>1547</name>
<sym>Dot</sym>
</trkpt>
<trkpt lat="42.861345" lon="-2.329962">
<ele>1457.5</ele>
<desc>Speed 41.5 km/h Distance 17.84 km</desc>
<time>2013-07-07T18:13:33.69</time>
<name>1548</name>
<sym>Dot</sym>
</trkpt>
<trkpt lat="42.861333" lon="-2.330105">
<ele>1455.0</ele>
<desc>Speed 42.2 km/h Distance 17.85 km</desc>
<time>2013-07-07T18:13:34.68</time>
<name>1549</name>
<sym>Dot</sym>
</trkpt>
<trkpt lat="42.861313" lon="-2.330252">
<ele>1455.0</ele>
<desc>Speed 44.1 km/h Distance 17.86 km</desc>
<time>2013-07-07T18:13:35.68</time>
<name>1550</name>
<sym>Dot</sym>
</trkpt>
<trkpt lat="42.861253" lon="-2.330580">
<ele>1450.0</ele>
<desc>Speed 47.7 km/h Distance 17.89 km</desc>
<time>2013-07-07T18:13:37.67</time>
<name>1551</name>
<sym>Dot</sym>
</trkpt>
<trkpt lat="42.861222" lon="-2.330728">
<ele>1448.0</ele>
<desc>Speed 45.5 km/h Distance 17.90 km</desc>
<time>2013-07-07T18:13:38.66</time>
<name>1552</name>
<sym>Dot</sym>
</trkpt>
<trkpt lat="42.861187" lon="-2.330857">
<ele>1447.5</ele>
<desc>Speed 41.2 km/h Distance 17.91 km</desc>
<time>2013-07-07T18:13:39.66</time>
<name>1553</name>
<sym>Dot</sym>
</trkpt>
<trkpt lat="42.861153" lon="-2.330980">
<ele>1445.0</ele>
<desc>Speed 38.8 km/h Distance 17.92 km</desc>
<time>2013-07-07T18:13:40.65</time>
<name>1554</name>
<sym>Dot</sym>
</trkpt>
<trkpt lat="42.861108" lon="-2.331108">
<ele>1444.5</ele>
<desc>Speed 42.2 km/h Distance 17.93 km</desc>
<time>2013-07-07T18:13:41.64</time>
<name>1555</name>
<sym>Dot</sym>
</trkpt>
<trkpt lat="42.861062" lon="-2.331245">
<ele>1443.5</ele>
<desc>Speed 44.3 km/h Distance 17.95 km</desc>
<time>2013-07-07T18:13:42.62</time>
<name>1556</name>
<sym>Dot</sym>
</trkpt>
<trkpt lat="42.861022" lon="-2.331383">
<ele>1443.5</ele>
<desc>Speed 44.0 km/h Distance 17.96 km</desc>
<time>2013-07-07T18:13:43.61</time>
<name>1557</name>
<sym>Dot</sym>
</trkpt>
<trkpt lat="42.860985" lon="-2.331528">
<ele>1443.0</ele>
<desc>Speed 44.8 km/h Distance 17.97 km</desc>
<time>2013-07-07T18:13:44.62</time>
<name>1558</name>
<sym>Dot</sym>
</trkpt>
<trkpt lat="42.860942" lon="-2.331683">
<ele>1442.5</ele>
<desc>Speed 48.2 km/h Distance 17.98 km</desc>
<time>2013-07-07T18:13:45.60</time>
<name>1559</name>
<sym>Dot</sym>
</trkpt>
<trkpt lat="42.860915" lon="-2.331822">
<ele>1440.0</ele>
<desc>Speed 41.3 km/h Distance 18.00 km</desc>
<time>2013-07-07T18:13:46.60</time>
<name>1560</name>
<sym>Dot</sym>
</trkpt>
<trkpt lat="42.860872" lon="-2.331947">
<ele>1439.0</ele>
<desc>Speed 40.8 km/h Distance 18.01 km</desc>
<time>2013-07-07T18:13:47.59</time>
<name>1561</name>
<sym>Dot</sym>
</trkpt>
<trkpt lat="42.860833" lon="-2.332080">
<ele>1438.0</ele>
<desc>Speed 43.1 km/h Distance 18.02 km</desc>
<time>2013-07-07T18:13:48.59</time>
<name>1562</name>
<sym>Dot</sym>
</trkpt>
<trkpt lat="42.860790" lon="-2.332208">
<ele>1436.5</ele>
<desc>Speed 41.9 km/h Distance 18.03 km</desc>
<time>2013-07-07T18:13:49.58</time>
<name>1563</name>
<sym>Dot</sym>
</trkpt>
<trkpt lat="42.860765" lon="-2.332365">
<ele>1435.5</ele>
<desc>Speed 45.4 km/h Distance 18.04 km</desc>
<time>2013-07-07T18:13:50.58</time>
<name>1564</name>
<sym>Dot</sym>
</trkpt>
<trkpt lat="42.860768" lon="-2.332512">
<ele>1432.5</ele>
<desc>Speed 44.1 km/h Distance 18.05 km</desc>
<time>2013-07-07T18:13:51.57</time>
<name>1565</name>
<sym>Dot</sym>
</trkpt>
<trkpt lat="42.860813" lon="-2.332638">
<ele>1431.0</ele>
<desc>Speed 41.0 km/h Distance 18.07 km</desc>
<time>2013-07-07T18:13:52.56</time>
<name>1566</name>
<sym>Dot</sym>
</trkpt>
<trkpt lat="42.860863" lon="-2.332755">
<ele>1429.5</ele>
<desc>Speed 37.9 km/h Distance 18.08 km</desc>
<time>2013-07-07T18:13:53.54</time>
<name>1567</name>
<sym>Dot</sym>
</trkpt>
<trkpt lat="42.860917" lon="-2.332863">
<ele>1429.0</ele>
<desc>Speed 36.5 km/h Distance 18.09 km</desc>
<time>2013-07-07T18:13:54.54</time>
<name>1568</name>
<sym>Dot</sym>
</trkpt>
<trkpt lat="42.860978" lon="-2.332962">
<ele>1427.0</ele>
<desc>Speed 34.5 km/h Distance 18.10 km</desc>
<time>2013-07-07T18:13:55.53</time>
<name>1569</name>
<sym>Dot</sym>
</trkpt>
<trkpt lat="42.861047" lon="-2.333035">
<ele>1425.0</ele>
<desc>Speed 33.0 km/h Distance 18.11 km</desc>
<time>2013-07-07T18:13:56.53</time>
<name>1570</name>
<sym>Dot</sym>
</trkpt>
<trkpt lat="42.861112" lon="-2.333097">
<ele>1425.0</ele>
<desc>Speed 31.5 km/h Distance 18.12 km</desc>
<time>2013-07-07T18:13:57.68</time>
<name>1571</name>
<sym>Dot</sym>
</trkpt>
<trkpt lat="42.861188" lon="-2.333135">
<ele>1425.0</ele>
<desc>Speed 33.4 km/h Distance 18.13 km</desc>
<time>2013-07-07T18:13:58.62</time>
<name>1572</name>
<sym>Dot</sym>
</trkpt>
<trkpt lat="42.861265" lon="-2.333138">
<ele>1423.0</ele>
<desc>Speed 30.2 km/h Distance 18.13 km</desc>
<time>2013-07-07T18:13:59.50</time>
<name>1573</name>
<sym>Dot</sym>
</trkpt>
<trkpt lat="42.861335" lon="-2.333107">
<ele>1422.5</ele>
<desc>Speed 28.5 km/h Distance 18.14 km</desc>
<time>2013-07-07T18:14:00.50</time>
<name>1574</name>
<sym>Dot</sym>
</trkpt>
<trkpt lat="42.861390" lon="-2.333058">
<ele>1422.5</ele>
<desc>Speed 24.4 km/h Distance 18.15 km</desc>
<time>2013-07-07T18:14:01.49</time>
<name>1575</name>
<sym>Dot</sym>
</trkpt>
<trkpt lat="42.861412" lon="-2.332997">
<ele>1422.0</ele>
<desc>Speed 19.2 km/h Distance 18.16 km</desc>
<time>2013-07-07T18:14:02.49</time>
<name>1576</name>
<sym>Dot</sym>
</trkpt>
<trkpt lat="42.861442" lon="-2.332790">
<ele>1420.5</ele>
<desc>Speed 32.0 km/h Distance 18.17 km</desc>
<time>2013-07-07T18:14:04.48</time>
<name>1577</name>
<sym>Dot</sym>
</trkpt>
<trkpt lat="42.861455" lon="-2.332678">
<ele>1420.5</ele>
<desc>Speed 32.7 km/h Distance 18.18 km</desc>
<time>2013-07-07T18:14:05.47</time>
<name>1578</name>
<sym>Dot</sym>
</trkpt>
<trkpt lat="42.861453" lon="-2.332560">
<ele>1420.5</ele>
<desc>Speed 34.6 km/h Distance 18.19 km</desc>
<time>2013-07-07T18:14:06.46</time>
<name>1579</name>
<sym>Dot</sym>
</trkpt>
<trkpt lat="42.861457" lon="-2.332442">
<ele>1418.5</ele>
<desc>Speed 34.1 km/h Distance 18.20 km</desc>
<time>2013-07-07T18:14:07.50</time>
<name>1580</name>
<sym>Dot</sym>
</trkpt>
<trkpt lat="42.861460" lon="-2.332323">
<ele>1416.5</ele>
<desc>Speed 34.2 km/h Distance 18.21 km</desc>
<time>2013-07-07T18:14:08.46</time>
<name>1581</name>
<sym>Dot</sym>
</trkpt>
<trkpt lat="42.861460" lon="-2.332202">
<ele>1414.5</ele>
<desc>Speed 34.9 km/h Distance 18.22 km</desc>
<time>2013-07-07T18:14:09.45</time>
<name>1582</name>
<sym>Dot</sym>
</trkpt>
<trkpt lat="42.861458" lon="-2.332080">
<ele>1414.0</ele>
<desc>Speed 34.4 km/h Distance 18.23 km</desc>
<time>2013-07-07T18:14:10.45</time>
<name>1583</name>
<sym>Dot</sym>
</trkpt>
<trkpt lat="42.861453" lon="-2.331960">
<ele>1413.5</ele>
<desc>Speed 34.2 km/h Distance 18.24 km</desc>
<time>2013-07-07T18:14:11.44</time>
<name>1584</name>
<sym>Dot</sym>
</trkpt>
<trkpt lat="42.861443" lon="-2.331842">
<ele>1413.5</ele>
<desc>Speed 35.0 km/h Distance 18.25 km</desc>
<time>2013-07-07T18:14:12.43</time>
<name>1585</name>
<sym>Dot</sym>
</trkpt>
<trkpt lat="42.861427" lon="-2.331718">
<ele>1413.0</ele>
<desc>Speed 36.4 km/h Distance 18.26 km</desc>
<time>2013-07-07T18:14:13.43</time>
<name>1586</name>
<sym>Dot</sym>
</trkpt>
<trkpt lat="42.861400" lon="-2.331602">
<ele>1412.5</ele>
<desc>Speed 36.6 km/h Distance 18.27 km</desc>
<time>2013-07-07T18:14:14.42</time>
<name>1587</name>
<sym>Dot</sym>
</trkpt>
<trkpt lat="42.861373" lon="-2.331465">
<ele>1410.5</ele>
<desc>Speed 41.6 km/h Distance 18.28 km</desc>
<time>2013-07-07T18:14:15.41</time>
<name>1588</name>
<sym>Dot</sym>
</trkpt>
<trkpt lat="42.861347" lon="-2.331322">
<ele>1407.0</ele>
<desc>Speed 44.1 km/h Distance 18.29 km</desc>
<time>2013-07-07T18:14:16.40</time>
<name>1589</name>
<sym>Dot</sym>
</trkpt>
<trkpt lat="42.861322" lon="-2.331165">
<ele>1405.5</ele>
<desc>Speed 45.2 km/h Distance 18.31 km</desc>
<time>2013-07-07T18:14:17.40</time>
<name>1590</name>
<sym>Dot</sym>
</trkpt>
<trkpt lat="42.861302" lon="-2.331017">
<ele>1402.5</ele>
<desc>Speed 41.1 km/h Distance 18.32 km</desc>
<time>2013-07-07T18:14:18.39</time>
<name>1591</name>
<sym>Dot</sym>
</trkpt>
<trkpt lat="42.861292" lon="-2.330872">
<ele>1397.5</ele>
<desc>Speed 38.5 km/h Distance 18.33 km</desc>
<time>2013-07-07T18:14:19.38</time>
<name>1592</name>
<sym>Dot</sym>
</trkpt>
<trkpt lat="42.861280" lon="-2.330745">
<ele>1393.5</ele>
<desc>Speed 36.4 km/h Distance 18.34 km</desc>
<time>2013-07-07T18:14:20.38</time>
<name>1593</name>
<sym>Dot</sym>
</trkpt>
<trkpt lat="42.861268" lon="-2.330627">
<ele>1389.5</ele>
<desc>Speed 35.4 km/h Distance 18.35 km</desc>
<time>2013-07-07T18:14:21.37</time>
<name>1594</name>
<sym>Dot</sym>
</trkpt>
<trkpt lat="42.861247" lon="-2.330517">
<ele>1388.0</ele>
<desc>Speed 34.1 km/h Distance 18.36 km</desc>
<time>2013-07-07T18:14:22.36</time>
<name>1595</name>
<sym>Dot</sym>
</trkpt>
<trkpt lat="42.861228" lon="-2.330412">
<ele>1387.5</ele>
<desc>Speed 31.9 km/h Distance 18.37 km</desc>
<time>2013-07-07T18:14:23.35</time>
<name>1596</name>
<sym>Dot</sym>
</trkpt>
<trkpt lat="42.861207" lon="-2.330305">
<ele>1386.5</ele>
<desc>Speed 31.9 km/h Distance 18.38 km</desc>
<time>2013-07-07T18:14:24.35</time>
<name>1597</name>
<sym>Dot</sym>
</trkpt>
<trkpt lat="42.861177" lon="-2.330202">
<ele>1386.0</ele>
<desc>Speed 32.8 km/h Distance 18.39 km</desc>
<time>2013-07-07T18:14:25.35</time>
<name>1598</name>
<sym>Dot</sym>
</trkpt>
<trkpt lat="42.861145" lon="-2.330093">
<ele>1385.5</ele>
<desc>Speed 34.6 km/h Distance 18.40 km</desc>
<time>2013-07-07T18:14:26.34</time>
<name>1599</name>
<sym>Dot</sym>
</trkpt>
<trkpt lat="42.861100" lon="-2.329823">
<ele>1383.0</ele>
<desc>Speed 41.7 km/h Distance 18.42 km</desc>
<time>2013-07-07T18:14:28.34</time>
<name>1600</name>
<sym>Dot</sym>
</trkpt>
<trkpt lat="42.861082" lon="-2.329688">
<ele>1381.0</ele>
<desc>Speed 40.6 km/h Distance 18.43 km</desc>
<time>2013-07-07T18:14:29.33</time>
<name>1601</name>
<sym>Dot</sym>
</trkpt>
<trkpt lat="42.861067" lon="-2.329562">
<ele>1379.0</ele>
<desc>Speed 38.4 km/h Distance 18.44 km</desc>
<time>2013-07-07T18:14:30.31</time>
<name>1602</name>
<sym>Dot</sym>
</trkpt>
<trkpt lat="42.861048" lon="-2.329450">
<ele>1378.0</ele>
<desc>Speed 34.6 km/h Distance 18.45 km</desc>
<time>2013-07-07T18:14:31.31</time>
<name>1603</name>
<sym>Dot</sym>
</trkpt>
<trkpt lat="42.861032" lon="-2.329340">
<ele>1377.0</ele>
<desc>Speed 33.5 km/h Distance 18.46 km</desc>
<time>2013-07-07T18:14:32.30</time>
<name>1604</name>
<sym>Dot</sym>
</trkpt>
<trkpt lat="42.861008" lon="-2.329242">
<ele>1376.5</ele>
<desc>Speed 30.6 km/h Distance 18.47 km</desc>
<time>2013-07-07T18:14:33.29</time>
<name>1605</name>
<sym>Dot</sym>
</trkpt>
<trkpt lat="42.860990" lon="-2.328957">
<ele>1371.5</ele>
<desc>Speed 41.1 km/h Distance 18.49 km</desc>
<time>2013-07-07T18:14:35.29</time>
<name>1606</name>
<sym>Dot</sym>
</trkpt>
<trkpt lat="42.860982" lon="-2.328802">
<ele>1365.0</ele>
<desc>Speed 41.3 km/h Distance 18.50 km</desc>
<time>2013-07-07T18:14:36.28</time>
<name>1607</name>
<sym>Dot</sym>
</trkpt>
<trkpt lat="42.860960" lon="-2.328578">
<ele>1363.0</ele>
<desc>Speed 33.0 km/h Distance 18.52 km</desc>
<time>2013-07-07T18:14:38.27</time>
<name>1608</name>
<sym>Dot</sym>
</trkpt>
<trkpt lat="42.860953" lon="-2.328480">
<ele>1360.5</ele>
<desc>Speed 26.9 km/h Distance 18.53 km</desc>
<time>2013-07-07T18:14:39.25</time>
<name>1609</name>
<sym>Dot</sym>
</trkpt>
<trkpt lat="42.860952" lon="-2.328393">
<ele>1356.5</ele>
<desc>Speed 23.9 km/h Distance 18.54 km</desc>
<time>2013-07-07T18:14:40.25</time>
<name>1610</name>
<sym>Dot</sym>
</trkpt>
<trkpt lat="42.860945" lon="-2.328317">
<ele>1353.5</ele>
<desc>Speed 24.2 km/h Distance 18.54 km</desc>
<time>2013-07-07T18:14:41.25</time>
<name>1611</name>
<sym>Dot</sym>
</trkpt>
<trkpt lat="42.860942" lon="-2.328083">
<ele>1351.5</ele>
<desc>Speed 35.6 km/h Distance 18.56 km</desc>
<time>2013-07-07T18:14:43.24</time>
<name>1612</name>
<sym>Dot</sym>
</trkpt>
<trkpt lat="42.860942" lon="-2.327953">
<ele>1347.5</ele>
<desc>Speed 37.7 km/h Distance 18.57 km</desc>
<time>2013-07-07T18:14:44.24</time>
<name>1613</name>
<sym>Dot</sym>
</trkpt>
<trkpt lat="42.860932" lon="-2.327837">
<ele>1345.0</ele>
<desc>Speed 36.3 km/h Distance 18.58 km</desc>
<time>2013-07-07T18:14:45.23</time>
<name>1614</name>
<sym>Dot</sym>
</trkpt>
<trkpt lat="42.860918" lon="-2.327725">
<ele>1343.0</ele>
<desc>Speed 34.4 km/h Distance 18.59 km</desc>
<time>2013-07-07T18:14:46.21</time>
<name>1615</name>
<sym>Dot</sym>
</trkpt>
<trkpt lat="42.860900" lon="-2.327618">
<ele>1341.5</ele>
<desc>Speed 32.8 km/h Distance 18.60 km</desc>
<time>2013-07-07T18:14:47.20</time>
<name>1616</name>
<sym>Dot</sym>
</trkpt>
<trkpt lat="42.860880" lon="-2.327515">
<ele>1340.0</ele>
<desc>Speed 32.4 km/h Distance 18.61 km</desc>
<time>2013-07-07T18:14:48.20</time>
<name>1617</name>
<sym>Dot</sym>
</trkpt>
<trkpt lat="42.860863" lon="-2.327407">
<ele>1338.0</ele>
<desc>Speed 33.4 km/h Distance 18.62 km</desc>
<time>2013-07-07T18:14:49.21</time>
<name>1618</name>
<sym>Dot</sym>
</trkpt>
<trkpt lat="42.860863" lon="-2.327295">
<ele>1338.0</ele>
<desc>Speed 33.3 km/h Distance 18.63 km</desc>
<time>2013-07-07T18:14:50.20</time>
<name>1619</name>
<sym>Dot</sym>
</trkpt>
<trkpt lat="42.860867" lon="-2.327188">
<ele>1337.5</ele>
<desc>Speed 31.9 km/h Distance 18.64 km</desc>
<time>2013-07-07T18:14:51.19</time>
<name>1620</name>
<sym>Dot</sym>
</trkpt>
<trkpt lat="42.860867" lon="-2.327085">
<ele>1336.5</ele>
<desc>Speed 30.1 km/h Distance 18.65 km</desc>
<time>2013-07-07T18:14:52.18</time>
<name>1621</name>
<sym>Dot</sym>
</trkpt>
<trkpt lat="42.860870" lon="-2.326978">
<ele>1334.0</ele>
<desc>Speed 31.7 km/h Distance 18.65 km</desc>
<time>2013-07-07T18:14:53.17</time>
<name>1622</name>
<sym>Dot</sym>
</trkpt>
<trkpt lat="42.860860" lon="-2.326868">
<ele>1333.0</ele>
<desc>Speed 33.7 km/h Distance 18.66 km</desc>
<time>2013-07-07T18:14:54.16</time>
<name>1623</name>
<sym>Dot</sym>
</trkpt>
<trkpt lat="42.860855" lon="-2.326753">
<ele>1331.5</ele>
<desc>Speed 33.2 km/h Distance 18.67 km</desc>
<time>2013-07-07T18:14:55.16</time>
<name>1624</name>
<sym>Dot</sym>
</trkpt>
<trkpt lat="42.860852" lon="-2.326640">
<ele>1330.0</ele>
<desc>Speed 33.0 km/h Distance 18.68 km</desc>
<time>2013-07-07T18:14:56.15</time>
<name>1625</name>
<sym>Dot</sym>
</trkpt>
<trkpt lat="42.860853" lon="-2.326523">
<ele>1328.5</ele>
<desc>Speed 32.0 km/h Distance 18.69 km</desc>
<time>2013-07-07T18:14:57.14</time>
<name>1626</name>
<sym>Dot</sym>
</trkpt>
<trkpt lat="42.860865" lon="-2.326413">
<ele>1326.5</ele>
<desc>Speed 32.3 km/h Distance 18.70 km</desc>
<time>2013-07-07T18:14:58.13</time>
<name>1627</name>
<sym>Dot</sym>
</trkpt>
<trkpt lat="42.860878" lon="-2.326298">
<ele>1324.5</ele>
<desc>Speed 34.7 km/h Distance 18.71 km</desc>
<time>2013-07-07T18:14:59.11</time>
<name>1628</name>
<sym>Dot</sym>
</trkpt>
<trkpt lat="42.860893" lon="-2.326172">
<ele>1323.0</ele>
<desc>Speed 39.0 km/h Distance 18.72 km</desc>
<time>2013-07-07T18:15:00.12</time>
<name>1629</name>
<sym>Dot</sym>
</trkpt>
<trkpt lat="42.860903" lon="-2.326037">
<ele>1322.0</ele>
<desc>Speed 40.9 km/h Distance 18.73 km</desc>
<time>2013-07-07T18:15:01.10</time>
<name>1630</name>
<sym>Dot</sym>
</trkpt>
<trkpt lat="42.860905" lon="-2.325828">
<ele>1322.0</ele>
<desc>Speed 28.1 km/h Distance 18.75 km</desc>
<time>2013-07-07T18:15:03.09</time>
<name>1631</name>
<sym>Dot</sym>
</trkpt>
<trkpt lat="42.860920" lon="-2.325737">
<ele>1321.5</ele>
<desc>Speed 27.8 km/h Distance 18.76 km</desc>
<time>2013-07-07T18:15:04.08</time>
<name>1632</name>
<sym>Dot</sym>
</trkpt>
<trkpt lat="42.860923" lon="-2.325628">
<ele>1321.0</ele>
<desc>Speed 32.5 km/h Distance 18.77 km</desc>
<time>2013-07-07T18:15:05.08</time>
<name>1633</name>
<sym>Dot</sym>
</trkpt>
<trkpt lat="42.860947" lon="-2.325508">
<ele>1321.0</ele>
<desc>Speed 36.5 km/h Distance 18.78 km</desc>
<time>2013-07-07T18:15:06.08</time>
<name>1634</name>
<sym>Dot</sym>
</trkpt>
<trkpt lat="42.860958" lon="-2.325383">
<ele>1318.5</ele>
<desc>Speed 36.9 km/h Distance 18.79 km</desc>
<time>2013-07-07T18:15:07.06</time>
<name>1635</name>
<sym>Dot</sym>
</trkpt>
<trkpt lat="42.860970" lon="-2.325085">
<ele>1315.0</ele>
<desc>Speed 43.4 km/h Distance 18.81 km</desc>
<time>2013-07-07T18:15:09.06</time>
<name>1636</name>
<sym>Dot</sym>
</trkpt>
<trkpt lat="42.860990" lon="-2.324847">
<ele>1313.0</ele>
<desc>Speed 34.6 km/h Distance 18.83 km</desc>
<time>2013-07-07T18:15:11.05</time>
<name>1637</name>
<sym>Dot</sym>
</trkpt>
<trkpt lat="42.861005" lon="-2.324737">
<ele>1310.5</ele>
<desc>Speed 32.9 km/h Distance 18.84 km</desc>
<time>2013-07-07T18:15:12.03</time>
<name>1638</name>
<sym>Dot</sym>
</trkpt>
<trkpt lat="42.861023" lon="-2.324623">
<ele>1310.0</ele>
<desc>Speed 33.9 km/h Distance 18.85 km</desc>
<time>2013-07-07T18:15:13.03</time>
<name>1639</name>
<sym>Dot</sym>
</trkpt>
<trkpt lat="42.861023" lon="-2.324515">
<ele>1308.5</ele>
<desc>Speed 34.0 km/h Distance 18.86 km</desc>
<time>2013-07-07T18:15:14.02</time>
<name>1640</name>
<sym>Dot</sym>
</trkpt>
<trkpt lat="42.861033" lon="-2.324383">
<ele>1307.0</ele>
<desc>Speed 39.1 km/h Distance 18.87 km</desc>
<time>2013-07-07T18:15:15.01</time>
<name>1641</name>
<sym>Dot</sym>
</trkpt>
<trkpt lat="42.861042" lon="-2.324250">
<ele>1300.0</ele>
<desc>Speed 42.4 km/h Distance 18.88 km</desc>
<time>2013-07-07T18:15:16.01</time>
<name>1642</name>
<sym>Dot</sym>
</trkpt>
<trkpt lat="42.861035" lon="-2.324100">
<ele>1299.0</ele>
<desc>Speed 43.7 km/h Distance 18.89 km</desc>
<time>2013-07-07T18:15:17.00</time>
<name>1643</name>
<sym>Dot</sym>
</trkpt>
<trkpt lat="42.861025" lon="-2.323957">
<ele>1297.5</ele>
<desc>Speed 41.7 km/h Distance 18.90 km</desc>
<time>2013-07-07T18:15:18.00</time>
<name>1644</name>
<sym>Dot</sym>
</trkpt>
<trkpt lat="42.861015" lon="-2.323825">
<ele>1297.0</ele>
<desc>Speed 38.8 km/h Distance 18.91 km</desc>
<time>2013-07-07T18:15:18.99</time>
<name>1645</name>
<sym>Dot</sym>
</trkpt>
<trkpt lat="42.861012" lon="-2.323703">
<ele>1294.5</ele>
<desc>Speed 36.3 km/h Distance 18.92 km</desc>
<time>2013-07-07T18:15:19.98</time>
<name>1646</name>
<sym>Dot</sym>
</trkpt>
<trkpt lat="42.861015" lon="-2.323575">
<ele>1294.5</ele>
<desc>Speed 37.8 km/h Distance 18.93 km</desc>
<time>2013-07-07T18:15:20.97</time>
<name>1647</name>
<sym>Dot</sym>
</trkpt>
<trkpt lat="42.861028" lon="-2.323458">
<ele>1292.5</ele>
<desc>Speed 35.0 km/h Distance 18.94 km</desc>
<time>2013-07-07T18:15:21.96</time>
<name>1648</name>
<sym>Dot</sym>
</trkpt>
<trkpt lat="42.861067" lon="-2.323347">
<ele>1291.5</ele>
<desc>Speed 35.9 km/h Distance 18.95 km</desc>
<time>2013-07-07T18:15:22.96</time>
<name>1649</name>
<sym>Dot</sym>
</trkpt>
<trkpt lat="42.861098" lon="-2.323250">
<ele>1291.5</ele>
<desc>Speed 31.6 km/h Distance 18.96 km</desc>
<time>2013-07-07T18:15:23.95</time>
<name>1650</name>
<sym>Dot</sym>
</trkpt>
<trkpt lat="42.861142" lon="-2.323158">
<ele>1289.0</ele>
<desc>Speed 31.9 km/h Distance 18.97 km</desc>
<time>2013-07-07T18:15:24.93</time>
<name>1651</name>
<sym>Dot</sym>
</trkpt>
<trkpt lat="42.861190" lon="-2.323075">
<ele>1286.5</ele>
<desc>Speed 32.0 km/h Distance 18.98 km</desc>
<time>2013-07-07T18:15:25.93</time>
<name>1652</name>
<sym>Dot</sym>
</trkpt>
<trkpt lat="42.861245" lon="-2.323005">
<ele>1281.0</ele>
<desc>Speed 29.5 km/h Distance 18.99 km</desc>
<time>2013-07-07T18:15:26.93</time>
<name>1653</name>
<sym>Dot</sym>
</trkpt>
<trkpt lat="42.861313" lon="-2.322943">
<ele>1276.5</ele>
<desc>Speed 29.8 km/h Distance 19.00 km</desc>
<time>2013-07-07T18:15:27.92</time>
<name>1654</name>
<sym>Dot</sym>
</trkpt>
<trkpt lat="42.861378" lon="-2.322893">
<ele>1276.0</ele>
<desc>Speed 29.2 km/h Distance 19.01 km</desc>
<time>2013-07-07T18:15:28.91</time>
<name>1655</name>
<sym>Dot</sym>
</trkpt>
<trkpt lat="42.861447" lon="-2.322863">
<ele>1274.5</ele>
<desc>Speed 27.6 km/h Distance 19.01 km</desc>
<time>2013-07-07T18:15:29.90</time>
<name>1656</name>
<sym>Dot</sym>
</trkpt>
<trkpt lat="42.861517" lon="-2.322843">
<ele>1272.0</ele>
<desc>Speed 27.3 km/h Distance 19.02 km</desc>
<time>2013-07-07T18:15:30.89</time>
<name>1657</name>
<sym>Dot</sym>
</trkpt>
<trkpt lat="42.861582" lon="-2.322823">
<ele>1269.5</ele>
<desc>Speed 25.7 km/h Distance 19.03 km</desc>
<time>2013-07-07T18:15:31.88</time>
<name>1658</name>
<sym>Dot</sym>
</trkpt>
<trkpt lat="42.861638" lon="-2.322810">
<ele>1268.5</ele>
<desc>Speed 21.7 km/h Distance 19.04 km</desc>
<time>2013-07-07T18:15:32.88</time>
<name>1659</name>
<sym>Dot</sym>
</trkpt>
<trkpt lat="42.861695" lon="-2.322787">
<ele>1266.0</ele>
<desc>Speed 22.1 km/h Distance 19.04 km</desc>
<time>2013-07-07T18:15:33.86</time>
<name>1660</name>
<sym>Dot</sym>
</trkpt>
<trkpt lat="42.861752" lon="-2.322763">
<ele>1265.5</ele>
<desc>Speed 23.0 km/h Distance 19.05 km</desc>
<time>2013-07-07T18:15:34.85</time>
<name>1661</name>
<sym>Dot</sym>
</trkpt>
<trkpt lat="42.861907" lon="-2.322672">
<ele>1261.5</ele>
<desc>Speed 36.5 km/h Distance 19.07 km</desc>
<time>2013-07-07T18:15:36.85</time>
<name>1662</name>
<sym>Dot</sym>
</trkpt>
<trkpt lat="42.861987" lon="-2.322598">
<ele>1259.0</ele>
<desc>Speed 39.0 km/h Distance 19.08 km</desc>
<time>2013-07-07T18:15:37.84</time>
<name>1663</name>
<sym>Dot</sym>
</trkpt>
<trkpt lat="42.862038" lon="-2.322480">
<ele>1255.5</ele>
<desc>Speed 38.2 km/h Distance 19.09 km</desc>
<time>2013-07-07T18:15:38.83</time>
<name>1664</name>
<sym>Dot</sym>
</trkpt>
<trkpt lat="42.862060" lon="-2.322342">
<ele>1253.5</ele>
<desc>Speed 38.3 km/h Distance 19.10 km</desc>
<time>2013-07-07T18:15:39.84</time>
<name>1665</name>
<sym>Dot</sym>
</trkpt>
<trkpt lat="42.862030" lon="-2.322217">
<ele>1253.0</ele>
<desc>Speed 38.4 km/h Distance 19.11 km</desc>
<time>2013-07-07T18:15:40.83</time>
<name>1666</name>
<sym>Dot</sym>
</trkpt>
<trkpt lat="42.861702" lon="-2.321947">
<ele>1254.5</ele>
<desc>Speed 54.2 km/h Distance 19.15 km</desc>
<time>2013-07-07T18:15:45.69</time>
<name>1667</name>
<sym>Dot</sym>
</trkpt>
<trkpt lat="42.861500" lon="-2.321820">
<ele>1254.5</ele>
<desc>Speed 42.4 km/h Distance 19.18 km</desc>
<time>2013-07-07T18:15:47.68</time>
<name>1668</name>
<sym>Dot</sym>
</trkpt>
<trkpt lat="42.861418" lon="-2.321743">
<ele>1254.0</ele>
<desc>Speed 39.9 km/h Distance 19.19 km</desc>
<time>2013-07-07T18:15:48.67</time>
<name>1669</name>
<sym>Dot</sym>
</trkpt>
<trkpt lat="42.861350" lon="-2.321653">
<ele>1254.0</ele>
<desc>Speed 37.9 km/h Distance 19.20 km</desc>
<time>2013-07-07T18:15:49.66</time>
<name>1670</name>
<sym>Dot</sym>
</trkpt>
<trkpt lat="42.861283" lon="-2.321545">
<ele>1252.0</ele>
<desc>Speed 41.4 km/h Distance 19.21 km</desc>
<time>2013-07-07T18:15:50.66</time>
<name>1671</name>
<sym>Dot</sym>
</trkpt>
<trkpt lat="42.861215" lon="-2.321453">
<ele>1253.0</ele>
<desc>Speed 38.4 km/h Distance 19.22 km</desc>
<time>2013-07-07T18:15:51.65</time>
<name>1672</name>
<sym>Dot</sym>
</trkpt>
<trkpt lat="42.861118" lon="-2.321392">
<ele>1252.5</ele>
<desc>Speed 42.4 km/h Distance 19.24 km</desc>
<time>2013-07-07T18:15:52.64</time>
<name>1673</name>
<sym>Dot</sym>
</trkpt>
<trkpt lat="42.861015" lon="-2.321352">
<ele>1252.0</ele>
<desc>Speed 43.8 km/h Distance 19.25 km</desc>
<time>2013-07-07T18:15:53.64</time>
<name>1674</name>
<sym>Dot</sym>
</trkpt>
<trkpt lat="42.860913" lon="-2.321293">
<ele>1250.0</ele>
<desc>Speed 44.0 km/h Distance 19.26 km</desc>
<time>2013-07-07T18:15:54.63</time>
<name>1675</name>
<sym>Dot</sym>
</trkpt>
<trkpt lat="42.860835" lon="-2.321205">
<ele>1250.0</ele>
<desc>Speed 40.2 km/h Distance 19.27 km</desc>
<time>2013-07-07T18:15:55.62</time>
<name>1676</name>
<sym>Dot</sym>
</trkpt>
<trkpt lat="42.860765" lon="-2.321108">
<ele>1249.5</ele>
<desc>Speed 39.7 km/h Distance 19.28 km</desc>
<time>2013-07-07T18:15:56.62</time>
<name>1677</name>
<sym>Dot</sym>
</trkpt>
<trkpt lat="42.860717" lon="-2.320992">
<ele>1249.5</ele>
<desc>Speed 38.9 km/h Distance 19.29 km</desc>
<time>2013-07-07T18:15:57.61</time>
<name>1678</name>
<sym>Dot</sym>
</trkpt>
<trkpt lat="42.860697" lon="-2.320877">
<ele>1248.5</ele>
<desc>Speed 35.2 km/h Distance 19.30 km</desc>
<time>2013-07-07T18:15:58.60</time>
<name>1679</name>
<sym>Dot</sym>
</trkpt>
<trkpt lat="42.860748" lon="-2.320712">
<ele>1247.5</ele>
<desc>Speed 29.3 km/h Distance 19.32 km</desc>
<time>2013-07-07T18:16:00.60</time>
<name>1680</name>
<sym>Dot</sym>
</trkpt>
<trkpt lat="42.860818" lon="-2.320668">
<ele>1247.0</ele>
<desc>Speed 30.2 km/h Distance 19.33 km</desc>
<time>2013-07-07T18:16:01.59</time>
<name>1681</name>
<sym>Dot</sym>
</trkpt>
<trkpt lat="42.860882" lon="-2.320693">
<ele>1246.5</ele>
<desc>Speed 24.2 km/h Distance 19.33 km</desc>
<time>2013-07-07T18:16:02.58</time>
<name>1682</name>
<sym>Dot</sym>
</trkpt>
<trkpt lat="42.860937" lon="-2.320725">
<ele>1247.5</ele>
<desc>Speed 22.3 km/h Distance 19.34 km</desc>
<time>2013-07-07T18:16:03.58</time>
<name>1683</name>
<sym>Dot</sym>
</trkpt>
<trkpt lat="42.860980" lon="-2.320763">
<ele>1247.5</ele>
<desc>Speed 20.0 km/h Distance 19.35 km</desc>
<time>2013-07-07T18:16:04.57</time>
<name>1684</name>
<sym>Dot</sym>
</trkpt>
<trkpt lat="42.861015" lon="-2.320795">
<ele>1246.0</ele>
<desc>Speed 18.8 km/h Distance 19.35 km</desc>
<time>2013-07-07T18:16:05.56</time>
<name>1685</name>
<sym>Dot</sym>
</trkpt>
<trkpt lat="42.861057" lon="-2.320833">
<ele>1244.0</ele>
<desc>Speed 20.7 km/h Distance 19.36 km</desc>
<time>2013-07-07T18:16:06.56</time>
<name>1686</name>
<sym>Dot</sym>
</trkpt>
<trkpt lat="42.861102" lon="-2.320892">
<ele>1243.5</ele>
<desc>Speed 24.4 km/h Distance 19.36 km</desc>
<time>2013-07-07T18:16:07.55</time>
<name>1687</name>
<sym>Dot</sym>
</trkpt>
<trkpt lat="42.861133" lon="-2.320980">
<ele>1242.5</ele>
<desc>Speed 29.2 km/h Distance 19.37 km</desc>
<time>2013-07-07T18:16:08.55</time>
<name>1688</name>
<sym>Dot</sym>
</trkpt>
<trkpt lat="42.861130" lon="-2.321247">
<ele>1241.5</ele>
<desc>Speed 41.7 km/h Distance 19.39 km</desc>
<time>2013-07-07T18:16:10.54</time>
<name>1689</name>
<sym>Dot</sym>
</trkpt>
<trkpt lat="42.861093" lon="-2.321395">
<ele>1243.0</ele>
<desc>Speed 46.7 km/h Distance 19.40 km</desc>
<time>2013-07-07T18:16:11.52</time>
<name>1690</name>
<sym>Dot</sym>
</trkpt>
<trkpt lat="42.861073" lon="-2.321530">
<ele>1242.0</ele>
<desc>Speed 40.5 km/h Distance 19.42 km</desc>
<time>2013-07-07T18:16:12.51</time>
<name>1691</name>
<sym>Dot</sym>
</trkpt>
<trkpt lat="42.861092" lon="-2.321732">
<ele>1241.5</ele>
<desc>Speed 28.7 km/h Distance 19.43 km</desc>
<time>2013-07-07T18:16:14.51</time>
<name>1692</name>
<sym>Dot</sym>
</trkpt>
<trkpt lat="42.861130" lon="-2.321800">
<ele>1240.5</ele>
<desc>Speed 25.1 km/h Distance 19.44 km</desc>
<time>2013-07-07T18:16:15.49</time>
<name>1693</name>
<sym>Dot</sym>
</trkpt>
<trkpt lat="42.861208" lon="-2.321863">
<ele>1238.0</ele>
<desc>Speed 18.8 km/h Distance 19.45 km</desc>
<time>2013-07-07T18:16:17.48</time>
<name>1694</name>
<sym>Dot</sym>
</trkpt>
<trkpt lat="42.861250" lon="-2.321883">
<ele>1237.0</ele>
<desc>Speed 17.6 km/h Distance 19.45 km</desc>
<time>2013-07-07T18:16:18.49</time>
<name>1695</name>
<sym>Dot</sym>
</trkpt>
<trkpt lat="42.861292" lon="-2.321910">
<ele>1235.5</ele>
<desc>Speed 17.9 km/h Distance 19.46 km</desc>
<time>2013-07-07T18:16:19.47</time>
<name>1696</name>
<sym>Dot</sym>
</trkpt>
<trkpt lat="42.861333" lon="-2.321938">
<ele>1234.5</ele>
<desc>Speed 18.0 km/h Distance 19.47 km</desc>
<time>2013-07-07T18:16:20.47</time>
<name>1697</name>
<sym>Dot</sym>
</trkpt>
<trkpt lat="42.861372" lon="-2.321955">
<ele>1232.5</ele>
<desc>Speed 15.8 km/h Distance 19.47 km</desc>
<time>2013-07-07T18:16:21.47</time>
<name>1698</name>
<sym>Dot</sym>
</trkpt>
<trkpt lat="42.861415" lon="-2.321957">
<ele>1231.0</ele>
<desc>Speed 17.4 km/h Distance 19.47 km</desc>
<time>2013-07-07T18:16:22.46</time>
<name>1699</name>
<sym>Dot</sym>
</trkpt>
<trkpt lat="42.861452" lon="-2.321923">
<ele>1229.0</ele>
<desc>Speed 18.2 km/h Distance 19.48 km</desc>
<time>2013-07-07T18:16:23.46</time>
<name>1700</name>
<sym>Dot</sym>
</trkpt>
<trkpt lat="42.861467" lon="-2.321853">
<ele>1228.5</ele>
<desc>Speed 22.2 km/h Distance 19.49 km</desc>
<time>2013-07-07T18:16:24.44</time>
<name>1701</name>
<sym>Dot</sym>
</trkpt>
<trkpt lat="42.861493" lon="-2.321777">
<ele>1228.0</ele>
<desc>Speed 23.3 km/h Distance 19.49 km</desc>
<time>2013-07-07T18:16:25.44</time>
<name>1702</name>
<sym>Dot</sym>
</trkpt>
<trkpt lat="42.861503" lon="-2.321687">
<ele>1227.0</ele>
<desc>Speed 23.3 km/h Distance 19.50 km</desc>
<time>2013-07-07T18:16:26.42</time>
<name>1703</name>
<sym>Dot</sym>
</trkpt>
<trkpt lat="42.861377" lon="-2.321368">
<ele>1223.0</ele>
<desc>Speed 31.4 km/h Distance 19.53 km</desc>
<time>2013-07-07T18:16:29.56</time>
<name>1704</name>
<sym>Dot</sym>
</trkpt>
<trkpt lat="42.861332" lon="-2.321155">
<ele>1223.0</ele>
<desc>Speed 21.5 km/h Distance 19.55 km</desc>
<time>2013-07-07T18:16:31.56</time>
<name>1705</name>
<sym>Dot</sym>
</trkpt>
<trkpt lat="42.861343" lon="-2.321080">
<ele>1222.5</ele>
<desc>Speed 22.8 km/h Distance 19.55 km</desc>
<time>2013-07-07T18:16:32.55</time>
<name>1706</name>
<sym>Dot</sym>
</trkpt>
<trkpt lat="42.861593" lon="-2.321157">
<ele>1218.0</ele>
<desc>Speed 17.2 km/h Distance 19.58 km</desc>
<time>2013-07-07T18:16:35.55</time>
<name>1707</name>
<sym>Dot</sym>
</trkpt>
<trkpt lat="42.861653" lon="-2.321108">
<ele>1215.5</ele>
<desc>Speed 19.4 km/h Distance 19.59 km</desc>
<time>2013-07-07T18:16:37.53</time>
<name>1708</name>
<sym>Dot</sym>
</trkpt>
<trkpt lat="42.861700" lon="-2.321060">
<ele>1214.5</ele>
<desc>Speed 23.2 km/h Distance 19.60 km</desc>
<time>2013-07-07T18:16:38.53</time>
<name>1709</name>
<sym>Dot</sym>
</trkpt>
<trkpt lat="42.861732" lon="-2.320992">
<ele>1213.5</ele>
<desc>Speed 24.3 km/h Distance 19.60 km</desc>
<time>2013-07-07T18:16:39.53</time>
<name>1710</name>
<sym>Dot</sym>
</trkpt>
<trkpt lat="42.861775" lon="-2.320933">
<ele>1212.0</ele>
<desc>Speed 24.6 km/h Distance 19.61 km</desc>
<time>2013-07-07T18:16:40.51</time>
<name>1711</name>
<sym>Dot</sym>
</trkpt>
<trkpt lat="42.861860" lon="-2.320815">
<ele>1208.0</ele>
<desc>Speed 17.2 km/h Distance 19.62 km</desc>
<time>2013-07-07T18:16:42.51</time>
<name>1712</name>
<sym>Dot</sym>
</trkpt>
<trkpt lat="42.861895" lon="-2.320793">
<ele>1205.0</ele>
<desc>Speed 15.6 km/h Distance 19.63 km</desc>
<time>2013-07-07T18:16:43.50</time>
<name>1713</name>
<sym>Dot</sym>
</trkpt>
<trkpt lat="42.861935" lon="-2.320765">
<ele>1204.0</ele>
<desc>Speed 17.9 km/h Distance 19.63 km</desc>
<time>2013-07-07T18:16:44.50</time>
<name>1714</name>
<sym>Dot</sym>
</trkpt>
<trkpt lat="42.861980" lon="-2.320737">
<ele>1202.5</ele>
<desc>Speed 20.1 km/h Distance 19.64 km</desc>
<time>2013-07-07T18:16:45.49</time>
<name>1715</name>
<sym>Dot</sym>
</trkpt>
<trkpt lat="42.862087" lon="-2.320630">
<ele>1198.0</ele>
<desc>Speed 25.3 km/h Distance 19.65 km</desc>
<time>2013-07-07T18:16:47.48</time>
<name>1716</name>
<sym>Dot</sym>
</trkpt>
<trkpt lat="42.862135" lon="-2.320583">
<ele>1197.0</ele>
<desc>Speed 22.8 km/h Distance 19.66 km</desc>
<time>2013-07-07T18:16:48.47</time>
<name>1717</name>
<sym>Dot</sym>
</trkpt>
<trkpt lat="42.862253" lon="-2.320503">
<ele>1195.0</ele>
<desc>Speed 20.2 km/h Distance 19.67 km</desc>
<time>2013-07-07T18:16:50.48</time>
<name>1718</name>
<sym>Dot</sym>
</trkpt>
<trkpt lat="42.862307" lon="-2.320470">
<ele>1193.0</ele>
<desc>Speed 22.4 km/h Distance 19.68 km</desc>
<time>2013-07-07T18:16:51.46</time>
<name>1719</name>
<sym>Dot</sym>
</trkpt>
<trkpt lat="42.862347" lon="-2.320432">
<ele>1192.5</ele>
<desc>Speed 19.7 km/h Distance 19.69 km</desc>
<time>2013-07-07T18:16:52.45</time>
<name>1720</name>
<sym>Dot</sym>
</trkpt>
<trkpt lat="42.862383" lon="-2.320372">
<ele>1190.5</ele>
<desc>Speed 23.1 km/h Distance 19.69 km</desc>
<time>2013-07-07T18:16:53.44</time>
<name>1721</name>
<sym>Dot</sym>
</trkpt>
<trkpt lat="42.862420" lon="-2.320310">
<ele>1188.0</ele>
<desc>Speed 23.3 km/h Distance 19.70 km</desc>
<time>2013-07-07T18:16:54.44</time>
<name>1722</name>
<sym>Dot</sym>
</trkpt>
<trkpt lat="42.862463" lon="-2.320257">
<ele>1186.0</ele>
<desc>Speed 22.8 km/h Distance 19.71 km</desc>
<time>2013-07-07T18:16:55.43</time>
<name>1723</name>
<sym>Dot</sym>
</trkpt>
<trkpt lat="42.862522" lon="-2.320212">
<ele>1183.5</ele>
<desc>Speed 27.2 km/h Distance 19.71 km</desc>
<time>2013-07-07T18:16:56.42</time>
<name>1724</name>
<sym>Dot</sym>
</trkpt>
<trkpt lat="42.862570" lon="-2.320168">
<ele>1182.0</ele>
<desc>Speed 22.3 km/h Distance 19.72 km</desc>
<time>2013-07-07T18:16:57.41</time>
<name>1725</name>
<sym>Dot</sym>
</trkpt>
<trkpt lat="42.862610" lon="-2.320123">
<ele>1180.0</ele>
<desc>Speed 20.0 km/h Distance 19.73 km</desc>
<time>2013-07-07T18:16:58.40</time>
<name>1726</name>
<sym>Dot</sym>
</trkpt>
<trkpt lat="42.862648" lon="-2.320083">
<ele>1179.0</ele>
<desc>Speed 17.9 km/h Distance 19.73 km</desc>
<time>2013-07-07T18:16:59.39</time>
<name>1727</name>
<sym>Dot</sym>
</trkpt>
<trkpt lat="42.862635" lon="-2.320067">
<ele>1179.0</ele>
<desc>Speed 5.0 km/h Distance 19.73 km</desc>
<time>2013-07-07T18:17:02.48</time>
<name>1728</name>
<sym>Dot</sym>
</trkpt>
<trkpt lat="42.862640" lon="-2.320070">
<ele>1177.5</ele>
<desc>Speed 3.1 km/h Distance 19.73 km</desc>
<time>2013-07-07T18:17:03.47</time>
<name>1729</name>
<sym>Dot</sym>
</trkpt>
<trkpt lat="42.862640" lon="-2.320070">
<ele>1177.0</ele>
<desc>Speed 0.4 km/h Distance 19.73 km</desc>
<time>2013-07-07T18:17:04.46</time>
<name>1730</name>
<sym>Dot</sym>
</trkpt>
<trkpt lat="42.862640" lon="-2.320068">
<ele>1177.0</ele>
<desc>Speed 0.5 km/h Distance 19.73 km</desc>
<time>2013-07-07T18:17:05.45</time>
<name>1731</name>
<sym>Dot</sym>
</trkpt>
<trkpt lat="42.862640" lon="-2.320068">
<ele>1176.5</ele>
<desc>Speed 0.3 km/h Distance 19.73 km</desc>
<time>2013-07-07T18:17:06.45</time>
<name>1732</name>
<sym>Dot</sym>
</trkpt>
<trkpt lat="42.862640" lon="-2.320067">
<ele>1176.0</ele>
<desc>Speed 0.5 km/h Distance 19.73 km</desc>
<time>2013-07-07T18:17:07.43</time>
<name>1733</name>
<sym>Dot</sym>
</trkpt>
<trkpt lat="42.862638" lon="-2.320067">
<ele>1176.0</ele>
<desc>Speed 0.6 km/h Distance 19.73 km</desc>
<time>2013-07-07T18:17:08.42</time>
<name>1734</name>
<sym>Dot</sym>
</trkpt>
<trkpt lat="42.862640" lon="-2.320065">
<ele>1175.0</ele>
<desc>Speed 1.1 km/h Distance 19.73 km</desc>
<time>2013-07-07T18:17:09.41</time>
<name>1735</name>
<sym>Dot</sym>
</trkpt>
<trkpt lat="42.862642" lon="-2.320070">
<ele>1174.5</ele>
<desc>Speed 1.3 km/h Distance 19.73 km</desc>
<time>2013-07-07T18:17:10.40</time>
<name>1736</name>
<sym>Dot</sym>
</trkpt>
<trkpt lat="42.862643" lon="-2.320073">
<ele>1173.5</ele>
<desc>Speed 1.4 km/h Distance 19.73 km</desc>
<time>2013-07-07T18:17:11.39</time>
<name>1737</name>
<sym>Dot</sym>
</trkpt>
<trkpt lat="42.862647" lon="-2.320080">
<ele>1173.0</ele>
<desc>Speed 2.2 km/h Distance 19.74 km</desc>
<time>2013-07-07T18:17:12.38</time>
<name>1738</name>
<sym>Dot</sym>
</trkpt>
<trkpt lat="42.862648" lon="-2.320085">
<ele>1172.5</ele>
<desc>Speed 1.7 km/h Distance 19.74 km</desc>
<time>2013-07-07T18:17:13.38</time>
<name>1739</name>
<sym>Dot</sym>
</trkpt>
<trkpt lat="42.862655" lon="-2.320058">
<ele>1169.5</ele>
<desc>Speed 0.2 km/h Distance 19.74 km</desc>
<time>2013-07-07T18:17:14.37</time>
<name>1740</name>
<sym>Dot</sym>
</trkpt>
<trkpt lat="42.862655" lon="-2.320058">
<ele>1169.0</ele>
<desc>Speed 0.5 km/h Distance 19.74 km</desc>
<time>2013-07-07T18:17:15.36</time>
<name>1741</name>
<sym>Dot</sym>
</trkpt>
<trkpt lat="42.862655" lon="-2.320057">
<ele>1168.5</ele>
<desc>Speed 0.6 km/h Distance 19.74 km</desc>
<time>2013-07-07T18:17:16.35</time>
<name>1742</name>
<sym>Dot</sym>
</trkpt>
<trkpt lat="42.862655" lon="-2.320057">
<ele>1168.0</ele>
<desc>Speed 0.4 km/h Distance 19.74 km</desc>
<time>2013-07-07T18:17:17.34</time>
<name>1743</name>
<sym>Dot</sym>
</trkpt>
<trkpt lat="42.862655" lon="-2.320057">
<ele>1168.0</ele>
<desc>Speed 0.2 km/h Distance 19.74 km</desc>
<time>2013-07-07T18:17:18.33</time>
<name>1744</name>
<sym>Dot</sym>
</trkpt>
<trkpt lat="42.862655" lon="-2.320055">
<ele>1167.5</ele>
<desc>Speed 0.4 km/h Distance 19.74 km</desc>
<time>2013-07-07T18:17:19.32</time>
<name>1745</name>
<sym>Dot</sym>
</trkpt>
<trkpt lat="42.862655" lon="-2.320055">
<ele>1167.0</ele>
<desc>Speed 0.6 km/h Distance 19.74 km</desc>
<time>2013-07-07T18:17:20.31</time>
<name>1746</name>
<sym>Dot</sym>
</trkpt>
<trkpt lat="42.862657" lon="-2.320048">
<ele>1166.0</ele>
<desc>Speed 0.3 km/h Distance 19.74 km</desc>
<time>2013-07-07T18:17:21.30</time>
<name>1747</name>
<sym>Dot</sym>
</trkpt>
<trkpt lat="42.862657" lon="-2.320048">
<ele>1166.0</ele>
<desc>Speed 0.3 km/h Distance 19.74 km</desc>
<time>2013-07-07T18:17:22.30</time>
<name>1748</name>
<sym>Dot</sym>
</trkpt>
<trkpt lat="42.862657" lon="-2.320048">
<ele>1165.5</ele>
<desc>Speed 0.4 km/h Distance 19.74 km</desc>
<time>2013-07-07T18:17:23.29</time>
<name>1749</name>
<sym>Dot</sym>
</trkpt>
<trkpt lat="42.862658" lon="-2.320047">
<ele>1165.5</ele>
<desc>Speed 0.0 km/h Distance 19.74 km</desc>
<time>2013-07-07T18:17:24.28</time>
<name>1750</name>
<sym>Dot</sym>
</trkpt>
<trkpt lat="42.862658" lon="-2.320043">
<ele>1165.0</ele>
<desc>Speed 0.6 km/h Distance 19.74 km</desc>
<time>2013-07-07T18:17:25.27</time>
<name>1751</name>
<sym>Dot</sym>
</trkpt>
<trkpt lat="42.862658" lon="-2.320043">
<ele>1164.5</ele>
<desc>Speed 0.2 km/h Distance 19.74 km</desc>
<time>2013-07-07T18:17:26.27</time>
<name>1752</name>
<sym>Dot</sym>
</trkpt>
<trkpt lat="42.862658" lon="-2.320043">
<ele>1164.5</ele>
<desc>Speed 0.3 km/h Distance 19.74 km</desc>
<time>2013-07-07T18:17:27.26</time>
<name>1753</name>
<sym>Dot</sym>
</trkpt>
<trkpt lat="42.862658" lon="-2.320042">
<ele>1164.5</ele>
<desc>Speed 0.1 km/h Distance 19.74 km</desc>
<time>2013-07-07T18:17:28.25</time>
<name>1754</name>
<sym>Dot</sym>
</trkpt>
<trkpt lat="42.862658" lon="-2.320042">
<ele>1164.5</ele>
<desc>Speed 0.3 km/h Distance 19.74 km</desc>
<time>2013-07-07T18:17:29.24</time>
<name>1755</name>
<sym>Dot</sym>
</trkpt>
<trkpt lat="42.862658" lon="-2.320042">
<ele>1164.0</ele>
<desc>Speed 0.3 km/h Distance 19.74 km</desc>
<time>2013-07-07T18:17:30.23</time>
<name>1756</name>
<sym>Dot</sym>
</trkpt>
<trkpt lat="42.862658" lon="-2.320042">
<ele>1164.0</ele>
<desc>Speed 0.4 km/h Distance 19.74 km</desc>
<time>2013-07-07T18:17:31.22</time>
<name>1757</name>
<sym>Dot</sym>
</trkpt>
<trkpt lat="42.862658" lon="-2.320042">
<ele>1164.0</ele>
<desc>Speed 0.4 km/h Distance 19.74 km</desc>
<time>2013-07-07T18:17:33.21</time>
<name>1758</name>
<sym>Dot</sym>
</trkpt>
<trkpt lat="42.862658" lon="-2.320042">
<ele>1164.0</ele>
<desc>Speed 0.1 km/h Distance 19.74 km</desc>
<time>2013-07-07T18:17:34.20</time>
<name>1759</name>
<sym>Dot</sym>
</trkpt>
<trkpt lat="42.862658" lon="-2.320040">
<ele>1164.0</ele>
<desc>Speed 0.6 km/h Distance 19.74 km</desc>
<time>2013-07-07T18:17:35.20</time>
<name>1760</name>
<sym>Dot</sym>
</trkpt>
<trkpt lat="42.862658" lon="-2.320040">
<ele>1164.0</ele>
<desc>Speed 0.5 km/h Distance 19.74 km</desc>
<time>2013-07-07T18:17:36.19</time>
<name>1761</name>
<sym>Dot</sym>
</trkpt>
<trkpt lat="42.862660" lon="-2.320042">
<ele>1164.0</ele>
<desc>Speed 0.6 km/h Distance 19.74 km</desc>
<time>2013-07-07T18:17:37.18</time>
<name>1762</name>
<sym>Dot</sym>
</trkpt>
<trkpt lat="42.862658" lon="-2.320040">
<ele>1164.0</ele>
<desc>Speed 1.1 km/h Distance 19.74 km</desc>
<time>2013-07-07T18:17:38.17</time>
<name>1763</name>
<sym>Dot</sym>
</trkpt>
<trkpt lat="42.862660" lon="-2.320033">
<ele>1163.0</ele>
<desc>Speed 0.3 km/h Distance 19.74 km</desc>
<time>2013-07-07T18:17:39.16</time>
<name>1764</name>
<sym>Dot</sym>
</trkpt>
<trkpt lat="42.862663" lon="-2.320035">
<ele>1163.0</ele>
<desc>Speed 0.2 km/h Distance 19.74 km</desc>
<time>2013-07-07T18:17:40.15</time>
<name>1765</name>
<sym>Dot</sym>
</trkpt>
<trkpt lat="42.862668" lon="-2.320027">
<ele>1161.5</ele>
<desc>Speed 0.4 km/h Distance 19.74 km</desc>
<time>2013-07-07T18:17:41.14</time>
<name>1766</name>
<sym>Dot</sym>
</trkpt>
<trkpt lat="42.862668" lon="-2.320027">
<ele>1161.5</ele>
<desc>Speed 0.6 km/h Distance 19.74 km</desc>
<time>2013-07-07T18:17:42.12</time>
<name>1767</name>
<sym>Dot</sym>
</trkpt>
<trkpt lat="42.862668" lon="-2.320027">
<ele>1161.5</ele>
<desc>Speed 0.3 km/h Distance 19.74 km</desc>
<time>2013-07-07T18:17:43.12</time>
<name>1768</name>
<sym>Dot</sym>
</trkpt>
<trkpt lat="42.862668" lon="-2.320027">
<ele>1161.0</ele>
<desc>Speed 0.1 km/h Distance 19.74 km</desc>
<time>2013-07-07T18:17:44.10</time>
<name>1769</name>
<sym>Dot</sym>
</trkpt>
<trkpt lat="42.862668" lon="-2.320025">
<ele>1161.0</ele>
<desc>Speed 0.2 km/h Distance 19.74 km</desc>
<time>2013-07-07T18:17:45.09</time>
<name>1770</name>
<sym>Dot</sym>
</trkpt>
<trkpt lat="42.862668" lon="-2.320025">
<ele>1161.0</ele>
<desc>Speed 0.2 km/h Distance 19.74 km</desc>
<time>2013-07-07T18:17:46.08</time>
<name>1771</name>
<sym>Dot</sym>
</trkpt>
<trkpt lat="42.862668" lon="-2.320025">
<ele>1161.0</ele>
<desc>Speed 0.0 km/h Distance 19.74 km</desc>
<time>2013-07-07T18:17:47.09</time>
<name>1772</name>
<sym>Dot</sym>
</trkpt>
<trkpt lat="42.862668" lon="-2.320025">
<ele>1160.5</ele>
<desc>Speed 0.6 km/h Distance 19.74 km</desc>
<time>2013-07-07T18:17:48.07</time>
<name>1773</name>
<sym>Dot</sym>
</trkpt>
<trkpt lat="42.862668" lon="-2.320030">
<ele>1160.5</ele>
<desc>Speed 1.5 km/h Distance 19.74 km</desc>
<time>2013-07-07T18:17:49.06</time>
<name>1774</name>
<sym>Dot</sym>
</trkpt>
<trkpt lat="42.862683" lon="-2.320060">
<ele>1160.0</ele>
<desc>Speed 0.4 km/h Distance 19.75 km</desc>
<time>2013-07-07T18:17:51.05</time>
<name>1775</name>
<sym>Dot</sym>
</trkpt>
<trkpt lat="42.862683" lon="-2.320062">
<ele>1159.5</ele>
<desc>Speed 0.3 km/h Distance 19.75 km</desc>
<time>2013-07-07T18:17:52.04</time>
<name>1776</name>
<sym>Dot</sym>
</trkpt>
<trkpt lat="42.862683" lon="-2.320060">
<ele>1159.5</ele>
<desc>Speed 0.1 km/h Distance 19.75 km</desc>
<time>2013-07-07T18:17:53.03</time>
<name>1777</name>
<sym>Dot</sym>
</trkpt>
<trkpt lat="42.862680" lon="-2.320052">
<ele>1159.0</ele>
<desc>Speed 0.3 km/h Distance 19.75 km</desc>
<time>2013-07-07T18:17:54.02</time>
<name>1778</name>
<sym>Dot</sym>
</trkpt>
<trkpt lat="42.862678" lon="-2.320052">
<ele>1159.0</ele>
<desc>Speed 0.0 km/h Distance 19.75 km</desc>
<time>2013-07-07T18:17:55.02</time>
<name>1779</name>
<sym>Dot</sym>
</trkpt>
<trkpt lat="42.862678" lon="-2.320052">
<ele>1159.0</ele>
<desc>Speed 0.2 km/h Distance 19.75 km</desc>
<time>2013-07-07T18:17:56.01</time>
<name>1780</name>
<sym>Dot</sym>
</trkpt>
<trkpt lat="42.862678" lon="-2.320052">
<ele>1158.5</ele>
<desc>Speed 0.3 km/h Distance 19.75 km</desc>
<time>2013-07-07T18:17:57.01</time>
<name>1781</name>
<sym>Dot</sym>
</trkpt>
<trkpt lat="42.862678" lon="-2.320052">
<ele>1158.5</ele>
<desc>Speed 0.4 km/h Distance 19.75 km</desc>
<time>2013-07-07T18:17:58.00</time>
<name>1782</name>
<sym>Dot</sym>
</trkpt>
<trkpt lat="42.862678" lon="-2.320053">
<ele>1158.5</ele>
<desc>Speed 0.5 km/h Distance 19.75 km</desc>
<time>2013-07-07T18:17:59.00</time>
<name>1783</name>
<sym>Dot</sym>
</trkpt>
<trkpt lat="42.862678" lon="-2.320053">
<ele>1158.5</ele>
<desc>Speed 0.5 km/h Distance 19.75 km</desc>
<time>2013-07-07T18:17:59.99</time>
<name>1784</name>
<sym>Dot</sym>
</trkpt>
<trkpt lat="42.862677" lon="-2.320048">
<ele>1157.5</ele>
<desc>Speed 0.8 km/h Distance 19.75 km</desc>
<time>2013-07-07T18:18:00.99</time>
<name>1785</name>
<sym>Dot</sym>
</trkpt>
<trkpt lat="42.862675" lon="-2.320048">
<ele>1157.0</ele>
<desc>Speed 0.5 km/h Distance 19.75 km</desc>
<time>2013-07-07T18:18:01.98</time>
<name>1786</name>
<sym>Dot</sym>
</trkpt>
<trkpt lat="42.862675" lon="-2.320040">
<ele>1156.0</ele>
<desc>Speed 0.1 km/h Distance 19.75 km</desc>
<time>2013-07-07T18:18:02.98</time>
<name>1787</name>
<sym>Dot</sym>
</trkpt>
<trkpt lat="42.862673" lon="-2.320040">
<ele>1155.5</ele>
<desc>Speed 0.3 km/h Distance 19.75 km</desc>
<time>2013-07-07T18:18:03.98</time>
<name>1788</name>
<sym>Dot</sym>
</trkpt>
<trkpt lat="42.862673" lon="-2.320040">
<ele>1155.5</ele>
<desc>Speed 0.1 km/h Distance 19.75 km</desc>
<time>2013-07-07T18:18:04.97</time>
<name>1789</name>
<sym>Dot</sym>
</trkpt>
<trkpt lat="42.862672" lon="-2.320038">
<ele>1155.0</ele>
<desc>Speed 0.4 km/h Distance 19.75 km</desc>
<time>2013-07-07T18:18:05.97</time>
<name>1790</name>
<sym>Dot</sym>
</trkpt>
<trkpt lat="42.862672" lon="-2.320038">
<ele>1155.0</ele>
<desc>Speed 0.4 km/h Distance 19.75 km</desc>
<time>2013-07-07T18:18:06.96</time>
<name>1791</name>
<sym>Dot</sym>
</trkpt>
<trkpt lat="42.862672" lon="-2.320033">
<ele>1155.0</ele>
<desc>Speed 0.3 km/h Distance 19.75 km</desc>
<time>2013-07-07T18:18:07.95</time>
<name>1792</name>
<sym>Dot</sym>
</trkpt>
<trkpt lat="42.862672" lon="-2.320030">
<ele>1154.5</ele>
<desc>Speed 0.6 km/h Distance 19.75 km</desc>
<time>2013-07-07T18:18:08.94</time>
<name>1793</name>
<sym>Dot</sym>
</trkpt>
<trkpt lat="42.862672" lon="-2.320027">
<ele>1154.0</ele>
<desc>Speed 0.5 km/h Distance 19.75 km</desc>
<time>2013-07-07T18:18:09.93</time>
<name>1794</name>
<sym>Dot</sym>
</trkpt>
<trkpt lat="42.862672" lon="-2.320022">
<ele>1153.5</ele>
<desc>Speed 0.2 km/h Distance 19.75 km</desc>
<time>2013-07-07T18:18:10.92</time>
<name>1795</name>
<sym>Dot</sym>
</trkpt>
<trkpt lat="42.862672" lon="-2.320022">
<ele>1153.5</ele>
<desc>Speed 0.0 km/h Distance 19.75 km</desc>
<time>2013-07-07T18:18:11.91</time>
<name>1796</name>
<sym>Dot</sym>
</trkpt>
<trkpt lat="42.862672" lon="-2.320020">
<ele>1153.5</ele>
<desc>Speed 0.3 km/h Distance 19.75 km</desc>
<time>2013-07-07T18:18:12.91</time>
<name>1797</name>
<sym>Dot</sym>
</trkpt>
<trkpt lat="42.862672" lon="-2.320020">
<ele>1153.5</ele>
<desc>Speed 0.3 km/h Distance 19.75 km</desc>
<time>2013-07-07T18:18:13.90</time>
<name>1798</name>
<sym>Dot</sym>
</trkpt>
<trkpt lat="42.862672" lon="-2.320020">
<ele>1153.5</ele>
<desc>Speed 0.3 km/h Distance 19.75 km</desc>
<time>2013-07-07T18:18:14.90</time>
<name>1799</name>
<sym>Dot</sym>
</trkpt>
<trkpt lat="42.862672" lon="-2.320018">
<ele>1153.0</ele>
<desc>Speed 0.2 km/h Distance 19.75 km</desc>
<time>2013-07-07T18:18:15.89</time>
<name>1800</name>
<sym>Dot</sym>
</trkpt>
<trkpt lat="42.862672" lon="-2.320018">
<ele>1153.0</ele>
<desc>Speed 0.2 km/h Distance 19.75 km</desc>
<time>2013-07-07T18:18:16.88</time>
<name>1801</name>
<sym>Dot</sym>
</trkpt>
<trkpt lat="42.862672" lon="-2.320018">
<ele>1153.0</ele>
<desc>Speed 0.2 km/h Distance 19.75 km</desc>
<time>2013-07-07T18:18:17.87</time>
<name>1802</name>
<sym>Dot</sym>
</trkpt>
<trkpt lat="42.862672" lon="-2.320018">
<ele>1153.0</ele>
<desc>Speed 0.2 km/h Distance 19.75 km</desc>
<time>2013-07-07T18:18:18.86</time>
<name>1803</name>
<sym>Dot</sym>
</trkpt>
<trkpt lat="42.862672" lon="-2.320018">
<ele>1153.0</ele>
<desc>Speed 0.3 km/h Distance 19.75 km</desc>
<time>2013-07-07T18:18:19.85</time>
<name>1804</name>
<sym>Dot</sym>
</trkpt>
<trkpt lat="42.862672" lon="-2.320018">
<ele>1153.0</ele>
<desc>Speed 0.4 km/h Distance 19.75 km</desc>
<time>2013-07-07T18:18:20.84</time>
<name>1805</name>
<sym>Dot</sym>
</trkpt>
<trkpt lat="42.862672" lon="-2.320017">
<ele>1153.0</ele>
<desc>Speed 0.6 km/h Distance 19.75 km</desc>
<time>2013-07-07T18:18:21.83</time>
<name>1806</name>
<sym>Dot</sym>
</trkpt>
<trkpt lat="42.862672" lon="-2.320017">
<ele>1152.5</ele>
<desc>Speed 0.0 km/h Distance 19.75 km</desc>
<time>2013-07-07T18:18:22.83</time>
<name>1807</name>
<sym>Dot</sym>
</trkpt>
<trkpt lat="42.862672" lon="-2.320017">
<ele>1152.5</ele>
<desc>Speed 0.5 km/h Distance 19.75 km</desc>
<time>2013-07-07T18:18:23.82</time>
<name>1808</name>
<sym>Dot</sym>
</trkpt>
<trkpt lat="42.862673" lon="-2.320007">
<ele>1152.0</ele>
<desc>Speed 0.8 km/h Distance 19.75 km</desc>
<time>2013-07-07T18:18:24.82</time>
<name>1809</name>
<sym>Dot</sym>
</trkpt>
<trkpt lat="42.862673" lon="-2.320007">
<ele>1152.0</ele>
<desc>Speed 0.4 km/h Distance 19.75 km</desc>
<time>2013-07-07T18:18:25.81</time>
<name>1810</name>
<sym>Dot</sym>
</trkpt>
<trkpt lat="42.862673" lon="-2.320005">
<ele>1151.5</ele>
<desc>Speed 0.3 km/h Distance 19.75 km</desc>
<time>2013-07-07T18:18:26.80</time>
<name>1811</name>
<sym>Dot</sym>
</trkpt>
<trkpt lat="42.862673" lon="-2.320005">
<ele>1151.5</ele>
<desc>Speed 0.3 km/h Distance 19.75 km</desc>
<time>2013-07-07T18:18:27.79</time>
<name>1812</name>
<sym>Dot</sym>
</trkpt>
<trkpt lat="42.862673" lon="-2.320003">
<ele>1151.0</ele>
<desc>Speed 0.5 km/h Distance 19.75 km</desc>
<time>2013-07-07T18:18:28.78</time>
<name>1813</name>
<sym>Dot</sym>
</trkpt>
<trkpt lat="42.862675" lon="-2.320003">
<ele>1151.0</ele>
<desc>Speed 0.6 km/h Distance 19.75 km</desc>
<time>2013-07-07T18:18:29.77</time>
<name>1814</name>
<sym>Dot</sym>
</trkpt>
<trkpt lat="42.862672" lon="-2.320010">
<ele>1150.5</ele>
<desc>Speed 2.8 km/h Distance 19.75 km</desc>
<time>2013-07-07T18:18:30.77</time>
<name>1815</name>
<sym>Dot</sym>
</trkpt>
<trkpt lat="42.862667" lon="-2.320017">
<ele>1150.0</ele>
<desc>Speed 2.7 km/h Distance 19.75 km</desc>
<time>2013-07-07T18:18:31.76</time>
<name>1816</name>
<sym>Dot</sym>
</trkpt>
<trkpt lat="42.862667" lon="-2.320022">
<ele>1149.0</ele>
<desc>Speed 1.8 km/h Distance 19.75 km</desc>
<time>2013-07-07T18:18:32.75</time>
<name>1817</name>
<sym>Dot</sym>
</trkpt>
<trkpt lat="42.862668" lon="-2.320017">
<ele>1148.5</ele>
<desc>Speed 1.5 km/h Distance 19.75 km</desc>
<time>2013-07-07T18:18:33.74</time>
<name>1818</name>
<sym>Dot</sym>
</trkpt>
<trkpt lat="42.862668" lon="-2.320018">
<ele>1148.0</ele>
<desc>Speed 0.7 km/h Distance 19.75 km</desc>
<time>2013-07-07T18:18:34.74</time>
<name>1819</name>
<sym>Dot</sym>
</trkpt>
<trkpt lat="42.862673" lon="-2.320022">
<ele>1147.5</ele>
<desc>Speed 2.4 km/h Distance 19.75 km</desc>
<time>2013-07-07T18:18:35.73</time>
<name>1820</name>
<sym>Dot</sym>
</trkpt>
<trkpt lat="42.862675" lon="-2.320027">
<ele>1146.5</ele>
<desc>Speed 2.0 km/h Distance 19.76 km</desc>
<time>2013-07-07T18:18:36.72</time>
<name>1821</name>
<sym>Dot</sym>
</trkpt>
<trkpt lat="42.862672" lon="-2.320028">
<ele>1146.5</ele>
<desc>Speed 1.4 km/h Distance 19.76 km</desc>
<time>2013-07-07T18:18:37.72</time>
<name>1822</name>
<sym>Dot</sym>
</trkpt>
<trkpt lat="42.862670" lon="-2.320030">
<ele>1146.5</ele>
<desc>Speed 1.1 km/h Distance 19.76 km</desc>
<time>2013-07-07T18:18:38.71</time>
<name>1823</name>
<sym>Dot</sym>
</trkpt>
<trkpt lat="42.862673" lon="-2.320037">
<ele>1146.0</ele>
<desc>Speed 2.8 km/h Distance 19.76 km</desc>
<time>2013-07-07T18:18:39.70</time>
<name>1824</name>
<sym>Dot</sym>
</trkpt>
<trkpt lat="42.862677" lon="-2.320043">
<ele>1145.5</ele>
<desc>Speed 2.5 km/h Distance 19.76 km</desc>
<time>2013-07-07T18:18:40.69</time>
<name>1825</name>
<sym>Dot</sym>
</trkpt>
<trkpt lat="42.862673" lon="-2.320052">
<ele>1146.5</ele>
<desc>Speed 1.4 km/h Distance 19.76 km</desc>
<time>2013-07-07T18:18:41.69</time>
<name>1826</name>
<sym>Dot</sym>
</trkpt>
<trkpt lat="42.862673" lon="-2.320060">
<ele>1146.0</ele>
<desc>Speed 2.0 km/h Distance 19.76 km</desc>
<time>2013-07-07T18:18:42.69</time>
<name>1827</name>
<sym>Dot</sym>
</trkpt>
<trkpt lat="42.862673" lon="-2.320063">
<ele>1146.0</ele>
<desc>Speed 0.9 km/h Distance 19.76 km</desc>
<time>2013-07-07T18:18:43.68</time>
<name>1828</name>
<sym>Dot</sym>
</trkpt>
<trkpt lat="42.862672" lon="-2.320063">
<ele>1146.0</ele>
<desc>Speed 1.1 km/h Distance 19.76 km</desc>
<time>2013-07-07T18:18:44.67</time>
<name>1829</name>
<sym>Dot</sym>
</trkpt>
<trkpt lat="42.862670" lon="-2.320065">
<ele>1146.0</ele>
<desc>Speed 0.9 km/h Distance 19.76 km</desc>
<time>2013-07-07T18:18:45.66</time>
<name>1830</name>
<sym>Dot</sym>
</trkpt>
<trkpt lat="42.862672" lon="-2.320063">
<ele>1145.5</ele>
<desc>Speed 0.5 km/h Distance 19.76 km</desc>
<time>2013-07-07T18:18:46.65</time>
<name>1831</name>
<sym>Dot</sym>
</trkpt>
<trkpt lat="42.862672" lon="-2.320062">
<ele>1145.5</ele>
<desc>Speed 0.6 km/h Distance 19.76 km</desc>
<time>2013-07-07T18:18:47.64</time>
<name>1832</name>
<sym>Dot</sym>
</trkpt>
<trkpt lat="42.862672" lon="-2.320060">
<ele>1145.0</ele>
<desc>Speed 0.8 km/h Distance 19.76 km</desc>
<time>2013-07-07T18:18:48.64</time>
<name>1833</name>
<sym>Dot</sym>
</trkpt>
<trkpt lat="42.862673" lon="-2.320057">
<ele>1144.5</ele>
<desc>Speed 0.5 km/h Distance 19.76 km</desc>
<time>2013-07-07T18:18:49.64</time>
<name>1834</name>
<sym>Dot</sym>
</trkpt>
<trkpt lat="42.862675" lon="-2.320053">
<ele>1144.0</ele>
<desc>Speed 0.7 km/h Distance 19.76 km</desc>
<time>2013-07-07T18:18:50.63</time>
<name>1835</name>
<sym>Dot</sym>
</trkpt>
<trkpt lat="42.862673" lon="-2.320048">
<ele>1142.5</ele>
<desc>Speed 0.5 km/h Distance 19.76 km</desc>
<time>2013-07-07T18:18:51.63</time>
<name>1836</name>
<sym>Dot</sym>
</trkpt>
<trkpt lat="42.862673" lon="-2.320047">
<ele>1142.0</ele>
<desc>Speed 0.4 km/h Distance 19.76 km</desc>
<time>2013-07-07T18:18:52.62</time>
<name>1837</name>
<sym>Dot</sym>
</trkpt>
<trkpt lat="42.862673" lon="-2.320047">
<ele>1141.5</ele>
<desc>Speed 0.1 km/h Distance 19.76 km</desc>
<time>2013-07-07T18:18:53.62</time>
<name>1838</name>
<sym>Dot</sym>
</trkpt>
<trkpt lat="42.862673" lon="-2.320045">
<ele>1141.0</ele>
<desc>Speed 0.6 km/h Distance 19.76 km</desc>
<time>2013-07-07T18:18:54.61</time>
<name>1839</name>
<sym>Dot</sym>
</trkpt>
<trkpt lat="42.862670" lon="-2.320042">
<ele>1141.0</ele>
<desc>Speed 1.7 km/h Distance 19.76 km</desc>
<time>2013-07-07T18:18:55.63</time>
<name>1840</name>
<sym>Dot</sym>
</trkpt>
<trkpt lat="42.862672" lon="-2.320038">
<ele>1140.5</ele>
<desc>Speed 0.8 km/h Distance 19.76 km</desc>
<time>2013-07-07T18:18:56.60</time>
<name>1841</name>
<sym>Dot</sym>
</trkpt>
<trkpt lat="42.862672" lon="-2.320038">
<ele>1140.5</ele>
<desc>Speed 0.7 km/h Distance 19.76 km</desc>
<time>2013-07-07T18:18:57.60</time>
<name>1842</name>
<sym>Dot</sym>
</trkpt>
<trkpt lat="42.862675" lon="-2.320042">
<ele>1140.0</ele>
<desc>Speed 0.6 km/h Distance 19.76 km</desc>
<time>2013-07-07T18:18:58.59</time>
<name>1843</name>
<sym>Dot</sym>
</trkpt>
<trkpt lat="42.862677" lon="-2.320043">
<ele>1139.5</ele>
<desc>Speed 0.3 km/h Distance 19.76 km</desc>
<time>2013-07-07T18:18:59.58</time>
<name>1844</name>
<sym>Dot</sym>
</trkpt>
<trkpt lat="42.862683" lon="-2.320052">
<ele>1139.5</ele>
<desc>Speed 2.3 km/h Distance 19.76 km</desc>
<time>2013-07-07T18:19:00.58</time>
<name>1845</name>
<sym>Dot</sym>
</trkpt>
<trkpt lat="42.862683" lon="-2.320052">
<ele>1139.5</ele>
<desc>Speed 0.3 km/h Distance 19.76 km</desc>
<time>2013-07-07T18:19:01.57</time>
<name>1846</name>
<sym>Dot</sym>
</trkpt>
<trkpt lat="42.862678" lon="-2.320043">
<ele>1139.5</ele>
<desc>Speed 0.4 km/h Distance 19.76 km</desc>
<time>2013-07-07T18:19:02.56</time>
<name>1847</name>
<sym>Dot</sym>
</trkpt>
<trkpt lat="42.862677" lon="-2.320045">
<ele>1139.0</ele>
<desc>Speed 0.9 km/h Distance 19.76 km</desc>
<time>2013-07-07T18:19:03.56</time>
<name>1848</name>
<sym>Dot</sym>
</trkpt>
<trkpt lat="42.862677" lon="-2.320043">
<ele>1139.0</ele>
<desc>Speed 0.2 km/h Distance 19.76 km</desc>
<time>2013-07-07T18:19:04.55</time>
<name>1849</name>
<sym>Dot</sym>
</trkpt>
<trkpt lat="42.862675" lon="-2.320042">
<ele>1138.5</ele>
<desc>Speed 0.4 km/h Distance 19.76 km</desc>
<time>2013-07-07T18:19:05.55</time>
<name>1850</name>
<sym>Dot</sym>
</trkpt>
<trkpt lat="42.862675" lon="-2.320040">
<ele>1138.5</ele>
<desc>Speed 1.0 km/h Distance 19.77 km</desc>
<time>2013-07-07T18:19:06.54</time>
<name>1851</name>
<sym>Dot</sym>
</trkpt>
<trkpt lat="42.862672" lon="-2.320035">
<ele>1138.5</ele>
<desc>Speed 0.5 km/h Distance 19.77 km</desc>
<time>2013-07-07T18:19:07.53</time>
<name>1852</name>
<sym>Dot</sym>
</trkpt>
<trkpt lat="42.862672" lon="-2.320033">
<ele>1138.5</ele>
<desc>Speed 0.1 km/h Distance 19.77 km</desc>
<time>2013-07-07T18:19:08.52</time>
<name>1853</name>
<sym>Dot</sym>
</trkpt>
<trkpt lat="42.862670" lon="-2.320032">
<ele>1138.0</ele>
<desc>Speed 0.5 km/h Distance 19.77 km</desc>
<time>2013-07-07T18:19:09.51</time>
<name>1854</name>
<sym>Dot</sym>
</trkpt>
<trkpt lat="42.862668" lon="-2.320030">
<ele>1138.5</ele>
<desc>Speed 0.3 km/h Distance 19.77 km</desc>
<time>2013-07-07T18:19:10.50</time>
<name>1855</name>
<sym>Dot</sym>
</trkpt>
<trkpt lat="42.862667" lon="-2.320023">
<ele>1138.5</ele>
<desc>Speed 1.0 km/h Distance 19.77 km</desc>
<time>2013-07-07T18:19:11.49</time>
<name>1856</name>
<sym>Dot</sym>
</trkpt>
<trkpt lat="42.862668" lon="-2.320013">
<ele>1139.0</ele>
<desc>Speed 2.0 km/h Distance 19.77 km</desc>
<time>2013-07-07T18:19:12.48</time>
<name>1857</name>
<sym>Dot</sym>
</trkpt>
<trkpt lat="42.862667" lon="-2.320010">
<ele>1139.5</ele>
<desc>Speed 0.4 km/h Distance 19.77 km</desc>
<time>2013-07-07T18:19:13.47</time>
<name>1858</name>
<sym>Dot</sym>
</trkpt>
<trkpt lat="42.862667" lon="-2.320010">
<ele>1139.5</ele>
<desc>Speed 0.5 km/h Distance 19.77 km</desc>
<time>2013-07-07T18:19:14.46</time>
<name>1859</name>
<sym>Dot</sym>
</trkpt>
<trkpt lat="42.862667" lon="-2.320008">
<ele>1139.5</ele>
<desc>Speed 0.2 km/h Distance 19.77 km</desc>
<time>2013-07-07T18:19:15.45</time>
<name>1860</name>
<sym>Dot</sym>
</trkpt>
<trkpt lat="42.862670" lon="-2.320007">
<ele>1139.5</ele>
<desc>Speed 1.1 km/h Distance 19.77 km</desc>
<time>2013-07-07T18:19:16.45</time>
<name>1861</name>
<sym>Dot</sym>
</trkpt>
<trkpt lat="42.862670" lon="-2.320005">
<ele>1139.5</ele>
<desc>Speed 0.5 km/h Distance 19.77 km</desc>
<time>2013-07-07T18:19:17.44</time>
<name>1862</name>
<sym>Dot</sym>
</trkpt>
<trkpt lat="42.862670" lon="-2.320003">
<ele>1139.5</ele>
<desc>Speed 0.5 km/h Distance 19.77 km</desc>
<time>2013-07-07T18:19:18.44</time>
<name>1863</name>
<sym>Dot</sym>
</trkpt>
<trkpt lat="42.862670" lon="-2.320005">
<ele>1139.5</ele>
<desc>Speed 0.6 km/h Distance 19.77 km</desc>
<time>2013-07-07T18:19:19.44</time>
<name>1864</name>
<sym>Dot</sym>
</trkpt>
<trkpt lat="42.862677" lon="-2.320008">
<ele>1139.5</ele>
<desc>Speed 0.8 km/h Distance 19.77 km</desc>
<time>2013-07-07T18:19:20.43</time>
<name>1865</name>
<sym>Dot</sym>
</trkpt>
<trkpt lat="42.862677" lon="-2.320008">
<ele>1140.0</ele>
<desc>Speed 0.6 km/h Distance 19.77 km</desc>
<time>2013-07-07T18:19:21.43</time>
<name>1866</name>
<sym>Dot</sym>
</trkpt>
<trkpt lat="42.862678" lon="-2.320013">
<ele>1138.0</ele>
<desc>Speed 1.0 km/h Distance 19.77 km</desc>
<time>2013-07-07T18:19:22.42</time>
<name>1867</name>
<sym>Dot</sym>
</trkpt>
<trkpt lat="42.862675" lon="-2.320013">
<ele>1138.5</ele>
<desc>Speed 1.9 km/h Distance 19.77 km</desc>
<time>2013-07-07T18:19:23.41</time>
<name>1868</name>
<sym>Dot</sym>
</trkpt>
<trkpt lat="42.862675" lon="-2.320015">
<ele>1138.5</ele>
<desc>Speed 0.1 km/h Distance 19.77 km</desc>
<time>2013-07-07T18:19:24.40</time>
<name>1869</name>
<sym>Dot</sym>
</trkpt>
<trkpt lat="42.862675" lon="-2.320015">
<ele>1138.5</ele>
<desc>Speed 0.3 km/h Distance 19.77 km</desc>
<time>2013-07-07T18:19:25.39</time>
<name>1870</name>
<sym>Dot</sym>
</trkpt>
<trkpt lat="42.862677" lon="-2.320018">
<ele>1138.5</ele>
<desc>Speed 1.4 km/h Distance 19.77 km</desc>
<time>2013-07-07T18:19:26.39</time>
<name>1871</name>
<sym>Dot</sym>
</trkpt>
<trkpt lat="42.862673" lon="-2.320020">
<ele>1138.5</ele>
<desc>Speed 1.4 km/h Distance 19.77 km</desc>
<time>2013-07-07T18:19:27.39</time>
<name>1872</name>
<sym>Dot</sym>
</trkpt>
<trkpt lat="42.862672" lon="-2.320022">
<ele>1138.5</ele>
<desc>Speed 0.9 km/h Distance 19.77 km</desc>
<time>2013-07-07T18:19:28.38</time>
<name>1873</name>
<sym>Dot</sym>
</trkpt>
<trkpt lat="42.862672" lon="-2.320022">
<ele>1138.5</ele>
<desc>Speed 0.3 km/h Distance 19.77 km</desc>
<time>2013-07-07T18:19:29.37</time>
<name>1874</name>
<sym>Dot</sym>
</trkpt>
<trkpt lat="42.862672" lon="-2.320022">
<ele>1138.5</ele>
<desc>Speed 0.7 km/h Distance 19.77 km</desc>
<time>2013-07-07T18:19:30.36</time>
<name>1875</name>
<sym>Dot</sym>
</trkpt>
<trkpt lat="42.862655" lon="-2.320018">
<ele>1140.5</ele>
<desc>Speed 6.3 km/h Distance 19.77 km</desc>
<time>2013-07-07T18:19:31.35</time>
<name>1876</name>
<sym>Dot</sym>
</trkpt>
<trkpt lat="42.862657" lon="-2.320018">
<ele>1140.5</ele>
<desc>Speed 0.3 km/h Distance 19.77 km</desc>
<time>2013-07-07T18:19:32.34</time>
<name>1877</name>
<sym>Dot</sym>
</trkpt>
<trkpt lat="42.862655" lon="-2.320017">
<ele>1140.5</ele>
<desc>Speed 0.8 km/h Distance 19.77 km</desc>
<time>2013-07-07T18:19:33.33</time>
<name>1878</name>
<sym>Dot</sym>
</trkpt>
<trkpt lat="42.862657" lon="-2.320018">
<ele>1141.0</ele>
<desc>Speed 0.8 km/h Distance 19.77 km</desc>
<time>2013-07-07T18:19:34.32</time>
<name>1879</name>
<sym>Dot</sym>
</trkpt>
<trkpt lat="42.862665" lon="-2.320012">
<ele>1141.0</ele>
<desc>Speed 2.9 km/h Distance 19.78 km</desc>
<time>2013-07-07T18:19:35.32</time>
<name>1880</name>
<sym>Dot</sym>
</trkpt>
<trkpt lat="42.862677" lon="-2.320008">
<ele>1141.5</ele>
<desc>Speed 4.4 km/h Distance 19.78 km</desc>
<time>2013-07-07T18:19:36.31</time>
<name>1881</name>
<sym>Dot</sym>
</trkpt>
<trkpt lat="42.862692" lon="-2.320002">
<ele>1141.5</ele>
<desc>Speed 4.9 km/h Distance 19.78 km</desc>
<time>2013-07-07T18:19:37.30</time>
<name>1882</name>
<sym>Dot</sym>
</trkpt>
<trkpt lat="42.862700" lon="-2.319990">
<ele>1142.0</ele>
<desc>Speed 4.1 km/h Distance 19.78 km</desc>
<time>2013-07-07T18:19:38.30</time>
<name>1883</name>
<sym>Dot</sym>
</trkpt>
<trkpt lat="42.862708" lon="-2.319980">
<ele>1142.5</ele>
<desc>Speed 4.5 km/h Distance 19.78 km</desc>
<time>2013-07-07T18:19:43.40</time>
<name>1884</name>
<sym>Dot</sym>
</trkpt>
<trkpt lat="42.862718" lon="-2.319970">
<ele>1143.0</ele>
<desc>Speed 4.4 km/h Distance 19.78 km</desc>
<time>2013-07-07T18:19:44.17</time>
<name>1885</name>
<sym>Dot</sym>
</trkpt>
<trkpt lat="42.862728" lon="-2.319962">
<ele>1143.5</ele>
<desc>Speed 4.9 km/h Distance 19.78 km</desc>
<time>2013-07-07T18:19:45.16</time>
<name>1886</name>
<sym>Dot</sym>
</trkpt>
<trkpt lat="42.862738" lon="-2.319953">
<ele>1143.5</ele>
<desc>Speed 4.6 km/h Distance 19.78 km</desc>
<time>2013-07-07T18:19:46.16</time>
<name>1887</name>
<sym>Dot</sym>
</trkpt>
<trkpt lat="42.862748" lon="-2.319945">
<ele>1144.0</ele>
<desc>Speed 4.4 km/h Distance 19.79 km</desc>
<time>2013-07-07T18:19:47.15</time>
<name>1888</name>
<sym>Dot</sym>
</trkpt>
<trkpt lat="42.862758" lon="-2.319937">
<ele>1144.0</ele>
<desc>Speed 4.5 km/h Distance 19.79 km</desc>
<time>2013-07-07T18:19:48.14</time>
<name>1889</name>
<sym>Dot</sym>
</trkpt>
<trkpt lat="42.862768" lon="-2.319927">
<ele>1144.0</ele>
<desc>Speed 4.8 km/h Distance 19.79 km</desc>
<time>2013-07-07T18:19:49.13</time>
<name>1890</name>
<sym>Dot</sym>
</trkpt>
<trkpt lat="42.862778" lon="-2.319918">
<ele>1144.5</ele>
<desc>Speed 4.7 km/h Distance 19.79 km</desc>
<time>2013-07-07T18:19:50.12</time>
<name>1891</name>
<sym>Dot</sym>
</trkpt>
<trkpt lat="42.862790" lon="-2.319908">
<ele>1144.5</ele>
<desc>Speed 4.8 km/h Distance 19.79 km</desc>
<time>2013-07-07T18:19:51.11</time>
<name>1892</name>
<sym>Dot</sym>
</trkpt>
<trkpt lat="42.862800" lon="-2.319900">
<ele>1144.5</ele>
<desc>Speed 4.8 km/h Distance 19.79 km</desc>
<time>2013-07-07T18:19:52.10</time>
<name>1893</name>
<sym>Dot</sym>
</trkpt>
<trkpt lat="42.862810" lon="-2.319892">
<ele>1144.5</ele>
<desc>Speed 4.5 km/h Distance 19.79 km</desc>
<time>2013-07-07T18:19:53.10</time>
<name>1894</name>
<sym>Dot</sym>
</trkpt>
<trkpt lat="42.862822" lon="-2.319883">
<ele>1144.5</ele>
<desc>Speed 4.7 km/h Distance 19.80 km</desc>
<time>2013-07-07T18:19:54.09</time>
<name>1895</name>
<sym>Dot</sym>
</trkpt>
<trkpt lat="42.862833" lon="-2.319875">
<ele>1144.5</ele>
<desc>Speed 4.9 km/h Distance 19.80 km</desc>
<time>2013-07-07T18:19:55.08</time>
<name>1896</name>
<sym>Dot</sym>
</trkpt>
<trkpt lat="42.862845" lon="-2.319867">
<ele>1144.5</ele>
<desc>Speed 4.5 km/h Distance 19.80 km</desc>
<time>2013-07-07T18:19:56.07</time>
<name>1897</name>
<sym>Dot</sym>
</trkpt>
<trkpt lat="42.862852" lon="-2.319857">
<ele>1144.5</ele>
<desc>Speed 4.0 km/h Distance 19.80 km</desc>
<time>2013-07-07T18:19:57.06</time>
<name>1898</name>
<sym>Dot</sym>
</trkpt>
<trkpt lat="42.862862" lon="-2.319848">
<ele>1145.0</ele>
<desc>Speed 4.2 km/h Distance 19.80 km</desc>
<time>2013-07-07T18:19:58.05</time>
<name>1899</name>
<sym>Dot</sym>
</trkpt>
<trkpt lat="42.862873" lon="-2.319842">
<ele>1144.5</ele>
<desc>Speed 4.5 km/h Distance 19.80 km</desc>
<time>2013-07-07T18:19:59.04</time>
<name>1900</name>
<sym>Dot</sym>
</trkpt>
<trkpt lat="42.862885" lon="-2.319837">
<ele>1144.5</ele>
<desc>Speed 4.3 km/h Distance 19.80 km</desc>
<time>2013-07-07T18:20:00.03</time>
<name>1901</name>
<sym>Dot</sym>
</trkpt>
<trkpt lat="42.862897" lon="-2.319830">
<ele>1144.5</ele>
<desc>Speed 4.5 km/h Distance 19.81 km</desc>
<time>2013-07-07T18:20:01.03</time>
<name>1902</name>
<sym>Dot</sym>
</trkpt>
<trkpt lat="42.862910" lon="-2.319823">
<ele>1144.5</ele>
<desc>Speed 4.3 km/h Distance 19.81 km</desc>
<time>2013-07-07T18:20:02.22</time>
<name>1903</name>
<sym>Dot</sym>
</trkpt>
<trkpt lat="42.862920" lon="-2.319818">
<ele>1144.5</ele>
<desc>Speed 3.4 km/h Distance 19.81 km</desc>
<time>2013-07-07T18:20:03.01</time>
<name>1904</name>
<sym>Dot</sym>
</trkpt>
<trkpt lat="42.862932" lon="-2.319815">
<ele>1144.5</ele>
<desc>Speed 4.0 km/h Distance 19.81 km</desc>
<time>2013-07-07T18:20:04.00</time>
<name>1905</name>
<sym>Dot</sym>
</trkpt>
<trkpt lat="42.862940" lon="-2.319803">
<ele>1144.5</ele>
<desc>Speed 4.5 km/h Distance 19.81 km</desc>
<time>2013-07-07T18:20:05.01</time>
<name>1906</name>
<sym>Dot</sym>
</trkpt>
<trkpt lat="42.862947" lon="-2.319793">
<ele>1145.0</ele>
<desc>Speed 3.7 km/h Distance 19.81 km</desc>
<time>2013-07-07T18:20:05.99</time>
<name>1907</name>
<sym>Dot</sym>
</trkpt>
<trkpt lat="42.862958" lon="-2.319787">
<ele>1145.0</ele>
<desc>Speed 4.6 km/h Distance 19.81 km</desc>
<time>2013-07-07T18:20:06.97</time>
<name>1908</name>
<sym>Dot</sym>
</trkpt>
<trkpt lat="42.862970" lon="-2.319780">
<ele>1145.0</ele>
<desc>Speed 4.8 km/h Distance 19.81 km</desc>
<time>2013-07-07T18:20:07.97</time>
<name>1909</name>
<sym>Dot</sym>
</trkpt>
<trkpt lat="42.862982" lon="-2.319773">
<ele>1145.0</ele>
<desc>Speed 5.0 km/h Distance 19.82 km</desc>
<time>2013-07-07T18:20:08.96</time>
<name>1910</name>
<sym>Dot</sym>
</trkpt>
<trkpt lat="42.862992" lon="-2.319765">
<ele>1144.5</ele>
<desc>Speed 4.9 km/h Distance 19.82 km</desc>
<time>2013-07-07T18:20:09.96</time>
<name>1911</name>
<sym>Dot</sym>
</trkpt>
<trkpt lat="42.863002" lon="-2.319755">
<ele>1145.0</ele>
<desc>Speed 4.5 km/h Distance 19.82 km</desc>
<time>2013-07-07T18:20:10.94</time>
<name>1912</name>
<sym>Dot</sym>
</trkpt>
<trkpt lat="42.863013" lon="-2.319748">
<ele>1144.5</ele>
<desc>Speed 5.0 km/h Distance 19.82 km</desc>
<time>2013-07-07T18:20:11.94</time>
<name>1913</name>
<sym>Dot</sym>
</trkpt>
<trkpt lat="42.863025" lon="-2.319743">
<ele>1144.5</ele>
<desc>Speed 4.9 km/h Distance 19.82 km</desc>
<time>2013-07-07T18:20:12.93</time>
<name>1914</name>
<sym>Dot</sym>
</trkpt>
<trkpt lat="42.863035" lon="-2.319735">
<ele>1144.5</ele>
<desc>Speed 4.6 km/h Distance 19.82 km</desc>
<time>2013-07-07T18:20:13.92</time>
<name>1915</name>
<sym>Dot</sym>
</trkpt>
<trkpt lat="42.863047" lon="-2.319728">
<ele>1145.0</ele>
<desc>Speed 4.1 km/h Distance 19.82 km</desc>
<time>2013-07-07T18:20:14.91</time>
<name>1916</name>
<sym>Dot</sym>
</trkpt>
<trkpt lat="42.863055" lon="-2.319725">
<ele>1145.0</ele>
<desc>Speed 3.6 km/h Distance 19.83 km</desc>
<time>2013-07-07T18:20:15.91</time>
<name>1917</name>
<sym>Dot</sym>
</trkpt>
<trkpt lat="42.863058" lon="-2.319727">
<ele>1145.0</ele>
<desc>Speed 2.0 km/h Distance 19.83 km</desc>
<time>2013-07-07T18:20:16.90</time>
<name>1918</name>
<sym>Dot</sym>
</trkpt>
<trkpt lat="42.863063" lon="-2.319727">
<ele>1145.0</ele>
<desc>Speed 0.8 km/h Distance 19.83 km</desc>
<time>2013-07-07T18:20:17.89</time>
<name>1919</name>
<sym>Dot</sym>
</trkpt>
<trkpt lat="42.863065" lon="-2.319727">
<ele>1145.0</ele>
<desc>Speed 0.4 km/h Distance 19.83 km</desc>
<time>2013-07-07T18:20:18.89</time>
<name>1920</name>
<sym>Dot</sym>
</trkpt>
<trkpt lat="42.863065" lon="-2.319727">
<ele>1145.0</ele>
<desc>Speed 0.6 km/h Distance 19.83 km</desc>
<time>2013-07-07T18:20:19.88</time>
<name>1921</name>
<sym>Dot</sym>
</trkpt>
<trkpt lat="42.863070" lon="-2.319730">
<ele>1145.0</ele>
<desc>Speed 0.9 km/h Distance 19.83 km</desc>
<time>2013-07-07T18:20:20.87</time>
<name>1922</name>
<sym>Dot</sym>
</trkpt>
<trkpt lat="42.863080" lon="-2.319725">
<ele>1144.5</ele>
<desc>Speed 3.9 km/h Distance 19.83 km</desc>
<time>2013-07-07T18:20:21.86</time>
<name>1923</name>
<sym>Dot</sym>
</trkpt>
<trkpt lat="42.863090" lon="-2.319718">
<ele>1144.5</ele>
<desc>Speed 3.7 km/h Distance 19.83 km</desc>
<time>2013-07-07T18:20:22.85</time>
<name>1924</name>
<sym>Dot</sym>
</trkpt>
<trkpt lat="42.863097" lon="-2.319712">
<ele>1144.0</ele>
<desc>Speed 3.3 km/h Distance 19.83 km</desc>
<time>2013-07-07T18:20:23.84</time>
<name>1925</name>
<sym>Dot</sym>
</trkpt>
<trkpt lat="42.863105" lon="-2.319705">
<ele>1144.0</ele>
<desc>Speed 3.3 km/h Distance 19.83 km</desc>
<time>2013-07-07T18:20:24.83</time>
<name>1926</name>
<sym>Dot</sym>
</trkpt>
<trkpt lat="42.863113" lon="-2.319702">
<ele>1144.0</ele>
<desc>Speed 3.9 km/h Distance 19.83 km</desc>
<time>2013-07-07T18:20:25.82</time>
<name>1927</name>
<sym>Dot</sym>
</trkpt>
<trkpt lat="42.863123" lon="-2.319697">
<ele>1144.0</ele>
<desc>Speed 4.0 km/h Distance 19.83 km</desc>
<time>2013-07-07T18:20:26.81</time>
<name>1928</name>
<sym>Dot</sym>
</trkpt>
<trkpt lat="42.863133" lon="-2.319688">
<ele>1144.0</ele>
<desc>Speed 4.6 km/h Distance 19.83 km</desc>
<time>2013-07-07T18:20:27.80</time>
<name>1929</name>
<sym>Dot</sym>
</trkpt>
<trkpt lat="42.863143" lon="-2.319680">
<ele>1144.0</ele>
<desc>Speed 5.2 km/h Distance 19.84 km</desc>
<time>2013-07-07T18:20:28.79</time>
<name>1930</name>
<sym>Dot</sym>
</trkpt>
<trkpt lat="42.863155" lon="-2.319675">
<ele>1144.0</ele>
<desc>Speed 4.5 km/h Distance 19.84 km</desc>
<time>2013-07-07T18:20:29.78</time>
<name>1931</name>
<sym>Dot</sym>
</trkpt>
<trkpt lat="42.863165" lon="-2.319670">
<ele>1144.0</ele>
<desc>Speed 4.2 km/h Distance 19.84 km</desc>
<time>2013-07-07T18:20:30.81</time>
<name>1932</name>
<sym>Dot</sym>
</trkpt>
<trkpt lat="42.863177" lon="-2.319663">
<ele>1144.0</ele>
<desc>Speed 4.6 km/h Distance 19.84 km</desc>
<time>2013-07-07T18:20:31.78</time>
<name>1933</name>
<sym>Dot</sym>
</trkpt>
<trkpt lat="42.863188" lon="-2.319657">
<ele>1144.0</ele>
<desc>Speed 4.8 km/h Distance 19.84 km</desc>
<time>2013-07-07T18:20:32.77</time>
<name>1934</name>
<sym>Dot</sym>
</trkpt>
<trkpt lat="42.863202" lon="-2.319648">
<ele>1143.5</ele>
<desc>Speed 4.8 km/h Distance 19.84 km</desc>
<time>2013-07-07T18:20:33.76</time>
<name>1935</name>
<sym>Dot</sym>
</trkpt>
<trkpt lat="42.863210" lon="-2.319642">
<ele>1143.5</ele>
<desc>Speed 4.3 km/h Distance 19.84 km</desc>
<time>2013-07-07T18:20:34.76</time>
<name>1936</name>
<sym>Dot</sym>
</trkpt>
<trkpt lat="42.863220" lon="-2.319633">
<ele>1143.5</ele>
<desc>Speed 4.1 km/h Distance 19.85 km</desc>
<time>2013-07-07T18:20:35.75</time>
<name>1937</name>
<sym>Dot</sym>
</trkpt>
<trkpt lat="42.863228" lon="-2.319625">
<ele>1143.5</ele>
<desc>Speed 3.9 km/h Distance 19.85 km</desc>
<time>2013-07-07T18:20:36.74</time>
<name>1938</name>
<sym>Dot</sym>
</trkpt>
<trkpt lat="42.863237" lon="-2.319618">
<ele>1143.5</ele>
<desc>Speed 4.1 km/h Distance 19.85 km</desc>
<time>2013-07-07T18:20:37.73</time>
<name>1939</name>
<sym>Dot</sym>
</trkpt>
<trkpt lat="42.863248" lon="-2.319610">
<ele>1143.5</ele>
<desc>Speed 4.8 km/h Distance 19.85 km</desc>
<time>2013-07-07T18:20:38.72</time>
<name>1940</name>
<sym>Dot</sym>
</trkpt>
<trkpt lat="42.863263" lon="-2.319603">
<ele>1143.0</ele>
<desc>Speed 5.0 km/h Distance 19.85 km</desc>
<time>2013-07-07T18:20:39.71</time>
<name>1941</name>
<sym>Dot</sym>
</trkpt>
<trkpt lat="42.863275" lon="-2.319598">
<ele>1143.0</ele>
<desc>Speed 4.4 km/h Distance 19.85 km</desc>
<time>2013-07-07T18:20:40.71</time>
<name>1942</name>
<sym>Dot</sym>
</trkpt>
<trkpt lat="42.863288" lon="-2.319593">
<ele>1143.0</ele>
<desc>Speed 4.4 km/h Distance 19.85 km</desc>
<time>2013-07-07T18:20:41.70</time>
<name>1943</name>
<sym>Dot</sym>
</trkpt>
<trkpt lat="42.863302" lon="-2.319588">
<ele>1143.0</ele>
<desc>Speed 4.7 km/h Distance 19.86 km</desc>
<time>2013-07-07T18:20:42.69</time>
<name>1944</name>
<sym>Dot</sym>
</trkpt>
<trkpt lat="42.863315" lon="-2.319582">
<ele>1142.5</ele>
<desc>Speed 4.4 km/h Distance 19.86 km</desc>
<time>2013-07-07T18:20:43.68</time>
<name>1945</name>
<sym>Dot</sym>
</trkpt>
<trkpt lat="42.863328" lon="-2.319578">
<ele>1142.0</ele>
<desc>Speed 5.2 km/h Distance 19.86 km</desc>
<time>2013-07-07T18:20:44.68</time>
<name>1946</name>
<sym>Dot</sym>
</trkpt>
<trkpt lat="42.863343" lon="-2.319573">
<ele>1142.0</ele>
<desc>Speed 5.4 km/h Distance 19.86 km</desc>
<time>2013-07-07T18:20:45.67</time>
<name>1947</name>
<sym>Dot</sym>
</trkpt>
<trkpt lat="42.863357" lon="-2.319572">
<ele>1142.0</ele>
<desc>Speed 4.6 km/h Distance 19.86 km</desc>
<time>2013-07-07T18:20:46.66</time>
<name>1948</name>
<sym>Dot</sym>
</trkpt>
<trkpt lat="42.863370" lon="-2.319577">
<ele>1141.0</ele>
<desc>Speed 5.0 km/h Distance 19.86 km</desc>
<time>2013-07-07T18:20:47.65</time>
<name>1949</name>
<sym>Dot</sym>
</trkpt>
<trkpt lat="42.863385" lon="-2.319578">
<ele>1141.0</ele>
<desc>Speed 5.0 km/h Distance 19.86 km</desc>
<time>2013-07-07T18:20:48.64</time>
<name>1950</name>
<sym>Dot</sym>
</trkpt>
<trkpt lat="42.863398" lon="-2.319580">
<ele>1141.0</ele>
<desc>Speed 5.0 km/h Distance 19.87 km</desc>
<time>2013-07-07T18:20:49.63</time>
<name>1951</name>
<sym>Dot</sym>
</trkpt>
<trkpt lat="42.863413" lon="-2.319577">
<ele>1140.5</ele>
<desc>Speed 5.0 km/h Distance 19.87 km</desc>
<time>2013-07-07T18:20:50.62</time>
<name>1952</name>
<sym>Dot</sym>
</trkpt>
<trkpt lat="42.863423" lon="-2.319572">
<ele>1141.0</ele>
<desc>Speed 4.2 km/h Distance 19.87 km</desc>
<time>2013-07-07T18:20:51.61</time>
<name>1953</name>
<sym>Dot</sym>
</trkpt>
<trkpt lat="42.863435" lon="-2.319565">
<ele>1140.5</ele>
<desc>Speed 4.6 km/h Distance 19.87 km</desc>
<time>2013-07-07T18:20:52.61</time>
<name>1954</name>
<sym>Dot</sym>
</trkpt>
<trkpt lat="42.863447" lon="-2.319557">
<ele>1140.5</ele>
<desc>Speed 4.5 km/h Distance 19.87 km</desc>
<time>2013-07-07T18:20:53.60</time>
<name>1955</name>
<sym>Dot</sym>
</trkpt>
<trkpt lat="42.863455" lon="-2.319550">
<ele>1140.5</ele>
<desc>Speed 4.1 km/h Distance 19.87 km</desc>
<time>2013-07-07T18:20:54.59</time>
<name>1956</name>
<sym>Dot</sym>
</trkpt>
<trkpt lat="42.863465" lon="-2.319543">
<ele>1140.5</ele>
<desc>Speed 4.2 km/h Distance 19.87 km</desc>
<time>2013-07-07T18:20:55.58</time>
<name>1957</name>
<sym>Dot</sym>
</trkpt>
<trkpt lat="42.863475" lon="-2.319535">
<ele>1141.0</ele>
<desc>Speed 4.3 km/h Distance 19.88 km</desc>
<time>2013-07-07T18:20:56.57</time>
<name>1958</name>
<sym>Dot</sym>
</trkpt>
<trkpt lat="42.863485" lon="-2.319530">
<ele>1141.0</ele>
<desc>Speed 4.4 km/h Distance 19.88 km</desc>
<time>2013-07-07T18:20:57.56</time>
<name>1959</name>
<sym>Dot</sym>
</trkpt>
<trkpt lat="42.863495" lon="-2.319523">
<ele>1141.5</ele>
<desc>Speed 3.9 km/h Distance 19.88 km</desc>
<time>2013-07-07T18:20:58.56</time>
<name>1960</name>
<sym>Dot</sym>
</trkpt>
<trkpt lat="42.863505" lon="-2.319517">
<ele>1141.5</ele>
<desc>Speed 4.5 km/h Distance 19.88 km</desc>
<time>2013-07-07T18:20:59.55</time>
<name>1961</name>
<sym>Dot</sym>
</trkpt>
<trkpt lat="42.863517" lon="-2.319510">
<ele>1141.5</ele>
<desc>Speed 4.6 km/h Distance 19.88 km</desc>
<time>2013-07-07T18:21:00.54</time>
<name>1962</name>
<sym>Dot</sym>
</trkpt>
<trkpt lat="42.863525" lon="-2.319505">
<ele>1141.5</ele>
<desc>Speed 3.9 km/h Distance 19.88 km</desc>
<time>2013-07-07T18:21:01.53</time>
<name>1963</name>
<sym>Dot</sym>
</trkpt>
<trkpt lat="42.863535" lon="-2.319498">
<ele>1142.0</ele>
<desc>Speed 4.1 km/h Distance 19.88 km</desc>
<time>2013-07-07T18:21:02.52</time>
<name>1964</name>
<sym>Dot</sym>
</trkpt>
<trkpt lat="42.863547" lon="-2.319490">
<ele>1142.0</ele>
<desc>Speed 5.0 km/h Distance 19.88 km</desc>
<time>2013-07-07T18:21:03.52</time>
<name>1965</name>
<sym>Dot</sym>
</trkpt>
<trkpt lat="42.863558" lon="-2.319482">
<ele>1142.0</ele>
<desc>Speed 4.7 km/h Distance 19.89 km</desc>
<time>2013-07-07T18:21:04.51</time>
<name>1966</name>
<sym>Dot</sym>
</trkpt>
<trkpt lat="42.863570" lon="-2.319475">
<ele>1142.5</ele>
<desc>Speed 4.3 km/h Distance 19.89 km</desc>
<time>2013-07-07T18:21:05.51</time>
<name>1967</name>
<sym>Dot</sym>
</trkpt>
<trkpt lat="42.863580" lon="-2.319467">
<ele>1142.5</ele>
<desc>Speed 4.4 km/h Distance 19.89 km</desc>
<time>2013-07-07T18:21:06.49</time>
<name>1968</name>
<sym>Dot</sym>
</trkpt>
<trkpt lat="42.863590" lon="-2.319458">
<ele>1142.5</ele>
<desc>Speed 4.6 km/h Distance 19.89 km</desc>
<time>2013-07-07T18:21:07.48</time>
<name>1969</name>
<sym>Dot</sym>
</trkpt>
<trkpt lat="42.863600" lon="-2.319450">
<ele>1143.0</ele>
<desc>Speed 4.7 km/h Distance 19.89 km</desc>
<time>2013-07-07T18:21:08.47</time>
<name>1970</name>
<sym>Dot</sym>
</trkpt>
<trkpt lat="42.863610" lon="-2.319443">
<ele>1143.0</ele>
<desc>Speed 4.0 km/h Distance 19.89 km</desc>
<time>2013-07-07T18:21:09.46</time>
<name>1971</name>
<sym>Dot</sym>
</trkpt>
<trkpt lat="42.863620" lon="-2.319438">
<ele>1143.0</ele>
<desc>Speed 4.1 km/h Distance 19.89 km</desc>
<time>2013-07-07T18:21:10.45</time>
<name>1972</name>
<sym>Dot</sym>
</trkpt>
<trkpt lat="42.863632" lon="-2.319430">
<ele>1143.0</ele>
<desc>Speed 4.5 km/h Distance 19.90 km</desc>
<time>2013-07-07T18:21:11.44</time>
<name>1973</name>
<sym>Dot</sym>
</trkpt>
<trkpt lat="42.863642" lon="-2.319423">
<ele>1143.0</ele>
<desc>Speed 4.5 km/h Distance 19.90 km</desc>
<time>2013-07-07T18:21:12.43</time>
<name>1974</name>
<sym>Dot</sym>
</trkpt>
<trkpt lat="42.863653" lon="-2.319418">
<ele>1143.5</ele>
<desc>Speed 4.5 km/h Distance 19.90 km</desc>
<time>2013-07-07T18:21:13.42</time>
<name>1975</name>
<sym>Dot</sym>
</trkpt>
<trkpt lat="42.863665" lon="-2.319412">
<ele>1143.5</ele>
<desc>Speed 4.2 km/h Distance 19.90 km</desc>
<time>2013-07-07T18:21:14.41</time>
<name>1976</name>
<sym>Dot</sym>
</trkpt>
<trkpt lat="42.863677" lon="-2.319403">
<ele>1143.5</ele>
<desc>Speed 4.6 km/h Distance 19.90 km</desc>
<time>2013-07-07T18:21:15.40</time>
<name>1977</name>
<sym>Dot</sym>
</trkpt>
<trkpt lat="42.863687" lon="-2.319398">
<ele>1143.5</ele>
<desc>Speed 3.6 km/h Distance 19.90 km</desc>
<time>2013-07-07T18:21:16.39</time>
<name>1978</name>
<sym>Dot</sym>
</trkpt>
<trkpt lat="42.863697" lon="-2.319392">
<ele>1143.5</ele>
<desc>Speed 3.9 km/h Distance 19.90 km</desc>
<time>2013-07-07T18:21:17.38</time>
<name>1979</name>
<sym>Dot</sym>
</trkpt>
<trkpt lat="42.863708" lon="-2.319388">
<ele>1143.5</ele>
<desc>Speed 4.1 km/h Distance 19.90 km</desc>
<time>2013-07-07T18:21:18.37</time>
<name>1980</name>
<sym>Dot</sym>
</trkpt>
<trkpt lat="42.863723" lon="-2.319383">
<ele>1144.0</ele>
<desc>Speed 4.6 km/h Distance 19.91 km</desc>
<time>2013-07-07T18:21:19.37</time>
<name>1981</name>
<sym>Dot</sym>
</trkpt>
<trkpt lat="42.863737" lon="-2.319378">
<ele>1143.5</ele>
<desc>Speed 5.0 km/h Distance 19.91 km</desc>
<time>2013-07-07T18:21:20.36</time>
<name>1982</name>
<sym>Dot</sym>
</trkpt>
<trkpt lat="42.863750" lon="-2.319377">
<ele>1143.5</ele>
<desc>Speed 4.5 km/h Distance 19.91 km</desc>
<time>2013-07-07T18:21:21.35</time>
<name>1983</name>
<sym>Dot</sym>
</trkpt>
<trkpt lat="42.863762" lon="-2.319382">
<ele>1143.0</ele>
<desc>Speed 5.1 km/h Distance 19.91 km</desc>
<time>2013-07-07T18:21:22.34</time>
<name>1984</name>
<sym>Dot</sym>
</trkpt>
<trkpt lat="42.863777" lon="-2.319392">
<ele>1143.0</ele>
<desc>Speed 5.4 km/h Distance 19.91 km</desc>
<time>2013-07-07T18:21:23.33</time>
<name>1985</name>
<sym>Dot</sym>
</trkpt>
<trkpt lat="42.863788" lon="-2.319405">
<ele>1142.5</ele>
<desc>Speed 5.7 km/h Distance 19.91 km</desc>
<time>2013-07-07T18:21:24.32</time>
<name>1986</name>
<sym>Dot</sym>
</trkpt>
<trkpt lat="42.863795" lon="-2.319413">
<ele>1142.5</ele>
<desc>Speed 2.3 km/h Distance 19.92 km</desc>
<time>2013-07-07T18:21:25.31</time>
<name>1987</name>
<sym>Dot</sym>
</trkpt>
<trkpt lat="42.863803" lon="-2.319415">
<ele>1142.5</ele>
<desc>Speed 2.5 km/h Distance 19.92 km</desc>
<time>2013-07-07T18:21:26.30</time>
<name>1988</name>
<sym>Dot</sym>
</trkpt>
<trkpt lat="42.863803" lon="-2.319420">
<ele>1143.0</ele>
<desc>Speed 1.5 km/h Distance 19.92 km</desc>
<time>2013-07-07T18:21:27.30</time>
<name>1989</name>
<sym>Dot</sym>
</trkpt>
<trkpt lat="42.863805" lon="-2.319427">
<ele>1143.5</ele>
<desc>Speed 1.8 km/h Distance 19.92 km</desc>
<time>2013-07-07T18:21:28.29</time>
<name>1990</name>
<sym>Dot</sym>
</trkpt>
<trkpt lat="42.863807" lon="-2.319425">
<ele>1144.5</ele>
<desc>Speed 1.0 km/h Distance 19.92 km</desc>
<time>2013-07-07T18:21:29.28</time>
<name>1991</name>
<sym>Dot</sym>
</trkpt>
<trkpt lat="42.863822" lon="-2.319388">
<ele>1145.5</ele>
<desc>Speed 2.3 km/h Distance 19.92 km</desc>
<time>2013-07-07T18:21:31.27</time>
<name>1992</name>
<sym>Dot</sym>
</trkpt>
<trkpt lat="42.863823" lon="-2.319377">
<ele>1145.5</ele>
<desc>Speed 3.6 km/h Distance 19.92 km</desc>
<time>2013-07-07T18:21:32.26</time>
<name>1993</name>
<sym>Dot</sym>
</trkpt>
<trkpt lat="42.863823" lon="-2.319377">
<ele>1145.5</ele>
<desc>Speed 0.5 km/h Distance 19.92 km</desc>
<time>2013-07-07T18:21:33.26</time>
<name>1994</name>
<sym>Dot</sym>
</trkpt>
<trkpt lat="42.863817" lon="-2.319400">
<ele>1145.5</ele>
<desc>Speed 7.4 km/h Distance 19.92 km</desc>
<time>2013-07-07T18:21:34.25</time>
<name>1995</name>
<sym>Dot</sym>
</trkpt>
<trkpt lat="42.863815" lon="-2.319405">
<ele>1145.5</ele>
<desc>Speed 1.6 km/h Distance 19.92 km</desc>
<time>2013-07-07T18:21:35.25</time>
<name>1996</name>
<sym>Dot</sym>
</trkpt>
<trkpt lat="42.863817" lon="-2.319407">
<ele>1145.0</ele>
<desc>Speed 0.9 km/h Distance 19.92 km</desc>
<time>2013-07-07T18:21:36.24</time>
<name>1997</name>
<sym>Dot</sym>
</trkpt>
<trkpt lat="42.863818" lon="-2.319407">
<ele>1145.0</ele>
<desc>Speed 0.2 km/h Distance 19.92 km</desc>
<time>2013-07-07T18:21:37.23</time>
<name>1998</name>
<sym>Dot</sym>
</trkpt>
<trkpt lat="42.863818" lon="-2.319408">
<ele>1144.5</ele>
<desc>Speed 0.1 km/h Distance 19.92 km</desc>
<time>2013-07-07T18:21:38.23</time>
<name>1999</name>
<sym>Dot</sym>
</trkpt>
<trkpt lat="42.863818" lon="-2.319408">
<ele>1144.5</ele>
<desc>Speed 0.5 km/h Distance 19.92 km</desc>
<time>2013-07-07T18:21:39.22</time>
<name>2000</name>
<sym>Dot</sym>
</trkpt>
<trkpt lat="42.863818" lon="-2.319408">
<ele>1144.5</ele>
<desc>Speed 0.3 km/h Distance 19.92 km</desc>
<time>2013-07-07T18:21:40.22</time>
<name>2001</name>
<sym>Dot</sym>
</trkpt>
<trkpt lat="42.863818" lon="-2.319408">
<ele>1144.5</ele>
<desc>Speed 0.3 km/h Distance 19.92 km</desc>
<time>2013-07-07T18:21:41.21</time>
<name>2002</name>
<sym>Dot</sym>
</trkpt>
<trkpt lat="42.863818" lon="-2.319408">
<ele>1144.5</ele>
<desc>Speed 0.3 km/h Distance 19.92 km</desc>
<time>2013-07-07T18:21:42.20</time>
<name>2003</name>
<sym>Dot</sym>
</trkpt>
<trkpt lat="42.863820" lon="-2.319408">
<ele>1144.5</ele>
<desc>Speed 0.5 km/h Distance 19.92 km</desc>
<time>2013-07-07T18:21:43.19</time>
<name>2004</name>
<sym>Dot</sym>
</trkpt>
<trkpt lat="42.863822" lon="-2.319413">
<ele>1143.5</ele>
<desc>Speed 1.4 km/h Distance 19.93 km</desc>
<time>2013-07-07T18:21:44.18</time>
<name>2005</name>
<sym>Dot</sym>
</trkpt>
<trkpt lat="42.863823" lon="-2.319413">
<ele>1143.0</ele>
<desc>Speed 0.4 km/h Distance 19.93 km</desc>
<time>2013-07-07T18:21:45.17</time>
<name>2006</name>
<sym>Dot</sym>
</trkpt>
<trkpt lat="42.863823" lon="-2.319413">
<ele>1143.0</ele>
<desc>Speed 0.3 km/h Distance 19.93 km</desc>
<time>2013-07-07T18:21:46.16</time>
<name>2007</name>
<sym>Dot</sym>
</trkpt>
<trkpt lat="42.863823" lon="-2.319413">
<ele>1143.0</ele>
<desc>Speed 0.3 km/h Distance 19.93 km</desc>
<time>2013-07-07T18:21:47.16</time>
<name>2008</name>
<sym>Dot</sym>
</trkpt>
<trkpt lat="42.863823" lon="-2.319413">
<ele>1143.0</ele>
<desc>Speed 0.2 km/h Distance 19.93 km</desc>
<time>2013-07-07T18:21:48.16</time>
<name>2009</name>
<sym>Dot</sym>
</trkpt>
<trkpt lat="42.863823" lon="-2.319413">
<ele>1143.5</ele>
<desc>Speed 0.2 km/h Distance 19.93 km</desc>
<time>2013-07-07T18:21:49.15</time>
<name>2010</name>
<sym>Dot</sym>
</trkpt>
<trkpt lat="42.863823" lon="-2.319413">
<ele>1143.5</ele>
<desc>Speed 0.3 km/h Distance 19.93 km</desc>
<time>2013-07-07T18:21:50.15</time>
<name>2011</name>
<sym>Dot</sym>
</trkpt>
<trkpt lat="42.863823" lon="-2.319413">
<ele>1143.5</ele>
<desc>Speed 0.5 km/h Distance 19.93 km</desc>
<time>2013-07-07T18:21:51.14</time>
<name>2012</name>
<sym>Dot</sym>
</trkpt>
<trkpt lat="42.863825" lon="-2.319413">
<ele>1143.5</ele>
<desc>Speed 0.0 km/h Distance 19.93 km</desc>
<time>2013-07-07T18:21:52.14</time>
<name>2013</name>
<sym>Dot</sym>
</trkpt>
<trkpt lat="42.863825" lon="-2.319415">
<ele>1144.0</ele>
<desc>Speed 0.2 km/h Distance 19.93 km</desc>
<time>2013-07-07T18:21:53.12</time>
<name>2014</name>
<sym>Dot</sym>
</trkpt>
<trkpt lat="42.863825" lon="-2.319415">
<ele>1144.0</ele>
<desc>Speed 0.6 km/h Distance 19.93 km</desc>
<time>2013-07-07T18:21:54.11</time>
<name>2015</name>
<sym>Dot</sym>
</trkpt>
<trkpt lat="42.863825" lon="-2.319415">
<ele>1144.0</ele>
<desc>Speed 0.1 km/h Distance 19.93 km</desc>
<time>2013-07-07T18:21:55.11</time>
<name>2016</name>
<sym>Dot</sym>
</trkpt>
<trkpt lat="42.863825" lon="-2.319417">
<ele>1144.0</ele>
<desc>Speed 0.8 km/h Distance 19.93 km</desc>
<time>2013-07-07T18:21:56.10</time>
<name>2017</name>
<sym>Dot</sym>
</trkpt>
<trkpt lat="42.863822" lon="-2.319417">
<ele>1144.0</ele>
<desc>Speed 1.7 km/h Distance 19.93 km</desc>
<time>2013-07-07T18:21:57.09</time>
<name>2018</name>
<sym>Dot</sym>
</trkpt>
<trkpt lat="42.863818" lon="-2.319417">
<ele>1144.5</ele>
<desc>Speed 1.2 km/h Distance 19.93 km</desc>
<time>2013-07-07T18:21:58.09</time>
<name>2019</name>
<sym>Dot</sym>
</trkpt>
<trkpt lat="42.863817" lon="-2.319418">
<ele>1144.5</ele>
<desc>Speed 1.0 km/h Distance 19.93 km</desc>
<time>2013-07-07T18:21:59.08</time>
<name>2020</name>
<sym>Dot</sym>
</trkpt>
<trkpt lat="42.863813" lon="-2.319417">
<ele>1144.5</ele>
<desc>Speed 1.5 km/h Distance 19.93 km</desc>
<time>2013-07-07T18:22:00.08</time>
<name>2021</name>
<sym>Dot</sym>
</trkpt>
<trkpt lat="42.863810" lon="-2.319418">
<ele>1144.5</ele>
<desc>Speed 1.2 km/h Distance 19.93 km</desc>
<time>2013-07-07T18:22:01.07</time>
<name>2022</name>
<sym>Dot</sym>
</trkpt>
<trkpt lat="42.863808" lon="-2.319415">
<ele>1145.0</ele>
<desc>Speed 1.0 km/h Distance 19.93 km</desc>
<time>2013-07-07T18:22:02.07</time>
<name>2023</name>
<sym>Dot</sym>
</trkpt>
<trkpt lat="42.863802" lon="-2.319415">
<ele>1144.5</ele>
<desc>Speed 2.3 km/h Distance 19.93 km</desc>
<time>2013-07-07T18:22:03.06</time>
<name>2024</name>
<sym>Dot</sym>
</trkpt>
<trkpt lat="42.863800" lon="-2.319415">
<ele>1144.0</ele>
<desc>Speed 0.8 km/h Distance 19.93 km</desc>
<time>2013-07-07T18:22:04.05</time>
<name>2025</name>
<sym>Dot</sym>
</trkpt>
<trkpt lat="42.863800" lon="-2.319415">
<ele>1144.0</ele>
<desc>Speed 0.1 km/h Distance 19.93 km</desc>
<time>2013-07-07T18:22:05.04</time>
<name>2026</name>
<sym>Dot</sym>
</trkpt>
<trkpt lat="42.863800" lon="-2.319415">
<ele>1144.0</ele>
<desc>Speed 0.2 km/h Distance 19.93 km</desc>
<time>2013-07-07T18:22:06.04</time>
<name>2027</name>
<sym>Dot</sym>
</trkpt>
<trkpt lat="42.863800" lon="-2.319415">
<ele>1144.0</ele>
<desc>Speed 0.2 km/h Distance 19.93 km</desc>
<time>2013-07-07T18:22:07.03</time>
<name>2028</name>
<sym>Dot</sym>
</trkpt>
<trkpt lat="42.863800" lon="-2.319415">
<ele>1144.0</ele>
<desc>Speed 0.1 km/h Distance 19.93 km</desc>
<time>2013-07-07T18:22:08.03</time>
<name>2029</name>
<sym>Dot</sym>
</trkpt>
<trkpt lat="42.863800" lon="-2.319415">
<ele>1144.0</ele>
<desc>Speed 0.2 km/h Distance 19.93 km</desc>
<time>2013-07-07T18:22:09.03</time>
<name>2030</name>
<sym>Dot</sym>
</trkpt>
<trkpt lat="42.863800" lon="-2.319415">
<ele>1144.0</ele>
<desc>Speed 0.2 km/h Distance 19.93 km</desc>
<time>2013-07-07T18:22:10.02</time>
<name>2031</name>
<sym>Dot</sym>
</trkpt>
<trkpt lat="42.863800" lon="-2.319417">
<ele>1144.0</ele>
<desc>Speed 0.1 km/h Distance 19.93 km</desc>
<time>2013-07-07T18:22:11.00</time>
<name>2032</name>
<sym>Dot</sym>
</trkpt>
<trkpt lat="42.863800" lon="-2.319417">
<ele>1144.0</ele>
<desc>Speed 0.2 km/h Distance 19.93 km</desc>
<time>2013-07-07T18:22:12.00</time>
<name>2033</name>
<sym>Dot</sym>
</trkpt>
<trkpt lat="42.863800" lon="-2.319418">
<ele>1144.5</ele>
<desc>Speed 0.3 km/h Distance 19.93 km</desc>
<time>2013-07-07T18:22:12.99</time>
<name>2034</name>
<sym>Dot</sym>
</trkpt>
<trkpt lat="42.863800" lon="-2.319418">
<ele>1144.5</ele>
<desc>Speed 0.2 km/h Distance 19.93 km</desc>
<time>2013-07-07T18:22:13.98</time>
<name>2035</name>
<sym>Dot</sym>
</trkpt>
<trkpt lat="42.863800" lon="-2.319418">
<ele>1144.5</ele>
<desc>Speed 0.2 km/h Distance 19.93 km</desc>
<time>2013-07-07T18:22:14.96</time>
<name>2036</name>
<sym>Dot</sym>
</trkpt>
<trkpt lat="42.863800" lon="-2.319420">
<ele>1144.5</ele>
<desc>Speed 0.4 km/h Distance 19.93 km</desc>
<time>2013-07-07T18:22:15.96</time>
<name>2037</name>
<sym>Dot</sym>
</trkpt>
<trkpt lat="42.863800" lon="-2.319420">
<ele>1144.5</ele>
<desc>Speed 0.3 km/h Distance 19.93 km</desc>
<time>2013-07-07T18:22:16.95</time>
<name>2038</name>
<sym>Dot</sym>
</trkpt>
<trkpt lat="42.863800" lon="-2.319422">
<ele>1144.5</ele>
<desc>Speed 0.1 km/h Distance 19.93 km</desc>
<time>2013-07-07T18:22:17.94</time>
<name>2039</name>
<sym>Dot</sym>
</trkpt>
<trkpt lat="42.863800" lon="-2.319422">
<ele>1144.5</ele>
<desc>Speed 0.2 km/h Distance 19.93 km</desc>
<time>2013-07-07T18:22:18.94</time>
<name>2040</name>
<sym>Dot</sym>
</trkpt>
<trkpt lat="42.863800" lon="-2.319422">
<ele>1144.5</ele>
<desc>Speed 0.2 km/h Distance 19.93 km</desc>
<time>2013-07-07T18:22:19.93</time>
<name>2041</name>
<sym>Dot</sym>
</trkpt>
<trkpt lat="42.863800" lon="-2.319422">
<ele>1144.5</ele>
<desc>Speed 0.0 km/h Distance 19.93 km</desc>
<time>2013-07-07T18:22:20.93</time>
<name>2042</name>
<sym>Dot</sym>
</trkpt>
<trkpt lat="42.863800" lon="-2.319422">
<ele>1144.5</ele>
<desc>Speed 0.3 km/h Distance 19.93 km</desc>
<time>2013-07-07T18:22:21.92</time>
<name>2043</name>
<sym>Dot</sym>
</trkpt>
<trkpt lat="42.863800" lon="-2.319422">
<ele>1144.5</ele>
<desc>Speed 0.1 km/h Distance 19.93 km</desc>
<time>2013-07-07T18:22:22.91</time>
<name>2044</name>
<sym>Dot</sym>
</trkpt>
<trkpt lat="42.863800" lon="-2.319423">
<ele>1144.5</ele>
<desc>Speed 0.2 km/h Distance 19.93 km</desc>
<time>2013-07-07T18:22:23.90</time>
<name>2045</name>
<sym>Dot</sym>
</trkpt>
<trkpt lat="42.863800" lon="-2.319423">
<ele>1144.5</ele>
<desc>Speed 0.2 km/h Distance 19.93 km</desc>
<time>2013-07-07T18:22:24.90</time>
<name>2046</name>
<sym>Dot</sym>
</trkpt>
<trkpt lat="42.863800" lon="-2.319423">
<ele>1144.5</ele>
<desc>Speed 0.0 km/h Distance 19.93 km</desc>
<time>2013-07-07T18:22:25.89</time>
<name>2047</name>
<sym>Dot</sym>
</trkpt>
<trkpt lat="42.863800" lon="-2.319423">
<ele>1144.5</ele>
<desc>Speed 0.1 km/h Distance 19.93 km</desc>
<time>2013-07-07T18:22:26.89</time>
<name>2048</name>
<sym>Dot</sym>
</trkpt>
<trkpt lat="42.863800" lon="-2.319423">
<ele>1144.5</ele>
<desc>Speed 0.1 km/h Distance 19.93 km</desc>
<time>2013-07-07T18:22:27.88</time>
<name>2049</name>
<sym>Dot</sym>
</trkpt>
<trkpt lat="42.863800" lon="-2.319423">
<ele>1144.5</ele>
<desc>Speed 0.2 km/h Distance 19.93 km</desc>
<time>2013-07-07T18:22:28.87</time>
<name>2050</name>
<sym>Dot</sym>
</trkpt>
<trkpt lat="42.863800" lon="-2.319423">
<ele>1144.5</ele>
<desc>Speed 0.3 km/h Distance 19.93 km</desc>
<time>2013-07-07T18:22:29.86</time>
<name>2051</name>
<sym>Dot</sym>
</trkpt>
<trkpt lat="42.863800" lon="-2.319423">
<ele>1144.5</ele>
<desc>Speed 0.1 km/h Distance 19.93 km</desc>
<time>2013-07-07T18:22:30.85</time>
<name>2052</name>
<sym>Dot</sym>
</trkpt>
<trkpt lat="42.863800" lon="-2.319423">
<ele>1144.5</ele>
<desc>Speed 0.1 km/h Distance 19.93 km</desc>
<time>2013-07-07T18:22:31.85</time>
<name>2053</name>
<sym>Dot</sym>
</trkpt>
<trkpt lat="42.863800" lon="-2.319423">
<ele>1144.5</ele>
<desc>Speed 0.3 km/h Distance 19.93 km</desc>
<time>2013-07-07T18:22:32.84</time>
<name>2054</name>
<sym>Dot</sym>
</trkpt>
<trkpt lat="42.863800" lon="-2.319423">
<ele>1144.5</ele>
<desc>Speed 0.2 km/h Distance 19.93 km</desc>
<time>2013-07-07T18:22:33.83</time>
<name>2055</name>
<sym>Dot</sym>
</trkpt>
<trkpt lat="42.863800" lon="-2.319423">
<ele>1144.5</ele>
<desc>Speed 0.1 km/h Distance 19.93 km</desc>
<time>2013-07-07T18:22:34.82</time>
<name>2056</name>
<sym>Dot</sym>
</trkpt>
<trkpt lat="42.863800" lon="-2.319423">
<ele>1144.5</ele>
<desc>Speed 0.2 km/h Distance 19.93 km</desc>
<time>2013-07-07T18:22:35.81</time>
<name>2057</name>
<sym>Dot</sym>
</trkpt>
<trkpt lat="42.863800" lon="-2.319425">
<ele>1144.5</ele>
<desc>Speed 0.4 km/h Distance 19.93 km</desc>
<time>2013-07-07T18:22:36.81</time>
<name>2058</name>
<sym>Dot</sym>
</trkpt>
<trkpt lat="42.863800" lon="-2.319425">
<ele>1144.5</ele>
<desc>Speed 0.2 km/h Distance 19.93 km</desc>
<time>2013-07-07T18:22:37.81</time>
<name>2059</name>
<sym>Dot</sym>
</trkpt>
<trkpt lat="42.863800" lon="-2.319425">
<ele>1144.5</ele>
<desc>Speed 0.1 km/h Distance 19.93 km</desc>
<time>2013-07-07T18:22:38.80</time>
<name>2060</name>
<sym>Dot</sym>
</trkpt>
<trkpt lat="42.863800" lon="-2.319425">
<ele>1144.5</ele>
<desc>Speed 0.3 km/h Distance 19.93 km</desc>
<time>2013-07-07T18:22:39.79</time>
<name>2061</name>
<sym>Dot</sym>
</trkpt>
<trkpt lat="42.863800" lon="-2.319425">
<ele>1144.5</ele>
<desc>Speed 0.3 km/h Distance 19.93 km</desc>
<time>2013-07-07T18:22:40.77</time>
<name>2062</name>
<sym>Dot</sym>
</trkpt>
<trkpt lat="42.863800" lon="-2.319425">
<ele>1144.5</ele>
<desc>Speed 0.3 km/h Distance 19.93 km</desc>
<time>2013-07-07T18:22:41.77</time>
<name>2063</name>
<sym>Dot</sym>
</trkpt>
<trkpt lat="42.863800" lon="-2.319425">
<ele>1144.5</ele>
<desc>Speed 0.1 km/h Distance 19.93 km</desc>
<time>2013-07-07T18:22:42.76</time>
<name>2064</name>
<sym>Dot</sym>
</trkpt>
<trkpt lat="42.863800" lon="-2.319425">
<ele>1144.5</ele>
<desc>Speed 0.2 km/h Distance 19.93 km</desc>
<time>2013-07-07T18:22:43.76</time>
<name>2065</name>
<sym>Dot</sym>
</trkpt>
<trkpt lat="42.863800" lon="-2.319425">
<ele>1144.5</ele>
<desc>Speed 0.2 km/h Distance 19.93 km</desc>
<time>2013-07-07T18:22:44.76</time>
<name>2066</name>
<sym>Dot</sym>
</trkpt>
<trkpt lat="42.863800" lon="-2.319425">
<ele>1144.5</ele>
<desc>Speed 0.0 km/h Distance 19.93 km</desc>
<time>2013-07-07T18:22:45.75</time>
<name>2067</name>
<sym>Dot</sym>
</trkpt>
<trkpt lat="42.863802" lon="-2.319425">
<ele>1144.0</ele>
<desc>Speed 1.1 km/h Distance 19.93 km</desc>
<time>2013-07-07T18:22:46.74</time>
<name>2068</name>
<sym>Dot</sym>
</trkpt>
<trkpt lat="42.863802" lon="-2.319425">
<ele>1144.0</ele>
<desc>Speed 0.4 km/h Distance 19.93 km</desc>
<time>2013-07-07T18:22:47.74</time>
<name>2069</name>
<sym>Dot</sym>
</trkpt>
<trkpt lat="42.863802" lon="-2.319425">
<ele>1144.0</ele>
<desc>Speed 0.1 km/h Distance 19.93 km</desc>
<time>2013-07-07T18:22:48.73</time>
<name>2070</name>
<sym>Dot</sym>
</trkpt>
<trkpt lat="42.863802" lon="-2.319425">
<ele>1144.0</ele>
<desc>Speed 0.3 km/h Distance 19.93 km</desc>
<time>2013-07-07T18:22:49.72</time>
<name>2071</name>
<sym>Dot</sym>
</trkpt>
<trkpt lat="42.863792" lon="-2.319440">
<ele>1144.5</ele>
<desc>Speed 6.0 km/h Distance 19.93 km</desc>
<time>2013-07-07T18:22:50.71</time>
<name>2072</name>
<sym>Dot</sym>
</trkpt>
<trkpt lat="42.863795" lon="-2.319437">
<ele>1143.5</ele>
<desc>Speed 1.1 km/h Distance 19.93 km</desc>
<time>2013-07-07T18:22:51.71</time>
<name>2073</name>
<sym>Dot</sym>
</trkpt>
<trkpt lat="42.863768" lon="-2.319437">
<ele>1144.0</ele>
<desc>Speed 3.6 km/h Distance 19.94 km</desc>
<time>2013-07-07T18:22:53.70</time>
<name>2074</name>
<sym>Dot</sym>
</trkpt>
<trkpt lat="42.863777" lon="-2.319430">
<ele>1144.0</ele>
<desc>Speed 3.6 km/h Distance 19.94 km</desc>
<time>2013-07-07T18:22:54.69</time>
<name>2075</name>
<sym>Dot</sym>
</trkpt>
<trkpt lat="42.863777" lon="-2.319432">
<ele>1144.0</ele>
<desc>Speed 0.1 km/h Distance 19.94 km</desc>
<time>2013-07-07T18:22:55.69</time>
<name>2076</name>
<sym>Dot</sym>
</trkpt>
<trkpt lat="42.863777" lon="-2.319433">
<ele>1144.0</ele>
<desc>Speed 0.1 km/h Distance 19.94 km</desc>
<time>2013-07-07T18:22:56.68</time>
<name>2077</name>
<sym>Dot</sym>
</trkpt>
<trkpt lat="42.863777" lon="-2.319433">
<ele>1144.0</ele>
<desc>Speed 0.2 km/h Distance 19.94 km</desc>
<time>2013-07-07T18:22:57.67</time>
<name>2078</name>
<sym>Dot</sym>
</trkpt>
<trkpt lat="42.863777" lon="-2.319435">
<ele>1144.0</ele>
<desc>Speed 0.0 km/h Distance 19.94 km</desc>
<time>2013-07-07T18:22:58.66</time>
<name>2079</name>
<sym>Dot</sym>
</trkpt>
<trkpt lat="42.863777" lon="-2.319435">
<ele>1144.0</ele>
<desc>Speed 0.1 km/h Distance 19.94 km</desc>
<time>2013-07-07T18:22:59.65</time>
<name>2080</name>
<sym>Dot</sym>
</trkpt>
<trkpt lat="42.863777" lon="-2.319435">
<ele>1144.0</ele>
<desc>Speed 0.1 km/h Distance 19.94 km</desc>
<time>2013-07-07T18:23:00.64</time>
<name>2081</name>
<sym>Dot</sym>
</trkpt>
<trkpt lat="42.863777" lon="-2.319437">
<ele>1144.0</ele>
<desc>Speed 0.4 km/h Distance 19.94 km</desc>
<time>2013-07-07T18:23:01.63</time>
<name>2082</name>
<sym>Dot</sym>
</trkpt>
<trkpt lat="42.863778" lon="-2.319437">
<ele>1144.0</ele>
<desc>Speed 0.0 km/h Distance 19.94 km</desc>
<time>2013-07-07T18:23:02.63</time>
<name>2083</name>
<sym>Dot</sym>
</trkpt>
<trkpt lat="42.863778" lon="-2.319437">
<ele>1143.5</ele>
<desc>Speed 0.0 km/h Distance 19.94 km</desc>
<time>2013-07-07T18:23:03.63</time>
<name>2084</name>
<sym>Dot</sym>
</trkpt>
<trkpt lat="42.863778" lon="-2.319437">
<ele>1143.5</ele>
<desc>Speed 0.3 km/h Distance 19.94 km</desc>
<time>2013-07-07T18:23:04.62</time>
<name>2085</name>
<sym>Dot</sym>
</trkpt>
<trkpt lat="42.863778" lon="-2.319435">
<ele>1143.5</ele>
<desc>Speed 0.0 km/h Distance 19.94 km</desc>
<time>2013-07-07T18:23:05.61</time>
<name>2086</name>
<sym>Dot</sym>
</trkpt>
<trkpt lat="42.863778" lon="-2.319435">
<ele>1143.5</ele>
<desc>Speed 0.2 km/h Distance 19.94 km</desc>
<time>2013-07-07T18:23:06.60</time>
<name>2087</name>
<sym>Dot</sym>
</trkpt>
<trkpt lat="42.863778" lon="-2.319435">
<ele>1143.5</ele>
<desc>Speed 0.4 km/h Distance 19.94 km</desc>
<time>2013-07-07T18:23:07.59</time>
<name>2088</name>
<sym>Dot</sym>
</trkpt>
<trkpt lat="42.863778" lon="-2.319435">
<ele>1143.5</ele>
<desc>Speed 0.0 km/h Distance 19.94 km</desc>
<time>2013-07-07T18:23:08.58</time>
<name>2089</name>
<sym>Dot</sym>
</trkpt>
<trkpt lat="42.863778" lon="-2.319435">
<ele>1143.5</ele>
<desc>Speed 0.3 km/h Distance 19.94 km</desc>
<time>2013-07-07T18:23:09.58</time>
<name>2090</name>
<sym>Dot</sym>
</trkpt>
<trkpt lat="42.863778" lon="-2.319435">
<ele>1143.5</ele>
<desc>Speed 0.2 km/h Distance 19.94 km</desc>
<time>2013-07-07T18:23:10.58</time>
<name>2091</name>
<sym>Dot</sym>
</trkpt>
<trkpt lat="42.863778" lon="-2.319435">
<ele>1143.5</ele>
<desc>Speed 0.4 km/h Distance 19.94 km</desc>
<time>2013-07-07T18:23:11.58</time>
<name>2092</name>
<sym>Dot</sym>
</trkpt>
<trkpt lat="42.863778" lon="-2.319435">
<ele>1143.5</ele>
<desc>Speed 0.1 km/h Distance 19.94 km</desc>
<time>2013-07-07T18:23:12.57</time>
<name>2093</name>
<sym>Dot</sym>
</trkpt>
<trkpt lat="42.863778" lon="-2.319435">
<ele>1143.5</ele>
<desc>Speed 0.4 km/h Distance 19.94 km</desc>
<time>2013-07-07T18:23:13.56</time>
<name>2094</name>
<sym>Dot</sym>
</trkpt>
<trkpt lat="42.863780" lon="-2.319432">
<ele>1143.0</ele>
<desc>Speed 0.8 km/h Distance 19.94 km</desc>
<time>2013-07-07T18:23:14.56</time>
<name>2095</name>
<sym>Dot</sym>
</trkpt>
<trkpt lat="42.863780" lon="-2.319432">
<ele>1143.0</ele>
<desc>Speed 0.3 km/h Distance 19.94 km</desc>
<time>2013-07-07T18:23:15.55</time>
<name>2096</name>
<sym>Dot</sym>
</trkpt>
<trkpt lat="42.863780" lon="-2.319432">
<ele>1143.0</ele>
<desc>Speed 0.4 km/h Distance 19.94 km</desc>
<time>2013-07-07T18:23:16.54</time>
<name>2097</name>
<sym>Dot</sym>
</trkpt>
<trkpt lat="42.863782" lon="-2.319432">
<ele>1142.5</ele>
<desc>Speed 0.7 km/h Distance 19.94 km</desc>
<time>2013-07-07T18:23:17.53</time>
<name>2098</name>
<sym>Dot</sym>
</trkpt>
<trkpt lat="42.863783" lon="-2.319437">
<ele>1142.5</ele>
<desc>Speed 1.1 km/h Distance 19.94 km</desc>
<time>2013-07-07T18:23:18.53</time>
<name>2099</name>
<sym>Dot</sym>
</trkpt>
<trkpt lat="42.863785" lon="-2.319438">
<ele>1142.5</ele>
<desc>Speed 0.0 km/h Distance 19.94 km</desc>
<time>2013-07-07T18:23:19.53</time>
<name>2100</name>
<sym>Dot</sym>
</trkpt>
<trkpt lat="42.863787" lon="-2.319438">
<ele>1142.5</ele>
<desc>Speed 0.2 km/h Distance 19.94 km</desc>
<time>2013-07-07T18:23:20.52</time>
<name>2101</name>
<sym>Dot</sym>
</trkpt>
<trkpt lat="42.863787" lon="-2.319438">
<ele>1142.5</ele>
<desc>Speed 0.3 km/h Distance 19.94 km</desc>
<time>2013-07-07T18:23:21.51</time>
<name>2102</name>
<sym>Dot</sym>
</trkpt>
<trkpt lat="42.863787" lon="-2.319440">
<ele>1143.0</ele>
<desc>Speed 0.3 km/h Distance 19.94 km</desc>
<time>2013-07-07T18:23:22.51</time>
<name>2103</name>
<sym>Dot</sym>
</trkpt>
<trkpt lat="42.863788" lon="-2.319440">
<ele>1143.0</ele>
<desc>Speed 0.1 km/h Distance 19.94 km</desc>
<time>2013-07-07T18:23:23.50</time>
<name>2104</name>
<sym>Dot</sym>
</trkpt>
<trkpt lat="42.863788" lon="-2.319440">
<ele>1143.0</ele>
<desc>Speed 0.2 km/h Distance 19.94 km</desc>
<time>2013-07-07T18:23:24.50</time>
<name>2105</name>
<sym>Dot</sym>
</trkpt>
<trkpt lat="42.863788" lon="-2.319440">
<ele>1143.5</ele>
<desc>Speed 0.1 km/h Distance 19.94 km</desc>
<time>2013-07-07T18:23:25.49</time>
<name>2106</name>
<sym>Dot</sym>
</trkpt>
<trkpt lat="42.863790" lon="-2.319440">
<ele>1143.5</ele>
<desc>Speed 0.7 km/h Distance 19.94 km</desc>
<time>2013-07-07T18:23:26.49</time>
<name>2107</name>
<sym>Dot</sym>
</trkpt>
<trkpt lat="42.863790" lon="-2.319440">
<ele>1143.5</ele>
<desc>Speed 0.6 km/h Distance 19.94 km</desc>
<time>2013-07-07T18:23:27.48</time>
<name>2108</name>
<sym>Dot</sym>
</trkpt>
<trkpt lat="42.863790" lon="-2.319440">
<ele>1143.5</ele>
<desc>Speed 0.2 km/h Distance 19.94 km</desc>
<time>2013-07-07T18:23:28.48</time>
<name>2109</name>
<sym>Dot</sym>
</trkpt>
<trkpt lat="42.863787" lon="-2.319437">
<ele>1143.5</ele>
<desc>Speed 1.4 km/h Distance 19.94 km</desc>
<time>2013-07-07T18:23:29.47</time>
<name>2110</name>
<sym>Dot</sym>
</trkpt>
<trkpt lat="42.863788" lon="-2.319437">
<ele>1143.5</ele>
<desc>Speed 0.0 km/h Distance 19.94 km</desc>
<time>2013-07-07T18:23:30.46</time>
<name>2111</name>
<sym>Dot</sym>
</trkpt>
<trkpt lat="42.863787" lon="-2.319437">
<ele>1143.5</ele>
<desc>Speed 0.2 km/h Distance 19.94 km</desc>
<time>2013-07-07T18:23:31.46</time>
<name>2112</name>
<sym>Dot</sym>
</trkpt>
<trkpt lat="42.863788" lon="-2.319438">
<ele>1143.0</ele>
<desc>Speed 1.2 km/h Distance 19.94 km</desc>
<time>2013-07-07T18:23:32.45</time>
<name>2113</name>
<sym>Dot</sym>
</trkpt>
<trkpt lat="42.863790" lon="-2.319442">
<ele>1143.0</ele>
<desc>Speed 1.2 km/h Distance 19.94 km</desc>
<time>2013-07-07T18:23:33.44</time>
<name>2114</name>
<sym>Dot</sym>
</trkpt>
<trkpt lat="42.863788" lon="-2.319437">
<ele>1143.5</ele>
<desc>Speed 1.2 km/h Distance 19.94 km</desc>
<time>2013-07-07T18:23:34.43</time>
<name>2115</name>
<sym>Dot</sym>
</trkpt>
<trkpt lat="42.863790" lon="-2.319435">
<ele>1143.0</ele>
<desc>Speed 0.8 km/h Distance 19.94 km</desc>
<time>2013-07-07T18:23:35.42</time>
<name>2116</name>
<sym>Dot</sym>
</trkpt>
<trkpt lat="42.863785" lon="-2.319430">
<ele>1143.0</ele>
<desc>Speed 2.4 km/h Distance 19.94 km</desc>
<time>2013-07-07T18:23:36.42</time>
<name>2117</name>
<sym>Dot</sym>
</trkpt>
<trkpt lat="42.863795" lon="-2.319445">
<ele>1143.0</ele>
<desc>Speed 6.7 km/h Distance 19.94 km</desc>
<time>2013-07-07T18:23:37.41</time>
<name>2118</name>
<sym>Dot</sym>
</trkpt>
<trkpt lat="42.863793" lon="-2.319440">
<ele>1143.0</ele>
<desc>Speed 1.1 km/h Distance 19.94 km</desc>
<time>2013-07-07T18:23:38.41</time>
<name>2119</name>
<sym>Dot</sym>
</trkpt>
<trkpt lat="42.863793" lon="-2.319438">
<ele>1142.5</ele>
<desc>Speed 0.3 km/h Distance 19.94 km</desc>
<time>2013-07-07T18:23:39.41</time>
<name>2120</name>
<sym>Dot</sym>
</trkpt>
<trkpt lat="42.863793" lon="-2.319438">
<ele>1142.5</ele>
<desc>Speed 0.3 km/h Distance 19.94 km</desc>
<time>2013-07-07T18:23:40.40</time>
<name>2121</name>
<sym>Dot</sym>
</trkpt>
<trkpt lat="42.863793" lon="-2.319437">
<ele>1142.5</ele>
<desc>Speed 0.3 km/h Distance 19.94 km</desc>
<time>2013-07-07T18:23:41.42</time>
<name>2122</name>
<sym>Dot</sym>
</trkpt>
<trkpt lat="42.863793" lon="-2.319437">
<ele>1142.5</ele>
<desc>Speed 0.4 km/h Distance 19.94 km</desc>
<time>2013-07-07T18:23:42.39</time>
<name>2123</name>
<sym>Dot</sym>
</trkpt>
<trkpt lat="42.863793" lon="-2.319437">
<ele>1142.5</ele>
<desc>Speed 0.4 km/h Distance 19.94 km</desc>
<time>2013-07-07T18:23:43.38</time>
<name>2124</name>
<sym>Dot</sym>
</trkpt>
<trkpt lat="42.863793" lon="-2.319437">
<ele>1142.5</ele>
<desc>Speed 0.1 km/h Distance 19.94 km</desc>
<time>2013-07-07T18:23:44.39</time>
<name>2125</name>
<sym>Dot</sym>
</trkpt>
<trkpt lat="42.863793" lon="-2.319435">
<ele>1142.5</ele>
<desc>Speed 0.0 km/h Distance 19.94 km</desc>
<time>2013-07-07T18:23:45.52</time>
<name>2126</name>
<sym>Dot</sym>
</trkpt>
<trkpt lat="42.863793" lon="-2.319435">
<ele>1142.5</ele>
<desc>Speed 0.6 km/h Distance 19.94 km</desc>
<time>2013-07-07T18:23:46.36</time>
<name>2127</name>
<sym>Dot</sym>
</trkpt>
<trkpt lat="42.863793" lon="-2.319435">
<ele>1142.5</ele>
<desc>Speed 0.2 km/h Distance 19.94 km</desc>
<time>2013-07-07T18:23:47.35</time>
<name>2128</name>
<sym>Crossing</sym>
</trkpt>
</trkseg>
</trk>
</gpx>
